# Wetter Temperatur Luftdruck Luftfeuchtigkeit Sichtweite Windgeschwindigkeit Windrichtung Zeit
1 Clouds 11 1028 57 10000 5.14 70 12:37 22.04.2021
2 Clouds 11 1028 57 10000 5.14 70 12:18 22.04.2021
3 Clouds 10 1028 61 10000 5.14 70 11:42 22.04.2021
4 Clouds 9 1028 66 10000 5.66 70 11:19 22.04.2021
5 Clouds 8 1028 70 10000 6.17 70 10:41 22.04.2021
6 Clouds 8 1028 70 10000 6.17 70 10:20 22.04.2021
7 Clouds 7 1028 70 10000 2.57 70 09:37 22.04.2021
8 Clouds 5 1027 75 10000 2.06 50 08:55 22.04.2021
9 Clouds 4 1027 81 10000 3.09 40 08:36 22.04.2021
10 Clouds 3 1027 81 10000 3.09 40 08:18 22.04.2021
11 Clouds 2 1027 81 10000 3.09 40 07:36 22.04.2021
12 Clouds 2 1027 81 10000 1.54 0 07:18 22.04.2021
13 Clouds 3 1027 81 10000 2.57 40 06:21 22.04.2021
14 Clouds 3 1026 81 10000 2.57 0 05:24 22.04.2021
15 Clouds 4 1026 70 10000 3.09 50 02:29 22.04.2021
16 Clouds 6 1025 70 10000 3.6 60 00:41 22.04.2021
17 Clouds 6 1025 70 10000 5.14 70 23:42 21.04.2021
18 Clouds 6 1025 76 10000 5.14 70 23:22 21.04.2021
19 Clouds 7 1025 70 10000 5.66 80 22:41 21.04.2021
20 Clouds 7 1024 66 10000 6.17 90 22:23 21.04.2021
21 Clouds 8 1024 61 10000 6.17 90 21:42 21.04.2021
22 Clouds 8 1024 66 10000 5.66 90 21:23 21.04.2021
23 Clouds 9 1023 66 10000 6.17 110 20:40 21.04.2021
24 Clouds 10 1023 57 10000 6.69 110 20:18 21.04.2021
25 Clouds 11 1023 62 10000 7.2 110 19:41 21.04.2021
26 Clouds 12 1023 62 10000 7.2 110 19:23 21.04.2021
27 Clouds 12 1022 54 10000 7.2 100 18:45 21.04.2021
28 Clouds 13 1022 54 10000 6.69 110 18:24 21.04.2021
29 Clouds 13 1022 54 10000 6.69 110 17:46 21.04.2021
30 Clouds 13 1022 50 10000 7.2 100 17:24 21.04.2021
31 Clouds 13 1022 50 10000 6.17 110 16:42 21.04.2021
32 Clouds 13 1022 62 10000 4.12 110 15:56 21.04.2021
33 Clouds 13 1022 62 10000 4.12 110 15:37 21.04.2021
34 Clouds 12 1023 66 10000 5.14 90 14:48 21.04.2021
35 Clouds 12 1022 71 10000 6.17 80 14:30 21.04.2021
36 Clouds 13 1022 71 10000 5.66 90 13:52 21.04.2021
37 Clouds 13 1022 66 10000 6.17 90 13:24 21.04.2021
38 Clouds 13 1022 71 10000 5.66 70 12:58 21.04.2021
39 Clouds 13 1022 71 10000 5.14 50 12:29 21.04.2021
40 Clouds 12 1022 71 10000 5.14 50 12:29 21.04.2021
41 Clouds 13 1021 62 10000 5.14 60 11:49 21.04.2021
42 Clouds 13 1021 62 10000 4.12 60 11:29 21.04.2021
43 Clouds 12 1021 71 10000 3.6 60 10:49 21.04.2021
44 Haze 11 1020 76 5000 1.54 0 10:20 21.04.2021
45 Haze 9 1020 87 5000 2.06 60 09:42 21.04.2021
46 Fog 7 1020 100 400 0.51 0 08:56 21.04.2021
47 Fog 7 1020 100 400 0.51 0 08:38 21.04.2021
48 Fog 6 1020 100 100 1.03 0 08:19 21.04.2021
49 Fog 6 1019 93 100 1.54 80 07:31 21.04.2021
50 Fog 5 1019 93 250 1.54 80 06:42 21.04.2021
51 Haze 7 1019 93 2000 1.54 80 04:54 21.04.2021
52 Haze 8 1018 87 3000 1.54 110 00:58 21.04.2021
53 Haze 9 1018 81 3700 1.54 80 23:50 20.04.2021
54 Haze 10 1018 81 4100 2.06 80 23:24 20.04.2021
55 Haze 10 1018 81 4500 3.09 90 22:41 20.04.2021
56 Haze 11 1018 76 5000 3.6 90 22:19 20.04.2021
57 Clouds 12 1018 76 6000 3.6 90 21:47 20.04.2021
58 Clouds 12 1018 76 6000 3.6 90 21:47 20.04.2021
59 Clouds 12 1018 66 7000 3.6 90 21:25 20.04.2021
60 Clouds 13 1017 62 9000 4.63 90 20:43 20.04.2021
61 Clouds 14 1017 58 9000 4.63 90 20:23 20.04.2021
62 Clouds 14 1017 58 9000 4.63 100 19:55 20.04.2021
63 Clouds 14 1017 58 9000 4.63 100 19:37 20.04.2021
64 Clouds 15 1017 62 10000 3.6 90 19:18 20.04.2021
65 Clouds 15 1017 62 10000 4.63 80 18:35 20.04.2021
66 Clouds 15 1017 62 10000 4.63 80 18:35 20.04.2021
67 Clouds 16 1017 55 10000 5.66 80 17:46 20.04.2021
68 Clouds 16 1017 48 10000 2.06 110 17:27 20.04.2021
69 Clouds 16 1017 48 10000 3.6 100 16:48 20.04.2021
70 Clouds 17 1018 55 10000 3.6 90 15:53 20.04.2021
71 Clouds 16 1018 55 10000 3.09 110 15:29 20.04.2021
72 Clouds 17 1018 51 10000 3.09 120 14:58 20.04.2021
73 Clouds 16 1018 51 10000 4.12 110 14:33 20.04.2021
74 Clouds 16 1018 55 10000 3.6 90 13:48 20.04.2021
75 Clouds 16 1018 58 10000 3.6 90 13:22 20.04.2021
76 Clouds 15 1019 58 10000 3.09 90 12:41 20.04.2021
77 Clouds 14 1019 66 10000 3.09 90 12:20 20.04.2021
78 Clouds 14 1019 62 9000 3.09 90 11:44 20.04.2021
79 Clouds 13 1019 66 8000 1.54 0 11:21 20.04.2021
80 Haze 12 1019 81 3800 2.06 90 10:44 20.04.2021
81 Haze 10 1019 87 2100 2.57 90 10:23 20.04.2021
82 Haze 9 1019 81 3400 2.06 100 09:36 20.04.2021
83 Haze 7 1019 87 4300 1.54 60 08:56 20.04.2021
84 Haze 6 1019 87 5000 2.06 60 08:22 20.04.2021
85 Haze 7 1018 87 5000 1.54 70 07:49 20.04.2021
86 Haze 4 1018 87 5000 1.54 0 06:47 20.04.2021
87 Clouds 5 1019 87 7000 1.54 70 05:40 20.04.2021
88 Clouds 5 1019 81 9000 1.54 60 04:42 20.04.2021
89 Clouds 7 1019 81 10000 2.57 80 01:57 20.04.2021
90 Clouds 8 1019 76 10000 3.09 90 00:38 20.04.2021
91 Clouds 9 1019 71 10000 2.57 90 23:38 19.04.2021
92 Clouds 10 1020 58 10000 2.57 120 22:58 19.04.2021
93 Clouds 11 1020 58 10000 2.57 120 22:36 19.04.2021
94 Clouds 12 1019 54 10000 2.57 120 21:52 19.04.2021
95 Clouds 12 1019 54 10000 2.57 120 21:34 19.04.2021
96 Clouds 13 1019 54 10000 5.14 100 20:56 19.04.2021
97 Clouds 13 1019 54 10000 5.14 100 20:38 19.04.2021
98 Clouds 14 1019 51 10000 5.66 110 20:19 19.04.2021
99 Clouds 15 1019 47 10000 4.63 100 19:42 19.04.2021
100 Clouds 15 1019 44 10000 3.6 90 19:24 19.04.2021
101 Clouds 15 1019 47 10000 4.12 90 18:47 19.04.2021
102 Clear 17 1019 47 10000 4.63 80 18:23 19.04.2021
103 Clear 16 1020 44 10000 3.6 80 17:54 19.04.2021
104 Clear 17 1020 47 10000 3.6 90 17:29 19.04.2021
105 Clear 16 1020 44 10000 4.12 90 16:57 19.04.2021
106 Clear 17 1020 44 10000 4.12 90 16:38 19.04.2021
107 Clear 16 1021 51 10000 3.6 90 16:20 19.04.2021
108 Clear 16 1021 47 10000 3.09 80 15:40 19.04.2021
109 Clear 15 1021 47 10000 2.57 80 15:20 19.04.2021
110 Clear 15 1021 35 10000 2.06 80 14:37 19.04.2021
111 Clear 14 1022 41 10000 2.06 110 14:19 19.04.2021
112 Clear 14 1022 54 10000 3.09 100 13:36 19.04.2021
113 Clear 14 1022 54 10000 3.09 110 13:18 19.04.2021
114 Clear 13 1023 62 10000 3.09 100 12:42 19.04.2021
115 Clear 12 1023 71 10000 3.09 90 12:22 19.04.2021
116 Clear 12 1023 76 8000 1.54 0 11:53 19.04.2021
117 Clouds 11 1023 81 6000 1.54 0 11:21 19.04.2021
118 Haze 10 1023 81 4100 1.54 0 10:45 19.04.2021
119 Haze 8 1023 93 4400 1.54 0 10:21 19.04.2021
120 Mist 8 1023 93 3600 2.06 80 09:49 19.04.2021
121 Mist 5 1023 93 2700 2.06 110 09:27 19.04.2021
122 Clear 4 1023 92 10000 0.45 145 08:55 19.04.2021
123 Haze 4 1023 93 1400 2.57 90 08:25 19.04.2021
124 Clear 4 1023 87 10000 2.06 90 07:48 19.04.2021
125 Clear 4 1023 87 10000 2.06 70 07:19 19.04.2021
126 Clear 4 1023 81 10000 1.54 90 05:44 19.04.2021
127 Clear 5 1024 70 10000 1.54 100 02:34 19.04.2021
128 Clouds 7 1025 70 10000 2.57 90 00:45 19.04.2021
129 Clouds 8 1024 72 10000 0.45 88 23:49 18.04.2021
130 Clouds 8 1025 61 10000 3.6 80 23:18 18.04.2021
131 Clouds 9 1024 66 10000 5.14 100 22:46 18.04.2021
132 Clouds 9 1024 61 10000 4.63 90 22:24 18.04.2021
133 Clouds 11 1024 44 10000 3.6 70 21:29 18.04.2021
134 Clouds 12 1023 35 10000 2.57 100 20:57 18.04.2021
135 Clouds 12 1023 35 10000 2.57 100 20:38 18.04.2021
136 Clouds 12 1023 35 10000 2.57 100 20:38 18.04.2021
137 Clouds 14 1023 30 10000 2.06 50 20:20 18.04.2021
138 Clouds 13 1023 28 10000 2.06 0 19:45 18.04.2021
139 Clouds 15 1023 28 10000 2.06 60 19:25 18.04.2021
140 Clouds 14 1023 30 10000 2.57 0 18:54 18.04.2021
141 Clouds 15 1023 28 10000 2.57 50 18:30 18.04.2021
142 Clouds 15 1023 28 10000 3.09 70 17:50 18.04.2021
143 Clouds 15 1024 30 10000 2.57 80 17:31 18.04.2021
144 Clouds 15 1024 28 10000 2.06 100 16:54 18.04.2021
145 Clouds 15 1024 28 10000 2.06 100 16:36 18.04.2021
146 Clouds 15 1024 30 10000 3.09 0 15:57 18.04.2021
147 Clouds 14 1024 30 10000 3.09 0 15:38 18.04.2021
148 Clouds 14 1024 30 10000 2.57 130 15:18 18.04.2021
149 Clouds 13 1025 33 10000 1.54 0 14:41 18.04.2021
150 Clouds 13 1025 33 10000 1.54 0 14:18 18.04.2021
151 Clouds 13 1025 37 10000 2.06 70 13:45 18.04.2021
152 Clouds 12 1025 35 10000 2.57 0 13:27 18.04.2021
153 Clouds 12 1026 37 10000 2.57 0 12:38 18.04.2021
154 Clouds 11 1026 37 10000 1.54 0 11:58 18.04.2021
155 Clouds 11 1026 37 10000 1.54 0 11:39 18.04.2021
156 Clouds 10 1026 46 10000 1.54 0 11:20 18.04.2021
157 Clouds 9 1026 46 10000 1.03 0 10:41 18.04.2021
158 Clouds 8 1026 53 10000 1.7 29 10:18 18.04.2021
159 Clouds 7 1026 65 10000 1.03 0 09:39 18.04.2021
160 Clouds 6 1026 65 10000 1.64 21 09:20 18.04.2021
161 Clouds 5 1026 70 10000 1.03 0 08:46 18.04.2021
162 Clouds 4 1026 75 10000 1.54 0 08:26 18.04.2021
163 Clouds 3 1026 75 10000 1.54 340 07:40 18.04.2021
164 Clouds 2 1026 75 10000 0.51 0 06:54 18.04.2021
165 Clouds 3 1026 70 10000 0.51 0 05:26 18.04.2021
166 Clouds 3 1026 70 10000 0.88 34 04:44 18.04.2021
167 Clouds 5 1027 61 10000 1.54 220 02:23 18.04.2021
168 Clouds 5 1028 57 10000 1.03 0 00:58 18.04.2021
169 Clouds 6 1028 61 10000 2.57 90 23:57 17.04.2021
170 Clouds 7 1028 57 10000 3.6 110 23:24 17.04.2021
171 Clouds 7 1028 53 10000 4.63 110 22:44 17.04.2021
172 Clouds 8 1028 57 10000 4.12 100 22:22 17.04.2021
173 Clouds 8 1027 46 10000 4.63 90 21:44 17.04.2021
174 Clouds 8 1027 42 10000 4.63 100 21:22 17.04.2021
175 Clouds 9 1027 43 10000 5.14 100 20:40 17.04.2021
176 Clouds 10 1027 40 10000 4.63 110 20:20 17.04.2021
177 Clouds 10 1027 43 10000 5.14 100 19:39 17.04.2021
178 Clouds 11 1027 43 10000 6.17 100 19:19 17.04.2021
179 Clouds 12 1027 40 10000 4.63 110 18:49 17.04.2021
180 Clouds 13 1027 40 10000 4.63 90 18:21 17.04.2021
181 Clouds 13 1027 40 10000 4.12 120 17:42 17.04.2021
182 Clouds 13 1028 40 10000 3.6 80 16:58 17.04.2021
183 Clouds 13 1028 40 10000 3.6 80 16:39 17.04.2021
184 Clouds 13 1028 37 10000 2.57 0 16:19 17.04.2021
185 Clouds 13 1029 37 10000 3.6 80 15:22 17.04.2021
186 Clouds 12 1029 40 10000 2.57 0 14:43 17.04.2021
187 Clear 12 1029 37 10000 3.09 70 14:19 17.04.2021
188 Clear 11 1029 34 10000 2.57 20 13:42 17.04.2021
189 Clear 11 1030 37 10000 4.63 50 12:48 17.04.2021
190 Clear 10 1030 40 10000 4.63 60 12:23 17.04.2021
191 Clear 10 1030 42 10000 4.12 50 11:51 17.04.2021
192 Clear 10 1030 42 10000 4.12 50 11:32 17.04.2021
193 Clear 10 1030 42 10000 4.12 50 11:32 17.04.2021
194 Clear 8 1031 53 10000 3.6 60 10:51 17.04.2021
195 Clear 8 1031 53 10000 3.6 60 10:33 17.04.2021
196 Clear 5 1031 70 10000 1.03 0 09:46 17.04.2021
197 Clear 4 1031 75 10000 1.54 0 08:54 17.04.2021
198 Clear 3 1031 75 10000 1.54 300 08:28 17.04.2021
199 Clear 2 1031 80 10000 1.54 0 07:45 17.04.2021
200 Clear 1 1030 75 10000 1.54 340 05:42 17.04.2021
201 Clear 2 1031 65 10000 1.54 10 03:43 17.04.2021
202 Clouds 4 1031 70 10000 2.06 70 00:56 17.04.2021
203 Clouds 4 1031 70 10000 2.57 100 00:30 17.04.2021
204 Clouds 4 1031 70 10000 2.57 100 23:58 16.04.2021
205 Clouds 5 1031 70 10000 2.57 100 23:33 16.04.2021
206 Clouds 6 1031 61 10000 3.09 110 22:51 16.04.2021
207 Clouds 6 1031 56 10000 3.09 110 22:23 16.04.2021
208 Clouds 7 1031 53 10000 3.6 110 21:56 16.04.2021
209 Clouds 7 1031 53 10000 3.6 110 21:38 16.04.2021
210 Clouds 8 1030 46 10000 4.63 100 20:55 16.04.2021
211 Clouds 8 1030 46 10000 4.63 100 20:36 16.04.2021
212 Clouds 10 1030 40 10000 5.14 110 19:58 16.04.2021
213 Clouds 10 1030 40 10000 5.14 110 19:40 16.04.2021
214 Clouds 11 1030 46 10000 4.12 80 18:49 16.04.2021
215 Clouds 11 1030 46 10000 4.63 100 18:23 16.04.2021
216 Clouds 11 1030 43 10000 4.12 100 17:47 16.04.2021
217 Clouds 12 1030 46 10000 5.14 90 17:19 16.04.2021
218 Clouds 12 1030 37 10000 3.09 60 16:44 16.04.2021
219 Clouds 11 1031 40 10000 3.09 50 16:26 16.04.2021
220 Clouds 11 1031 40 10000 3.09 350 15:54 16.04.2021
221 Clouds 11 1031 40 10000 2.57 70 15:29 16.04.2021
222 Clouds 11 1031 40 10000 3.6 50 14:43 16.04.2021
223 Clouds 11 1031 43 10000 2.57 20 14:20 16.04.2021
224 Clouds 11 1032 46 10000 2.57 50 13:54 16.04.2021
225 Clouds 10 1032 43 10000 2.06 60 13:22 16.04.2021
226 Clouds 10 1032 46 10000 2.57 10 12:53 16.04.2021
227 Clouds 10 1032 46 10000 2.57 10 12:33 16.04.2021
228 Clear 9 1032 55 10000 2.71 47 11:58 16.04.2021
229 Clouds 8 1032 61 10000 2.57 50 11:38 16.04.2021
230 Clouds 8 1032 65 10000 2.06 40 11:19 16.04.2021
231 Clouds 7 1032 75 10000 3.09 60 10:40 16.04.2021
232 Clear 6 1032 75 10000 2.06 40 10:20 16.04.2021
233 Clear 5 1032 81 10000 1.54 0 09:44 16.04.2021
234 Clouds 3 1032 87 10000 1.54 0 09:21 16.04.2021
235 Clouds 3 1032 87 10000 1.03 0 08:42 16.04.2021
236 Clouds 2 1032 93 10000 1.03 0 08:18 16.04.2021
237 Clouds 1 1032 93 10000 1.03 340 07:41 16.04.2021
238 Clouds 1 1032 93 10000 0.51 0 06:59 16.04.2021
239 Clouds 1 1032 87 10000 1.03 0 06:28 16.04.2021
240 Clouds 1 1032 87 10000 0.51 0 05:31 16.04.2021
241 Clouds 3 1032 81 10000 2.06 60 01:40 16.04.2021
242 Clouds 3 1032 81 10000 2.06 60 00:44 16.04.2021
243 Clouds 3 1032 83 10000 1.97 43 00:20 16.04.2021
244 Clouds 4 1032 75 10000 1.54 0 23:51 15.04.2021
245 Clouds 5 1033 75 10000 2.57 50 23:27 15.04.2021
246 Clouds 5 1033 75 10000 2.57 50 22:47 15.04.2021
247 Clouds 6 1033 65 10000 2.57 50 22:23 15.04.2021
248 Clouds 6 1033 65 10000 2.57 50 22:23 15.04.2021
249 Clouds 7 1032 65 10000 2.57 0 21:43 15.04.2021
250 Clouds 7 1032 61 10000 4.12 70 21:24 15.04.2021
251 Clouds 7 1032 65 10000 3.6 80 20:48 15.04.2021
252 Clouds 8 1032 61 10000 4.12 80 20:25 15.04.2021
253 Clouds 8 1032 61 10000 4.63 90 19:47 15.04.2021
254 Clouds 8 1032 66 10000 3.6 90 19:28 15.04.2021
255 Clouds 8 1032 66 10000 3.6 100 18:59 15.04.2021
256 Clouds 8 1032 66 10000 3.6 100 18:37 15.04.2021
257 Clouds 8 1032 66 10000 4.63 100 18:18 15.04.2021
258 Clouds 8 1032 66 10000 4.63 100 17:51 15.04.2021
259 Clouds 8 1032 66 10000 5.66 110 17:29 15.04.2021
260 Clouds 9 1032 61 10000 6.17 100 16:44 15.04.2021
261 Clouds 9 1032 50 10000 3.6 30 16:24 15.04.2021
262 Clouds 9 1033 53 10000 5.66 70 15:47 15.04.2021
263 Rain 9 1033 53 10000 5.14 50 15:27 15.04.2021
264 Clouds 9 1033 53 10000 5.14 50 14:44 15.04.2021
265 Clouds 9 1033 49 10000 4.12 50 14:25 15.04.2021
266 Clouds 10 1034 53 10000 3.09 30 13:49 15.04.2021
267 Clouds 10 1034 53 10000 4.63 60 13:25 15.04.2021
268 Clouds 9 1034 53 10000 4.12 20 12:50 15.04.2021
269 Clouds 9 1034 53 10000 5.14 70 12:27 15.04.2021
270 Clouds 8 1034 57 10000 3.6 40 11:48 15.04.2021
271 Clouds 8 1034 57 10000 3.09 0 11:29 15.04.2021
272 Clouds 8 1034 65 10000 5.14 50 10:58 15.04.2021
273 Clouds 7 1034 65 10000 5.14 50 10:40 15.04.2021
274 Clouds 7 1034 65 10000 5.14 50 10:40 15.04.2021
275 Clouds 7 1034 65 10000 2.57 50 10:22 15.04.2021
276 Clouds 4 1034 75 10000 1.54 0 09:31 15.04.2021
277 Clouds 3 1034 75 10000 1.03 0 08:53 15.04.2021
278 Clouds 3 1034 75 10000 1.03 0 08:34 15.04.2021
279 Clouds 1 1034 80 10000 1.54 0 07:37 15.04.2021
280 Clouds 1 1034 75 10000 1.54 0 07:18 15.04.2021
281 Clouds 1 1034 81 10000 1.03 0 06:36 15.04.2021
282 Clear 2 1034 81 10000 1.54 0 04:57 15.04.2021
283 Clear 3 1034 75 10000 1.54 0 03:59 15.04.2021
284 Clouds 5 1034 65 10000 3.6 90 00:22 15.04.2021
285 Clouds 6 1034 65 10000 3.6 100 23:36 14.04.2021
286 Clouds 6 1034 65 10000 4.12 90 22:58 14.04.2021
287 Clouds 6 1034 65 10000 4.12 90 22:39 14.04.2021
288 Clouds 6 1033 65 10000 5.14 100 22:20 14.04.2021
289 Clouds 7 1033 61 10000 5.66 100 21:41 14.04.2021
290 Clouds 7 1033 57 10000 5.14 100 21:22 14.04.2021
291 Clouds 7 1032 57 10000 6.17 100 20:48 14.04.2021
292 Clouds 9 1032 57 10000 4.63 90 20:29 14.04.2021
293 Clouds 9 1032 53 10000 4.12 100 19:48 14.04.2021
294 Clouds 10 1032 53 10000 4.12 90 19:19 14.04.2021
295 Clouds 10 1032 53 10000 4.12 90 19:19 14.04.2021
296 Clouds 10 1032 53 10000 3.6 90 18:55 14.04.2021
297 Clouds 10 1032 53 10000 4.12 100 18:21 14.04.2021
298 Clouds 10 1033 53 10000 6.69 100 17:57 14.04.2021
299 Clouds 10 1033 53 10000 5.14 80 17:24 14.04.2021
300 Clouds 10 1033 40 10000 3.6 0 16:53 14.04.2021
301 Clouds 11 1033 50 10000 6.17 90 16:25 14.04.2021
302 Clouds 11 1033 37 10000 4.63 50 15:42 14.04.2021
303 Clouds 11 1033 40 10000 3.6 50 15:22 14.04.2021
304 Clouds 11 1033 37 10000 3.6 0 14:48 14.04.2021
305 Clouds 12 1033 40 10000 3.09 40 14:24 14.04.2021
306 Clouds 11 1033 37 10000 3.6 70 13:54 14.04.2021
307 Clouds 11 1033 40 10000 3.09 50 13:23 14.04.2021
308 Clouds 10 1033 43 10000 4.12 70 12:38 14.04.2021
309 Clouds 9 1033 49 10000 4.12 100 11:43 14.04.2021
310 Clouds 9 1033 57 10000 3.6 90 11:25 14.04.2021
311 Clouds 8 1033 61 10000 3.6 90 10:50 14.04.2021
312 Clouds 7 1033 61 10000 4.12 90 10:31 14.04.2021
313 Clouds 7 1033 57 10000 3.6 80 09:42 14.04.2021
314 Clouds 6 1033 70 10000 1.54 70 09:21 14.04.2021
315 Clouds 5 1033 65 10000 1.54 0 08:45 14.04.2021
316 Clouds 4 1033 65 10000 0.51 0 08:21 14.04.2021
317 Clouds 4 1032 65 10000 1.03 0 07:25 14.04.2021
318 Clouds 4 1032 70 10000 1.54 100 06:26 14.04.2021
319 Clouds 4 1032 65 10000 1.03 0 04:53 14.04.2021
320 Clouds 4 1032 76 10000 0.43 296 01:54 14.04.2021
321 Clouds 5 1033 56 10000 2.06 120 00:47 14.04.2021
322 Clouds 6 1033 61 10000 3.09 80 23:59 13.04.2021
323 Clouds 6 1033 71 10000 1.54 0 23:30 13.04.2021
324 Clouds 6 1033 71 10000 1.03 90 22:44 13.04.2021
325 Clouds 6 1032 78 10000 0.94 191 22:19 13.04.2021
326 Clouds 7 1032 66 10000 1.54 230 21:47 13.04.2021
327 Clouds 8 1032 61 10000 2.06 240 21:29 13.04.2021
328 Clouds 9 1032 61 10000 2.57 240 20:43 13.04.2021
329 Clouds 9 1032 57 10000 3.09 240 20:24 13.04.2021
330 Clouds 10 1032 57 10000 4.12 230 19:56 13.04.2021
331 Clouds 10 1031 57 10000 5.14 230 19:25 13.04.2021
332 Clouds 10 1031 57 10000 5.14 230 19:25 13.04.2021
333 Clouds 10 1031 57 10000 4.12 230 18:46 13.04.2021
334 Clouds 10 1031 53 10000 4.12 210 18:28 13.04.2021
335 Clouds 10 1032 53 10000 4.12 220 17:40 13.04.2021
336 Clouds 10 1032 37 10000 3.09 230 17:18 13.04.2021
337 Clouds 11 1032 37 10000 3.6 280 16:45 13.04.2021
338 Clouds 11 1032 37 10000 2.57 250 16:25 13.04.2021
339 Clouds 12 1032 37 10000 3.6 250 15:55 13.04.2021
340 Clouds 11 1032 37 10000 3.6 250 15:36 13.04.2021
341 Clouds 11 1033 37 10000 2.57 270 14:50 13.04.2021
342 Clouds 12 1033 35 10000 3.09 260 14:22 13.04.2021
343 Clouds 11 1033 37 10000 3.09 240 13:53 13.04.2021
344 Clouds 12 1033 37 10000 3.09 240 13:27 13.04.2021
345 Clouds 11 1033 40 10000 4.12 280 12:58 13.04.2021
346 Clouds 11 1033 40 10000 4.12 280 12:37 13.04.2021
347 Clouds 10 1034 37 10000 2.57 250 12:18 13.04.2021
348 Clouds 10 1034 37 10000 2.57 260 11:34 13.04.2021
349 Clouds 9 1034 46 10000 1.54 0 10:56 13.04.2021
350 Clouds 9 1034 46 10000 1.54 0 10:56 13.04.2021
351 Clouds 8 1034 46 10000 1.54 0 10:37 13.04.2021
352 Clouds 7 1034 56 10000 1.54 230 10:18 13.04.2021
353 Clouds 5 1033 56 10000 1.03 0 09:40 13.04.2021
354 Clear 4 1033 60 10000 1.54 220 09:18 13.04.2021
355 Clear 4 1033 60 10000 1.54 220 09:18 13.04.2021
356 Clear 3 1033 65 10000 1.03 0 08:42 13.04.2021
357 Clear 1 1033 64 10000 1.54 210 08:21 13.04.2021
358 Clear 1 1033 64 10000 1.54 210 08:21 13.04.2021
359 Clear 1 1033 64 10000 2.06 230 07:36 13.04.2021
360 Clear 1 1033 64 10000 2.06 230 06:59 13.04.2021
361 Clear 1 1033 64 10000 1.54 220 05:53 13.04.2021
362 Clear 2 1033 56 10000 1.54 0 02:52 13.04.2021
363 Clear 3 1032 48 10000 1.54 220 01:28 13.04.2021
364 Clear 3 1032 49 10000 0.51 100 23:49 12.04.2021
365 Clear 4 1032 42 10000 1.54 60 23:29 12.04.2021
366 Clear 4 1031 54 10000 1.04 62 22:43 12.04.2021
367 Clear 5 1031 42 10000 1.03 0 22:25 12.04.2021
368 Clear 5 1031 48 10000 1.29 38 21:47 12.04.2021
369 Clear 6 1030 44 10000 1.57 28 21:24 12.04.2021
370 Clear 8 1030 31 10000 2.06 60 20:45 12.04.2021
371 Clouds 8 1030 31 10000 2.06 360 20:26 12.04.2021
372 Clouds 9 1030 31 10000 2.06 30 19:58 12.04.2021
373 Clouds 9 1030 34 10000 2.57 0 19:39 12.04.2021
374 Clouds 9 1030 34 10000 2.57 0 19:20 12.04.2021
375 Clouds 9 1030 34 10000 2.06 360 18:47 12.04.2021
376 Clouds 10 1029 32 10000 2.57 300 18:29 12.04.2021
377 Clouds 9 1029 37 10000 2.57 20 17:46 12.04.2021
378 Clouds 9 1029 46 10000 2.57 60 17:25 12.04.2021
379 Clouds 9 1029 40 10000 3.09 50 16:49 12.04.2021
380 Clouds 9 1029 37 10000 1.54 0 16:29 12.04.2021
381 Clouds 9 1029 42 10000 4.12 270 15:56 12.04.2021
382 Clouds 8 1029 49 10000 3.6 240 15:33 12.04.2021
383 Clouds 8 1029 53 10000 1.54 0 14:55 12.04.2021
384 Clouds 7 1029 53 10000 1.54 0 14:37 12.04.2021
385 Clouds 7 1029 61 10000 1.03 0 13:59 12.04.2021
386 Clouds 6 1029 61 10000 1.03 0 13:39 12.04.2021
387 Clouds 6 1029 61 10000 2.57 0 13:18 12.04.2021
388 Clouds 6 1029 70 10000 2.06 300 12:38 12.04.2021
389 Clouds 5 1029 75 10000 2.57 240 12:20 12.04.2021
390 Clouds 3 1028 87 10000 2.57 220 11:27 12.04.2021
391 Clouds 3 1028 81 10000 2.57 240 10:51 12.04.2021
392 Clouds 3 1028 81 10000 2.57 230 10:28 12.04.2021
393 Rain 2 1028 81 10000 4.12 250 09:52 12.04.2021
394 Rain 2 1028 75 10000 3.6 240 09:23 12.04.2021
395 Snow 2 1027 80 10000 4.12 240 08:51 12.04.2021
396 Snow 1 1027 86 10000 2.57 220 07:55 12.04.2021
397 Clouds 1 1027 86 10000 3.6 230 07:30 12.04.2021
398 Clouds 0 1026 86 10000 2.57 220 06:39 12.04.2021
399 Clouds 0 1026 80 10000 3.6 230 05:47 12.04.2021
400 Clouds 1 1026 81 10000 3.09 240 03:19 12.04.2021
401 Clouds 2 1025 83 10000 0.95 327 00:29 12.04.2021
402 Clouds 2 1025 82 10000 0.95 327 23:56 11.04.2021
403 Clouds 2 1025 82 10000 0.95 327 23:38 11.04.2021
404 Clouds 3 1024 75 10000 0.89 317 23:19 11.04.2021
405 Clouds 3 1024 75 10000 0.45 326 22:38 11.04.2021
406 Clouds 3 1024 65 10000 1.54 0 22:19 11.04.2021
407 Clouds 4 1024 65 10000 2.06 340 21:42 11.04.2021
408 Clouds 4 1023 70 10000 2.06 360 21:24 11.04.2021
409 Clouds 5 1023 70 10000 3.09 360 20:42 11.04.2021
410 Clouds 5 1023 70 10000 4.63 360 20:23 11.04.2021
411 Clouds 6 1022 65 10000 5.66 350 19:43 11.04.2021
412 Clouds 6 1021 61 10000 6.17 340 19:21 11.04.2021
413 Clouds 7 1021 39 10000 4.12 290 18:58 11.04.2021
414 Clouds 7 1021 39 10000 4.12 290 18:40 11.04.2021
415 Clouds 9 1020 39 10000 4.12 290 18:20 11.04.2021
416 Clouds 8 1020 39 10000 4.12 330 17:41 11.04.2021
417 Clouds 8 1020 39 10000 4.12 300 17:22 11.04.2021
418 Clouds 9 1020 36 10000 5.14 300 16:42 11.04.2021
419 Clouds 9 1020 39 10000 4.63 360 16:22 11.04.2021
420 Clouds 9 1020 36 10000 4.63 340 15:46 11.04.2021
421 Clouds 9 1020 42 10000 4.12 320 15:26 11.04.2021
422 Clouds 9 1020 42 10000 4.12 320 15:26 11.04.2021
423 Clouds 9 1019 42 10000 3.6 0 14:52 11.04.2021
424 Clouds 9 1019 42 10000 4.12 320 14:27 11.04.2021
425 Clouds 9 1019 45 10000 5.66 300 13:47 11.04.2021
426 Clouds 8 1019 45 10000 3.6 10 13:28 11.04.2021
427 Clouds 8 1019 49 10000 4.12 360 12:48 11.04.2021
428 Clouds 7 1019 49 10000 4.63 350 12:21 11.04.2021
429 Clouds 7 1018 52 10000 3.09 0 11:49 11.04.2021
430 Clouds 6 1018 65 10000 4.12 360 11:22 11.04.2021
431 Clouds 6 1018 65 10000 4.12 340 10:47 11.04.2021
432 Clouds 5 1018 70 10000 3.6 340 10:27 11.04.2021
433 Clouds 4 1018 75 10000 3.6 350 09:56 11.04.2021
434 Clouds 3 1018 75 10000 3.6 350 09:32 11.04.2021
435 Clouds 2 1017 80 10000 3.09 340 08:42 11.04.2021
436 Clouds 1 1017 75 10000 2.06 340 08:21 11.04.2021
437 Clouds 1 1016 80 10000 1.54 340 07:21 11.04.2021
438 Clouds 1 1016 75 10000 2.06 350 06:50 11.04.2021
439 Clouds 2 1015 75 10000 1.54 0 05:41 11.04.2021
440 Clouds 1 1015 75 10000 2.06 340 05:19 11.04.2021
441 Clouds 2 1015 70 10000 1.54 0 04:34 11.04.2021
442 Clouds 4 1015 65 10000 3.09 360 01:49 11.04.2021
443 Clouds 4 1015 60 10000 3.09 10 00:34 11.04.2021
444 Clouds 5 1014 60 10000 4.63 60 23:47 10.04.2021
445 Clouds 5 1014 60 10000 4.63 60 23:47 10.04.2021
446 Clouds 5 1014 61 10000 4.12 50 23:25 10.04.2021
447 Clouds 5 1014 56 10000 3.6 60 22:43 10.04.2021
448 Clouds 6 1014 56 10000 5.14 50 22:20 10.04.2021
449 Clouds 6 1013 56 10000 5.14 60 21:41 10.04.2021
450 Clouds 6 1013 53 10000 4.63 60 21:21 10.04.2021
451 Clouds 6 1013 57 10000 4.12 60 20:44 10.04.2021
452 Clouds 6 1013 57 10000 4.63 70 20:23 10.04.2021
453 Clouds 7 1012 61 10000 5.14 80 19:44 10.04.2021
454 Rain 7 1012 65 10000 5.66 80 19:25 10.04.2021
455 Rain 7 1012 65 10000 6.17 80 18:51 10.04.2021
456 Rain 7 1013 70 10000 6.69 70 18:29 10.04.2021
457 Rain 7 1013 70 10000 5.66 70 17:38 10.04.2021
458 Rain 7 1013 70 10000 6.69 70 17:18 10.04.2021
459 Rain 7 1013 65 10000 7.2 80 16:28 10.04.2021
460 Clouds 8 1013 57 10000 7.2 80 15:55 10.04.2021
461 Clouds 7 1013 61 10000 6.69 70 15:23 10.04.2021
462 Clouds 7 1013 65 10000 7.2 80 14:42 10.04.2021
463 Rain 7 1013 61 10000 5.66 70 14:19 10.04.2021
464 Rain 7 1013 65 10000 6.69 80 13:43 10.04.2021
465 Clouds 7 1014 66 10000 6.17 80 12:54 10.04.2021
466 Clouds 7 1014 66 10000 6.17 80 12:34 10.04.2021
467 Clouds 7 1014 70 10000 6.17 70 11:50 10.04.2021
468 Clouds 7 1014 70 10000 5.66 70 11:26 10.04.2021
469 Clouds 7 1014 70 10000 5.66 80 10:52 10.04.2021
470 Clouds 7 1014 75 10000 5.14 70 10:31 10.04.2021
471 Clouds 6 1014 75 10000 4.63 60 09:52 10.04.2021
472 Clouds 6 1014 81 10000 4.12 70 09:23 10.04.2021
473 Clouds 6 1014 75 10000 3.6 60 08:49 10.04.2021
474 Clouds 6 1014 75 10000 3.6 60 08:29 10.04.2021
475 Clouds 5 1013 75 10000 4.12 70 07:50 10.04.2021
476 Clouds 5 1013 81 10000 4.12 60 07:21 10.04.2021
477 Clouds 6 1013 81 10000 4.63 80 06:26 10.04.2021
478 Clouds 7 1014 81 10000 4.12 90 04:42 10.04.2021
479 Clouds 7 1014 81 10000 3.6 60 02:54 10.04.2021
480 Clouds 7 1014 81 10000 3.6 60 02:35 10.04.2021
481 Clouds 7 1013 76 10000 2.06 350 00:53 10.04.2021
482 Clouds 8 1013 71 10000 1.54 0 00:29 10.04.2021
483 Clouds 8 1013 71 10000 1.54 0 23:44 09.04.2021
484 Clouds 8 1013 71 10000 1.54 0 23:20 09.04.2021
485 Clouds 8 1013 71 10000 3.09 0 22:44 09.04.2021
486 Clouds 9 1013 71 10000 2.57 60 22:25 09.04.2021
487 Clouds 9 1013 66 10000 2.06 0 21:39 09.04.2021
488 Clouds 9 1012 71 10000 3.6 330 21:19 09.04.2021
489 Clouds 10 1012 66 10000 3.09 330 20:45 09.04.2021
490 Clouds 10 1012 66 10000 3.09 360 20:23 09.04.2021
491 Clouds 10 1012 62 10000 3.09 20 19:58 09.04.2021
492 Clouds 11 1012 62 10000 3.09 10 19:39 09.04.2021
493 Clouds 11 1012 62 10000 3.09 10 19:20 09.04.2021
494 Clouds 12 1011 44 10000 4.12 260 18:41 09.04.2021
495 Clouds 13 1011 41 10000 4.12 270 18:22 09.04.2021
496 Clouds 13 1011 41 10000 4.12 270 17:44 09.04.2021
497 Clouds 14 1011 38 10000 4.12 250 17:22 09.04.2021
498 Clouds 14 1012 41 10000 3.6 250 16:41 09.04.2021
499 Clouds 14 1012 41 10000 3.6 240 16:19 09.04.2021
500 Clouds 13 1012 41 10000 3.6 230 15:40 09.04.2021
501 Clouds 13 1012 47 10000 4.12 230 15:20 09.04.2021
502 Clouds 13 1013 47 10000 4.12 250 14:46 09.04.2021
503 Clouds 12 1013 50 10000 4.12 280 14:19 09.04.2021
504 Clouds 11 1013 54 10000 4.12 250 13:43 09.04.2021
505 Clouds 12 1013 50 10000 4.63 240 13:22 09.04.2021
506 Clouds 11 1013 58 10000 4.63 260 12:47 09.04.2021
507 Clouds 11 1014 62 10000 4.63 270 11:57 09.04.2021
508 Clouds 10 1014 62 10000 4.63 260 11:28 09.04.2021
509 Clouds 10 1014 66 10000 4.63 250 10:56 09.04.2021
510 Clouds 9 1014 66 10000 4.63 250 10:37 09.04.2021
511 Clouds 8 1014 71 10000 3.6 250 09:55 09.04.2021
512 Clouds 7 1014 76 10000 4.63 230 09:27 09.04.2021
513 Clouds 6 1014 81 10000 4.12 240 08:55 09.04.2021
514 Clouds 6 1014 81 10000 3.6 240 08:25 09.04.2021
515 Clouds 6 1014 75 10000 4.12 240 07:21 09.04.2021
516 Clouds 6 1014 75 10000 3.6 240 06:26 09.04.2021
517 Clouds 6 1015 70 10000 4.12 240 03:57 09.04.2021
518 Clouds 6 1015 70 10000 4.12 240 03:39 09.04.2021
519 Clouds 7 1017 66 10000 4.63 230 00:39 09.04.2021
520 Clouds 7 1017 66 10000 4.63 230 00:21 09.04.2021
521 Clouds 8 1017 66 10000 4.12 230 23:32 08.04.2021
522 Clouds 8 1018 66 10000 4.12 230 22:51 08.04.2021
523 Clouds 8 1018 61 10000 4.63 220 22:27 08.04.2021
524 Clouds 8 1018 61 10000 4.63 210 21:58 08.04.2021
525 Clouds 9 1018 61 10000 4.63 210 21:40 08.04.2021
526 Clouds 9 1018 57 10000 5.14 210 21:21 08.04.2021
527 Clouds 10 1018 57 10000 4.63 210 20:56 08.04.2021
528 Clouds 10 1018 57 10000 4.63 210 20:35 08.04.2021
529 Clouds 10 1018 54 10000 4.63 240 19:58 08.04.2021
530 Clouds 11 1019 54 10000 5.66 230 19:27 08.04.2021
531 Clouds 11 1019 54 10000 5.66 220 18:58 08.04.2021
532 Clouds 11 1019 54 10000 5.66 220 18:39 08.04.2021
533 Clouds 11 1019 54 10000 6.17 220 18:19 08.04.2021
534 Clouds 11 1019 50 10000 5.66 240 17:41 08.04.2021
535 Clouds 12 1020 47 10000 4.63 220 17:19 08.04.2021
536 Clouds 12 1020 47 10000 6.69 230 16:44 08.04.2021
537 Clouds 12 1020 47 10000 6.17 240 16:22 08.04.2021
538 Clouds 12 1021 47 10000 5.66 240 15:45 08.04.2021
539 Clouds 12 1021 47 10000 5.66 220 15:25 08.04.2021
540 Clouds 12 1021 47 10000 5.66 220 14:42 08.04.2021
541 Clouds 11 1022 50 10000 6.17 220 14:21 08.04.2021
542 Clouds 11 1022 49 10000 6.17 230 13:49 08.04.2021
543 Clouds 9 1022 49 10000 6.17 240 13:24 08.04.2021
544 Clouds 9 1023 49 10000 5.66 240 12:58 08.04.2021
545 Clouds 9 1023 49 10000 5.66 240 12:34 08.04.2021
546 Rain 8 1023 46 10000 5.66 240 11:57 08.04.2021
547 Clouds 8 1023 46 10000 4.63 230 11:27 08.04.2021
548 Clouds 7 1024 49 10000 5.14 230 10:56 08.04.2021
549 Clouds 7 1024 52 10000 4.63 240 10:26 08.04.2021
550 Clouds 6 1024 56 10000 3.6 240 09:49 08.04.2021
551 Clouds 5 1024 60 10000 3.09 240 09:30 08.04.2021
552 Clouds 5 1024 56 10000 2.57 230 08:45 08.04.2021
553 Clear 4 1024 60 10000 3.6 230 08:22 08.04.2021
554 Clear 3 1024 60 10000 2.57 230 07:47 08.04.2021
555 Clear 4 1024 56 10000 3.09 240 06:46 08.04.2021
556 Clouds 5 1025 52 10000 3.09 290 01:28 08.04.2021
557 Clouds 5 1025 49 10000 3.6 280 00:32 08.04.2021
558 Clouds 5 1025 49 10000 4.63 290 23:55 07.04.2021
559 Clouds 5 1025 49 10000 4.63 290 23:37 07.04.2021
560 Clouds 5 1025 49 10000 3.6 290 23:18 07.04.2021
561 Clouds 5 1024 49 10000 4.63 290 22:43 07.04.2021
562 Clouds 6 1024 49 10000 4.12 280 22:21 07.04.2021
563 Clouds 6 1024 45 10000 4.63 280 21:41 07.04.2021
564 Clouds 6 1024 45 10000 5.14 280 21:20 07.04.2021
565 Clouds 6 1024 45 10000 4.12 290 20:41 07.04.2021
566 Clouds 6 1024 42 10000 4.12 300 20:19 07.04.2021
567 Clouds 6 1024 39 10000 4.63 300 19:42 07.04.2021
568 Clouds 6 1024 39 10000 6.69 280 19:22 07.04.2021
569 Clouds 7 1024 39 10000 5.14 300 18:42 07.04.2021
570 Clouds 7 1024 39 10000 5.66 290 18:19 07.04.2021
571 Clouds 7 1024 39 10000 5.14 290 17:50 07.04.2021
572 Clouds 7 1024 39 10000 5.14 290 17:32 07.04.2021
573 Clouds 7 1024 45 10000 7.2 280 16:47 07.04.2021
574 Clouds 6 1024 39 10000 5.66 290 16:22 07.04.2021
575 Clouds 7 1024 42 10000 6.69 300 15:56 07.04.2021
576 Clouds 7 1024 42 10000 6.69 300 15:38 07.04.2021
577 Clouds 6 1024 42 10000 6.17 290 14:52 07.04.2021
578 Clouds 6 1024 45 10000 7.2 290 14:25 07.04.2021
579 Clouds 6 1024 45 10000 6.17 290 13:47 07.04.2021
580 Clouds 5 1024 42 10000 6.69 290 13:23 07.04.2021
581 Clouds 6 1024 45 10000 7.72 280 12:50 07.04.2021
582 Clouds 5 1024 48 10000 6.69 280 12:24 07.04.2021
583 Clear 5 1024 45 10000 5.66 270 11:48 07.04.2021
584 Clear 5 1024 48 10000 3.09 280 11:25 07.04.2021
585 Clear 4 1024 52 10000 3.09 290 10:52 07.04.2021
586 Clear 2 1024 60 10000 3.09 270 10:19 07.04.2021
587 Clear 1 1024 64 10000 4.12 270 09:40 07.04.2021
588 Clear 1 1024 69 10000 4.12 270 09:21 07.04.2021
589 Clear 0 1023 75 10000 3.6 280 08:34 07.04.2021
590 Clear -1 1023 75 10000 4.12 280 07:59 07.04.2021
591 Clear -1 1023 75 10000 4.12 280 07:37 07.04.2021
592 Clear -1 1023 75 10000 4.63 290 07:19 07.04.2021
593 Clear -1 1022 75 10000 5.14 280 06:22 07.04.2021
594 Clear -1 1021 77 10000 0.89 290 04:23 07.04.2021
595 Clouds 1 1021 69 10000 4.12 300 00:20 07.04.2021
596 Clouds 1 1021 69 10000 4.63 300 23:46 06.04.2021
597 Clouds 2 1021 56 10000 4.12 300 23:18 06.04.2021
598 Clouds 2 1021 56 10000 3.6 300 22:39 06.04.2021
599 Clouds 2 1020 60 10000 4.12 300 22:19 06.04.2021
600 Clouds 3 1020 65 10000 5.66 350 21:40 06.04.2021
601 Clouds 3 1020 48 10000 3.6 0 21:22 06.04.2021
602 Clouds 4 1019 45 10000 5.14 300 20:53 06.04.2021
603 Clouds 5 1019 45 10000 4.63 300 20:24 06.04.2021
604 Clouds 5 1018 45 10000 6.17 290 19:52 06.04.2021
605 Clouds 5 1018 45 10000 6.17 290 19:34 06.04.2021
606 Rain 6 1019 39 10000 6.17 360 18:57 06.04.2021
607 Rain 5 1019 39 10000 6.17 360 18:38 06.04.2021
608 Clouds 6 1019 39 10000 5.14 350 18:18 06.04.2021
609 Clouds 6 1018 29 10000 5.14 310 17:40 06.04.2021
610 Clouds 7 1018 29 10000 6.69 300 17:18 06.04.2021
611 Clouds 7 1018 33 10000 5.66 310 16:42 06.04.2021
612 Clouds 7 1019 31 10000 6.69 300 15:59 06.04.2021
613 Clouds 7 1019 33 10000 6.69 290 15:25 06.04.2021
614 Clouds 7 1019 36 10000 6.17 300 14:43 06.04.2021
615 Clouds 7 1019 31 10000 5.66 310 14:24 06.04.2021
616 Clouds 7 1019 36 10000 5.14 320 13:46 06.04.2021
617 Clouds 7 1020 36 10000 5.14 310 13:25 06.04.2021
618 Clouds 6 1020 42 10000 5.14 330 12:45 06.04.2021
619 Clouds 6 1020 42 10000 4.63 340 12:27 06.04.2021
620 Clouds 5 1021 48 10000 6.17 300 11:55 06.04.2021
621 Clouds 5 1021 48 10000 6.17 300 11:36 06.04.2021
622 Clouds 5 1021 56 10000 5.66 300 11:18 06.04.2021
623 Clear 4 1021 60 10000 5.14 300 10:39 06.04.2021
624 Clear 3 1021 65 10000 4.63 300 10:21 06.04.2021
625 Clear 2 1021 65 10000 4.63 300 09:43 06.04.2021
626 Clouds 2 1021 69 10000 5.66 300 09:20 06.04.2021
627 Clouds 1 1021 69 10000 5.14 290 08:26 06.04.2021
628 Clouds 0 1021 69 10000 4.63 290 07:22 06.04.2021
629 Clouds 1 1021 69 10000 4.12 300 06:51 06.04.2021
630 Clear 2 1021 56 10000 4.63 300 03:55 06.04.2021
631 Clouds 3 1022 45 10000 5.14 300 00:51 06.04.2021
632 Clouds 3 1021 49 10000 1.79 292 00:22 06.04.2021
633 Clouds 4 1022 38 10000 5.66 300 23:58 05.04.2021
634 Clouds 4 1022 38 10000 5.66 300 23:39 05.04.2021
635 Clouds 4 1022 38 10000 5.14 300 23:18 05.04.2021
636 Clouds 4 1022 33 10000 4.12 300 22:40 05.04.2021
637 Clouds 4 1022 28 10000 3.6 310 22:20 05.04.2021
638 Clouds 5 1021 28 10000 3.09 300 21:38 05.04.2021
639 Clouds 5 1021 28 10000 4.12 320 21:19 05.04.2021
640 Clouds 6 1021 28 10000 3.6 330 20:42 05.04.2021
641 Clouds 6 1021 26 10000 5.66 320 20:22 05.04.2021
642 Clouds 6 1021 26 10000 6.17 340 19:38 05.04.2021
643 Clouds 7 1020 24 10000 5.14 340 19:19 05.04.2021
644 Clouds 8 1020 24 10000 6.17 350 18:41 05.04.2021
645 Clouds 7 1020 23 10000 6.17 330 18:19 05.04.2021
646 Clouds 7 1020 24 10000 5.66 310 17:47 05.04.2021
647 Clouds 8 1020 21 10000 7.72 340 17:24 05.04.2021
648 Clouds 7 1020 24 10000 6.17 310 16:47 05.04.2021
649 Clouds 7 1020 28 10000 5.66 360 16:23 05.04.2021
650 Clouds 7 1020 28 10000 5.66 360 16:23 05.04.2021
651 Clouds 7 1020 28 10000 5.66 350 15:58 05.04.2021
652 Clouds 7 1020 28 10000 5.66 350 15:38 05.04.2021
653 Clouds 7 1020 33 10000 7.2 300 15:20 05.04.2021
654 Clouds 6 1019 42 10000 6.69 350 14:36 05.04.2021
655 Clouds 6 1019 52 10000 5.66 340 13:52 05.04.2021
656 Rain 5 1019 56 10000 5.66 360 13:27 05.04.2021
657 Clouds 5 1019 56 10000 5.14 360 12:47 05.04.2021
658 Rain 5 1019 60 10000 5.66 360 12:25 05.04.2021
659 Clouds 4 1018 60 10000 5.66 360 11:48 05.04.2021
660 Clouds 5 1017 60 10000 4.63 10 11:30 05.04.2021
661 Clouds 6 1017 65 10000 5.14 350 10:56 05.04.2021
662 Clouds 6 1017 65 10000 5.14 350 10:56 05.04.2021
663 Clouds 6 1017 65 10000 5.14 350 10:35 05.04.2021
664 Clouds 7 1016 45 10000 6.69 330 09:49 05.04.2021
665 Clouds 7 1015 42 10000 7.2 310 09:26 05.04.2021
666 Clouds 7 1015 49 10000 8.23 300 08:54 05.04.2021
667 Clouds 7 1015 53 10000 7.2 310 08:36 05.04.2021
668 Clouds 7 1015 53 10000 7.2 310 08:18 05.04.2021
669 Clouds 8 1013 71 10000 5.66 280 07:33 05.04.2021
670 Clouds 8 1015 71 10000 4.63 250 03:42 05.04.2021
671 Clouds 10 1017 62 10000 5.66 260 00:57 05.04.2021
672 Clouds 10 1017 62 10000 6.69 250 00:20 05.04.2021
673 Clouds 10 1018 69 10000 4.64 281 23:37 04.04.2021
674 Clouds 11 1018 54 10000 5.14 250 23:18 04.04.2021
675 Clouds 11 1019 47 10000 4.63 250 22:45 04.04.2021
676 Clouds 11 1019 63 10000 4.25 262 22:25 04.04.2021
677 Clouds 12 1020 44 10000 5.14 260 21:23 04.04.2021
678 Clouds 13 1020 44 10000 5.14 250 20:47 04.04.2021
679 Clouds 14 1020 44 10000 5.14 270 20:23 04.04.2021
680 Clouds 14 1021 41 10000 5.14 260 19:42 04.04.2021
681 Clear 15 1021 38 10000 5.14 260 19:20 04.04.2021
682 Clear 15 1021 38 10000 4.63 240 18:56 04.04.2021
683 Clear 15 1021 38 10000 4.63 240 18:37 04.04.2021
684 Clear 16 1022 44 10000 5.14 250 18:19 04.04.2021
685 Clear 16 1022 41 10000 4.12 230 17:37 04.04.2021
686 Clear 16 1022 41 10000 4.12 230 17:37 04.04.2021
687 Clear 15 1023 44 10000 4.63 270 17:18 04.04.2021
688 Clear 15 1023 44 10000 4.12 240 16:41 04.04.2021
689 Clear 14 1025 47 10000 3.6 230 15:58 04.04.2021
690 Clear 14 1025 47 10000 3.6 230 15:33 04.04.2021
691 Clear 13 1026 50 10000 3.09 230 14:43 04.04.2021
692 Clouds 12 1026 54 10000 2.57 280 14:25 04.04.2021
693 Clouds 11 1027 57 10000 3.09 260 13:29 04.04.2021
694 Clouds 10 1028 61 10000 1.54 0 12:55 04.04.2021
695 Clouds 10 1028 61 10000 1.54 0 12:33 04.04.2021
696 Clouds 8 1028 65 10000 1.54 0 11:59 04.04.2021
697 Clouds 8 1028 65 10000 1.54 0 11:39 04.04.2021
698 Clouds 7 1029 70 10000 2.57 270 11:20 04.04.2021
699 Clouds 6 1029 70 10000 1.54 0 10:40 04.04.2021
700 Clouds 5 1029 70 10000 2.57 330 09:53 04.04.2021
701 Clouds 5 1029 70 10000 2.06 360 09:25 04.04.2021
702 Clouds 5 1029 70 10000 1.54 0 08:53 04.04.2021
703 Clouds 5 1029 70 10000 1.54 0 08:35 04.04.2021
704 Clouds 5 1029 70 10000 1.54 0 08:35 04.04.2021
705 Clouds 4 1030 70 10000 0.51 0 07:50 04.04.2021
706 Clouds 4 1030 70 10000 1.54 0 06:36 04.04.2021
707 Clouds 4 1030 70 10000 1.54 350 05:33 04.04.2021
708 Clouds 6 1031 65 10000 3.6 60 01:28 04.04.2021
709 Clouds 6 1032 61 10000 3.09 60 00:20 04.04.2021
710 Clouds 7 1032 61 10000 3.09 60 23:47 03.04.2021
711 Clouds 7 1032 61 10000 4.12 50 23:24 03.04.2021
712 Clouds 7 1032 57 10000 3.6 50 22:51 03.04.2021
713 Clouds 7 1032 61 10000 3.6 60 22:22 03.04.2021
714 Clouds 7 1032 57 10000 3.09 50 21:49 03.04.2021
715 Clouds 8 1032 57 10000 3.09 50 21:24 03.04.2021
716 Clouds 8 1032 57 10000 3.6 20 20:51 03.04.2021
717 Clouds 8 1031 57 10000 2.57 0 20:28 03.04.2021
718 Clouds 9 1031 57 10000 3.09 0 19:51 03.04.2021
719 Clouds 9 1031 57 10000 3.09 0 19:27 03.04.2021
720 Clouds 9 1031 53 10000 3.09 0 18:52 03.04.2021
721 Clouds 10 1031 53 10000 3.09 0 18:33 03.04.2021
722 Clouds 9 1032 53 10000 4.63 60 17:55 03.04.2021
723 Clouds 9 1032 57 10000 4.63 50 17:26 03.04.2021
724 Clouds 10 1032 57 10000 4.12 20 16:54 03.04.2021
725 Clouds 10 1033 53 10000 4.12 40 16:25 03.04.2021
726 Clouds 10 1033 57 10000 4.63 0 15:52 03.04.2021
727 Clouds 10 1033 57 10000 5.14 50 15:31 03.04.2021
728 Clouds 9 1033 57 10000 5.14 0 14:49 03.04.2021
729 Clouds 9 1033 57 10000 3.6 50 14:25 03.04.2021
730 Clouds 9 1033 57 10000 3.09 0 13:55 03.04.2021
731 Clouds 9 1033 57 10000 3.09 0 13:35 03.04.2021
732 Clouds 8 1033 61 10000 5.14 60 12:59 03.04.2021
733 Clouds 8 1033 61 10000 5.14 60 12:33 03.04.2021
734 Clouds 7 1033 61 10000 5.66 50 11:44 03.04.2021
735 Clouds 7 1033 61 10000 4.12 0 11:26 03.04.2021
736 Clouds 7 1033 61 10000 3.6 0 10:45 03.04.2021
737 Clouds 7 1033 61 10000 4.12 0 10:26 03.04.2021
738 Clouds 6 1033 65 10000 4.12 60 09:42 03.04.2021
739 Clouds 6 1032 65 10000 5.14 50 09:23 03.04.2021
740 Clouds 6 1032 65 10000 4.12 50 08:38 03.04.2021
741 Clouds 6 1032 65 10000 4.63 60 07:47 03.04.2021
742 Clouds 6 1032 65 10000 3.6 60 07:26 03.04.2021
743 Clouds 6 1031 81 10000 3.09 360 04:26 03.04.2021
744 Clouds 6 1032 81 10000 2.06 10 02:57 03.04.2021
745 Clouds 6 1032 81 10000 2.06 10 02:34 03.04.2021
746 Clouds 7 1032 70 10000 2.06 0 00:51 03.04.2021
747 Clouds 7 1032 61 10000 3.09 0 00:18 03.04.2021
748 Clouds 7 1032 61 10000 3.6 30 23:44 02.04.2021
749 Clouds 7 1032 61 10000 4.12 50 23:19 02.04.2021
750 Clouds 7 1032 57 10000 4.12 40 22:45 02.04.2021
751 Clouds 7 1032 57 10000 5.66 60 22:26 02.04.2021
752 Clouds 7 1032 57 10000 3.09 20 21:42 02.04.2021
753 Clouds 7 1032 57 10000 3.09 0 21:19 02.04.2021
754 Clouds 7 1031 61 10000 3.09 0 20:47 02.04.2021
755 Clouds 7 1031 65 10000 4.63 0 20:25 02.04.2021
756 Clouds 8 1031 61 10000 4.12 10 19:43 02.04.2021
757 Clouds 8 1031 61 10000 4.63 10 19:24 02.04.2021
758 Clouds 9 1031 61 10000 3.6 40 18:50 02.04.2021
759 Clouds 9 1030 57 10000 4.12 0 18:31 02.04.2021
760 Clouds 10 1030 57 10000 6.69 60 17:59 02.04.2021
761 Clouds 10 1030 57 10000 6.69 60 17:34 02.04.2021
762 Clouds 11 1030 53 10000 4.63 60 16:44 02.04.2021
763 Clouds 11 1031 57 10000 6.17 60 15:51 02.04.2021
764 Clouds 10 1031 57 10000 6.17 60 15:32 02.04.2021
765 Clouds 10 1031 57 10000 5.14 60 14:42 02.04.2021
766 Clouds 10 1031 57 10000 5.14 50 14:21 02.04.2021
767 Clouds 9 1031 61 10000 4.12 60 13:39 02.04.2021
768 Clouds 8 1031 61 10000 5.14 60 13:19 02.04.2021
769 Clouds 8 1031 61 10000 5.14 50 12:40 02.04.2021
770 Clouds 8 1031 61 10000 4.63 50 12:19 02.04.2021
771 Clouds 7 1031 61 10000 3.6 0 11:49 02.04.2021
772 Clouds 7 1031 65 10000 5.14 50 11:19 02.04.2021
773 Clouds 6 1030 65 10000 4.63 60 10:44 02.04.2021
774 Clouds 6 1030 65 10000 5.66 60 10:25 02.04.2021
775 Clouds 6 1030 65 10000 4.63 60 09:52 02.04.2021
776 Clouds 6 1030 65 10000 6.17 60 09:26 02.04.2021
777 Clouds 6 1030 65 10000 6.17 60 09:26 02.04.2021
778 Clouds 6 1030 65 10000 5.66 50 08:49 02.04.2021
779 Clouds 5 1029 65 10000 5.14 60 08:28 02.04.2021
780 Clouds 5 1029 61 10000 4.63 60 07:23 02.04.2021
781 Clouds 5 1029 61 10000 4.63 60 06:47 02.04.2021
782 Clouds 5 1029 70 10000 4.12 60 04:18 02.04.2021
783 Clouds 6 1029 75 10000 5.66 60 02:27 02.04.2021
784 Clouds 6 1029 70 10000 6.17 60 00:47 02.04.2021
785 Clouds 6 1029 70 10000 6.17 50 00:18 02.04.2021
786 Clouds 6 1029 70 10000 6.17 50 00:18 02.04.2021
787 Clouds 6 1029 70 10000 6.17 50 00:18 02.04.2021
788 Clouds 7 1029 70 10000 6.17 60 23:30 01.04.2021
789 Clouds 7 1028 76 10000 5.14 60 22:55 01.04.2021
790 Clear 7 1028 71 10000 6.69 60 22:19 01.04.2021
791 Clouds 8 1028 71 10000 6.69 60 21:49 01.04.2021
792 Clouds 9 1027 71 10000 5.66 60 21:26 01.04.2021
793 Clouds 9 1027 71 10000 5.66 60 20:44 01.04.2021
794 Clouds 10 1027 66 10000 5.66 60 20:24 01.04.2021
795 Clouds 10 1027 71 10000 5.66 60 19:54 01.04.2021
796 Clouds 11 1026 71 10000 6.17 60 19:35 01.04.2021
797 Clouds 12 1026 66 10000 5.66 60 18:46 01.04.2021
798 Clouds 12 1026 62 10000 6.17 50 18:19 01.04.2021
799 Clouds 13 1026 71 10000 6.17 80 17:52 01.04.2021
800 Clouds 14 1026 62 10000 5.66 60 17:33 01.04.2021
801 Clouds 14 1026 58 10000 5.66 60 16:53 01.04.2021
802 Clouds 15 1026 58 10000 5.66 60 16:30 01.04.2021
803 Clouds 15 1026 58 10000 6.17 60 15:47 01.04.2021
804 Clear 15 1026 58 10000 5.66 60 15:20 01.04.2021
805 Clear 14 1026 62 10000 5.14 60 14:46 01.04.2021
806 Clouds 14 1026 62 10000 6.17 80 14:26 01.04.2021
807 Clouds 13 1026 66 10000 6.17 70 13:56 01.04.2021
808 Clouds 13 1026 71 10000 5.66 60 13:31 01.04.2021
809 Clouds 12 1026 71 10000 6.17 60 12:54 01.04.2021
810 Clouds 12 1026 71 10000 6.17 60 12:33 01.04.2021
811 Clouds 11 1025 76 10000 5.14 50 11:57 01.04.2021
812 Clouds 11 1025 76 10000 5.14 50 11:38 01.04.2021
813 Clouds 10 1025 81 8000 4.12 60 11:18 01.04.2021
814 Clouds 10 1025 81 7000 5.66 50 10:45 01.04.2021
815 Haze 9 1025 81 5000 5.14 60 10:22 01.04.2021
816 Haze 8 1024 87 4100 3.6 50 09:31 01.04.2021
817 Haze 8 1024 87 3900 3.09 30 08:43 01.04.2021
818 Haze 8 1023 87 3700 3.6 0 08:24 01.04.2021
819 Haze 9 1023 81 4900 2.57 0 07:21 01.04.2021
820 Haze 9 1022 81 5000 3.09 10 06:55 01.04.2021
821 Clouds 11 1022 76 6000 3.09 10 05:32 01.04.2021
822 Clouds 13 1020 72 10000 1.03 0 03:18 01.04.2021
823 Clouds 14 1020 63 10000 0.51 0 23:55 31.03.2021
824 Clouds 14 1020 63 10000 0.51 0 23:37 31.03.2021
825 Clear 15 1019 63 10000 1.48 217 22:44 31.03.2021
826 Clear 16 1019 51 10000 1.54 140 22:23 31.03.2021
827 Clear 16 1018 64 10000 1.68 202 21:54 31.03.2021
828 Clear 16 1018 61 10000 1.68 202 21:36 31.03.2021
829 Clear 17 1019 58 10000 1.82 193 21:18 31.03.2021
830 Clear 18 1019 45 10000 1.54 160 20:40 31.03.2021
831 Clouds 19 1019 42 10000 2.06 160 20:20 31.03.2021
832 Clouds 19 1019 42 10000 1.54 0 19:42 31.03.2021
833 Clouds 20 1019 42 10000 2.06 170 19:20 31.03.2021
834 Clouds 20 1019 37 10000 2.06 160 18:54 31.03.2021
835 Clouds 20 1019 37 10000 2.06 160 18:35 31.03.2021
836 Clear 20 1019 49 10000 1.54 0 17:41 31.03.2021
837 Clouds 20 1019 51 10000 3.42 194 17:20 31.03.2021
838 Clear 20 1019 45 10000 0.51 0 16:55 31.03.2021
839 Clear 20 1019 45 10000 3.09 160 16:35 31.03.2021
840 Clear 20 1019 43 10000 3.09 210 15:53 31.03.2021
841 Clear 20 1020 40 10000 4.12 200 15:22 31.03.2021
842 Clear 21 1020 40 10000 3.6 200 14:53 31.03.2021
843 Clouds 21 1020 40 10000 3.6 200 14:26 31.03.2021
844 Clouds 21 1020 55 10000 1.03 0 13:57 31.03.2021
845 Clouds 21 1019 52 10000 0.45 132 13:24 31.03.2021
846 Clouds 20 1020 55 10000 2.62 208 12:41 31.03.2021
847 Clouds 19 1021 59 9000 0.51 0 12:19 31.03.2021
848 Clouds 18 1021 59 10000 0.51 0 11:39 31.03.2021
849 Clouds 17 1021 58 10000 2.05 196 11:19 31.03.2021
850 Clouds 16 1021 59 10000 2.06 196 10:44 31.03.2021
851 Clear 14 1021 71 10000 0.51 0 10:22 31.03.2021
852 Clouds 11 1021 81 7000 0.51 0 09:33 31.03.2021
853 Clear 12 1021 81 10000 1.54 70 08:48 31.03.2021
854 Clouds 10 1021 87 7000 1.03 0 08:30 31.03.2021
855 Clouds 11 1021 87 7000 1.54 80 07:42 31.03.2021
856 Clear 12 1022 81 9000 1.03 0 05:55 31.03.2021
857 Clear 11 1023 76 10000 2.06 80 03:46 31.03.2021
858 Clear 12 1024 51 10000 0.51 0 00:55 31.03.2021
859 Clear 13 1025 44 10000 0.51 0 00:27 31.03.2021
860 Clear 13 1025 39 10000 1.03 0 23:59 30.03.2021
861 Clear 14 1024 60 10000 1.68 173 23:28 30.03.2021
862 Clear 14 1024 55 10000 1.68 173 22:56 30.03.2021
863 Clear 14 1024 49 10000 1.68 173 22:38 30.03.2021
864 Clear 15 1025 47 10000 1.84 166 22:20 30.03.2021
865 Clear 16 1024 45 10000 1.84 166 21:42 30.03.2021
866 Clear 17 1024 41 10000 1.95 165 21:19 30.03.2021
867 Clear 19 1025 26 10000 2.06 170 20:51 30.03.2021
868 Clear 19 1025 24 10000 2.57 170 20:27 30.03.2021
869 Clear 21 1025 21 10000 3.09 170 19:50 30.03.2021
870 Clear 22 1025 18 10000 4.12 200 19:27 30.03.2021
871 Clear 22 1025 23 10000 3.09 180 18:38 30.03.2021
872 Fog 23 1026 27 750 3.09 190 17:52 30.03.2021
873 Haze 23 1026 31 2000 3.6 150 17:34 30.03.2021
874 Fog 23 1027 28 700 3.6 160 16:48 30.03.2021
875 Clear 22 1027 28 10000 3.09 130 16:29 30.03.2021
876 Clear 22 1027 28 10000 3.09 130 15:43 30.03.2021
877 Clear 22 1028 30 10000 3.6 140 15:20 30.03.2021
878 Clear 22 1028 28 10000 4.12 110 14:56 30.03.2021
879 Clear 21 1028 45 10000 4.12 90 14:22 30.03.2021
880 Clear 21 1028 45 10000 3.6 80 13:58 30.03.2021
881 Clear 20 1029 48 10000 3.09 80 13:36 30.03.2021
882 Clear 19 1029 48 10000 3.09 90 12:49 30.03.2021
883 Clear 19 1029 48 10000 3.09 90 12:49 30.03.2021
884 Clear 17 1029 55 10000 2.57 80 12:27 30.03.2021
885 Clear 16 1029 62 10000 2.57 80 11:53 30.03.2021
886 Clear 14 1029 62 10000 2.57 80 11:23 30.03.2021
887 Clear 13 1029 66 10000 2.06 80 10:46 30.03.2021
888 Clear 11 1030 76 10000 2.06 90 10:26 30.03.2021
889 Clear 9 1030 76 10000 1.54 70 09:49 30.03.2021
890 Clear 10 1029 81 10000 0.51 0 09:31 30.03.2021
891 Clear 9 1029 81 10000 0.51 0 08:55 30.03.2021
892 Clear 9 1029 81 10000 0.51 0 08:37 30.03.2021
893 Clear 8 1029 81 10000 1.03 0 07:51 30.03.2021
894 Clear 5 1029 81 10000 0.51 0 07:22 30.03.2021
895 Clear 6 1029 81 10000 1.03 0 05:40 30.03.2021
896 Clouds 6 1029 81 10000 1.29 217 05:19 30.03.2021
897 Clear 8 1029 57 10000 1.03 0 00:33 30.03.2021
898 Clear 9 1029 66 10000 1.54 240 23:34 29.03.2021
899 Clear 10 1029 62 10000 2.57 220 22:52 29.03.2021
900 Clear 11 1029 62 10000 3.6 210 22:30 29.03.2021
901 Clear 12 1029 62 10000 3.09 210 21:47 29.03.2021
902 Clear 13 1028 58 10000 3.09 200 21:29 29.03.2021
903 Clear 13 1028 51 10000 3.09 210 20:48 29.03.2021
904 Clear 15 1028 48 10000 4.12 220 20:27 29.03.2021
905 Clear 16 1027 45 10000 5.14 220 19:49 29.03.2021
906 Clear 17 1027 39 10000 4.63 220 19:24 29.03.2021
907 Clear 18 1027 32 10000 4.12 230 18:44 29.03.2021
908 Clouds 20 1027 28 10000 4.63 230 18:26 29.03.2021
909 Clouds 20 1027 34 10000 5.14 230 17:51 29.03.2021
910 Clouds 19 1027 34 10000 5.14 230 17:32 29.03.2021
911 Clouds 20 1027 40 10000 6.17 250 16:45 29.03.2021
912 Clouds 20 1027 45 10000 6.17 260 16:24 29.03.2021
913 Clouds 19 1027 52 10000 6.17 250 15:37 29.03.2021
914 Clear 19 1027 52 10000 5.14 230 15:18 29.03.2021
915 Clear 18 1027 55 10000 5.14 240 14:46 29.03.2021
916 Clouds 17 1027 63 10000 6.17 250 13:55 29.03.2021
917 Clouds 17 1027 63 10000 6.17 250 13:33 29.03.2021
918 Clouds 16 1027 67 10000 6.17 230 12:57 29.03.2021
919 Clouds 16 1027 67 10000 6.17 230 12:39 29.03.2021
920 Clouds 13 1027 71 10000 5.14 240 11:43 29.03.2021
921 Clouds 12 1027 76 10000 7.2 230 11:25 29.03.2021
922 Clouds 11 1027 76 10000 7.2 240 10:45 29.03.2021
923 Clouds 10 1026 81 10000 6.17 230 10:19 29.03.2021
924 Clouds 10 1026 81 10000 5.66 240 09:32 29.03.2021
925 Clouds 10 1026 76 10000 5.14 230 08:34 29.03.2021
926 Clouds 10 1025 76 10000 5.66 240 07:54 29.03.2021
927 Clouds 10 1025 76 10000 6.17 240 07:19 29.03.2021
928 Clouds 10 1025 76 10000 5.66 240 06:23 29.03.2021
929 Clouds 10 1025 76 10000 6.69 230 02:34 29.03.2021
930 Clouds 10 1024 76 10000 7.2 230 00:30 29.03.2021
931 Clouds 10 1024 76 10000 7.2 230 23:59 28.03.2021
932 Clouds 10 1024 76 10000 7.2 230 23:25 28.03.2021
933 Clouds 10 1024 76 10000 7.72 230 22:48 28.03.2021
934 Clouds 10 1024 76 10000 7.72 230 22:48 28.03.2021
935 Clouds 10 1024 76 10000 6.17 220 22:29 28.03.2021
936 Clouds 10 1024 71 10000 7.2 230 21:47 28.03.2021
937 Clouds 11 1024 71 10000 7.2 230 21:25 28.03.2021
938 Clouds 11 1024 71 10000 5.66 220 20:58 28.03.2021
939 Clouds 11 1024 71 10000 5.66 220 20:39 28.03.2021
940 Clouds 11 1024 71 10000 6.17 210 20:19 28.03.2021
941 Clouds 11 1023 71 10000 6.69 220 19:42 28.03.2021
942 Clouds 12 1023 71 10000 8.75 230 19:21 28.03.2021
943 Clouds 12 1023 71 10000 6.69 230 18:51 28.03.2021
944 Clouds 12 1023 71 10000 7.72 230 18:24 28.03.2021
945 Clouds 12 1023 71 10000 8.23 240 17:46 28.03.2021
946 Clouds 13 1023 67 10000 9.26 230 17:22 28.03.2021
947 Clouds 12 1024 71 10000 8.23 230 16:43 28.03.2021
948 Clouds 12 1024 71 10000 7.72 240 16:22 28.03.2021
949 Clouds 12 1023 71 10000 7.2 230 15:25 28.03.2021
950 Clouds 12 1023 71 10000 7.72 230 14:50 28.03.2021
951 Clouds 12 1023 71 10000 10.29 230 14:30 28.03.2021
952 Clouds 12 1023 66 10000 7.72 230 13:39 28.03.2021
953 Clouds 12 1023 66 10000 7.72 230 13:19 28.03.2021
954 Clouds 12 1023 66 10000 6.69 230 12:43 28.03.2021
955 Clouds 12 1023 66 10000 6.69 230 12:43 28.03.2021
956 Clouds 11 1023 71 10000 8.75 230 12:25 28.03.2021
957 Clouds 11 1022 71 10000 7.72 230 11:40 28.03.2021
958 Clouds 11 1022 71 10000 7.72 230 11:20 28.03.2021
959 Clouds 10 1022 66 10000 7.72 230 10:43 28.03.2021
960 Clouds 10 1022 66 10000 7.2 230 10:23 28.03.2021
961 Clouds 10 1022 71 10000 6.69 230 09:44 28.03.2021
962 Clouds 10 1022 71 10000 6.69 230 09:24 28.03.2021
963 Clouds 10 1022 71 10000 5.14 230 08:45 28.03.2021
964 Clouds 9 1021 71 10000 6.17 230 07:46 28.03.2021
965 Clouds 9 1021 66 10000 5.66 230 06:23 28.03.2021
966 Clouds 9 1023 76 10000 5.14 230 03:51 28.03.2021
967 Clouds 9 1023 76 10000 5.14 220 00:52 28.03.2021
968 Clouds 9 1023 76 10000 5.14 210 00:19 28.03.2021
969 Clouds 9 1023 76 10000 5.66 210 23:40 27.03.2021
970 Clouds 8 1024 71 10000 4.12 210 22:54 27.03.2021
971 Clouds 9 1024 71 10000 5.66 230 22:36 27.03.2021
972 Clouds 9 1024 71 10000 5.66 230 21:55 27.03.2021
973 Clouds 9 1024 71 10000 5.66 230 21:36 27.03.2021
974 Clouds 9 1024 66 10000 4.63 230 21:18 27.03.2021
975 Clouds 9 1024 62 10000 4.63 230 20:38 27.03.2021
976 Clouds 9 1023 62 10000 5.14 230 20:19 27.03.2021
977 Clouds 10 1023 62 10000 6.69 230 19:42 27.03.2021
978 Clouds 10 1023 58 10000 4.63 220 19:23 27.03.2021
979 Clouds 10 1023 54 10000 5.14 230 18:48 27.03.2021
980 Clouds 11 1023 50 10000 5.14 230 18:28 27.03.2021
981 Clouds 11 1023 50 10000 6.17 250 17:50 27.03.2021
982 Clouds 11 1023 47 10000 6.17 250 17:23 27.03.2021
983 Clouds 12 1023 47 10000 6.69 260 16:49 27.03.2021
984 Clouds 12 1023 47 10000 6.69 260 16:49 27.03.2021
985 Clouds 11 1024 50 10000 6.69 250 16:28 27.03.2021
986 Clouds 11 1023 46 10000 7.72 250 15:49 27.03.2021
987 Clouds 11 1023 40 10000 7.2 260 15:24 27.03.2021
988 Clouds 11 1023 43 10000 6.69 250 14:49 27.03.2021
989 Clear 11 1023 43 10000 7.72 270 13:56 27.03.2021
990 Clouds 11 1023 43 10000 8.23 260 13:26 27.03.2021
991 Clouds 10 1022 46 10000 7.72 260 12:55 27.03.2021
992 Clouds 10 1022 49 10000 8.23 260 12:27 27.03.2021
993 Clouds 10 1022 53 10000 8.75 250 11:46 27.03.2021
994 Clouds 9 1022 53 10000 8.75 250 11:25 27.03.2021
995 Clouds 8 1021 57 10000 8.75 250 10:45 27.03.2021
996 Clear 8 1021 61 10000 8.75 260 10:23 27.03.2021
997 Clear 6 1020 70 10000 7.2 250 09:29 27.03.2021
998 Clear 5 1019 75 10000 6.17 250 08:48 27.03.2021
999 Clear 4 1019 75 10000 6.17 250 08:30 27.03.2021
1000 Clear 4 1018 75 10000 5.14 250 07:35 27.03.2021
1001 Clouds 3 1017 75 10000 5.14 250 06:52 27.03.2021
1002 Clouds 3 1017 75 10000 5.14 250 06:33 27.03.2021
1003 Clouds 4 1015 75 10000 6.17 250 04:40 27.03.2021
1004 Rain 5 1013 70 10000 7.2 240 00:55 27.03.2021
1005 Clouds 5 1012 70 10000 6.69 240 00:31 27.03.2021
1006 Clouds 5 1012 70 10000 5.66 240 23:54 26.03.2021
1007 Clouds 5 1012 70 10000 6.17 230 23:22 26.03.2021
1008 Clouds 5 1012 75 10000 5.66 240 22:35 26.03.2021
1009 Clouds 5 1012 75 10000 4.63 230 21:38 26.03.2021
1010 Clouds 5 1011 75 10000 6.17 230 21:20 26.03.2021
1011 Clouds 6 1011 76 10000 6.69 250 20:44 26.03.2021
1012 Clouds 7 1010 71 10000 4.12 240 20:24 26.03.2021
1013 Clear 8 1010 71 10000 5.14 230 19:49 26.03.2021
1014 Clouds 8 1010 71 10000 5.66 240 19:30 26.03.2021
1015 Rain 8 1009 66 10000 4.63 240 18:45 26.03.2021
1016 Rain 8 1009 66 10000 5.14 240 18:27 26.03.2021
1017 Clear 8 1009 66 10000 5.14 250 17:49 26.03.2021
1018 Clouds 9 1009 76 10000 6.17 240 16:58 26.03.2021
1019 Clouds 9 1009 76 10000 6.17 240 16:33 26.03.2021
1020 Clouds 9 1009 87 10000 4.12 220 15:58 26.03.2021
1021 Clouds 9 1009 87 10000 4.12 220 15:58 26.03.2021
1022 Clouds 9 1009 87 8000 5.66 240 15:24 26.03.2021
1023 Rain 9 1008 82 10000 8.75 210 14:39 26.03.2021
1024 Clouds 12 1008 62 10000 9.77 200 13:43 26.03.2021
1025 Clouds 12 1009 66 10000 7.72 210 13:21 26.03.2021
1026 Clouds 11 1010 71 10000 7.2 210 12:35 26.03.2021
1027 Clouds 11 1010 71 10000 7.72 200 11:47 26.03.2021
1028 Clouds 11 1010 71 10000 6.69 200 11:27 26.03.2021
1029 Clouds 11 1010 71 10000 6.69 200 10:42 26.03.2021
1030 Clouds 10 1011 71 10000 5.66 220 10:19 26.03.2021
1031 Clouds 10 1011 76 10000 5.66 210 09:40 26.03.2021
1032 Clouds 10 1011 76 10000 6.17 210 08:46 26.03.2021
1033 Clouds 10 1011 76 10000 5.66 200 08:25 26.03.2021
1034 Clouds 10 1011 76 10000 6.17 200 07:42 26.03.2021
1035 Clouds 9 1012 76 10000 6.17 210 07:21 26.03.2021
1036 Clouds 9 1012 76 10000 6.17 200 06:55 26.03.2021
1037 Clouds 9 1013 81 10000 5.14 210 05:31 26.03.2021
1038 Clouds 10 1014 81 10000 5.14 210 03:19 26.03.2021
1039 Clouds 9 1015 81 10000 5.66 210 00:50 26.03.2021
1040 Clouds 10 1016 87 10000 4.63 210 23:49 25.03.2021
1041 Clouds 10 1016 81 10000 5.66 200 23:30 25.03.2021
1042 Clouds 10 1016 81 10000 5.14 210 22:40 25.03.2021
1043 Clouds 9 1017 81 10000 3.6 210 22:18 25.03.2021
1044 Clouds 9 1017 81 10000 4.12 210 21:45 25.03.2021
1045 Clouds 9 1017 81 10000 4.12 220 21:24 25.03.2021
1046 Clouds 9 1017 81 10000 4.63 220 20:38 25.03.2021
1047 Clouds 10 1017 81 10000 4.63 220 20:18 25.03.2021
1048 Clouds 10 1017 81 10000 5.14 220 19:40 25.03.2021
1049 Clear 10 1016 76 10000 6.69 210 19:21 25.03.2021
1050 Clouds 10 1017 76 10000 5.14 220 18:43 25.03.2021
1051 Clouds 11 1017 76 10000 5.14 230 18:25 25.03.2021
1052 Clouds 11 1017 76 10000 6.17 210 17:38 25.03.2021
1053 Clouds 11 1018 82 10000 4.63 230 16:59 25.03.2021
1054 Clouds 11 1018 82 10000 4.63 230 16:37 25.03.2021
1055 Rain 11 1018 76 10000 4.63 210 16:19 25.03.2021
1056 Rain 11 1018 82 10000 5.14 200 15:41 25.03.2021
1057 Clouds 11 1018 82 9000 6.17 230 15:19 25.03.2021
1058 Rain 11 1019 76 10000 6.17 230 14:41 25.03.2021
1059 Rain 12 1019 66 10000 4.63 210 13:40 25.03.2021
1060 Clouds 12 1019 62 10000 5.66 220 13:20 25.03.2021
1061 Clouds 13 1019 62 10000 6.17 230 12:38 25.03.2021
1062 Clouds 12 1019 62 10000 6.17 230 12:19 25.03.2021
1063 Clouds 12 1020 71 10000 6.17 230 11:45 25.03.2021
1064 Clouds 12 1020 66 10000 6.69 240 11:26 25.03.2021
1065 Clouds 11 1020 62 10000 4.63 230 10:50 25.03.2021
1066 Clouds 11 1020 66 10000 4.63 240 10:24 25.03.2021
1067 Clear 9 1020 71 10000 5.14 250 09:54 25.03.2021
1068 Clear 9 1020 71 10000 5.14 250 09:36 25.03.2021
1069 Clear 6 1020 76 10000 3.09 230 08:43 25.03.2021
1070 Clear 5 1020 87 10000 1.54 0 07:58 25.03.2021
1071 Clouds 4 1020 87 10000 4.12 230 06:59 25.03.2021
1072 Clouds 4 1020 87 10000 3.6 230 06:25 25.03.2021
1073 Clouds 5 1020 87 10000 3.09 220 05:48 25.03.2021
1074 Clouds 7 1020 81 10000 4.63 250 02:48 25.03.2021
1075 Clouds 9 1020 81 10000 4.12 240 00:21 25.03.2021
1076 Clouds 9 1020 81 10000 3.09 230 23:51 24.03.2021
1077 Clouds 9 1021 81 10000 4.12 230 23:28 24.03.2021
1078 Clouds 9 1021 81 10000 3.6 230 22:48 24.03.2021
1079 Clouds 10 1021 76 10000 2.57 210 22:27 24.03.2021
1080 Clouds 10 1021 85 10000 2.39 224 21:42 24.03.2021
1081 Clouds 10 1020 71 10000 3.09 220 21:23 24.03.2021
1082 Clouds 10 1020 71 10000 2.57 210 20:43 24.03.2021
1083 Clouds 11 1020 81 10000 2.7 220 20:20 24.03.2021
1084 Clouds 11 1020 66 10000 3.6 230 19:48 24.03.2021
1085 Clouds 12 1020 66 10000 3.09 230 19:28 24.03.2021
1086 Clouds 12 1020 66 10000 4.63 250 18:49 24.03.2021
1087 Clouds 12 1020 77 10000 3.04 233 18:23 24.03.2021
1088 Clouds 12 1020 62 10000 4.12 240 17:51 24.03.2021
1089 Clouds 12 1020 62 10000 4.63 240 17:31 24.03.2021
1090 Clouds 12 1020 73 10000 3.19 236 16:52 24.03.2021
1091 Clouds 13 1020 62 10000 3.09 230 16:29 24.03.2021
1092 Clouds 13 1020 62 10000 3.6 240 15:50 24.03.2021
1093 Clouds 13 1020 62 10000 4.63 240 15:30 24.03.2021
1094 Clouds 12 1020 66 10000 4.12 250 14:48 24.03.2021
1095 Clouds 12 1020 74 10000 2.8 238 14:26 24.03.2021
1096 Clouds 12 1021 62 10000 4.63 240 13:55 24.03.2021
1097 Clouds 12 1021 62 10000 4.12 230 13:28 24.03.2021
1098 Clouds 13 1021 62 10000 4.63 230 12:44 24.03.2021
1099 Clouds 12 1021 62 10000 4.12 240 12:23 24.03.2021
1100 Clouds 12 1021 66 10000 3.6 220 11:49 24.03.2021
1101 Clouds 11 1022 71 10000 3.6 220 10:59 24.03.2021
1102 Clouds 10 1022 71 10000 3.6 220 10:40 24.03.2021
1103 Clouds 10 1022 76 7000 3.09 220 10:21 24.03.2021
1104 Clouds 9 1022 81 6000 2.57 230 09:52 24.03.2021
1105 Clouds 8 1022 81 6000 2.57 220 09:22 24.03.2021
1106 Haze 6 1021 87 5000 2.57 210 08:52 24.03.2021
1107 Haze 6 1021 87 4800 2.57 230 08:26 24.03.2021
1108 Haze 4 1021 93 3800 2.57 230 07:41 24.03.2021
1109 Clouds 4 1021 91 10000 2.02 192 06:54 24.03.2021
1110 Clouds 5 1022 87 7000 1.54 0 05:35 24.03.2021
1111 Clouds 6 1023 76 10000 3.6 240 00:55 24.03.2021
1112 Clouds 6 1023 76 10000 2.57 240 00:28 24.03.2021
1113 Clouds 6 1023 70 10000 2.57 230 23:22 23.03.2021
1114 Clouds 7 1023 71 10000 2.57 220 22:58 23.03.2021
1115 Clouds 7 1023 71 10000 2.57 220 22:40 23.03.2021
1116 Clouds 7 1023 71 10000 3.6 220 21:58 23.03.2021
1117 Clouds 8 1023 71 10000 3.6 220 21:39 23.03.2021
1118 Clear 8 1023 66 10000 3.6 220 21:19 23.03.2021
1119 Clear 9 1023 66 10000 3.6 210 20:40 23.03.2021
1120 Clear 9 1023 66 10000 3.6 220 20:22 23.03.2021
1121 Clear 10 1022 62 10000 4.12 220 19:44 23.03.2021
1122 Clear 10 1022 62 10000 4.63 210 19:23 23.03.2021
1123 Clear 12 1022 54 10000 5.66 230 18:43 23.03.2021
1124 Clear 12 1022 54 10000 4.63 230 18:21 23.03.2021
1125 Clear 13 1022 50 10000 4.12 220 17:44 23.03.2021
1126 Clouds 13 1023 50 10000 5.14 210 17:21 23.03.2021
1127 Clouds 13 1023 50 10000 5.14 210 17:21 23.03.2021
1128 Clouds 14 1023 54 10000 5.14 240 16:26 23.03.2021
1129 Clouds 14 1024 58 10000 4.12 230 15:55 23.03.2021
1130 Clouds 13 1024 58 10000 4.12 230 15:36 23.03.2021
1131 Clouds 12 1024 58 10000 4.63 230 14:50 23.03.2021
1132 Clouds 12 1024 58 10000 5.14 250 14:21 23.03.2021
1133 Clouds 11 1025 62 10000 5.66 250 13:49 23.03.2021
1134 Clouds 11 1025 62 10000 5.66 230 13:25 23.03.2021
1135 Clouds 10 1025 57 10000 5.14 250 12:47 23.03.2021
1136 Clouds 10 1025 57 10000 5.14 240 12:27 23.03.2021
1137 Clouds 10 1026 62 10000 4.63 240 11:51 23.03.2021
1138 Clouds 10 1026 66 10000 5.14 250 11:33 23.03.2021
1139 Clouds 9 1026 66 10000 3.09 240 10:44 23.03.2021
1140 Clouds 9 1025 71 10000 2.57 250 10:22 23.03.2021
1141 Clouds 9 1025 76 10000 0.45 238 09:55 23.03.2021
1142 Clouds 8 1025 81 10000 2.06 250 09:29 23.03.2021
1143 Clouds 7 1025 83 10000 2.72 230 08:57 23.03.2021
1144 Clouds 6 1025 87 10000 1.54 230 08:38 23.03.2021
1145 Clouds 6 1025 81 8000 2.06 210 08:20 23.03.2021
1146 Clouds 5 1025 87 7000 2.06 220 07:28 23.03.2021
1147 Clouds 4 1025 87 7000 2.57 210 06:57 23.03.2021
1148 Clouds 4 1025 87 7000 2.57 210 06:57 23.03.2021
1149 Clouds 4 1025 87 7000 2.57 210 06:18 23.03.2021
1150 Clouds 4 1025 87 7000 1.76 218 03:20 23.03.2021
1151 Clouds 6 1026 81 10000 1.81 222 00:42 23.03.2021
1152 Clouds 7 1026 76 10000 1.03 0 23:33 22.03.2021
1153 Clouds 8 1026 76 10000 1.03 0 22:46 22.03.2021
1154 Clouds 8 1026 76 10000 1.03 0 22:23 22.03.2021
1155 Clouds 8 1026 76 10000 2.57 80 21:52 22.03.2021
1156 Clouds 9 1026 66 10000 2.06 90 21:29 22.03.2021
1157 Clouds 9 1026 62 10000 1.03 0 20:57 22.03.2021
1158 Clouds 10 1026 62 10000 1.03 0 20:37 22.03.2021
1159 Clouds 11 1025 69 10000 0.89 10 20:18 22.03.2021
1160 Clear 11 1025 54 10000 2.06 280 19:40 22.03.2021
1161 Clear 12 1025 50 10000 2.06 270 19:21 22.03.2021
1162 Clear 13 1025 50 10000 2.57 270 18:45 22.03.2021
1163 Clouds 14 1025 47 10000 2.06 270 18:27 22.03.2021
1164 Clouds 14 1025 44 10000 2.57 260 17:51 22.03.2021
1165 Clouds 14 1025 47 10000 2.57 250 17:24 22.03.2021
1166 Clouds 14 1025 47 10000 3.6 260 16:59 22.03.2021
1167 Clouds 14 1025 47 10000 3.6 260 16:40 22.03.2021
1168 Clear 14 1025 50 10000 4.12 270 15:58 22.03.2021
1169 Clear 14 1025 50 10000 4.12 270 15:37 22.03.2021
1170 Clear 14 1026 50 10000 3.6 270 15:37 22.03.2021
1171 Clear 14 1026 50 10000 3.6 270 15:18 22.03.2021
1172 Clouds 14 1026 50 10000 4.63 260 14:50 22.03.2021
1173 Clouds 14 1026 58 10000 4.12 270 14:29 22.03.2021
1174 Clouds 13 1027 54 10000 5.66 260 13:43 22.03.2021
1175 Clouds 13 1027 54 10000 5.66 260 13:22 22.03.2021
1176 Clouds 12 1027 62 10000 2.06 260 12:47 22.03.2021
1177 Clouds 11 1027 62 10000 2.06 260 12:23 22.03.2021
1178 Clouds 11 1027 66 10000 2.06 300 11:47 22.03.2021
1179 Clouds 10 1027 66 10000 2.06 300 11:25 22.03.2021
1180 Clouds 9 1027 66 10000 2.06 300 10:44 22.03.2021
1181 Clouds 9 1027 71 10000 1.54 0 10:24 22.03.2021
1182 Clouds 8 1027 71 10000 2.57 300 09:44 22.03.2021
1183 Clear 8 1027 71 10000 2.57 250 09:23 22.03.2021
1184 Clouds 7 1027 76 10000 3.6 250 08:45 22.03.2021
1185 Clouds 7 1027 76 10000 3.09 250 08:25 22.03.2021
1186 Clouds 6 1027 70 10000 3.09 230 07:46 22.03.2021
1187 Clouds 6 1027 75 10000 2.57 230 06:57 22.03.2021
1188 Clouds 6 1027 75 10000 2.57 230 06:35 22.03.2021
1189 Clouds 5 1028 75 10000 1.57 240 02:38 22.03.2021
1190 Clouds 5 1028 75 10000 1.54 110 00:33 22.03.2021
1191 Clouds 6 1029 75 10000 2.57 100 23:54 21.03.2021
1192 Clouds 6 1029 75 10000 2.57 100 23:20 21.03.2021
1193 Clouds 6 1029 70 10000 1.54 0 22:58 21.03.2021
1194 Clouds 7 1029 66 10000 1.54 0 22:29 21.03.2021
1195 Clouds 7 1029 66 10000 1.03 60 21:41 21.03.2021
1196 Clouds 7 1029 66 10000 0.51 0 21:23 21.03.2021
1197 Clouds 8 1029 57 10000 1.03 0 20:47 21.03.2021
1198 Clouds 8 1029 57 10000 1.54 0 20:27 21.03.2021
1199 Clouds 9 1029 57 10000 2.06 60 19:59 21.03.2021
1200 Clouds 9 1029 61 10000 2.57 50 19:28 21.03.2021
1201 Clouds 9 1029 61 10000 3.09 0 18:55 21.03.2021
1202 Clouds 10 1029 61 10000 2.57 0 18:32 21.03.2021
1203 Clouds 10 1028 53 10000 2.57 360 17:59 21.03.2021
1204 Clouds 10 1028 53 10000 2.57 360 17:40 21.03.2021
1205 Clouds 10 1028 53 10000 4.12 10 17:18 21.03.2021
1206 Clouds 11 1028 53 10000 3.09 0 16:48 21.03.2021
1207 Clouds 11 1029 53 10000 3.6 10 16:22 21.03.2021
1208 Clouds 11 1029 57 10000 4.63 360 15:42 21.03.2021
1209 Clouds 11 1029 53 10000 3.6 20 15:20 21.03.2021
1210 Clouds 12 1029 57 10000 3.6 40 14:46 21.03.2021
1211 Clouds 12 1029 47 10000 3.82 10 14:27 21.03.2021
1212 Clouds 12 1028 60 10000 1.34 350 13:57 21.03.2021
1213 Clouds 12 1029 50 10000 3.82 10 13:38 21.03.2021
1214 Clouds 11 1030 53 10000 3.63 8 12:43 21.03.2021
1215 Clouds 10 1030 66 10000 3.6 10 12:25 21.03.2021
1216 Clouds 10 1030 66 10000 3.6 10 12:25 21.03.2021
1217 Clouds 10 1030 66 10000 3.6 0 11:41 21.03.2021
1218 Clouds 10 1030 66 10000 3.09 0 11:20 21.03.2021
1219 Clouds 9 1030 71 10000 3.6 10 10:44 21.03.2021
1220 Clouds 9 1030 76 10000 4.12 0 10:26 21.03.2021
1221 Clouds 8 1029 81 10000 4.12 350 09:47 21.03.2021
1222 Clouds 8 1029 81 10000 2.57 350 09:29 21.03.2021
1223 Clouds 8 1029 81 10000 2.57 350 08:56 21.03.2021
1224 Clouds 8 1029 81 10000 1.54 0 08:31 21.03.2021
1225 Clouds 7 1029 87 10000 1.54 0 07:50 21.03.2021
1226 Clouds 7 1028 87 10000 1.54 0 07:23 21.03.2021
1227 Clouds 7 1028 81 10000 3.09 320 05:59 21.03.2021
1228 Clouds 8 1028 81 10000 2.57 320 03:41 21.03.2021
1229 Clouds 9 1028 76 10000 4.12 310 00:57 21.03.2021
1230 Clouds 9 1028 76 10000 4.12 310 00:37 21.03.2021
1231 Clouds 9 1028 76 10000 4.63 300 00:19 21.03.2021
1232 Clouds 9 1028 76 10000 3.6 260 23:42 20.03.2021
1233 Clouds 9 1028 76 10000 3.09 260 23:19 20.03.2021
1234 Clouds 9 1028 76 10000 3.09 250 22:24 20.03.2021
1235 Clouds 10 1028 71 10000 4.12 270 21:49 20.03.2021
1236 Clouds 10 1028 76 10000 3.09 270 21:27 20.03.2021
1237 Clouds 10 1028 71 10000 2.57 280 20:50 20.03.2021
1238 Clouds 10 1029 71 10000 2.57 280 20:25 20.03.2021
1239 Clouds 10 1029 66 10000 1.03 0 19:56 20.03.2021
1240 Clouds 10 1029 66 10000 1.03 0 19:38 20.03.2021
1241 Clouds 10 1029 66 10000 1.03 230 19:20 20.03.2021
1242 Clouds 10 1029 71 10000 1.54 270 18:44 20.03.2021
1243 Clouds 10 1029 71 10000 1.03 0 18:21 20.03.2021
1244 Clouds 10 1030 71 10000 1.54 0 17:42 20.03.2021
1245 Clouds 10 1030 71 10000 1.54 0 17:22 20.03.2021
1246 Clouds 10 1030 76 10000 2.57 300 16:43 20.03.2021
1247 Clouds 10 1030 76 10000 2.57 300 16:19 20.03.2021
1248 Clouds 9 1031 76 10000 2.06 320 15:44 20.03.2021
1249 Clouds 10 1031 76 10000 3.09 280 15:25 20.03.2021
1250 Clouds 9 1031 76 10000 2.57 310 14:40 20.03.2021
1251 Clouds 9 1031 71 10000 2.06 340 14:20 20.03.2021
1252 Clouds 9 1032 76 10000 2.57 320 13:31 20.03.2021
1253 Clouds 9 1032 76 10000 2.57 290 12:42 20.03.2021
1254 Clouds 8 1033 76 10000 3.09 300 12:23 20.03.2021
1255 Clouds 8 1033 71 10000 3.09 300 11:44 20.03.2021
1256 Clouds 8 1033 71 10000 0.51 0 11:23 20.03.2021
1257 Clouds 7 1033 76 10000 2.06 300 10:47 20.03.2021
1258 Clouds 7 1033 76 10000 2.06 300 10:27 20.03.2021
1259 Clouds 6 1033 81 10000 1.03 0 09:54 20.03.2021
1260 Clouds 6 1033 75 10000 0.51 0 09:26 20.03.2021
1261 Clouds 6 1033 75 10000 1.54 0 08:56 20.03.2021
1262 Clouds 5 1033 81 10000 0.51 0 08:28 20.03.2021
1263 Clouds 5 1033 75 10000 1.58 319 07:50 20.03.2021
1264 Clouds 4 1032 81 10000 0.51 0 07:30 20.03.2021
1265 Clouds 5 1032 75 10000 1.03 0 06:46 20.03.2021
1266 Clouds 5 1032 75 10000 1.54 0 05:37 20.03.2021
1267 Clouds 5 1033 87 10000 1.03 0 03:46 20.03.2021
1268 Clouds 4 1033 87 10000 1.03 0 02:42 20.03.2021
1269 Clouds 4 1032 75 10000 1.58 35 23:57 19.03.2021
1270 Clouds 5 1032 75 10000 1.71 46 23:29 19.03.2021
1271 Clouds 5 1032 70 10000 0.51 90 22:46 19.03.2021
1272 Clear 5 1032 70 10000 0.51 0 22:26 19.03.2021
1273 Clouds 6 1032 70 10000 1.54 0 21:53 19.03.2021
1274 Clouds 6 1031 65 10000 2.57 100 21:22 19.03.2021
1275 Clouds 7 1031 61 10000 2.57 90 20:57 19.03.2021
1276 Clouds 7 1031 61 10000 2.57 90 20:39 19.03.2021
1277 Clouds 7 1031 61 10000 3.6 100 20:21 19.03.2021
1278 Clouds 7 1031 61 10000 3.6 120 19:43 19.03.2021
1279 Clouds 8 1030 57 10000 4.63 120 19:19 19.03.2021
1280 Clouds 9 1030 61 10000 4.12 120 18:40 19.03.2021
1281 Clouds 10 1030 50 10000 6.17 60 18:18 19.03.2021
1282 Clouds 10 1030 50 10000 4.12 60 17:52 19.03.2021
1283 Clouds 11 1029 50 10000 4.63 60 17:28 19.03.2021
1284 Clouds 11 1029 46 10000 3.6 50 16:52 19.03.2021
1285 Clouds 11 1029 50 10000 3.6 50 16:27 19.03.2021
1286 Clouds 11 1029 50 10000 3.6 0 15:47 19.03.2021
1287 Clouds 11 1029 46 10000 4.12 30 15:22 19.03.2021
1288 Clouds 11 1029 46 10000 5.14 50 14:46 19.03.2021
1289 Clouds 11 1029 49 10000 5.66 60 14:26 19.03.2021
1290 Clouds 10 1029 53 10000 5.66 70 13:40 19.03.2021
1291 Clouds 10 1029 53 10000 5.14 60 12:57 19.03.2021
1292 Clouds 10 1029 53 10000 5.14 60 12:35 19.03.2021
1293 Clear 9 1029 61 10000 5.14 50 11:44 19.03.2021
1294 Clouds 7 1028 75 10000 3.6 50 10:54 19.03.2021
1295 Clouds 7 1028 75 10000 5.14 60 10:31 19.03.2021
1296 Clouds 6 1028 75 10000 4.63 60 09:49 19.03.2021
1297 Clouds 6 1027 75 10000 4.63 60 09:30 19.03.2021
1298 Clouds 6 1027 81 10000 4.12 50 08:58 19.03.2021
1299 Clouds 6 1027 81 10000 4.12 50 08:39 19.03.2021
1300 Clouds 6 1027 81 10000 3.6 60 08:18 19.03.2021
1301 Clouds 6 1026 81 10000 3.6 60 07:37 19.03.2021
1302 Clouds 6 1025 81 10000 4.12 60 06:51 19.03.2021
1303 Clouds 7 1024 93 10000 4.12 360 02:45 19.03.2021
1304 Clouds 8 1024 87 10000 3.6 10 00:58 19.03.2021
1305 Rain 9 1024 93 5000 2.57 0 23:48 18.03.2021
1306 Clouds 9 1024 93 3100 4.12 340 23:25 18.03.2021
1307 Clouds 9 1024 93 3300 4.12 300 22:39 18.03.2021
1308 Clouds 9 1024 87 4500 3.6 300 22:20 18.03.2021
1309 Clouds 9 1024 87 10000 3.09 300 21:39 18.03.2021
1310 Clouds 8 1025 87 9000 3.6 300 20:54 18.03.2021
1311 Clouds 8 1025 87 9000 3.6 300 20:35 18.03.2021
1312 Clouds 8 1025 93 7000 2.57 300 19:58 18.03.2021
1313 Clouds 8 1025 93 7000 2.57 300 19:40 18.03.2021
1314 Clouds 8 1026 87 10000 2.06 310 19:19 18.03.2021
1315 Clouds 8 1026 87 10000 2.57 330 18:35 18.03.2021
1316 Clouds 8 1027 81 10000 2.57 340 17:51 18.03.2021
1317 Clouds 8 1027 81 10000 3.6 340 17:26 18.03.2021
1318 Clouds 8 1027 81 10000 4.12 340 16:50 18.03.2021
1319 Clouds 9 1027 71 10000 3.6 320 16:30 18.03.2021
1320 Clouds 9 1028 76 10000 3.6 330 15:49 18.03.2021
1321 Clouds 8 1028 71 10000 4.12 340 15:30 18.03.2021
1322 Clouds 8 1029 76 10000 3.6 340 14:59 18.03.2021
1323 Clouds 8 1029 76 10000 3.6 340 14:40 18.03.2021
1324 Clouds 8 1029 76 10000 3.6 350 13:56 18.03.2021
1325 Clouds 8 1030 81 10000 3.09 10 13:27 18.03.2021
1326 Clouds 8 1030 81 10000 3.6 360 12:57 18.03.2021
1327 Clouds 8 1030 81 10000 3.6 360 12:36 18.03.2021
1328 Clouds 8 1030 81 10000 3.6 360 12:36 18.03.2021
1329 Clouds 8 1030 76 10000 4.63 360 12:18 18.03.2021
1330 Clouds 8 1030 71 10000 4.63 360 11:40 18.03.2021
1331 Clouds 8 1030 76 10000 4.63 350 10:57 18.03.2021
1332 Rain 7 1030 76 10000 4.63 340 10:38 18.03.2021
1333 Clouds 7 1030 76 10000 4.63 340 10:20 18.03.2021
1334 Clouds 7 1030 76 10000 3.09 330 09:38 18.03.2021
1335 Rain 7 1030 76 10000 3.09 330 09:20 18.03.2021
1336 Clouds 6 1030 76 10000 3.09 300 08:43 18.03.2021
1337 Clouds 6 1030 81 10000 2.57 300 08:23 18.03.2021
1338 Clouds 6 1030 81 10000 3.09 300 07:45 18.03.2021
1339 Clouds 5 1031 81 10000 4.12 300 06:43 18.03.2021
1340 Clouds 5 1031 81 10000 3.6 300 06:23 18.03.2021
1341 Clouds 5 1031 87 10000 2.57 280 05:26 18.03.2021
1342 Clouds 5 1033 81 10000 1.54 0 00:44 18.03.2021
1343 Clouds 6 1033 81 10000 2.06 340 23:25 17.03.2021
1344 Clouds 6 1033 81 10000 3.09 350 22:39 17.03.2021
1345 Clouds 6 1033 81 10000 2.57 360 22:21 17.03.2021
1346 Clouds 7 1033 76 10000 3.09 10 21:51 17.03.2021
1347 Clouds 7 1033 76 10000 3.09 10 21:32 17.03.2021
1348 Clouds 7 1032 71 10000 3.09 350 20:54 17.03.2021
1349 Clouds 8 1032 71 10000 3.09 350 20:36 17.03.2021
1350 Clouds 8 1032 71 10000 3.09 350 20:18 17.03.2021
1351 Clouds 9 1032 71 10000 2.57 350 19:40 17.03.2021
1352 Clouds 9 1032 66 10000 3.09 350 19:19 17.03.2021
1353 Clouds 9 1032 62 10000 4.12 350 18:50 17.03.2021
1354 Clouds 9 1032 62 10000 3.09 350 18:32 17.03.2021
1355 Clouds 9 1032 66 10000 4.12 340 17:42 17.03.2021
1356 Clouds 10 1032 66 10000 3.6 340 17:23 17.03.2021
1357 Clouds 9 1032 66 10000 4.12 340 16:43 17.03.2021
1358 Clouds 9 1033 71 10000 3.6 340 16:21 17.03.2021
1359 Clouds 9 1032 76 10000 3.6 0 15:49 17.03.2021
1360 Clouds 8 1033 81 10000 3.6 310 15:29 17.03.2021
1361 Rain 7 1033 81 10000 4.12 320 14:40 17.03.2021
1362 Rain 7 1033 76 10000 3.6 310 14:20 17.03.2021
1363 Rain 8 1034 71 10000 3.6 320 13:55 17.03.2021
1364 Rain 8 1034 66 10000 3.09 310 13:26 17.03.2021
1365 Rain 9 1033 66 10000 3.6 340 12:49 17.03.2021
1366 Clouds 9 1033 71 10000 3.6 300 12:28 17.03.2021
1367 Clouds 9 1033 71 10000 3.09 300 11:43 17.03.2021
1368 Clouds 8 1033 71 10000 3.6 300 11:23 17.03.2021
1369 Clear 8 1033 71 10000 2.57 300 10:53 17.03.2021
1370 Clouds 8 1034 76 10000 3.09 330 10:25 17.03.2021
1371 Clouds 7 1034 76 10000 2.57 310 09:48 17.03.2021
1372 Clouds 7 1034 76 10000 2.57 310 09:48 17.03.2021
1373 Clear 7 1033 76 10000 3.6 300 09:25 17.03.2021
1374 Clear 6 1033 81 10000 3.09 300 08:58 17.03.2021
1375 Clear 6 1033 81 10000 3.09 300 08:38 17.03.2021
1376 Clouds 5 1033 81 10000 3.09 300 07:49 17.03.2021
1377 Clouds 5 1033 81 10000 2.57 300 07:30 17.03.2021
1378 Clouds 5 1033 81 10000 2.06 300 06:42 17.03.2021
1379 Clouds 6 1033 70 10000 2.57 300 04:23 17.03.2021
1380 Clouds 6 1033 76 10000 2.57 300 03:24 17.03.2021
1381 Clouds 7 1032 66 10000 3.6 330 00:40 17.03.2021
1382 Clouds 8 1032 71 10000 4.12 330 23:33 16.03.2021
1383 Clouds 8 1031 71 10000 3.6 320 22:59 16.03.2021
1384 Clouds 8 1031 71 10000 3.6 320 22:35 16.03.2021
1385 Clouds 8 1031 71 10000 3.6 340 21:54 16.03.2021
1386 Clouds 8 1031 71 10000 3.6 340 21:35 16.03.2021
1387 Clouds 8 1031 66 10000 4.12 360 20:59 16.03.2021
1388 Clouds 9 1030 66 10000 3.6 360 20:41 16.03.2021
1389 Clouds 9 1030 66 10000 3.6 360 20:18 16.03.2021
1390 Clouds 10 1030 66 10000 6.17 360 19:42 16.03.2021
1391 Clouds 11 1029 76 10000 4.12 40 19:23 16.03.2021
1392 Clouds 12 1028 71 10000 4.63 0 18:47 16.03.2021
1393 Clouds 13 1027 71 10000 5.14 360 18:29 16.03.2021
1394 Clouds 14 1027 72 10000 4.63 330 17:50 16.03.2021
1395 Clouds 14 1027 76 10000 4.63 320 17:32 16.03.2021
1396 Clouds 14 1026 76 10000 5.66 300 16:53 16.03.2021
1397 Clouds 13 1026 71 10000 7.72 300 16:31 16.03.2021
1398 Clouds 13 1025 71 10000 5.66 300 15:47 16.03.2021
1399 Clouds 13 1026 82 10000 4.12 300 15:22 16.03.2021
1400 Clouds 13 1025 80 10000 1.79 304 15:22 16.03.2021
1401 Clouds 13 1025 76 10000 6.69 300 14:59 16.03.2021
1402 Clouds 13 1025 76 10000 6.69 300 14:40 16.03.2021
1403 Clouds 13 1025 76 10000 5.14 300 14:21 16.03.2021
1404 Clouds 13 1025 76 10000 5.66 300 13:55 16.03.2021
1405 Clouds 13 1025 67 10000 5.14 300 13:28 16.03.2021
1406 Clouds 13 1026 71 10000 5.66 300 12:55 16.03.2021
1407 Clouds 13 1026 71 10000 5.66 300 12:36 16.03.2021
1408 Clouds 12 1026 82 10000 4.63 290 11:56 16.03.2021
1409 Clouds 12 1026 82 10000 4.63 290 11:32 16.03.2021
1410 Clouds 10 1026 87 10000 5.14 270 10:46 16.03.2021
1411 Clouds 9 1026 87 10000 4.63 260 10:21 16.03.2021
1412 Clouds 8 1026 81 10000 3.6 260 09:40 16.03.2021
1413 Clouds 8 1026 87 10000 4.63 250 09:20 16.03.2021
1414 Clouds 8 1026 87 10000 3.09 240 08:53 16.03.2021
1415 Clouds 8 1026 87 10000 3.09 240 08:35 16.03.2021
1416 Clouds 7 1026 81 10000 2.57 230 07:53 16.03.2021
1417 Clouds 7 1026 76 10000 3.09 240 07:24 16.03.2021
1418 Clouds 7 1026 76 10000 3.09 240 07:24 16.03.2021
1419 Clouds 7 1026 76 10000 3.09 250 06:38 16.03.2021
1420 Rain 7 1026 76 10000 3.09 250 05:36 16.03.2021
1421 Clouds 7 1027 81 10000 3.09 280 04:26 16.03.2021
1422 Clouds 7 1027 76 10000 2.06 290 02:26 16.03.2021
1423 Clouds 8 1025 79 10000 0.89 296 00:39 16.03.2021
1424 Clouds 8 1025 77 10000 1.34 307 23:54 15.03.2021
1425 Clouds 9 1026 66 10000 3.6 300 23:19 15.03.2021
1426 Clouds 9 1026 66 10000 4.12 290 22:43 15.03.2021
1427 Clouds 9 1026 71 10000 2.06 300 22:25 15.03.2021
1428 Clouds 9 1025 76 10000 1.54 280 21:51 15.03.2021
1429 Clouds 9 1025 76 10000 2.06 270 21:29 15.03.2021
1430 Clouds 9 1025 76 10000 1.03 260 20:55 15.03.2021
1431 Clouds 9 1025 76 10000 1.03 260 20:37 15.03.2021
1432 Clouds 9 1024 76 10000 2.26 345 20:19 15.03.2021
1433 Clouds 9 1024 71 10000 0.51 140 19:48 15.03.2021
1434 Clouds 10 1024 71 10000 1.03 0 19:30 15.03.2021
1435 Clear 10 1024 71 10000 1.03 0 18:48 15.03.2021
1436 Clouds 10 1023 71 10000 1.54 0 18:23 15.03.2021
1437 Clouds 10 1023 66 10000 2.06 320 17:55 15.03.2021
1438 Clouds 11 1023 66 10000 2.57 310 17:29 15.03.2021
1439 Clouds 11 1023 71 10000 3.6 300 16:50 15.03.2021
1440 Clouds 10 1022 76 10000 3.6 300 16:31 15.03.2021
1441 Clouds 10 1022 71 10000 3.09 310 15:45 15.03.2021
1442 Rain 10 1022 81 10000 3.6 340 15:25 15.03.2021
1443 Clouds 10 1022 66 10000 4.12 310 14:44 15.03.2021
1444 Clouds 9 1022 76 10000 3.6 310 14:22 15.03.2021
1445 Clouds 9 1021 81 10000 4.63 300 13:47 15.03.2021
1446 Clouds 10 1021 81 10000 4.12 310 13:25 15.03.2021
1447 Rain 9 1021 87 10000 3.6 320 12:48 15.03.2021
1448 Clouds 10 1020 66 10000 6.69 300 12:19 15.03.2021
1449 Clouds 10 1020 66 10000 6.17 300 11:52 15.03.2021
1450 Clouds 10 1020 66 10000 6.17 300 11:32 15.03.2021
1451 Clouds 10 1020 66 10000 6.69 300 10:54 15.03.2021
1452 Clouds 10 1019 71 10000 5.66 300 10:30 15.03.2021
1453 Clouds 9 1019 71 10000 5.14 300 09:52 15.03.2021
1454 Clouds 9 1018 76 10000 5.66 300 09:34 15.03.2021
1455 Clouds 8 1018 76 10000 5.14 290 08:54 15.03.2021
1456 Clouds 8 1018 76 10000 5.14 290 08:32 15.03.2021
1457 Clouds 8 1017 76 10000 5.14 290 07:53 15.03.2021
1458 Clouds 8 1017 76 10000 5.14 290 07:32 15.03.2021
1459 Clouds 8 1016 85 10000 5.37 312 06:40 15.03.2021
1460 Clouds 8 1016 71 10000 5.14 290 05:32 15.03.2021
1461 Clouds 9 1014 76 10000 6.69 280 01:36 15.03.2021
1462 Clouds 9 1014 81 10000 8.23 260 23:58 14.03.2021
1463 Clouds 9 1014 76 10000 7.72 250 23:20 14.03.2021
1464 Clouds 8 1014 76 10000 8.23 250 22:47 14.03.2021
1465 Clouds 8 1014 76 10000 7.2 250 22:23 14.03.2021
1466 Clouds 8 1014 81 10000 7.72 250 21:45 14.03.2021
1467 Clouds 8 1014 81 10000 8.23 250 21:19 14.03.2021
1468 Clouds 8 1015 76 10000 9.26 250 20:49 14.03.2021
1469 Clouds 8 1015 71 10000 8.75 260 20:26 14.03.2021
1470 Clouds 8 1015 71 10000 8.75 260 20:26 14.03.2021
1471 Clouds 8 1014 66 10000 8.75 250 19:48 14.03.2021
1472 Clouds 9 1014 66 10000 7.72 250 19:24 14.03.2021
1473 Rain 9 1015 66 10000 8.75 250 18:56 14.03.2021
1474 Clouds 9 1015 66 10000 7.2 250 18:28 14.03.2021
1475 Clouds 9 1015 62 10000 6.17 240 17:41 14.03.2021
1476 Clouds 9 1015 61 10000 8.23 250 17:23 14.03.2021
1477 Rain 9 1015 53 10000 6.69 250 16:52 14.03.2021
1478 Rain 10 1016 53 10000 6.17 260 16:32 14.03.2021
1479 Clouds 10 1016 53 10000 7.72 280 15:57 14.03.2021
1480 Clouds 10 1016 53 10000 7.72 280 15:39 14.03.2021
1481 Clouds 10 1016 53 10000 7.72 270 14:42 14.03.2021
1482 Clouds 10 1016 53 10000 7.2 270 14:23 14.03.2021
1483 Clouds 10 1016 53 10000 7.2 280 13:50 14.03.2021
1484 Clouds 10 1016 53 10000 8.23 270 13:29 14.03.2021
1485 Clouds 11 1015 57 10000 6.69 280 12:47 14.03.2021
1486 Clouds 10 1015 61 10000 7.2 280 12:29 14.03.2021
1487 Clouds 10 1015 66 10000 7.2 280 11:58 14.03.2021
1488 Clouds 10 1015 66 10000 7.2 280 11:36 14.03.2021
1489 Clouds 9 1014 71 10000 5.14 270 10:58 14.03.2021
1490 Clouds 8 1014 71 10000 5.14 270 10:37 14.03.2021
1491 Clouds 8 1014 71 10000 5.14 260 10:19 14.03.2021
1492 Clouds 7 1014 76 10000 4.63 260 09:44 14.03.2021
1493 Clouds 6 1013 70 10000 5.14 250 09:23 14.03.2021
1494 Clouds 6 1013 70 10000 5.66 260 08:51 14.03.2021
1495 Clouds 6 1013 70 10000 5.66 260 08:32 14.03.2021
1496 Clear 5 1011 75 10000 5.66 270 07:48 14.03.2021
1497 Clear 5 1011 75 10000 5.66 270 07:48 14.03.2021
1498 Clouds 5 1011 75 10000 7.2 270 07:20 14.03.2021
1499 Clouds 6 1009 81 10000 6.69 280 05:33 14.03.2021
1500 Clouds 5 1004 75 10000 7.2 250 00:59 14.03.2021
1501 Clouds 5 1004 70 10000 7.2 250 00:20 14.03.2021
1502 Clouds 5 1004 70 10000 7.2 250 00:20 14.03.2021
1503 Clouds 5 1004 70 10000 6.69 250 23:57 13.03.2021
1504 Clouds 4 1004 70 10000 6.69 250 23:36 13.03.2021
1505 Clouds 4 1003 70 10000 7.2 250 22:58 13.03.2021
1506 Clouds 4 1003 70 10000 7.2 250 22:40 13.03.2021
1507 Clouds 4 1003 70 10000 6.69 250 21:50 13.03.2021
1508 Clouds 4 1002 65 10000 6.69 250 21:27 13.03.2021
1509 Clouds 5 1002 65 10000 6.17 250 20:55 13.03.2021
1510 Clouds 5 1002 65 10000 6.17 250 20:32 13.03.2021
1511 Clouds 5 1000 61 10000 8.75 250 19:58 13.03.2021
1512 Clouds 6 1000 61 10000 8.75 250 19:37 13.03.2021
1513 Clouds 6 1000 53 10000 10.8 270 19:18 13.03.2021
1514 Clouds 6 1000 53 10000 10.8 270 19:18 13.03.2021
1515 Clouds 7 999 53 10000 7.72 270 18:40 13.03.2021
1516 Clouds 8 998 57 10000 6.69 270 18:19 13.03.2021
1517 Clouds 8 998 49 10000 6.69 280 17:46 13.03.2021
1518 Clouds 9 998 53 10000 7.2 260 17:27 13.03.2021
1519 Clouds 9 997 57 10000 7.72 260 16:51 13.03.2021
1520 Clouds 9 997 53 10000 7.72 270 16:31 13.03.2021
1521 Clouds 10 996 50 10000 8.23 260 15:47 13.03.2021
1522 Clouds 10 996 46 10000 11.32 260 14:56 13.03.2021
1523 Clouds 10 996 46 10000 11.32 260 14:38 13.03.2021
1524 Clouds 10 996 50 10000 10.29 260 14:18 13.03.2021
1525 Clouds 10 995 53 10000 10.8 260 13:26 13.03.2021
1526 Clouds 10 995 57 10000 9.77 260 12:48 13.03.2021
1527 Clouds 9 994 57 10000 11.83 260 12:29 13.03.2021
1528 Clouds 9 994 57 10000 13.38 260 11:52 13.03.2021
1529 Clouds 8 993 70 10000 11.32 260 11:31 13.03.2021
1530 Clouds 8 993 61 10000 10.8 250 10:56 13.03.2021
1531 Clouds 7 992 70 10000 10.29 250 10:31 13.03.2021
1532 Clouds 7 991 70 10000 10.29 250 09:57 13.03.2021
1533 Clouds 7 991 70 10000 9.77 240 09:31 13.03.2021
1534 Clouds 6 991 75 10000 9.26 240 08:54 13.03.2021
1535 Rain 6 990 70 10000 9.26 240 08:20 13.03.2021
1536 Rain 6 990 70 10000 10.29 250 07:57 13.03.2021
1537 Clouds 6 990 70 10000 11.83 250 07:28 13.03.2021
1538 Rain 6 990 81 9000 9.77 250 04:45 13.03.2021
1539 Rain 7 993 87 10000 6.17 210 01:22 13.03.2021
1540 Rain 7 996 87 10000 5.14 220 00:24 13.03.2021
1541 Clouds 7 997 81 10000 6.17 230 23:33 12.03.2021
1542 Rain 8 998 76 10000 5.66 220 22:57 12.03.2021
1543 Clouds 8 999 71 10000 5.66 230 22:30 12.03.2021
1544 Clouds 8 999 71 10000 6.69 230 21:56 12.03.2021
1545 Clouds 8 999 71 10000 6.69 230 21:37 12.03.2021
1546 Clouds 8 1000 71 10000 5.66 220 21:37 12.03.2021
1547 Clouds 8 999 71 10000 6.69 230 21:37 12.03.2021
1548 Clouds 8 1000 71 10000 5.66 220 21:18 12.03.2021
1549 Clear 8 1000 71 10000 4.12 220 20:47 12.03.2021
1550 Rain 7 1000 71 10000 5.14 210 20:22 12.03.2021
1551 Clouds 8 1001 66 10000 5.66 240 19:44 12.03.2021
1552 Clouds 8 1001 57 10000 6.17 240 19:25 12.03.2021
1553 Clouds 8 1001 57 10000 6.69 240 18:50 12.03.2021
1554 Clouds 9 1001 57 10000 7.2 240 18:28 12.03.2021
1555 Clouds 9 1001 53 10000 8.23 240 17:45 12.03.2021
1556 Clouds 10 1001 53 10000 7.2 230 17:27 12.03.2021
1557 Clouds 10 1001 50 10000 9.26 240 16:44 12.03.2021
1558 Clouds 10 1001 46 10000 10.29 250 16:25 12.03.2021
1559 Clouds 10 1001 57 10000 8.23 250 15:38 12.03.2021
1560 Clouds 10 1001 57 10000 8.75 240 15:18 12.03.2021
1561 Clouds 10 1001 57 10000 9.26 240 14:40 12.03.2021
1562 Clouds 9 1002 61 10000 10.29 250 14:18 12.03.2021
1563 Clouds 10 1002 53 10000 10.8 250 13:40 12.03.2021
1564 Clouds 9 1001 61 10000 9.26 250 13:19 12.03.2021
1565 Clouds 9 1002 66 10000 9.26 250 12:49 12.03.2021
1566 Clouds 9 1002 76 10000 7.4 264 12:28 12.03.2021
1567 Clouds 8 1001 76 10000 8.23 240 11:57 12.03.2021
1568 Clouds 8 1002 87 10000 5.66 240 11:30 12.03.2021
1569 Clouds 8 1002 81 7000 6.17 250 10:59 12.03.2021
1570 Clouds 7 1002 81 7000 6.17 250 10:41 12.03.2021
1571 Rain 8 1002 76 10000 6.17 220 10:20 12.03.2021
1572 Clouds 8 1003 76 10000 6.17 220 09:29 12.03.2021
1573 Clouds 7 1003 76 10000 5.14 220 08:57 12.03.2021
1574 Clouds 7 1003 76 10000 5.14 220 08:38 12.03.2021
1575 Clouds 6 1004 76 10000 5.14 230 07:41 12.03.2021
1576 Clouds 6 1004 70 10000 6.69 230 07:19 12.03.2021
1577 Clouds 6 1004 70 10000 6.17 230 06:41 12.03.2021
1578 Clouds 6 1005 75 10000 6.69 230 05:45 12.03.2021
1579 Clouds 5 1005 70 10000 6.17 240 00:52 12.03.2021
1580 Clouds 6 1005 70 10000 7.72 250 23:56 11.03.2021
1581 Clouds 6 1004 70 10000 6.69 250 22:59 11.03.2021
1582 Clouds 6 1004 70 10000 6.69 250 22:39 11.03.2021
1583 Clouds 6 1003 70 10000 6.17 250 22:19 11.03.2021
1584 Clouds 6 1003 65 10000 7.72 250 21:46 11.03.2021
1585 Clouds 6 1002 65 10000 7.72 250 21:24 11.03.2021
1586 Clouds 6 1001 65 10000 9.26 250 20:49 11.03.2021
1587 Clouds 7 1001 61 10000 8.23 240 20:22 11.03.2021
1588 Clouds 7 1000 61 10000 10.29 250 19:54 11.03.2021
1589 Clouds 7 1000 61 10000 10.29 250 19:36 11.03.2021
1590 Clouds 8 999 66 10000 9.26 240 18:53 11.03.2021
1591 Clouds 8 999 66 10000 9.26 240 18:35 11.03.2021
1592 Clouds 8 998 66 10000 7.72 240 17:53 11.03.2021
1593 Clouds 8 998 66 10000 7.2 240 17:35 11.03.2021
1594 Clouds 8 998 71 10000 10.29 240 16:38 11.03.2021
1595 Clouds 9 998 53 10000 10.29 260 16:19 11.03.2021
1596 Clouds 11 997 46 10000 12.35 250 15:44 11.03.2021
1597 Clouds 10 997 62 10000 8.23 250 15:20 11.03.2021
1598 Clouds 11 997 71 10000 8.75 250 14:45 11.03.2021
1599 Rain 11 997 58 10000 9.26 240 14:18 11.03.2021
1600 Clouds 11 997 58 10000 10.8 250 13:45 11.03.2021
1601 Clouds 11 996 58 10000 12.86 250 13:22 11.03.2021
1602 Clouds 11 995 58 10000 11.32 250 12:55 11.03.2021
1603 Clouds 11 995 54 10000 12.86 250 12:30 11.03.2021
1604 Clouds 11 995 58 10000 11.83 250 11:48 11.03.2021
1605 Clouds 11 994 62 10000 13.38 250 11:30 11.03.2021
1606 Clouds 11 994 62 10000 10.29 250 10:56 11.03.2021
1607 Clouds 11 993 62 10000 12.86 240 10:27 11.03.2021
1608 Clouds 11 992 62 10000 13.38 250 09:52 11.03.2021
1609 Clouds 11 992 62 10000 13.38 250 09:33 11.03.2021
1610 Clouds 11 990 62 10000 11.83 240 08:51 11.03.2021
1611 Clouds 10 990 62 10000 11.83 240 08:32 11.03.2021
1612 Clouds 10 990 62 10000 10.8 230 07:50 11.03.2021
1613 Clouds 10 989 73 10000 3.13 247 07:21 11.03.2021
1614 Clouds 10 990 62 10000 11.83 230 06:47 11.03.2021
1615 Clouds 10 990 58 10000 12.35 230 06:23 11.03.2021
1616 Clouds 11 993 87 7000 8.23 210 02:48 11.03.2021
1617 Rain 11 995 82 10000 7.72 220 00:34 11.03.2021
1618 Clouds 11 997 87 7000 6.69 220 23:23 10.03.2021
1619 Clouds 10 997 87 10000 7.2 210 22:43 10.03.2021
1620 Clouds 10 998 93 6000 8.23 220 22:23 10.03.2021
1621 Clouds 10 999 87 10000 6.69 210 21:44 10.03.2021
1622 Rain 10 999 87 10000 8.75 210 21:23 10.03.2021
1623 Clouds 10 1000 87 10000 7.2 210 20:46 10.03.2021
1624 Clouds 9 1000 87 10000 6.69 210 20:28 10.03.2021
1625 Clouds 9 1001 87 10000 8.23 210 19:50 10.03.2021
1626 Clouds 9 1001 87 10000 8.23 210 19:28 10.03.2021
1627 Clouds 8 1002 81 10000 8.75 200 18:46 10.03.2021
1628 Clouds 8 1003 81 10000 7.72 210 18:24 10.03.2021
1629 Clouds 8 1003 81 10000 8.23 200 17:57 10.03.2021
1630 Clouds 8 1003 81 10000 8.23 200 17:37 10.03.2021
1631 Clouds 8 1004 87 10000 6.17 210 17:19 10.03.2021
1632 Rain 8 1005 87 10000 7.2 210 16:44 10.03.2021
1633 Rain 8 1005 87 10000 8.23 210 16:24 10.03.2021
1634 Clouds 8 1006 87 10000 8.23 210 15:47 10.03.2021
1635 Clouds 8 1006 87 10000 7.2 210 15:25 10.03.2021
1636 Rain 8 1007 87 10000 7.72 210 14:56 10.03.2021
1637 Rain 8 1008 81 10000 6.17 210 14:21 10.03.2021
1638 Rain 7 1008 81 10000 7.2 200 13:52 10.03.2021
1639 Rain 7 1009 81 8000 7.2 210 13:31 10.03.2021
1640 Rain 8 1009 81 10000 8.23 210 12:47 10.03.2021
1641 Rain 7 1009 76 10000 7.2 210 12:23 10.03.2021
1642 Rain 8 1010 76 10000 7.72 210 11:50 10.03.2021
1643 Rain 7 1010 81 10000 6.69 210 11:22 10.03.2021
1644 Rain 7 1011 81 9000 5.14 210 10:50 10.03.2021
1645 Rain 7 1011 76 9000 6.17 200 10:31 10.03.2021
1646 Rain 7 1012 76 9000 6.17 200 09:55 10.03.2021
1647 Rain 7 1012 76 9000 6.17 200 09:37 10.03.2021
1648 Rain 7 1012 76 9000 6.69 200 09:18 10.03.2021
1649 Rain 7 1012 76 8000 6.17 200 08:43 10.03.2021
1650 Rain 7 1012 76 8000 6.69 210 08:25 10.03.2021
1651 Rain 7 1013 71 10000 5.66 210 07:42 10.03.2021
1652 Rain 7 1013 71 10000 5.66 210 07:24 10.03.2021
1653 Rain 7 1014 76 10000 5.66 210 06:51 10.03.2021
1654 Clouds 7 1016 76 10000 4.63 210 02:44 10.03.2021
1655 Clouds 6 1017 70 10000 3.6 210 00:31 10.03.2021
1656 Clouds 6 1018 70 10000 3.6 220 23:33 09.03.2021
1657 Clouds 6 1018 65 10000 4.63 230 22:52 09.03.2021
1658 Clouds 7 1018 65 10000 4.63 230 22:34 09.03.2021
1659 Clouds 7 1018 61 10000 3.6 230 21:58 09.03.2021
1660 Clouds 7 1018 61 10000 3.6 230 21:38 09.03.2021
1661 Clouds 8 1018 57 10000 4.12 230 21:20 09.03.2021
1662 Clouds 8 1018 53 10000 4.63 230 20:55 09.03.2021
1663 Clouds 9 1018 53 10000 4.63 230 20:36 09.03.2021
1664 Clouds 9 1019 50 10000 3.09 230 20:18 09.03.2021
1665 Clouds 10 1019 46 10000 4.12 250 19:43 09.03.2021
1666 Clouds 10 1018 50 10000 3.6 260 19:24 09.03.2021
1667 Clouds 11 1018 50 10000 4.12 250 18:40 09.03.2021
1668 Clear 12 1018 47 10000 5.66 260 18:18 09.03.2021
1669 Clear 12 1018 47 10000 5.66 270 17:45 09.03.2021
1670 Clear 13 1019 41 10000 5.66 260 17:24 09.03.2021
1671 Clear 13 1019 41 10000 6.17 250 16:40 09.03.2021
1672 Clear 13 1019 44 10000 3.6 260 16:21 09.03.2021
1673 Clear 13 1019 41 10000 4.12 250 15:56 09.03.2021
1674 Clear 12 1019 47 10000 3.09 260 15:25 09.03.2021
1675 Clear 13 1020 47 10000 4.63 270 14:49 09.03.2021
1676 Clear 11 1020 50 10000 4.12 250 14:26 09.03.2021
1677 Clear 12 1020 50 10000 3.09 260 13:42 09.03.2021
1678 Clear 10 1020 53 10000 4.12 280 13:21 09.03.2021
1679 Clear 11 1021 53 10000 4.12 270 12:54 09.03.2021
1680 Clear 10 1021 53 10000 4.12 270 12:35 09.03.2021
1681 Clear 9 1021 61 10000 3.6 250 11:44 09.03.2021
1682 Clear 8 1021 61 10000 3.09 220 11:22 09.03.2021
1683 Clear 8 1021 65 10000 2.57 210 10:59 09.03.2021
1684 Clear 7 1021 65 10000 2.57 210 10:39 09.03.2021
1685 Clear 6 1021 70 10000 2.57 240 10:20 09.03.2021
1686 Clear 5 1021 75 10000 2.06 240 09:46 09.03.2021
1687 Clouds 4 1021 81 10000 2.06 230 09:27 09.03.2021
1688 Clouds 4 1021 81 10000 2.06 230 08:57 09.03.2021
1689 Clouds 3 1021 81 10000 2.06 230 08:32 09.03.2021
1690 Clouds 3 1021 70 10000 2.57 230 07:46 09.03.2021
1691 Clouds 3 1021 75 10000 3.09 260 07:26 09.03.2021
1692 Clouds 4 1020 70 10000 3.6 270 06:55 09.03.2021
1693 Clouds 4 1021 65 10000 4.63 270 05:53 09.03.2021
1694 Clouds 4 1022 70 10000 2.57 250 01:32 09.03.2021
1695 Clouds 4 1022 70 10000 2.57 250 01:32 09.03.2021
1696 Clouds 5 1022 65 10000 3.09 220 23:58 08.03.2021
1697 Clouds 6 1022 65 10000 3.09 220 23:39 08.03.2021
1698 Clouds 6 1022 65 10000 2.57 230 23:18 08.03.2021
1699 Clouds 6 1022 57 10000 3.09 230 22:40 08.03.2021
1700 Clouds 7 1022 57 10000 2.06 240 22:21 08.03.2021
1701 Clouds 7 1022 61 10000 1.54 230 21:50 08.03.2021
1702 Clouds 7 1022 57 10000 1.54 250 21:29 08.03.2021
1703 Clouds 8 1022 61 10000 0.51 0 20:43 08.03.2021
1704 Clouds 8 1022 53 10000 0.51 0 20:22 08.03.2021
1705 Clear 8 1022 53 10000 1.54 0 19:46 08.03.2021
1706 Clouds 9 1022 53 10000 2.06 300 19:27 08.03.2021
1707 Clear 9 1022 57 10000 3.09 300 18:38 08.03.2021
1708 Clouds 10 1022 53 10000 3.6 300 18:19 08.03.2021
1709 Clouds 10 1022 53 10000 1.54 0 17:46 08.03.2021
1710 Clouds 10 1022 61 10000 2.57 290 17:24 08.03.2021
1711 Clouds 10 1023 57 10000 2.06 280 16:44 08.03.2021
1712 Clouds 10 1023 57 10000 2.06 260 16:25 08.03.2021
1713 Clouds 9 1023 57 10000 2.06 260 15:45 08.03.2021
1714 Clouds 9 1023 61 10000 2.57 240 15:23 08.03.2021
1715 Clouds 9 1024 61 10000 3.09 240 14:22 08.03.2021
1716 Clouds 9 1024 61 10000 3.6 240 13:58 08.03.2021
1717 Clouds 8 1024 65 10000 3.6 250 13:24 08.03.2021
1718 Clouds 8 1024 65 10000 3.6 240 12:59 08.03.2021
1719 Clouds 7 1024 65 10000 3.6 240 12:40 08.03.2021
1720 Clouds 7 1025 65 10000 2.57 240 12:20 08.03.2021
1721 Clouds 6 1025 65 10000 2.57 240 11:35 08.03.2021
1722 Clouds 5 1025 70 10000 3.09 230 10:58 08.03.2021
1723 Clouds 4 1025 70 10000 3.09 230 10:40 08.03.2021
1724 Clouds 4 1025 70 10000 2.57 240 10:19 08.03.2021
1725 Clouds 2 1025 70 9000 2.06 230 09:30 08.03.2021
1726 Clouds 2 1025 75 10000 2.06 220 08:54 08.03.2021
1727 Clouds 1 1025 75 10000 2.06 220 08:25 08.03.2021
1728 Clouds 1 1024 75 10000 2.06 230 07:23 08.03.2021
1729 Clouds 1 1024 75 10000 2.06 210 06:38 08.03.2021
1730 Clouds 1 1025 75 10000 2.57 220 02:59 08.03.2021
1731 Clear 2 1026 69 10000 2.06 210 00:43 08.03.2021
1732 Clear 2 1026 75 10000 1.03 0 23:54 07.03.2021
1733 Clear 2 1026 70 10000 0.87 229 23:23 07.03.2021
1734 Clear 2 1025 70 10000 0.51 0 22:59 07.03.2021
1735 Clear 1 1025 70 10000 0.51 0 22:40 07.03.2021
1736 Clear 1 1025 75 10000 0.69 199 22:20 07.03.2021
1737 Clear 1 1026 75 10000 0.69 199 21:42 07.03.2021
1738 Clear 2 1026 65 10000 0.51 0 21:23 07.03.2021
1739 Clear 3 1026 60 10000 0.51 0 20:43 07.03.2021
1740 Clear 3 1026 56 10000 0.51 0 20:24 07.03.2021
1741 Clear 3 1026 56 10000 1.54 0 19:56 07.03.2021
1742 Clear 4 1026 56 10000 1.54 0 19:37 07.03.2021
1743 Clear 4 1025 52 10000 1.54 0 19:19 07.03.2021
1744 Clear 5 1025 52 10000 1.54 0 18:40 07.03.2021
1745 Clear 6 1025 45 10000 2.57 30 18:19 07.03.2021
1746 Clear 6 1025 49 10000 3.09 340 17:39 07.03.2021
1747 Clear 6 1025 49 10000 1.54 0 17:20 07.03.2021
1748 Clouds 7 1026 49 10000 2.57 100 16:56 07.03.2021
1749 Clouds 7 1026 49 10000 2.57 100 16:37 07.03.2021
1750 Clouds 7 1026 45 10000 1.54 0 16:18 07.03.2021
1751 Clear 7 1026 52 10000 2.06 90 15:42 07.03.2021
1752 Clouds 6 1027 48 10000 1.03 0 15:21 07.03.2021
1753 Clouds 6 1027 52 10000 1.54 0 14:30 07.03.2021
1754 Clouds 5 1028 56 10000 3.09 350 13:59 07.03.2021
1755 Clouds 5 1028 56 10000 3.09 350 13:40 07.03.2021
1756 Clouds 5 1028 52 10000 3.09 350 13:20 07.03.2021
1757 Clouds 5 1028 52 10000 2.06 60 12:44 07.03.2021
1758 Clouds 4 1028 52 10000 1.54 0 12:24 07.03.2021
1759 Clouds 4 1028 52 10000 2.57 30 11:25 07.03.2021
1760 Clouds 4 1029 52 10000 2.06 330 10:59 07.03.2021
1761 Clouds 4 1029 52 10000 2.06 330 10:39 07.03.2021
1762 Clouds 3 1029 52 10000 1.54 0 10:21 07.03.2021
1763 Clouds 2 1029 56 10000 1.03 0 09:40 07.03.2021
1764 Clouds 2 1029 56 10000 2.06 360 09:21 07.03.2021
1765 Clouds 2 1029 60 10000 1.54 350 08:45 07.03.2021
1766 Clouds 1 1029 65 10000 1.54 360 08:23 07.03.2021
1767 Clouds 1 1029 75 10000 1.03 0 07:25 07.03.2021
1768 Clouds 1 1030 87 10000 0.51 0 02:41 07.03.2021
1769 Clouds 2 1031 81 10000 1.54 70 00:45 07.03.2021
1770 Clouds 2 1032 81 10000 1.54 70 23:45 06.03.2021
1771 Clouds 2 1032 81 10000 2.06 60 23:24 06.03.2021
1772 Clouds 3 1032 75 10000 2.06 70 22:48 06.03.2021
1773 Clouds 3 1032 75 10000 2.06 60 22:28 06.03.2021
1774 Clouds 3 1032 75 10000 2.06 70 21:58 06.03.2021
1775 Clouds 3 1032 75 10000 3.6 60 21:22 06.03.2021
1776 Clouds 3 1032 70 10000 3.09 70 20:52 06.03.2021
1777 Clouds 3 1032 70 10000 3.09 70 20:33 06.03.2021
1778 Clouds 4 1032 60 10000 2.57 50 19:50 06.03.2021
1779 Clouds 5 1032 60 10000 3.09 50 19:22 06.03.2021
1780 Clouds 5 1032 60 10000 4.12 60 18:56 06.03.2021
1781 Clouds 5 1032 60 10000 4.12 60 18:37 06.03.2021
1782 Clouds 5 1032 60 10000 4.12 60 18:18 06.03.2021
1783 Clouds 6 1032 61 10000 4.12 80 17:44 06.03.2021
1784 Clouds 6 1033 56 10000 4.12 70 17:22 06.03.2021
1785 Clouds 6 1033 56 10000 3.6 60 16:52 06.03.2021
1786 Clouds 6 1033 56 10000 3.6 60 16:29 06.03.2021
1787 Clouds 5 1033 70 10000 3.09 90 15:54 06.03.2021
1788 Clouds 6 1033 70 10000 3.09 90 15:32 06.03.2021
1789 Clouds 6 1034 61 10000 4.63 90 14:54 06.03.2021
1790 Clouds 6 1034 65 10000 4.63 60 14:30 06.03.2021
1791 Clouds 6 1034 65 10000 4.63 60 14:30 06.03.2021
1792 Clouds 6 1035 56 10000 3.6 50 13:42 06.03.2021
1793 Clouds 6 1035 61 10000 4.12 70 13:21 06.03.2021
1794 Clouds 6 1035 65 10000 4.12 70 12:44 06.03.2021
1795 Clouds 6 1035 60 10000 4.12 50 12:20 06.03.2021
1796 Clouds 6 1035 60 10000 4.12 50 12:20 06.03.2021
1797 Clouds 6 1035 65 10000 4.63 60 11:56 06.03.2021
1798 Clouds 6 1035 65 10000 4.12 60 11:22 06.03.2021
1799 Clouds 5 1035 75 10000 3.09 50 10:49 06.03.2021
1800 Clouds 5 1035 75 10000 2.57 60 10:28 06.03.2021
1801 Clouds 4 1035 81 10000 2.57 50 09:50 06.03.2021
1802 Clouds 3 1035 81 10000 1.54 0 09:21 06.03.2021
1803 Clouds 3 1035 81 10000 1.03 0 08:52 06.03.2021
1804 Clouds 3 1035 81 10000 1.03 0 08:22 06.03.2021
1805 Clouds 2 1035 81 10000 0.51 0 07:41 06.03.2021
1806 Clouds 2 1035 81 10000 1.54 0 07:20 06.03.2021
1807 Clouds 3 1034 81 10000 1.54 0 05:40 06.03.2021
1808 Clouds 3 1035 81 10000 2.57 60 02:51 06.03.2021
1809 Clouds 3 1035 75 10000 2.57 50 01:28 06.03.2021
1810 Clouds 3 1035 75 10000 1.54 0 00:44 06.03.2021
1811 Clouds 3 1035 70 10000 3.6 60 23:39 05.03.2021
1812 Clouds 3 1035 70 10000 3.6 60 23:39 05.03.2021
1813 Clouds 3 1035 65 10000 3.09 60 23:18 05.03.2021
1814 Clouds 4 1035 65 10000 3.09 60 22:43 05.03.2021
1815 Clouds 4 1035 60 10000 3.09 70 22:20 05.03.2021
1816 Clouds 4 1034 56 10000 3.6 60 21:42 05.03.2021
1817 Clouds 5 1034 60 10000 4.12 70 21:23 05.03.2021
1818 Clouds 5 1034 60 10000 4.12 90 20:43 05.03.2021
1819 Clouds 5 1034 49 10000 4.12 60 20:23 05.03.2021
1820 Clouds 5 1034 49 10000 5.14 70 19:44 05.03.2021
1821 Clouds 5 1034 45 10000 4.12 60 19:22 05.03.2021
1822 Clouds 5 1033 52 10000 5.14 60 18:44 05.03.2021
1823 Clouds 6 1033 52 10000 4.63 60 18:25 05.03.2021
1824 Clouds 6 1033 49 10000 5.14 60 17:51 05.03.2021
1825 Clouds 6 1033 49 10000 5.14 60 17:32 05.03.2021
1826 Clouds 6 1033 56 10000 3.09 0 16:43 05.03.2021
1827 Clouds 6 1033 52 10000 3.09 40 16:23 05.03.2021
1828 Clouds 6 1033 52 10000 3.09 30 15:54 05.03.2021
1829 Clouds 7 1033 49 10000 5.14 50 15:27 05.03.2021
1830 Clouds 6 1033 49 10000 4.63 50 14:47 05.03.2021
1831 Clouds 7 1033 49 10000 4.63 50 14:27 05.03.2021
1832 Clouds 6 1033 49 10000 5.14 60 13:44 05.03.2021
1833 Clouds 6 1033 56 10000 5.14 60 13:21 05.03.2021
1834 Clouds 5 1033 52 10000 5.14 60 12:46 05.03.2021
1835 Clouds 5 1032 52 10000 5.66 50 11:40 05.03.2021
1836 Clouds 5 1032 70 10000 3.6 60 11:20 05.03.2021
1837 Clouds 5 1032 70 10000 3.6 60 10:57 05.03.2021
1838 Clouds 4 1032 70 10000 3.6 60 10:37 05.03.2021
1839 Clouds 4 1032 75 10000 4.12 50 10:19 05.03.2021
1840 Clouds 4 1031 75 10000 3.6 60 09:42 05.03.2021
1841 Clouds 3 1031 75 10000 2.57 60 09:23 05.03.2021
1842 Clear 2 1031 80 10000 3.6 60 08:39 05.03.2021
1843 Clouds 2 1030 80 10000 2.57 60 08:20 05.03.2021
1844 Clouds 2 1030 80 10000 2.57 0 07:35 05.03.2021
1845 Clouds 2 1030 75 10000 2.57 0 06:43 05.03.2021
1846 Clouds 2 1029 75 10000 2.06 0 06:25 05.03.2021
1847 Clouds 4 1028 70 10000 3.09 360 01:35 05.03.2021
1848 Clouds 4 1028 75 10000 3.6 0 23:55 04.03.2021
1849 Clouds 4 1028 65 10000 3.6 0 23:25 04.03.2021
1850 Clouds 5 1027 81 10000 2.57 0 22:31 04.03.2021
1851 Clouds 5 1027 81 10000 3.6 0 21:55 04.03.2021
1852 Clouds 5 1026 81 10000 2.57 0 21:33 04.03.2021
1853 Clouds 5 1026 81 10000 2.57 350 20:59 04.03.2021
1854 Clouds 5 1026 81 10000 2.57 350 20:40 04.03.2021
1855 Clouds 5 1026 81 10000 2.06 340 20:21 04.03.2021
1856 Clouds 5 1026 75 10000 2.06 350 19:51 04.03.2021
1857 Clouds 5 1026 75 10000 1.54 0 19:26 04.03.2021
1858 Clouds 5 1025 75 10000 2.06 50 18:52 04.03.2021
1859 Clouds 6 1025 75 10000 2.06 0 18:30 04.03.2021
1860 Clouds 6 1025 75 10000 3.09 0 17:57 04.03.2021
1861 Clouds 6 1025 75 10000 3.09 0 17:39 04.03.2021
1862 Clouds 6 1025 75 10000 3.09 10 17:18 04.03.2021
1863 Clouds 6 1025 75 10000 2.06 20 16:42 04.03.2021
1864 Clouds 6 1025 75 10000 3.6 360 16:23 04.03.2021
1865 Clouds 6 1025 75 10000 3.09 360 15:45 04.03.2021
1866 Clouds 6 1025 75 10000 2.06 0 15:25 04.03.2021
1867 Clouds 5 1025 75 10000 3.09 360 14:42 04.03.2021
1868 Clouds 6 1025 75 10000 4.12 360 14:18 04.03.2021
1869 Clouds 6 1025 75 10000 3.6 350 13:40 04.03.2021
1870 Clouds 5 1025 81 10000 4.12 340 13:19 04.03.2021
1871 Clouds 5 1025 81 10000 3.6 360 12:42 04.03.2021
1872 Clouds 5 1025 93 10000 2.06 350 11:58 04.03.2021
1873 Clouds 5 1025 93 10000 2.06 350 11:40 04.03.2021
1874 Clouds 4 1025 93 8000 2.57 350 11:19 04.03.2021
1875 Clouds 4 1025 87 10000 2.57 0 10:37 04.03.2021
1876 Clouds 4 1024 93 10000 3.09 360 09:55 04.03.2021
1877 Clouds 4 1024 100 3900 1.54 0 09:28 04.03.2021
1878 Drizzle 5 1024 93 4100 2.06 30 08:53 04.03.2021
1879 Mist 5 1023 93 2200 2.06 60 08:28 04.03.2021
1880 Mist 5 1023 93 2000 3.09 60 07:45 04.03.2021
1881 Mist 5 1024 93 2100 1.54 0 06:48 04.03.2021
1882 Mist 5 1024 100 1000 1.54 0 06:21 04.03.2021
1883 Rain 5 1025 100 200 2.57 70 02:39 04.03.2021
1884 Mist 6 1025 93 1100 2.57 70 00:31 04.03.2021
1885 Mist 6 1026 93 1300 3.09 80 22:39 03.03.2021
1886 Mist 6 1026 93 1000 2.57 80 22:21 03.03.2021
1887 Mist 6 1026 93 1300 3.09 110 21:41 03.03.2021
1888 Mist 6 1026 93 2200 3.6 80 21:23 03.03.2021
1889 Mist 6 1026 93 2800 3.09 120 20:55 03.03.2021
1890 Mist 6 1026 93 2800 3.09 120 20:37 03.03.2021
1891 Clouds 6 1026 100 3000 3.09 90 19:57 03.03.2021
1892 Clouds 6 1026 100 3000 3.09 90 19:38 03.03.2021
1893 Clouds 7 1026 100 1600 3.09 110 19:18 03.03.2021
1894 Rain 7 1026 100 1900 2.57 70 18:41 03.03.2021
1895 Rain 7 1026 100 3900 2.57 70 17:59 03.03.2021
1896 Clouds 7 1026 100 3900 2.57 70 17:36 03.03.2021
1897 Rain 7 1027 100 2400 2.06 60 17:18 03.03.2021
1898 Rain 7 1027 100 1500 3.09 80 16:39 03.03.2021
1899 Rain 8 1027 93 1300 3.09 90 16:21 03.03.2021
1900 Rain 8 1027 93 1600 2.57 70 15:33 03.03.2021
1901 Rain 9 1028 100 2000 2.57 80 14:52 03.03.2021
1902 Mist 9 1028 100 2000 2.06 70 14:29 03.03.2021
1903 Mist 9 1028 93 1500 2.06 70 13:52 03.03.2021
1904 Mist 9 1029 100 1500 2.06 110 13:31 03.03.2021
1905 Mist 7 1029 100 1200 2.06 90 12:44 03.03.2021
1906 Fog 7 1029 100 800 2.06 90 12:24 03.03.2021
1907 Fog 7 1029 100 450 2.57 100 11:47 03.03.2021
1908 Fog 7 1029 100 350 2.06 100 11:28 03.03.2021
1909 Fog 6 1029 100 200 3.09 70 10:48 03.03.2021
1910 Fog 4 1029 100 250 2.57 110 10:26 03.03.2021
1911 Fog 4 1029 100 200 2.06 70 09:48 03.03.2021
1912 Fog 4 1029 100 150 2.06 80 09:26 03.03.2021
1913 Fog 4 1029 100 150 3.09 80 08:41 03.03.2021
1914 Fog 4 1029 100 200 3.09 80 08:21 03.03.2021
1915 Fog 4 1029 100 150 2.57 70 07:41 03.03.2021
1916 Fog 4 1029 100 150 2.06 70 06:51 03.03.2021
1917 Fog 4 1029 100 200 1.54 0 05:49 03.03.2021
1918 Fog 4 1029 93 300 2.57 50 04:59 03.03.2021
1919 Fog 4 1029 93 300 2.57 50 04:35 03.03.2021
1920 Mist 4 1030 100 1000 2.57 70 02:19 03.03.2021
1921 Drizzle 5 1030 93 100 2.57 90 23:58 02.03.2021
1922 Drizzle 4 1030 100 100 3.6 100 23:31 02.03.2021
1923 Fog 5 1030 93 100 3.6 70 22:42 02.03.2021
1924 Haze 5 1030 93 3300 2.06 70 22:19 02.03.2021
1925 Haze 5 1030 87 4400 2.06 40 21:41 02.03.2021
1926 Haze 5 1029 87 4400 1.54 60 21:22 02.03.2021
1927 Haze 5 1029 87 5000 1.75 96 20:48 02.03.2021
1928 Haze 6 1029 87 5000 0.51 0 20:23 02.03.2021
1929 Clear 6 1029 81 6000 1.03 0 19:57 02.03.2021
1930 Clear 6 1029 81 6000 1.03 0 19:39 02.03.2021
1931 Clear 6 1029 81 6000 1.03 0 19:20 02.03.2021
1932 Clear 7 1029 81 8000 2.06 50 18:41 02.03.2021
1933 Clear 8 1029 76 7000 2.06 40 18:21 02.03.2021
1934 Clear 8 1029 76 7000 2.06 50 17:49 02.03.2021
1935 Clear 9 1029 76 6000 2.57 50 17:30 02.03.2021
1936 Clear 9 1029 76 6000 2.57 50 17:30 02.03.2021
1937 Clear 9 1029 76 6000 2.57 50 17:30 02.03.2021
1938 Clear 9 1029 76 6000 2.57 50 17:30 02.03.2021
1939 Clear 9 1029 76 6000 2.57 50 17:30 02.03.2021
1940 Clear 9 1029 76 6000 2.06 70 16:56 02.03.2021
1941 Clouds 9 1030 81 6000 1.54 0 16:23 02.03.2021
1942 Haze 9 1030 81 5000 1.03 0 15:51 02.03.2021
1943 Haze 8 1030 81 5000 2.57 70 15:25 02.03.2021
1944 Haze 7 1030 87 5000 1.54 0 14:24 02.03.2021
1945 Haze 6 1031 87 5000 2.57 70 13:54 02.03.2021
1946 Haze 6 1031 87 5000 2.57 70 13:36 02.03.2021
1947 Haze 6 1031 87 4800 3.09 80 13:18 02.03.2021
1948 Haze 6 1031 93 4300 2.57 60 12:29 02.03.2021
1949 Haze 6 1031 87 4000 2.57 60 11:54 02.03.2021
1950 Haze 6 1031 87 4000 2.57 60 11:36 02.03.2021
1951 Haze 5 1031 93 3400 2.57 60 11:18 02.03.2021
1952 Haze 5 1031 93 2900 2.06 40 10:32 02.03.2021
1953 Haze 5 1031 93 2400 2.57 30 09:59 02.03.2021
1954 Haze 5 1031 93 2400 2.57 30 09:40 02.03.2021
1955 Haze 5 1030 87 2500 2.57 50 09:19 02.03.2021
1956 Haze 5 1030 87 2400 2.06 40 08:38 02.03.2021
1957 Haze 5 1030 87 2600 2.06 50 07:58 02.03.2021
1958 Haze 5 1030 87 2500 2.57 50 07:27 02.03.2021
1959 Haze 4 1030 87 2700 2.57 60 06:33 02.03.2021
1960 Haze 5 1030 87 3300 3.09 70 05:45 02.03.2021
1961 Haze 5 1030 87 3700 2.57 50 05:27 02.03.2021
1962 Haze 4 1031 81 5000 3.6 70 01:44 02.03.2021
1963 Haze 4 1031 81 5000 3.6 70 01:44 02.03.2021
1964 Haze 4 1031 81 5000 3.6 70 01:44 02.03.2021
1965 Haze 4 1031 81 5000 3.6 70 01:44 02.03.2021
1966 Haze 5 1031 81 5000 5.14 60 01:26 02.03.2021
1967 Haze 4 1031 81 5000 4.63 70 00:28 02.03.2021
1968 Haze 5 1032 81 4400 6.69 90 23:26 01.03.2021
1969 Haze 5 1031 87 4100 5.66 70 22:42 01.03.2021
1970 Haze 5 1031 81 4200 5.14 70 22:21 01.03.2021
1971 Haze 5 1031 87 4200 5.66 70 21:45 01.03.2021
1972 Haze 5 1031 81 4400 4.63 80 21:23 01.03.2021
1973 Haze 5 1031 87 4600 5.14 80 20:48 01.03.2021
1974 Haze 5 1031 87 5000 5.66 80 20:27 01.03.2021
1975 Clouds 5 1031 87 6000 5.66 70 19:54 01.03.2021
1976 Clouds 5 1031 87 6000 5.66 70 19:33 01.03.2021
1977 Clouds 6 1031 87 6000 6.17 90 18:46 01.03.2021
1978 Haze 6 1031 81 5000 6.69 80 18:25 01.03.2021
1979 Clouds 7 1031 81 10000 5.14 70 17:56 01.03.2021
1980 Clouds 7 1031 76 10000 5.66 70 17:37 01.03.2021
1981 Clouds 8 1031 76 10000 5.66 70 17:18 01.03.2021
1982 Clouds 9 1031 76 10000 5.66 80 16:43 01.03.2021
1983 Clouds 9 1031 76 7000 6.17 90 16:24 01.03.2021
1984 Clouds 9 1032 76 6000 6.17 70 15:41 01.03.2021
1985 Clouds 9 1032 76 6000 5.66 70 15:20 01.03.2021
1986 Clouds 9 1032 76 6000 5.14 80 14:44 01.03.2021
1987 Clouds 9 1032 76 6000 5.66 100 14:26 01.03.2021
1988 Clouds 9 1032 76 7000 6.17 80 13:40 01.03.2021
1989 Clouds 9 1033 81 6000 5.14 70 13:22 01.03.2021
1990 Clouds 9 1033 81 6000 5.14 70 13:21 01.03.2021
1991 Clouds 8 1033 81 6000 5.66 70 12:51 01.03.2021
1992 Clouds 8 1033 81 6000 5.66 70 12:30 01.03.2021
1993 Clouds 7 1033 81 6000 6.69 80 11:58 01.03.2021
1994 Clouds 7 1033 81 6000 6.69 80 11:38 01.03.2021
1995 Haze 6 1033 87 4100 5.66 70 10:44 01.03.2021
1996 Haze 6 1033 93 4000 5.14 70 10:23 01.03.2021
1997 Haze 6 1033 87 3900 5.66 70 09:58 01.03.2021
1998 Haze 6 1033 87 3900 5.66 70 09:40 01.03.2021
1999 Haze 6 1033 87 4000 4.63 70 09:20 01.03.2021
2000 Clear 6 1032 91 10000 0.89 54 08:47 01.03.2021
2001 Haze 5 1033 87 3200 4.63 60 07:50 01.03.2021
2002 Haze 5 1033 93 3100 5.14 70 06:52 01.03.2021
2003 Mist 5 1034 93 2500 4.12 60 03:24 01.03.2021
2004 Clouds 5 1035 93 10000 2.57 80 00:44 01.03.2021
2005 Clear 5 1034 87 10000 4.63 70 23:35 28.02.2021
2006 Clear 5 1034 81 10000 5.14 80 22:51 28.02.2021
2007 Clear 5 1034 81 10000 4.63 80 22:22 28.02.2021
2008 Clear 6 1034 81 10000 4.12 70 21:49 28.02.2021
2009 Clear 6 1035 81 10000 4.63 80 21:28 28.02.2021
2010 Clear 6 1035 76 10000 5.66 70 20:56 28.02.2021
2011 Clear 6 1035 76 10000 5.66 70 20:36 28.02.2021
2012 Clear 7 1035 71 10000 5.14 90 19:47 28.02.2021
2013 Clear 7 1035 76 10000 4.63 80 19:28 28.02.2021
2014 Clear 8 1035 71 10000 5.14 80 18:59 28.02.2021
2015 Clear 8 1035 71 10000 5.14 80 18:38 28.02.2021
2016 Clear 9 1035 71 10000 5.66 80 18:19 28.02.2021
2017 Clear 9 1035 66 10000 5.14 80 17:46 28.02.2021
2018 Clear 10 1035 66 10000 5.66 90 17:27 28.02.2021
2019 Clear 10 1036 66 10000 5.14 70 16:53 28.02.2021
2020 Clear 10 1036 66 10000 5.14 70 16:34 28.02.2021
2021 Clouds 9 1036 76 9000 4.12 70 15:55 28.02.2021
2022 Clouds 9 1036 76 9000 4.12 70 15:36 28.02.2021
2023 Clear 9 1036 63 10000 3.94 75 15:18 28.02.2021
2024 Clouds 8 1037 81 7000 3.6 80 14:45 28.02.2021
2025 Clouds 8 1038 87 6000 3.6 70 14:24 28.02.2021
2026 Clouds 6 1038 93 6000 3.6 60 13:47 28.02.2021
2027 Haze 6 1039 93 5000 4.12 80 13:19 28.02.2021
2028 Haze 6 1039 93 5000 3.6 80 12:56 28.02.2021
2029 Haze 7 1039 93 5000 3.6 80 12:37 28.02.2021
2030 Mist 6 1039 93 3800 3.09 60 12:19 28.02.2021
2031 Mist 6 1039 100 2700 3.09 50 11:44 28.02.2021
2032 Mist 6 1039 100 2200 2.06 60 11:25 28.02.2021
2033 Mist 5 1039 100 1900 2.57 40 10:54 28.02.2021
2034 Mist 4 1039 100 1100 2.57 40 10:28 28.02.2021
2035 Fog 4 1039 100 700 3.09 50 09:51 28.02.2021
2036 Fog 4 1039 100 700 3.09 50 09:33 28.02.2021
2037 Fog 4 1039 100 900 2.06 50 08:50 28.02.2021
2038 Fog 4 1039 100 900 2.06 50 08:31 28.02.2021
2039 Mist 4 1039 93 1400 3.09 50 07:57 28.02.2021
2040 Mist 4 1039 93 1400 3.09 50 07:37 28.02.2021
2041 Fog 4 1039 100 600 2.06 50 06:55 28.02.2021
2042 Mist 4 1039 93 1600 2.57 60 05:52 28.02.2021
2043 Haze 3 1040 93 5000 2.57 90 03:45 28.02.2021
2044 Clear 4 1040 87 7000 1.54 0 01:59 28.02.2021
2045 Clear 4 1040 87 9000 1.03 70 00:58 28.02.2021
2046 Clear 5 1040 87 9000 1.03 70 00:35 28.02.2021
2047 Clear 5 1040 81 9000 1.54 70 23:48 27.02.2021
2048 Clear 6 1040 76 10000 2.06 60 23:20 27.02.2021
2049 Clear 5 1040 75 10000 1.54 90 22:49 27.02.2021
2050 Clear 6 1040 76 10000 2.06 70 22:22 27.02.2021
2051 Clear 7 1040 76 10000 2.06 60 21:50 27.02.2021
2052 Clear 7 1040 76 10000 2.06 60 21:32 27.02.2021
2053 Clear 7 1041 76 10000 2.57 70 20:53 27.02.2021
2054 Clear 8 1041 76 10000 2.57 70 20:33 27.02.2021
2055 Clear 8 1041 71 10000 2.57 110 19:55 27.02.2021
2056 Clear 8 1041 71 10000 2.57 110 19:37 27.02.2021
2057 Clear 9 1041 66 10000 2.57 110 19:19 27.02.2021
2058 Clear 10 1040 66 10000 3.6 110 18:37 27.02.2021
2059 Clear 10 1040 62 10000 3.6 110 18:18 27.02.2021
2060 Clear 11 1040 62 10000 3.6 100 17:43 27.02.2021
2061 Clear 11 1040 58 10000 3.6 100 17:20 27.02.2021
2062 Clear 12 1040 54 10000 3.6 100 16:50 27.02.2021
2063 Clear 12 1041 54 10000 4.12 100 16:30 27.02.2021
2064 Clouds 12 1041 58 10000 4.12 90 15:49 27.02.2021
2065 Clouds 12 1041 54 10000 3.6 90 15:31 27.02.2021
2066 Clouds 12 1041 58 10000 2.57 80 14:43 27.02.2021
2067 Clouds 12 1042 58 10000 3.09 60 14:25 27.02.2021
2068 Clouds 12 1042 58 10000 3.09 0 13:49 27.02.2021
2069 Clouds 12 1042 62 10000 3.6 100 13:27 27.02.2021
2070 Clear 11 1042 62 10000 1.54 0 12:52 27.02.2021
2071 Haze 11 1042 62 3700 1.03 0 12:28 27.02.2021
2072 Haze 10 1042 66 4600 1.03 0 11:56 27.02.2021
2073 Haze 9 1042 66 4600 1.03 0 11:38 27.02.2021
2074 Clear 8 1042 66 10000 0.51 0 11:18 27.02.2021
2075 Clouds 7 1042 75 10000 0.51 0 10:41 27.02.2021
2076 Haze 6 1042 81 1800 1.54 240 10:18 27.02.2021
2077 Haze 6 1042 81 1800 1.54 240 10:18 27.02.2021
2078 Haze 5 1042 81 1700 1.03 210 09:44 27.02.2021
2079 Haze 3 1042 81 2600 1.03 250 09:25 27.02.2021
2080 Haze 2 1042 87 2600 1.03 220 08:39 27.02.2021
2081 Haze 2 1041 87 2800 1.03 220 08:20 27.02.2021
2082 Haze 2 1041 87 2600 1.03 230 07:36 27.02.2021
2083 Clear 4 1040 81 6000 1.54 240 03:28 27.02.2021
2084 Clear 6 1040 75 10000 0.51 0 00:41 27.02.2021
2085 Clear 5 1040 81 10000 0.83 323 23:51 26.02.2021
2086 Clear 6 1040 81 10000 0.97 319 23:26 26.02.2021
2087 Clear 6 1039 70 10000 0.97 319 22:44 26.02.2021
2088 Clear 6 1039 70 10000 0.99 318 22:23 26.02.2021
2089 Clear 6 1039 61 10000 0.99 318 21:42 26.02.2021
2090 Clear 6 1039 66 10000 0.51 280 21:22 26.02.2021
2091 Clouds 7 1039 57 10000 0.51 0 20:44 26.02.2021
2092 Clear 7 1038 68 10000 1.2 332 20:21 26.02.2021
2093 Clear 9 1038 53 10000 1.03 0 19:42 26.02.2021
2094 Clear 9 1038 61 10000 0.45 359 19:22 26.02.2021
2095 Clear 10 1038 46 10000 2.06 310 18:42 26.02.2021
2096 Clear 10 1038 43 10000 3.6 340 18:21 26.02.2021
2097 Clear 12 1037 40 10000 2.57 280 17:41 26.02.2021
2098 Clear 12 1037 40 10000 2.57 280 17:23 26.02.2021
2099 Clear 12 1037 40 10000 3.6 300 16:52 26.02.2021
2100 Clear 12 1037 43 10000 2.06 320 16:31 26.02.2021
2101 Clear 11 1037 40 10000 3.6 300 15:57 26.02.2021
2102 Clear 12 1037 40 10000 3.6 300 15:38 26.02.2021
2103 Clear 12 1037 37 10000 2.57 260 15:19 26.02.2021
2104 Clear 12 1038 40 10000 2.57 320 14:45 26.02.2021
2105 Clear 12 1038 43 10000 2.57 280 14:25 26.02.2021
2106 Clear 11 1038 43 10000 2.57 320 13:44 26.02.2021
2107 Clear 11 1038 46 10000 1.54 0 13:24 26.02.2021
2108 Clear 10 1038 53 10000 1.54 0 12:39 26.02.2021
2109 Clear 9 1038 66 10000 2.06 280 11:55 26.02.2021
2110 Clear 8 1038 66 10000 2.06 280 11:37 26.02.2021
2111 Clear 7 1038 70 10000 1.54 250 10:54 26.02.2021
2112 Clear 5 1037 81 10000 1.54 240 09:59 26.02.2021
2113 Clear 4 1037 81 10000 1.54 240 09:39 26.02.2021
2114 Clear 4 1037 81 10000 2.06 230 09:21 26.02.2021
2115 Clear 2 1036 87 10000 1.54 230 08:29 26.02.2021
2116 Clear 2 1036 87 10000 2.06 220 07:52 26.02.2021
2117 Clouds 3 1036 75 10000 1.03 290 06:43 26.02.2021
2118 Clouds 3 1036 75 10000 1.03 290 06:43 26.02.2021
2119 Clear 3 1035 75 10000 1.54 280 05:32 26.02.2021
2120 Clear 5 1035 75 10000 1.03 0 03:51 26.02.2021
2121 Clear 5 1034 70 10000 1.03 0 02:36 26.02.2021
2122 Clouds 6 1033 61 10000 2.06 290 00:24 26.02.2021
2123 Clouds 7 1033 61 10000 3.09 300 23:29 25.02.2021
2124 Clouds 7 1032 66 10000 2.06 290 22:50 25.02.2021
2125 Clouds 7 1032 79 10000 2.16 297 22:31 25.02.2021
2126 Clouds 8 1032 78 10000 2.29 290 21:47 25.02.2021
2127 Clouds 8 1031 68 10000 0.45 326 21:28 25.02.2021
2128 Clear 9 1031 57 10000 1.54 280 20:43 25.02.2021
2129 Clear 9 1031 62 10000 2.06 280 20:24 25.02.2021
2130 Clear 10 1030 54 10000 2.06 300 19:58 25.02.2021
2131 Clear 10 1030 54 10000 2.06 300 19:39 25.02.2021
2132 Clear 10 1030 54 10000 2.06 300 19:19 25.02.2021
2133 Clouds 11 1029 50 10000 2.06 300 18:39 25.02.2021
2134 Clouds 11 1029 50 10000 3.6 290 17:59 25.02.2021
2135 Clouds 11 1028 54 10000 3.6 280 17:31 25.02.2021
2136 Clouds 12 1028 50 10000 4.12 300 16:56 25.02.2021
2137 Clouds 12 1028 50 10000 4.12 300 16:33 25.02.2021
2138 Clouds 12 1028 62 10000 2.57 270 15:48 25.02.2021
2139 Clouds 12 1028 71 10000 2.57 280 15:28 25.02.2021
2140 Clouds 11 1027 71 10000 3.09 300 14:37 25.02.2021
2141 Rain 11 1027 76 10000 1.03 0 14:18 25.02.2021
2142 Clouds 11 1027 81 10000 2.57 290 13:41 25.02.2021
2143 Clouds 10 1027 81 10000 3.09 280 13:20 25.02.2021
2144 Clouds 10 1027 81 10000 3.09 270 12:38 25.02.2021
2145 Rain 10 1027 81 10000 3.6 290 12:20 25.02.2021
2146 Rain 10 1027 76 10000 3.09 280 11:43 25.02.2021
2147 Clouds 10 1026 76 10000 3.6 300 10:53 25.02.2021
2148 Clouds 10 1026 76 10000 3.6 300 10:35 25.02.2021
2149 Clouds 10 1025 81 10000 3.6 250 09:48 25.02.2021
2150 Clouds 10 1025 81 10000 3.09 250 09:28 25.02.2021
2151 Clouds 10 1024 81 10000 4.12 250 08:46 25.02.2021
2152 Clouds 10 1024 76 10000 4.12 250 08:21 25.02.2021
2153 Clouds 10 1023 76 10000 4.12 260 07:42 25.02.2021
2154 Clouds 11 1023 82 10000 6.17 280 07:18 25.02.2021
2155 Clouds 12 1022 71 10000 4.12 230 05:55 25.02.2021
2156 Clouds 13 1022 62 10000 4.12 210 01:52 25.02.2021
2157 Clouds 12 1022 62 10000 4.12 200 01:27 25.02.2021
2158 Clouds 12 1022 67 10000 4.63 200 00:33 25.02.2021
2159 Clouds 12 1022 67 10000 3.6 180 23:40 24.02.2021
2160 Clouds 12 1022 67 10000 3.6 170 22:56 24.02.2021
2161 Clouds 12 1022 67 10000 3.6 180 22:30 24.02.2021
2162 Clouds 13 1022 67 10000 3.09 190 21:56 24.02.2021
2163 Clouds 13 1022 67 10000 3.09 190 21:34 24.02.2021
2164 Clouds 13 1022 67 10000 3.6 200 20:51 24.02.2021
2165 Clouds 13 1022 62 10000 3.6 200 20:29 24.02.2021
2166 Clouds 13 1022 62 10000 4.12 190 19:51 24.02.2021
2167 Clouds 13 1022 67 10000 3.6 180 19:24 24.02.2021
2168 Clouds 13 1022 67 10000 4.12 180 18:54 24.02.2021
2169 Clouds 13 1022 67 10000 4.12 180 18:33 24.02.2021
2170 Clouds 14 1022 63 10000 4.63 190 17:45 24.02.2021
2171 Clouds 14 1022 63 10000 5.66 170 17:25 24.02.2021
2172 Clouds 15 1022 63 10000 4.12 190 16:49 24.02.2021
2173 Clouds 15 1023 63 10000 4.63 200 16:22 24.02.2021
2174 Clouds 15 1022 69 10000 1.34 213 15:56 24.02.2021
2175 Clouds 15 1022 69 10000 1.34 252 15:36 24.02.2021
2176 Clouds 15 1023 59 10000 6.69 210 14:52 24.02.2021
2177 Clouds 15 1023 63 10000 6.17 210 14:32 24.02.2021
2178 Clouds 15 1023 63 10000 6.17 210 13:56 24.02.2021
2179 Clouds 15 1023 63 10000 6.17 210 13:37 24.02.2021
2180 Clouds 15 1023 63 10000 6.69 200 13:19 24.02.2021
2181 Clouds 15 1023 63 10000 6.69 210 12:42 24.02.2021
2182 Clouds 15 1023 63 10000 6.69 210 12:42 24.02.2021
2183 Clouds 15 1024 58 10000 5.66 210 12:23 24.02.2021
2184 Rain 15 1024 55 10000 7.2 210 11:42 24.02.2021
2185 Clouds 15 1023 51 10000 6.69 200 10:48 24.02.2021
2186 Clouds 14 1023 58 10000 6.69 210 10:26 24.02.2021
2187 Clouds 13 1024 58 10000 5.66 210 09:41 24.02.2021
2188 Clouds 12 1023 66 10000 6.17 210 09:18 24.02.2021
2189 Clouds 11 1023 66 10000 6.69 210 08:33 24.02.2021
2190 Clouds 11 1023 71 10000 6.69 210 07:55 24.02.2021
2191 Clouds 11 1023 66 10000 5.66 220 07:19 24.02.2021
2192 Clouds 11 1023 66 10000 6.69 210 06:20 24.02.2021
2193 Clouds 12 1023 62 10000 6.17 220 02:47 24.02.2021
2194 Clouds 13 1024 58 10000 8.75 200 23:59 23.02.2021
2195 Clouds 13 1024 58 10000 7.2 210 23:20 23.02.2021
2196 Clouds 13 1024 58 10000 8.23 210 22:37 23.02.2021
2197 Clouds 14 1023 62 10000 7.2 200 22:19 23.02.2021
2198 Clouds 14 1023 62 10000 7.2 200 21:41 23.02.2021
2199 Clouds 14 1023 62 10000 7.2 200 21:22 23.02.2021
2200 Clouds 13 1023 62 10000 5.66 190 20:47 23.02.2021
2201 Clouds 13 1023 62 10000 5.66 190 20:47 23.02.2021
2202 Clouds 13 1023 62 10000 6.17 200 20:29 23.02.2021
2203 Clear 13 1024 62 10000 7.2 200 19:47 23.02.2021
2204 Clear 13 1024 58 10000 4.12 190 19:27 23.02.2021
2205 Clear 12 1023 58 10000 5.14 190 18:53 23.02.2021
2206 Clouds 13 1023 54 10000 5.66 190 18:31 23.02.2021
2207 Clouds 13 1023 51 10000 6.17 200 17:54 23.02.2021
2208 Clouds 13 1023 51 10000 8.75 200 17:30 23.02.2021
2209 Clouds 14 1023 51 10000 6.69 210 16:48 23.02.2021
2210 Clouds 14 1024 51 10000 7.72 200 16:25 23.02.2021
2211 Clouds 14 1023 51 10000 7.72 200 15:57 23.02.2021
2212 Clouds 14 1023 51 10000 7.72 200 15:38 23.02.2021
2213 Clouds 14 1023 51 10000 7.72 200 15:18 23.02.2021
2214 Clouds 13 1023 54 10000 7.2 200 14:42 23.02.2021
2215 Clouds 13 1023 54 10000 6.69 200 14:24 23.02.2021
2216 Clouds 13 1023 54 10000 6.69 200 13:43 23.02.2021
2217 Clouds 13 1023 54 10000 7.72 200 13:23 23.02.2021
2218 Clouds 12 1023 62 10000 7.2 200 12:51 23.02.2021
2219 Clouds 12 1024 62 10000 6.69 210 12:20 23.02.2021
2220 Clouds 11 1024 66 10000 7.2 200 11:47 23.02.2021
2221 Clouds 10 1024 76 10000 6.17 200 11:21 23.02.2021
2222 Clouds 9 1023 81 10000 5.14 180 10:48 23.02.2021
2223 Clouds 9 1024 81 10000 4.63 180 10:30 23.02.2021
2224 Clouds 8 1024 81 10000 2.57 160 09:43 23.02.2021
2225 Clouds 8 1024 87 10000 3.09 170 09:24 23.02.2021
2226 Clouds 7 1024 87 10000 1.54 0 08:49 23.02.2021
2227 Clouds 7 1023 87 10000 2.06 0 08:22 23.02.2021
2228 Clouds 7 1023 87 10000 2.57 160 07:49 23.02.2021
2229 Clouds 6 1023 87 10000 3.09 210 05:32 23.02.2021
2230 Clouds 6 1023 93 8000 1.54 210 04:46 23.02.2021
2231 Clouds 8 1023 87 7000 2.06 180 02:34 23.02.2021
2232 Clouds 9 1022 87 7000 3.09 210 00:20 23.02.2021
2233 Haze 9 1021 93 5000 2.57 200 23:52 22.02.2021
2234 Clouds 9 1021 93 4700 2.06 210 23:21 22.02.2021
2235 Haze 9 1021 93 4700 2.06 200 22:41 22.02.2021
2236 Drizzle 9 1020 93 5000 1.54 0 22:20 22.02.2021
2237 Drizzle 10 1021 93 2900 2.57 210 21:45 22.02.2021
2238 Drizzle 10 1021 93 2900 2.57 210 21:45 22.02.2021
2239 Haze 10 1021 93 5000 2.06 210 21:23 22.02.2021
2240 Clouds 10 1021 93 6000 3.09 220 20:52 22.02.2021
2241 Clouds 10 1020 93 9000 2.57 210 20:29 22.02.2021
2242 Clouds 10 1019 87 7000 3.09 220 19:53 22.02.2021
2243 Clouds 10 1019 87 7000 3.09 220 19:35 22.02.2021
2244 Clouds 10 1018 87 10000 3.09 220 18:57 22.02.2021
2245 Clouds 10 1018 87 10000 3.09 220 18:39 22.02.2021
2246 Clouds 11 1017 87 10000 2.57 220 18:20 22.02.2021
2247 Clouds 11 1017 87 10000 2.57 230 17:26 22.02.2021
2248 Clouds 11 1017 87 10000 2.57 230 17:26 22.02.2021
2249 Clouds 11 1017 87 10000 2.57 210 16:55 22.02.2021
2250 Clouds 11 1016 87 10000 2.06 210 16:35 22.02.2021
2251 Clouds 11 1016 87 10000 2.06 220 15:52 22.02.2021
2252 Clouds 11 1016 87 9000 2.57 240 15:28 22.02.2021
2253 Rain 11 1016 87 6000 3.09 230 14:48 22.02.2021
2254 Rain 11 1015 76 10000 3.6 240 14:29 22.02.2021
2255 Clear 12 1015 76 10000 3.6 230 13:47 22.02.2021
2256 Clouds 12 1015 76 10000 3.09 230 12:59 22.02.2021
2257 Clouds 12 1015 76 10000 3.09 230 12:40 22.02.2021
2258 Clouds 11 1014 71 10000 3.09 210 12:20 22.02.2021
2259 Clouds 11 1014 76 10000 2.06 220 11:44 22.02.2021
2260 Clouds 11 1014 76 10000 1.54 0 11:25 22.02.2021
2261 Clouds 11 1013 76 10000 1.54 0 10:47 22.02.2021
2262 Clouds 11 1013 76 10000 1.03 0 10:27 22.02.2021
2263 Clouds 10 1013 71 10000 2.57 200 09:49 22.02.2021
2264 Clouds 10 1012 76 10000 2.06 210 09:29 22.02.2021
2265 Clouds 9 1012 81 10000 2.06 270 08:54 22.02.2021
2266 Clouds 9 1011 81 10000 2.06 70 08:31 22.02.2021
2267 Clouds 9 1011 76 10000 1.03 0 07:58 22.02.2021
2268 Clouds 9 1011 87 10000 1.03 0 07:26 22.02.2021
2269 Clouds 9 1011 87 10000 0.51 0 06:46 22.02.2021
2270 Clouds 9 1011 87 10000 2.06 100 05:45 22.02.2021
2271 Clouds 9 1010 87 10000 2.57 90 03:29 22.02.2021
2272 Clouds 9 1010 87 10000 2.57 90 03:29 22.02.2021
2273 Clouds 9 1010 87 10000 2.57 90 03:29 22.02.2021
2274 Clouds 10 1010 81 10000 3.09 90 02:51 22.02.2021
2275 Clouds 10 1010 81 10000 2.57 100 00:46 22.02.2021
2276 Clouds 10 1010 76 10000 1.54 80 00:23 22.02.2021
2277 Clouds 10 1010 81 10000 3.09 100 23:35 21.02.2021
2278 Clear 10 1010 76 10000 1.54 90 22:55 21.02.2021
2279 Clear 10 1010 76 10000 1.54 70 22:24 21.02.2021
2280 Clear 10 1010 71 10000 1.54 0 21:49 21.02.2021
2281 Clouds 11 1010 71 10000 1.54 140 21:30 21.02.2021
2282 Clear 11 1010 66 10000 1.54 0 20:49 21.02.2021
2283 Clear 11 1010 66 10000 2.57 120 20:20 21.02.2021
2284 Clear 11 1010 66 10000 2.06 140 19:57 21.02.2021
2285 Clear 11 1010 66 10000 2.06 140 19:36 21.02.2021
2286 Clear 12 1010 66 10000 2.57 130 19:18 21.02.2021
2287 Clear 12 1009 67 10000 2.06 160 18:26 21.02.2021
2288 Clouds 13 1009 67 10000 2.57 140 17:47 21.02.2021
2289 Clear 14 1009 62 10000 3.09 170 17:21 21.02.2021
2290 Clear 14 1009 62 10000 3.09 190 16:50 21.02.2021
2291 Clouds 14 1009 58 10000 3.6 180 16:29 21.02.2021
2292 Clouds 15 1009 63 10000 3.09 170 15:26 21.02.2021
2293 Clouds 15 1009 63 10000 2.06 200 14:59 21.02.2021
2294 Clouds 15 1009 63 10000 2.06 200 14:39 21.02.2021
2295 Clouds 14 1009 71 10000 2.06 180 13:59 21.02.2021
2296 Clouds 13 1009 71 10000 2.06 150 13:30 21.02.2021
2297 Clouds 13 1009 76 10000 2.06 140 12:56 21.02.2021
2298 Clouds 12 1009 76 10000 3.09 140 12:27 21.02.2021
2299 Clouds 12 1009 76 10000 1.54 0 11:43 21.02.2021
2300 Clouds 12 1009 76 10000 2.57 150 10:52 21.02.2021
2301 Clouds 11 1009 82 10000 1.54 0 10:22 21.02.2021
2302 Clouds 11 1009 82 10000 1.54 220 09:52 21.02.2021
2303 Clouds 11 1009 82 10000 1.54 0 09:26 21.02.2021
2304 Clouds 11 1008 82 10000 1.03 0 08:43 21.02.2021
2305 Rain 11 1008 82 10000 1.54 0 08:19 21.02.2021
2306 Clouds 11 1007 82 10000 2.06 220 07:31 21.02.2021
2307 Rain 11 1007 82 10000 2.06 230 06:47 21.02.2021
2308 Clouds 13 1006 67 10000 5.14 200 02:48 21.02.2021
2309 Rain 13 1006 62 10000 4.12 200 02:29 21.02.2021
2310 Clouds 13 1004 58 10000 3.6 200 00:37 21.02.2021
2311 Clouds 13 1004 58 10000 4.63 210 00:18 21.02.2021
2312 Clouds 14 1003 55 10000 5.66 200 22:59 20.02.2021
2313 Clouds 14 1003 55 10000 5.66 200 22:40 20.02.2021
2314 Clouds 14 1003 51 10000 5.66 190 22:21 20.02.2021
2315 Clouds 15 1003 48 10000 6.17 200 21:41 20.02.2021
2316 Clouds 14 1003 51 10000 4.12 190 21:20 20.02.2021
2317 Clouds 14 1003 51 10000 4.63 180 20:42 20.02.2021
2318 Clouds 14 1002 51 10000 5.14 180 20:21 20.02.2021
2319 Clouds 14 1002 51 10000 5.66 170 19:52 20.02.2021
2320 Clouds 14 1002 51 10000 5.66 170 19:23 20.02.2021
2321 Clouds 14 1001 51 10000 6.17 170 18:38 20.02.2021
2322 Clouds 14 1002 51 10000 5.14 170 18:19 20.02.2021
2323 Clouds 15 1002 48 10000 6.69 170 17:37 20.02.2021
2324 Clouds 15 1002 48 10000 7.2 180 16:55 20.02.2021
2325 Clouds 15 1002 48 10000 7.2 180 16:32 20.02.2021
2326 Clouds 15 1002 48 10000 7.72 180 15:47 20.02.2021
2327 Clouds 15 1002 48 10000 6.69 170 15:23 20.02.2021
2328 Clouds 15 1002 51 10000 6.17 190 14:46 20.02.2021
2329 Clouds 15 1003 51 10000 6.69 180 14:23 20.02.2021
2330 Clouds 15 1003 55 10000 6.69 170 13:47 20.02.2021
2331 Clouds 15 1003 55 10000 6.69 170 13:47 20.02.2021
2332 Clouds 15 1003 58 10000 5.66 180 13:24 20.02.2021
2333 Clouds 14 1004 58 10000 5.66 180 12:50 20.02.2021
2334 Clouds 14 1004 62 10000 5.14 180 12:23 20.02.2021
2335 Clouds 13 1004 62 10000 5.66 180 11:44 20.02.2021
2336 Clouds 13 1004 62 10000 5.66 180 11:44 20.02.2021
2337 Clear 12 1004 66 10000 6.17 170 11:24 20.02.2021
2338 Clear 12 1004 66 10000 5.14 170 10:49 20.02.2021
2339 Clouds 11 1004 66 10000 5.66 160 09:55 20.02.2021
2340 Clouds 11 1004 66 10000 5.14 170 09:28 20.02.2021
2341 Clear 11 1005 71 10000 4.63 170 08:43 20.02.2021
2342 Clear 11 1005 71 10000 6.69 180 08:18 20.02.2021
2343 Clouds 12 1005 67 10000 4.12 160 03:32 20.02.2021
2344 Clouds 12 1005 67 10000 5.14 170 02:25 20.02.2021
2345 Clouds 12 1006 67 10000 5.66 170 01:49 20.02.2021
2346 Clouds 12 1006 71 10000 5.66 170 00:45 20.02.2021
2347 Clouds 12 1006 82 10000 4.12 140 23:55 19.02.2021
2348 Clouds 11 1006 82 10000 5.14 150 23:18 19.02.2021
2349 Clouds 11 1007 76 10000 6.17 160 22:28 19.02.2021
2350 Clouds 11 1007 76 10000 5.66 160 21:58 19.02.2021
2351 Clouds 11 1007 76 10000 5.66 160 21:32 19.02.2021
2352 Clouds 10 1007 71 10000 6.69 160 20:49 19.02.2021
2353 Clouds 10 1008 71 10000 6.17 170 20:30 19.02.2021
2354 Clouds 10 1008 76 10000 5.14 180 19:57 19.02.2021
2355 Clouds 10 1007 76 10000 6.17 180 19:27 19.02.2021
2356 Clouds 10 1007 76 10000 5.14 170 18:57 19.02.2021
2357 Clouds 10 1007 76 10000 5.14 170 18:34 19.02.2021
2358 Clouds 10 1008 71 10000 5.14 180 17:56 19.02.2021
2359 Clouds 10 1008 71 10000 5.66 180 17:23 19.02.2021
2360 Clouds 10 1008 76 10000 5.66 180 16:39 19.02.2021
2361 Clouds 10 1008 71 10000 5.66 180 16:20 19.02.2021
2362 Clouds 10 1008 71 10000 6.69 190 15:45 19.02.2021
2363 Clouds 10 1008 71 10000 5.14 190 15:27 19.02.2021
2364 Clouds 10 1008 71 10000 5.66 190 14:41 19.02.2021
2365 Clouds 10 1008 76 10000 5.14 190 14:23 19.02.2021
2366 Clouds 10 1008 76 10000 6.17 200 13:44 19.02.2021
2367 Clouds 10 1009 76 10000 5.14 190 13:24 19.02.2021
2368 Clouds 10 1009 71 10000 5.14 190 12:52 19.02.2021
2369 Clouds 9 1009 71 10000 5.14 190 12:24 19.02.2021
2370 Clouds 9 1009 76 10000 5.14 170 11:53 19.02.2021
2371 Clouds 9 1009 76 10000 5.14 170 11:26 19.02.2021
2372 Clouds 9 1009 76 10000 5.14 180 10:54 19.02.2021
2373 Clear 8 1009 76 10000 5.14 180 10:30 19.02.2021
2374 Clear 8 1009 76 10000 4.63 170 09:51 19.02.2021
2375 Clear 8 1009 76 10000 4.12 170 09:26 19.02.2021
2376 Clear 7 1009 81 10000 4.63 170 08:54 19.02.2021
2377 Clear 6 1009 81 10000 3.09 160 08:24 19.02.2021
2378 Clouds 6 1009 87 10000 3.6 160 07:49 19.02.2021
2379 Clouds 6 1010 87 10000 3.6 150 07:30 19.02.2021
2380 Clouds 6 1010 87 10000 3.6 160 06:54 19.02.2021
2381 Clouds 5 1010 87 10000 4.12 170 05:40 19.02.2021
2382 Clouds 5 1010 87 10000 3.09 160 04:41 19.02.2021
2383 Clouds 6 1010 81 10000 4.12 210 01:48 19.02.2021
2384 Clouds 6 1010 75 10000 3.09 210 00:37 19.02.2021
2385 Clouds 6 1010 81 10000 3.09 230 23:56 18.02.2021
2386 Clouds 6 1010 81 10000 3.09 230 23:35 18.02.2021
2387 Clouds 6 1009 70 10000 5.14 230 22:51 18.02.2021
2388 Clouds 6 1009 70 10000 5.14 230 22:30 18.02.2021
2389 Clear 6 1008 70 10000 4.63 230 21:55 18.02.2021
2390 Clear 6 1008 70 10000 4.63 230 21:27 18.02.2021
2391 Clear 6 1007 65 10000 3.6 220 20:57 18.02.2021
2392 Clear 6 1007 65 10000 3.6 220 20:38 18.02.2021
2393 Clear 6 1007 65 10000 5.14 240 20:18 18.02.2021
2394 Clear 7 1006 61 10000 4.63 240 19:41 18.02.2021
2395 Clear 7 1006 57 10000 4.63 240 19:19 18.02.2021
2396 Clear 8 1005 61 10000 5.14 240 18:43 18.02.2021
2397 Clouds 8 1005 57 10000 6.69 250 18:25 18.02.2021
2398 Clouds 9 1004 57 10000 5.66 260 17:43 18.02.2021
2399 Rain 9 1004 53 10000 6.69 260 17:23 18.02.2021
2400 Clouds 10 1003 53 10000 7.2 250 16:44 18.02.2021
2401 Clouds 10 1003 57 10000 6.69 260 16:26 18.02.2021
2402 Clouds 10 1002 61 10000 7.2 260 15:42 18.02.2021
2403 Clouds 10 1002 62 10000 6.69 260 15:22 18.02.2021
2404 Clouds 9 1001 66 10000 7.72 250 14:50 18.02.2021
2405 Clouds 9 1001 71 10000 8.23 260 14:31 18.02.2021
2406 Clouds 9 1001 76 10000 7.2 250 13:49 18.02.2021
2407 Rain 9 1000 81 10000 5.66 240 13:21 18.02.2021
2408 Clouds 9 1000 81 10000 6.17 240 12:54 18.02.2021
2409 Rain 9 999 87 10000 7.2 220 12:30 18.02.2021
2410 Rain 10 999 92 8634 4.35 271 11:47 18.02.2021
2411 Rain 10 999 92 8634 4.35 271 11:47 18.02.2021
2412 Rain 10 999 76 10000 5.66 180 11:27 18.02.2021
2413 Rain 11 999 71 10000 6.17 170 10:58 18.02.2021
2414 Rain 11 999 71 10000 6.17 170 10:37 18.02.2021
2415 Clouds 11 999 71 10000 6.17 170 10:18 18.02.2021
2416 Clouds 10 1000 76 10000 4.63 150 09:31 18.02.2021
2417 Clouds 9 1000 76 10000 4.12 150 08:50 18.02.2021
2418 Clouds 9 1001 76 10000 5.14 140 08:31 18.02.2021
2419 Clouds 9 1001 81 10000 5.66 140 07:48 18.02.2021
2420 Clouds 9 1002 81 10000 5.66 150 07:23 18.02.2021
2421 Rain 9 1003 76 10000 5.66 160 06:18 18.02.2021
2422 Clouds 9 1008 71 10000 5.66 200 00:40 18.02.2021
2423 Clouds 10 1009 71 10000 5.66 190 23:45 17.02.2021
2424 Clouds 10 1009 71 10000 6.69 200 23:19 17.02.2021
2425 Clouds 10 1009 71 10000 6.69 200 22:40 17.02.2021
2426 Clouds 10 1009 71 10000 6.69 200 22:40 17.02.2021
2427 Clouds 10 1009 71 10000 6.69 200 22:22 17.02.2021
2428 Clouds 10 1009 71 10000 6.69 200 22:22 17.02.2021
2429 Clouds 10 1009 76 10000 6.69 200 21:45 17.02.2021
2430 Clouds 10 1010 76 10000 4.63 200 21:20 17.02.2021
2431 Clouds 10 1010 76 10000 6.69 210 20:43 17.02.2021
2432 Clouds 10 1010 82 10000 7.2 210 20:24 17.02.2021
2433 Clouds 11 1010 82 10000 6.17 200 19:38 17.02.2021
2434 Clouds 11 1010 82 10000 5.66 200 19:19 17.02.2021
2435 Clouds 11 1010 82 10000 6.69 210 18:41 17.02.2021
2436 Clouds 11 1010 82 10000 7.2 200 18:18 17.02.2021
2437 Clouds 10 1010 82 10000 6.69 200 17:37 17.02.2021
2438 Clouds 10 1010 87 10000 6.17 200 17:18 17.02.2021
2439 Rain 10 1010 87 10000 6.17 210 16:43 17.02.2021
2440 Rain 10 1010 87 10000 6.17 210 16:22 17.02.2021
2441 Rain 10 1010 82 10000 7.2 220 15:44 17.02.2021
2442 Rain 11 1010 76 10000 7.72 230 15:23 17.02.2021
2443 Clouds 11 1011 76 10000 6.17 220 14:45 17.02.2021
2444 Clouds 11 1011 76 10000 7.2 220 14:26 17.02.2021
2445 Clouds 11 1010 82 10000 6.69 210 13:45 17.02.2021
2446 Clouds 11 1011 82 10000 6.17 220 13:27 17.02.2021
2447 Clouds 11 1011 82 10000 6.17 210 12:44 17.02.2021
2448 Clouds 11 1011 82 10000 6.17 210 12:22 17.02.2021
2449 Clouds 10 1010 87 10000 5.66 220 11:38 17.02.2021
2450 Clouds 10 1010 87 10000 6.17 210 11:18 17.02.2021
2451 Clouds 10 1010 87 10000 6.17 220 10:44 17.02.2021
2452 Rain 10 1010 87 4400 6.69 210 10:24 17.02.2021
2453 Clouds 9 1010 87 10000 6.17 210 09:45 17.02.2021
2454 Clouds 9 1010 81 10000 6.69 200 09:25 17.02.2021
2455 Clouds 9 1010 81 10000 7.2 200 08:43 17.02.2021
2456 Clouds 9 1010 81 10000 6.17 200 08:22 17.02.2021
2457 Clouds 9 1010 81 10000 6.17 210 07:34 17.02.2021
2458 Clouds 9 1010 81 10000 5.14 210 06:35 17.02.2021
2459 Clouds 8 1011 81 10000 2.57 220 02:42 17.02.2021
2460 Clouds 8 1011 87 10000 3.09 230 02:21 17.02.2021
2461 Clouds 8 1010 90 10000 1.34 202 00:33 17.02.2021
2462 Clouds 8 1010 87 10000 4.12 240 23:57 16.02.2021
2463 Clouds 8 1010 87 10000 4.12 240 23:38 16.02.2021
2464 Clouds 8 1010 87 10000 4.12 230 22:45 16.02.2021
2465 Clear 8 1009 87 10000 5.14 230 22:26 16.02.2021
2466 Clear 8 1009 81 10000 7.2 230 21:58 16.02.2021
2467 Clear 8 1009 81 10000 7.2 230 21:39 16.02.2021
2468 Clear 8 1009 81 10000 6.69 230 21:20 16.02.2021
2469 Clear 8 1008 81 10000 5.66 240 20:46 16.02.2021
2470 Clear 9 1008 89 10000 0.89 193 20:24 16.02.2021
2471 Clouds 9 1008 87 10000 5.14 210 19:47 16.02.2021
2472 Clouds 9 1008 87 10000 4.12 200 19:28 16.02.2021
2473 Rain 9 1008 87 10000 4.63 200 18:47 16.02.2021
2474 Clouds 9 1008 87 10000 5.66 210 18:23 16.02.2021
2475 Clouds 10 1008 81 10000 4.63 200 17:53 16.02.2021
2476 Clouds 10 1008 81 10000 4.63 210 17:27 16.02.2021
2477 Clouds 10 1008 81 10000 4.12 220 16:53 16.02.2021
2478 Clouds 10 1008 81 10000 4.12 220 16:53 16.02.2021
2479 Clouds 10 1008 81 10000 3.6 230 16:30 16.02.2021
2480 Clouds 10 1008 81 10000 4.12 200 15:57 16.02.2021
2481 Clouds 10 1008 81 10000 4.12 200 15:36 16.02.2021
2482 Clouds 10 1008 87 10000 4.12 220 15:18 16.02.2021
2483 Rain 10 1009 87 10000 5.66 230 14:40 16.02.2021
2484 Rain 10 1009 87 10000 4.63 220 14:21 16.02.2021
2485 Clouds 10 1008 87 10000 4.63 220 13:46 16.02.2021
2486 Clouds 10 1009 87 10000 4.12 220 13:18 16.02.2021
2487 Clouds 10 1009 87 10000 4.12 220 12:42 16.02.2021
2488 Clouds 10 1009 87 8000 4.12 210 12:20 16.02.2021
2489 Rain 9 1009 87 10000 4.63 210 11:43 16.02.2021
2490 Clouds 9 1009 87 10000 4.63 210 11:21 16.02.2021
2491 Clouds 9 1009 87 6000 5.14 210 10:49 16.02.2021
2492 Rain 9 1009 81 10000 5.66 210 10:30 16.02.2021
2493 Rain 10 1010 81 10000 4.12 200 09:54 16.02.2021
2494 Clouds 9 1010 76 10000 4.63 220 09:28 16.02.2021
2495 Clouds 9 1010 76 10000 5.66 200 08:52 16.02.2021
2496 Clouds 9 1010 76 10000 6.17 200 08:31 16.02.2021
2497 Clouds 9 1009 85 10000 2.24 186 07:59 16.02.2021
2498 Clouds 9 1011 76 10000 5.66 200 06:58 16.02.2021
2499 Clouds 10 1015 81 10000 3.6 180 03:21 16.02.2021
2500 Clouds 10 1016 93 10000 2.57 170 00:43 16.02.2021
2501 Clouds 10 1017 93 10000 3.6 170 23:31 15.02.2021
2502 Clouds 10 1018 87 10000 2.06 160 22:59 15.02.2021
2503 Clouds 9 1018 87 10000 2.06 160 22:40 15.02.2021
2504 Clouds 9 1018 87 10000 2.06 150 21:56 15.02.2021
2505 Clouds 9 1018 87 10000 2.06 150 21:37 15.02.2021
2506 Clouds 9 1019 87 10000 2.57 210 21:19 15.02.2021
2507 Clouds 9 1019 81 10000 1.54 0 20:44 15.02.2021
2508 Clouds 9 1019 76 10000 2.57 170 20:24 15.02.2021
2509 Clouds 9 1019 76 10000 3.6 210 19:43 15.02.2021
2510 Clouds 9 1019 81 10000 2.57 170 19:21 15.02.2021
2511 Clouds 10 1019 71 10000 3.6 200 18:44 15.02.2021
2512 Clouds 10 1019 71 10000 3.6 220 18:25 15.02.2021
2513 Clouds 11 1019 71 10000 4.63 230 17:41 15.02.2021
2514 Clouds 11 1019 71 10000 4.12 220 17:22 15.02.2021
2515 Clouds 12 1019 66 10000 5.66 230 16:53 15.02.2021
2516 Clouds 12 1019 66 10000 4.63 240 16:26 15.02.2021
2517 Clouds 12 1018 71 10000 5.14 240 15:49 15.02.2021
2518 Clouds 12 1018 76 10000 5.14 230 15:22 15.02.2021
2519 Clouds 12 1018 82 10000 4.63 230 14:54 15.02.2021
2520 Clouds 11 1019 87 10000 3.6 230 14:22 15.02.2021
2521 Clouds 11 1019 87 10000 4.12 230 13:58 15.02.2021
2522 Clouds 11 1019 87 10000 4.12 230 13:58 15.02.2021
2523 Clouds 11 1019 87 10000 4.12 230 13:39 15.02.2021
2524 Clouds 10 1019 87 10000 4.12 230 13:18 15.02.2021
2525 Clouds 9 1019 87 9000 3.6 230 12:39 15.02.2021
2526 Clouds 9 1018 93 10000 4.12 230 12:19 15.02.2021
2527 Clouds 9 1018 93 6000 4.63 230 11:41 15.02.2021
2528 Clouds 9 1018 87 10000 3.09 210 11:19 15.02.2021
2529 Clouds 8 1018 87 10000 4.63 210 10:46 15.02.2021
2530 Clouds 8 1018 93 10000 3.6 210 10:22 15.02.2021
2531 Clouds 8 1018 93 9000 3.09 210 09:53 15.02.2021
2532 Rain 8 1018 93 9000 3.09 210 09:33 15.02.2021
2533 Rain 8 1018 93 9000 3.09 210 09:33 15.02.2021
2534 Clouds 7 1017 87 10000 2.06 220 08:44 15.02.2021
2535 Clouds 7 1018 93 6000 3.09 210 07:38 15.02.2021
2536 Clouds 7 1018 87 10000 2.57 200 06:53 15.02.2021
2537 Clouds 7 1018 87 10000 2.57 200 06:34 15.02.2021
2538 Clouds 5 1020 81 10000 3.6 190 02:29 15.02.2021
2539 Clouds 4 1021 81 10000 3.09 170 00:41 15.02.2021
2540 Rain 4 1021 75 10000 5.66 170 23:33 14.02.2021
2541 Clouds 4 1021 70 10000 4.12 170 22:55 14.02.2021
2542 Clouds 4 1021 70 10000 4.12 170 22:36 14.02.2021
2543 Rain 4 1022 65 10000 4.12 170 22:18 14.02.2021
2544 Rain 4 1022 65 10000 4.63 170 21:43 14.02.2021
2545 Rain 4 1022 65 10000 5.66 200 21:23 14.02.2021
2546 Rain 4 1022 65 10000 5.66 200 21:23 14.02.2021
2547 Clouds 4 1022 60 10000 5.14 160 20:42 14.02.2021
2548 Clouds 4 1023 60 10000 2.57 0 20:22 14.02.2021
2549 Rain 4 1022 60 10000 5.66 140 19:40 14.02.2021
2550 Rain 4 1023 52 10000 3.6 150 18:51 14.02.2021
2551 Rain 4 1023 52 10000 3.6 150 18:51 14.02.2021
2552 Rain 4 1023 52 10000 4.12 150 18:29 14.02.2021
2553 Clouds 4 1024 52 10000 3.6 150 17:56 14.02.2021
2554 Clouds 4 1024 52 10000 3.6 150 17:34 14.02.2021
2555 Clouds 4 1024 52 10000 2.57 140 16:52 14.02.2021
2556 Clouds 4 1025 52 10000 3.6 140 16:26 14.02.2021
2557 Clouds 4 1025 52 10000 4.63 140 15:49 14.02.2021
2558 Clouds 4 1025 52 10000 4.63 160 15:30 14.02.2021
2559 Clouds 4 1026 52 10000 4.63 140 14:47 14.02.2021
2560 Clouds 3 1027 56 10000 4.63 150 14:26 14.02.2021
2561 Clouds 3 1027 56 10000 4.63 130 13:48 14.02.2021
2562 Clouds 3 1027 56 10000 4.63 140 13:27 14.02.2021
2563 Clouds 3 1027 56 10000 5.66 140 12:38 14.02.2021
2564 Clouds 3 1028 55 10000 4.63 140 12:18 14.02.2021
2565 Clouds 2 1027 55 10000 4.12 130 11:47 14.02.2021
2566 Clouds 2 1028 55 10000 6.17 140 11:20 14.02.2021
2567 Clouds 2 1028 55 10000 5.14 140 10:35 14.02.2021
2568 Clouds 1 1029 60 10000 4.63 130 09:55 14.02.2021
2569 Clouds 1 1029 60 10000 4.63 130 09:37 14.02.2021
2570 Clouds 1 1029 60 10000 4.63 140 09:19 14.02.2021
2571 Clouds 1 1029 55 10000 2.57 150 08:25 14.02.2021
2572 Clouds 1 1029 55 10000 5.14 140 07:54 14.02.2021
2573 Clouds 1 1029 55 10000 3.09 130 06:37 14.02.2021
2574 Clouds 1 1030 55 10000 4.12 140 04:52 14.02.2021
2575 Clouds 1 1031 51 10000 3.09 160 03:23 14.02.2021
2576 Clouds 1 1032 48 10000 4.12 140 01:42 14.02.2021
2577 Clouds 1 1031 48 10000 4.63 130 00:46 14.02.2021
2578 Clouds 1 1032 48 10000 4.12 140 00:18 14.02.2021
2579 Clouds 1 1032 47 10000 5.14 130 23:38 13.02.2021
2580 Clouds 1 1032 47 10000 5.14 130 23:20 13.02.2021
2581 Clouds 1 1032 47 10000 5.14 130 23:20 13.02.2021
2582 Clouds 1 1032 47 10000 4.63 120 22:33 13.02.2021
2583 Clouds 1 1032 47 10000 4.63 120 21:53 13.02.2021
2584 Clouds 1 1032 47 10000 4.63 110 21:35 13.02.2021
2585 Clouds 0 1032 55 10000 5.66 100 20:52 13.02.2021
2586 Clouds 0 1032 55 10000 5.66 100 20:28 13.02.2021
2587 Clouds 0 1032 55 10000 5.66 100 20:28 13.02.2021
2588 Snow 0 1033 51 10000 5.14 110 19:49 13.02.2021
2589 Snow 0 1033 51 10000 5.14 110 19:49 13.02.2021
2590 Clouds 0 1032 51 10000 5.14 110 19:25 13.02.2021
2591 Clouds 0 1032 47 10000 5.66 110 18:52 13.02.2021
2592 Clouds 0 1032 47 10000 5.66 110 18:33 13.02.2021
2593 Clouds 1 1033 40 10000 5.66 130 17:45 13.02.2021
2594 Clouds 1 1033 40 10000 5.66 130 17:26 13.02.2021
2595 Clouds 1 1032 40 10000 5.66 130 16:59 13.02.2021
2596 Clouds 1 1032 40 10000 5.66 130 16:41 13.02.2021
2597 Clouds 1 1032 43 10000 7.2 120 15:57 13.02.2021
2598 Clouds 1 1033 40 10000 7.72 120 15:27 13.02.2021
2599 Clouds 1 1033 43 10000 6.17 120 14:42 13.02.2021
2600 Clouds 0 1033 43 10000 7.72 120 14:24 13.02.2021
2601 Clouds 0 1033 43 10000 6.17 130 13:44 13.02.2021
2602 Clouds 0 1034 43 10000 6.69 110 13:23 13.02.2021
2603 Clouds 0 1034 51 10000 7.72 120 12:38 13.02.2021
2604 Clouds -1 1034 51 10000 7.72 120 12:18 13.02.2021
2605 Clouds -2 1034 54 10000 7.2 110 11:40 13.02.2021
2606 Clouds -2 1034 54 10000 7.2 110 11:18 13.02.2021
2607 Clouds -2 1034 59 10000 6.69 110 10:44 13.02.2021
2608 Clouds -3 1034 63 10000 5.66 110 10:23 13.02.2021
2609 Clouds -3 1034 63 10000 5.66 110 09:52 13.02.2021
2610 Clouds -4 1034 68 10000 4.63 110 09:29 13.02.2021
2611 Clouds -4 1034 68 10000 5.66 100 08:53 13.02.2021
2612 Clouds -4 1033 68 10000 6.17 100 08:30 13.02.2021
2613 Clouds -4 1034 68 10000 6.69 110 07:45 13.02.2021
2614 Clouds -4 1034 68 10000 7.2 110 06:37 13.02.2021
2615 Clouds -4 1033 68 10000 7.2 100 05:19 13.02.2021
2616 Clouds -3 1033 68 10000 7.2 100 03:47 13.02.2021
2617 Clouds -2 1033 69 10000 7.2 110 01:31 13.02.2021
2618 Clouds -2 1034 59 10000 10.29 110 00:23 13.02.2021
2619 Clouds -2 1033 59 10000 8.75 110 23:48 12.02.2021
2620 Clouds -2 1034 59 10000 9.26 110 23:20 12.02.2021
2621 Clouds -2 1033 64 10000 9.77 100 22:40 12.02.2021
2622 Clouds -2 1033 64 10000 9.26 100 22:18 12.02.2021
2623 Clouds -1 1033 59 10000 9.77 100 21:45 12.02.2021
2624 Clouds -1 1032 64 10000 7.72 90 21:25 12.02.2021
2625 Clouds -1 1032 59 10000 9.77 80 20:46 12.02.2021
2626 Clear -1 1031 66 10000 2.68 104 20:27 12.02.2021
2627 Clouds -1 1032 59 10000 7.72 80 19:55 12.02.2021
2628 Clouds -1 1032 59 10000 7.72 70 19:30 12.02.2021
2629 Clouds -1 1031 59 10000 7.72 70 18:54 12.02.2021
2630 Clouds -1 1031 55 10000 8.23 70 18:28 12.02.2021
2631 Clouds -1 1031 59 10000 9.77 80 17:44 12.02.2021
2632 Clouds 0 1031 59 10000 9.77 80 17:20 12.02.2021
2633 Clouds 0 1031 59 10000 10.29 80 16:25 12.02.2021
2634 Clouds 0 1031 59 10000 10.29 80 15:46 12.02.2021
2635 Clouds 0 1032 59 10000 9.77 80 15:21 12.02.2021
2636 Clouds 0 1032 59 10000 9.26 90 14:42 12.02.2021
2637 Clouds 0 1033 59 10000 9.26 90 13:59 12.02.2021
2638 Clouds 0 1033 59 10000 9.26 90 13:40 12.02.2021
2639 Clouds 0 1033 59 10000 9.26 90 13:40 12.02.2021
2640 Clouds 1 1031 55 10000 9.77 100 12:56 12.02.2021
2641 Clouds 1 1031 55 10000 9.77 100 12:37 12.02.2021
2642 Clouds 1 1030 55 10000 10.29 100 12:18 12.02.2021
2643 Clouds 1 1030 55 10000 9.26 100 11:38 12.02.2021
2644 Clouds 1 1030 55 10000 10.29 90 11:19 12.02.2021
2645 Clouds 0 1031 55 10000 10.29 100 10:41 12.02.2021
2646 Clear 0 1030 69 10000 7.2 90 09:49 12.02.2021
2647 Clouds -1 1030 69 10000 6.17 90 09:25 12.02.2021
2648 Clouds -1 1029 74 10000 5.66 100 08:49 12.02.2021
2649 Clouds -1 1029 69 10000 6.69 100 08:28 12.02.2021
2650 Clouds -1 1029 69 10000 6.69 100 07:53 12.02.2021
2651 Clouds -1 1029 69 10000 5.14 110 07:31 12.02.2021
2652 Clouds -1 1029 69 10000 6.69 100 06:55 12.02.2021
2653 Clouds -1 1029 69 10000 6.69 100 05:47 12.02.2021
2654 Clouds -2 1028 74 10000 6.69 90 04:30 12.02.2021
2655 Clouds -1 1028 74 10000 5.66 100 01:29 12.02.2021
2656 Clouds -1 1029 69 10000 6.17 100 23:41 11.02.2021
2657 Clouds -1 1029 64 10000 6.17 110 23:22 11.02.2021
2658 Clouds -1 1028 64 10000 6.69 100 22:46 11.02.2021
2659 Clouds -1 1028 64 10000 7.72 100 22:24 11.02.2021
2660 Clouds -1 1028 64 10000 6.69 100 21:57 11.02.2021
2661 Clouds -1 1028 64 10000 6.69 100 21:36 11.02.2021
2662 Clouds -1 1028 64 10000 7.2 90 21:18 11.02.2021
2663 Clouds -1 1028 64 10000 7.2 100 20:41 11.02.2021
2664 Clouds -1 1028 64 10000 7.72 90 20:21 11.02.2021
2665 Clouds -1 1028 64 10000 6.69 100 19:47 11.02.2021
2666 Clouds -1 1028 64 10000 8.23 90 19:28 11.02.2021
2667 Clouds -1 1028 69 10000 8.23 90 18:49 11.02.2021
2668 Clouds -1 1028 64 10000 7.72 90 18:28 11.02.2021
2669 Clouds -1 1028 64 10000 7.72 90 18:28 11.02.2021
2670 Clouds -1 1028 64 10000 6.17 100 17:52 11.02.2021
2671 Clouds 0 1028 64 10000 7.2 90 17:22 11.02.2021
2672 Clouds 0 1028 64 10000 7.2 90 16:57 11.02.2021
2673 Clouds 0 1028 64 10000 7.2 90 16:39 11.02.2021
2674 Clouds 0 1028 69 10000 6.69 90 16:20 11.02.2021
2675 Clouds 0 1028 64 10000 6.17 100 15:41 11.02.2021
2676 Clouds 0 1028 64 10000 6.17 90 15:23 11.02.2021
2677 Clouds 1 1029 64 10000 4.63 110 14:44 11.02.2021
2678 Clouds 0 1029 64 10000 6.17 100 14:25 11.02.2021
2679 Clouds 0 1029 64 10000 7.72 100 13:38 11.02.2021
2680 Clouds 0 1029 69 10000 8.23 110 13:19 11.02.2021
2681 Clouds 0 1029 69 10000 7.2 120 12:44 11.02.2021
2682 Clouds 0 1028 74 10000 5.66 130 12:21 11.02.2021
2683 Clouds -1 1028 74 10000 5.14 110 11:42 11.02.2021
2684 Clouds -1 1028 74 10000 6.17 110 11:20 11.02.2021
2685 Clouds -1 1027 80 10000 6.17 100 10:44 11.02.2021
2686 Clouds -1 1027 86 10000 4.63 100 10:25 11.02.2021
2687 Rain -1 1027 86 8000 4.63 80 09:53 11.02.2021
2688 Rain -2 1027 93 8000 3.09 60 09:22 11.02.2021
2689 Rain -2 1027 93 7000 3.09 80 08:51 11.02.2021
2690 Snow -2 1027 86 7000 2.57 90 08:21 11.02.2021
2691 Snow -2 1026 93 8000 1.54 0 06:58 11.02.2021
2692 Snow -2 1026 93 8000 1.54 0 06:35 11.02.2021
2693 Rain -2 1026 93 10000 3.09 60 04:55 11.02.2021
2694 Clouds -2 1025 86 10000 2.57 50 02:29 11.02.2021
2695 Clear -2 1024 86 10000 2.06 60 00:47 11.02.2021
2696 Clear -2 1024 80 10000 2.06 60 00:19 11.02.2021
2697 Clear -2 1024 74 10000 2.06 60 23:40 10.02.2021
2698 Clear -2 1023 74 10000 2.06 60 22:52 10.02.2021
2699 Clear -2 1023 74 10000 2.57 60 22:29 10.02.2021
2700 Clear -1 1022 64 10000 2.57 60 21:58 10.02.2021
2701 Clear -1 1022 64 10000 2.57 60 21:38 10.02.2021
2702 Clear -1 1022 64 10000 2.06 0 21:19 10.02.2021
2703 Clear -1 1021 75 10000 0.89 66 20:40 10.02.2021
2704 Clouds -1 1021 59 10000 2.06 60 20:22 10.02.2021
2705 Clouds 0 1021 59 10000 2.06 0 19:45 10.02.2021
2706 Clouds 0 1020 68 10000 0.45 59 19:24 10.02.2021
2707 Clouds 0 1020 55 10000 3.09 0 18:40 10.02.2021
2708 Clouds 1 1019 48 10000 3.6 60 18:22 10.02.2021
2709 Clouds 1 1019 62 10000 0.89 32 17:51 10.02.2021
2710 Clouds 2 1019 51 10000 3.6 0 17:23 10.02.2021
2711 Clouds 2 1019 55 10000 4.12 50 16:53 10.02.2021
2712 Clouds 2 1018 55 10000 5.14 50 16:30 10.02.2021
2713 Clouds 2 1018 55 10000 4.12 60 15:54 10.02.2021
2714 Clouds 2 1018 60 10000 4.12 50 15:23 10.02.2021
2715 Clouds 2 1018 64 10000 5.66 60 14:47 10.02.2021
2716 Clouds 2 1017 69 10000 4.12 50 14:27 10.02.2021
2717 Clouds 1 1017 69 10000 4.12 60 13:51 10.02.2021
2718 Rain 1 1017 69 10000 3.6 20 13:28 10.02.2021
2719 Snow 2 1016 69 10000 4.12 0 12:48 10.02.2021
2720 Clouds 1 1016 64 10000 5.14 60 12:29 10.02.2021
2721 Clouds 1 1015 69 10000 3.6 60 11:54 10.02.2021
2722 Clouds 1 1015 69 10000 3.6 60 11:36 10.02.2021
2723 Clouds 0 1015 69 10000 3.6 50 11:18 10.02.2021
2724 Clouds -1 1014 74 10000 3.09 0 10:22 10.02.2021
2725 Clouds -1 1013 74 10000 3.09 0 09:45 10.02.2021
2726 Clear -1 1013 74 10000 2.57 60 09:26 10.02.2021
2727 Clear -2 1012 69 10000 3.6 50 08:51 10.02.2021
2728 Clear -2 1012 69 10000 3.6 50 08:32 10.02.2021
2729 Clouds -1 1011 74 10000 3.09 50 07:31 10.02.2021
2730 Clouds -1 1010 69 10000 3.09 0 06:21 10.02.2021
2731 Snow 0 1008 66 6876 4.87 64 01:21 10.02.2021
2732 Rain 0 1008 74 10000 5.66 50 23:49 09.02.2021
2733 Rain 0 1008 80 10000 5.14 50 23:30 09.02.2021
2734 Rain 0 1008 80 10000 4.12 60 22:45 09.02.2021
2735 Snow 0 1007 66 4829 5.1 77 22:23 09.02.2021
2736 Snow 0 1007 69 10000 4.63 60 21:48 09.02.2021
2737 Snow 0 1007 69 10000 5.14 60 21:21 09.02.2021
2738 Snow 0 1007 69 10000 5.66 60 20:44 09.02.2021
2739 Clouds 0 1007 74 10000 6.17 60 20:25 09.02.2021
2740 Rain 0 1007 74 10000 6.17 60 19:44 09.02.2021
2741 Rain 0 1007 80 10000 6.17 60 19:23 09.02.2021
2742 Snow -1 1007 80 10000 6.69 60 18:49 09.02.2021
2743 Snow 0 1007 80 10000 5.66 60 18:31 09.02.2021
2744 Snow 0 1007 80 10000 6.17 60 17:50 09.02.2021
2745 Rain 0 1007 80 10000 6.69 80 17:28 09.02.2021
2746 Rain 0 1007 80 10000 7.2 90 16:54 09.02.2021
2747 Snow 0 1007 80 3700 8.23 90 16:20 09.02.2021
2748 Snow 0 1008 80 6000 7.72 100 15:58 09.02.2021
2749 Snow 0 1008 80 6000 7.72 100 15:40 09.02.2021
2750 Snow 0 1008 69 10000 7.2 100 15:21 09.02.2021
2751 Clouds 0 1008 74 10000 5.66 70 14:43 09.02.2021
2752 Rain 0 1008 74 10000 8.75 90 14:23 09.02.2021
2753 Snow 0 1008 74 10000 7.72 100 13:43 09.02.2021
2754 Snow 0 1008 74 10000 6.69 100 13:20 09.02.2021
2755 Snow -1 1008 86 4900 5.14 120 12:48 09.02.2021
2756 Snow 0 1008 75 10000 6.69 70 12:28 09.02.2021
2757 Snow -1 1008 80 10000 5.14 60 11:44 09.02.2021
2758 Rain -1 1008 80 10000 5.14 60 11:22 09.02.2021
2759 Snow -1 1007 93 6000 5.14 60 10:58 09.02.2021
2760 Rain -1 1007 86 10000 4.63 60 10:23 09.02.2021
2761 Snow -1 1007 86 6000 4.63 50 09:59 09.02.2021
2762 Snow -1 1007 86 6000 4.63 50 09:40 09.02.2021
2763 Snow -1 1007 86 4900 4.12 50 09:20 09.02.2021
2764 Rain -1 1007 80 10000 3.6 50 08:30 09.02.2021
2765 Rain -1 1007 80 10000 3.6 60 07:57 09.02.2021
2766 Rain -1 1007 80 10000 3.09 60 05:40 09.02.2021
2767 Rain -1 1007 86 10000 2.57 20 03:49 09.02.2021
2768 Rain -1 1006 86 9000 2.06 0 02:26 09.02.2021
2769 Clouds -1 1006 86 10000 4.63 50 00:32 09.02.2021
2770 Rain -1 1006 86 10000 4.63 60 23:54 08.02.2021
2771 Rain -1 1005 86 9000 4.12 50 23:20 08.02.2021
2772 Snow -1 1005 86 6000 2.57 0 22:43 08.02.2021
2773 Snow -1 1005 86 10000 2.57 0 22:23 08.02.2021
2774 Rain -1 1005 86 10000 2.57 40 21:53 08.02.2021
2775 Rain -1 1005 86 10000 3.09 0 21:31 08.02.2021
2776 Rain -1 1005 86 10000 3.09 40 20:59 08.02.2021
2777 Rain -1 1005 86 10000 3.09 40 20:38 08.02.2021
2778 Clouds -1 1005 86 10000 2.57 0 20:19 08.02.2021
2779 Clouds -1 1005 80 10000 3.6 0 19:42 08.02.2021
2780 Rain -1 1004 80 10000 4.12 50 19:22 08.02.2021
2781 Clouds -1 1004 80 10000 3.09 0 18:46 08.02.2021
2782 Rain -1 1004 80 8000 2.57 0 18:19 08.02.2021
2783 Rain -1 1004 74 10000 5.14 60 17:44 08.02.2021
2784 Rain -1 1004 74 10000 4.12 50 17:24 08.02.2021
2785 Snow -1 1004 80 7000 3.6 50 16:44 08.02.2021
2786 Snow -1 1004 80 9000 3.6 50 16:21 08.02.2021
2787 Rain -1 1003 74 10000 4.12 0 15:43 08.02.2021
2788 Snow -1 1003 74 10000 4.12 60 15:20 08.02.2021
2789 Rain -1 1003 74 10000 4.12 0 14:52 08.02.2021
2790 Rain -1 1003 74 10000 4.12 0 14:32 08.02.2021
2791 Rain -1 1003 74 10000 4.12 40 13:57 08.02.2021
2792 Rain -1 1003 74 10000 4.12 40 13:38 08.02.2021
2793 Rain -1 1004 74 10000 4.12 0 13:20 08.02.2021
2794 Rain -1 1003 74 10000 3.6 0 12:37 08.02.2021
2795 Rain -1 1003 80 10000 3.6 0 11:51 08.02.2021
2796 Snow -2 1003 86 8000 4.63 0 11:23 08.02.2021
2797 Snow -2 1003 86 6000 3.6 0 10:46 08.02.2021
2798 Snow -2 1003 86 8000 3.6 0 10:24 08.02.2021
2799 Snow -2 1003 80 10000 4.12 50 09:55 08.02.2021
2800 Snow -2 1003 80 10000 4.12 50 09:36 08.02.2021
2801 Rain -2 1003 80 10000 4.63 30 08:52 08.02.2021
2802 Rain -2 1003 80 10000 4.12 0 08:24 08.02.2021
2803 Snow -2 1002 80 10000 4.12 0 07:38 08.02.2021
2804 Snow -2 1003 86 5000 3.09 0 06:31 08.02.2021
2805 Rain -2 1003 86 7000 3.6 0 04:54 08.02.2021
2806 Rain -1 1003 74 10000 4.63 0 02:26 08.02.2021
2807 Clouds -1 1003 74 10000 6.69 50 00:24 08.02.2021
2808 Clouds -1 1004 74 10000 6.17 50 23:53 07.02.2021
2809 Clouds -1 1004 74 10000 5.66 60 23:28 07.02.2021
2810 Clouds -1 1004 74 10000 6.17 60 22:56 07.02.2021
2811 Clouds -1 1004 74 10000 6.17 60 22:38 07.02.2021
2812 Clouds -1 1004 74 10000 8.23 60 22:19 07.02.2021
2813 Rain 0 1004 74 10000 6.69 50 21:49 07.02.2021
2814 Drizzle 0 1004 74 10000 6.69 50 21:24 07.02.2021
2815 Rain 0 1004 74 10000 6.69 50 20:49 07.02.2021
2816 Clouds 0 1004 80 10000 5.66 50 20:28 07.02.2021
2817 Snow 0 1004 80 8000 4.63 60 19:47 07.02.2021
2818 Snow 0 1004 80 8000 5.66 0 19:28 07.02.2021
2819 Snow 0 1004 80 10000 5.66 50 18:45 07.02.2021
2820 Snow 0 1004 86 10000 5.14 60 18:27 07.02.2021
2821 Snow 0 1004 86 5000 5.14 60 17:58 07.02.2021
2822 Snow 0 1004 86 5000 5.14 60 17:39 07.02.2021
2823 Snow 1 1004 86 5000 6.69 60 17:18 07.02.2021
2824 Snow 1 1003 80 6000 5.14 10 16:41 07.02.2021
2825 Snow 1 1003 80 3800 5.14 0 16:21 07.02.2021
2826 Snow 1 1004 80 6000 4.63 10 15:44 07.02.2021
2827 Snow 1 1004 80 4800 5.66 10 15:21 07.02.2021
2828 Snow 1 1004 80 4800 4.63 10 14:46 07.02.2021
2829 Snow 1 1004 80 5000 4.12 0 14:27 07.02.2021
2830 Snow 1 1004 80 6000 4.63 10 13:52 07.02.2021
2831 Snow 1 1004 86 2700 4.63 0 13:30 07.02.2021
2832 Snow 1 1005 93 1500 5.66 0 12:43 07.02.2021
2833 Snow 1 1005 86 5000 4.63 10 12:22 07.02.2021
2834 Snow 1 1005 86 4400 5.14 0 11:46 07.02.2021
2835 Snow 1 1005 86 4400 5.14 0 11:46 07.02.2021
2836 Snow 1 1005 86 3200 4.63 0 11:26 07.02.2021
2837 Snow 1 1005 86 3100 5.66 360 10:48 07.02.2021
2838 Snow 1 1005 86 4400 5.14 0 10:24 07.02.2021
2839 Snow 1 1005 93 3700 4.63 0 09:46 07.02.2021
2840 Snow 2 1005 87 4300 5.14 0 09:21 07.02.2021
2841 Clouds 2 1005 87 6000 4.12 0 08:23 07.02.2021
2842 Clouds 2 1004 81 7000 4.12 0 07:32 07.02.2021
2843 Clouds 2 1004 87 5000 3.6 20 05:57 07.02.2021
2844 Clouds 3 1005 87 7000 5.14 50 03:52 07.02.2021
2845 Rain 4 1005 93 4700 5.14 50 01:37 07.02.2021
2846 Rain 4 1005 93 5000 5.14 60 00:35 07.02.2021
2847 Clouds 4 1005 87 7000 4.63 60 23:46 06.02.2021
2848 Rain 5 1005 93 10000 3.09 50 22:42 06.02.2021
2849 Rain 6 1005 87 10000 5.14 60 21:43 06.02.2021
2850 Rain 6 1005 87 10000 5.14 60 21:23 06.02.2021
2851 Clouds 6 1005 93 10000 4.63 60 20:52 06.02.2021
2852 Rain 6 1005 87 8000 5.66 60 20:26 06.02.2021
2853 Rain 7 1005 93 5000 3.6 60 19:57 06.02.2021
2854 Rain 7 1005 93 5000 3.6 60 19:34 06.02.2021
2855 Clouds 7 1005 93 10000 4.12 70 18:54 06.02.2021
2856 Rain 7 1005 93 10000 4.12 70 18:34 06.02.2021
2857 Rain 7 1005 93 7000 2.57 0 17:56 06.02.2021
2858 Rain 7 1005 93 7000 2.57 0 17:38 06.02.2021
2859 Clouds 8 1005 81 10000 2.06 0 17:19 06.02.2021
2860 Clouds 8 1006 81 10000 2.06 50 16:41 06.02.2021
2861 Clouds 8 1006 81 10000 2.57 360 16:23 06.02.2021
2862 Clouds 8 1006 81 10000 1.54 0 15:48 06.02.2021
2863 Clouds 8 1006 81 10000 1.54 0 15:25 06.02.2021
2864 Clouds 8 1007 81 10000 2.06 350 14:46 06.02.2021
2865 Clouds 8 1007 87 10000 1.54 0 14:28 06.02.2021
2866 Clouds 8 1007 87 10000 2.06 60 13:53 06.02.2021
2867 Clouds 8 1007 87 10000 2.06 60 13:34 06.02.2021
2868 Clouds 7 1008 87 10000 2.57 70 12:23 06.02.2021
2869 Clouds 7 1008 87 8000 2.06 60 11:57 06.02.2021
2870 Clouds 7 1008 87 8000 2.06 60 11:38 06.02.2021
2871 Clouds 6 1008 87 6000 2.06 50 11:19 06.02.2021
2872 Haze 6 1008 93 5000 1.54 360 10:44 06.02.2021
2873 Haze 6 1008 93 5000 1.03 0 10:24 06.02.2021
2874 Clouds 6 1008 93 6000 1.54 60 09:37 06.02.2021
2875 Clouds 6 1008 93 6000 1.54 100 09:18 06.02.2021
2876 Clouds 5 1008 93 7000 0.51 0 08:52 06.02.2021
2877 Clouds 5 1008 93 7000 0.51 0 08:28 06.02.2021
2878 Clouds 5 1008 100 7000 1.54 100 06:41 06.02.2021
2879 Clouds 5 1008 93 10000 2.06 90 05:33 06.02.2021
2880 Clouds 7 1008 87 10000 1.54 0 02:43 06.02.2021
2881 Clouds 7 1008 93 10000 2.57 140 00:56 06.02.2021
2882 Clouds 7 1008 93 10000 2.57 140 00:37 06.02.2021
2883 Clouds 7 1008 87 10000 2.57 130 00:18 06.02.2021
2884 Rain 7 1009 93 10000 3.6 130 23:29 05.02.2021
2885 Clouds 7 1009 93 10000 3.09 130 22:50 05.02.2021
2886 Clear 7 1009 87 10000 2.57 130 22:25 05.02.2021
2887 Clear 7 1009 87 10000 2.57 130 22:25 05.02.2021
2888 Clouds 7 1009 87 10000 4.12 150 21:56 05.02.2021
2889 Clouds 7 1009 87 10000 4.12 150 21:36 05.02.2021
2890 Clouds 7 1009 81 10000 3.09 150 20:56 05.02.2021
2891 Clouds 8 1009 81 10000 2.57 150 20:20 05.02.2021
2892 Rain 8 1008 76 10000 2.57 170 19:45 05.02.2021
2893 Rain 8 1009 76 10000 2.06 160 19:18 05.02.2021
2894 Clouds 8 1009 71 10000 2.57 160 18:40 05.02.2021
2895 Clear 8 1008 79 10000 0.89 145 18:19 05.02.2021
2896 Clear 9 1008 66 10000 3.6 180 17:38 05.02.2021
2897 Clear 10 1008 62 10000 3.6 170 17:19 05.02.2021
2898 Clouds 10 1008 62 10000 4.12 160 16:43 05.02.2021
2899 Clouds 11 1009 62 10000 3.6 170 16:21 05.02.2021
2900 Clouds 11 1009 62 10000 4.12 170 15:50 05.02.2021
2901 Clouds 11 1009 62 10000 3.09 190 15:23 05.02.2021
2902 Clouds 11 1009 62 10000 3.09 210 14:39 05.02.2021
2903 Clouds 10 1009 66 10000 3.6 200 14:21 05.02.2021
2904 Clouds 11 1009 71 10000 2.57 220 13:53 05.02.2021
2905 Clouds 10 1009 71 10000 2.57 220 13:33 05.02.2021
2906 Clouds 10 1010 71 10000 1.54 0 12:45 05.02.2021
2907 Clear 9 1010 76 10000 2.06 210 12:24 05.02.2021
2908 Clear 8 1010 76 10000 1.03 0 11:40 05.02.2021
2909 Clouds 7 1010 87 10000 2.06 230 11:21 05.02.2021
2910 Clouds 7 1010 87 10000 2.57 220 10:49 05.02.2021
2911 Clouds 6 1009 87 10000 2.57 220 10:26 05.02.2021
2912 Clouds 6 1009 87 10000 3.09 230 09:45 05.02.2021
2913 Clouds 6 1009 93 10000 3.6 250 09:26 05.02.2021
2914 Clouds 6 1008 93 10000 4.12 260 08:51 05.02.2021
2915 Clouds 6 1008 93 10000 2.06 250 07:53 05.02.2021
2916 Clouds 6 1008 93 10000 2.06 250 07:34 05.02.2021
2917 Clouds 7 1007 93 10000 1.54 0 06:48 05.02.2021
2918 Clouds 8 1007 93 10000 1.54 240 05:36 05.02.2021
2919 Clouds 7 1007 87 10000 2.06 220 02:52 05.02.2021
2920 Clouds 7 1007 87 10000 3.09 200 02:24 05.02.2021
2921 Clouds 7 1007 87 10000 1.54 0 00:40 05.02.2021
2922 Clouds 7 1007 93 10000 2.06 120 00:20 05.02.2021
2923 Clouds 8 1008 87 10000 1.54 0 23:55 04.02.2021
2924 Clouds 8 1008 87 10000 1.54 0 23:37 04.02.2021
2925 Clouds 8 1008 87 10000 1.54 0 23:19 04.02.2021
2926 Clouds 8 1008 93 4400 2.06 280 22:49 04.02.2021
2927 Rain 8 1007 93 2900 1.03 0 22:25 04.02.2021
2928 Rain 8 1007 93 10000 3.84 148 21:42 04.02.2021
2929 Rain 8 1008 95 10000 3.24 144 21:20 04.02.2021
2930 Clouds 8 1008 87 10000 2.57 130 20:49 04.02.2021
2931 Clouds 8 1008 87 10000 3.09 150 20:30 04.02.2021
2932 Clouds 8 1008 87 10000 3.09 150 20:30 04.02.2021
2933 Rain 8 1008 87 10000 3.09 160 19:45 04.02.2021
2934 Clouds 9 1008 87 10000 3.09 140 18:57 04.02.2021
2935 Clouds 9 1008 87 10000 3.09 140 18:36 04.02.2021
2936 Clouds 9 1008 87 10000 2.57 140 18:18 04.02.2021
2937 Clouds 9 1008 93 10000 3.09 140 17:41 04.02.2021
2938 Clouds 9 1008 93 10000 3.09 130 17:20 04.02.2021
2939 Clouds 9 1008 93 10000 3.09 130 16:41 04.02.2021
2940 Clouds 9 1008 93 10000 3.6 130 16:19 04.02.2021
2941 Rain 9 1009 93 10000 3.6 120 15:40 04.02.2021
2942 Clouds 9 1009 93 10000 2.57 110 15:21 04.02.2021
2943 Clouds 9 1009 87 7000 3.6 130 14:49 04.02.2021
2944 Rain 9 1010 87 10000 3.6 130 14:21 04.02.2021
2945 Clouds 9 1010 87 10000 2.57 130 13:49 04.02.2021
2946 Clouds 9 1010 81 10000 2.57 140 13:28 04.02.2021
2947 Clouds 9 1010 81 10000 3.6 140 12:57 04.02.2021
2948 Clouds 8 1011 87 10000 3.6 140 12:20 04.02.2021
2949 Clouds 8 1011 87 10000 3.6 140 11:38 04.02.2021
2950 Clouds 7 1011 93 10000 4.63 150 11:20 04.02.2021
2951 Clouds 7 1010 93 10000 3.6 170 10:43 04.02.2021
2952 Clouds 6 1010 100 7000 1.54 0 09:56 04.02.2021
2953 Clouds 6 1010 100 7000 1.54 0 09:37 04.02.2021
2954 Clouds 5 1010 100 9000 1.03 0 09:18 04.02.2021
2955 Clouds 5 1010 93 10000 1.54 0 08:41 04.02.2021
2956 Clouds 5 1009 93 10000 1.54 0 08:20 04.02.2021
2957 Clouds 5 1009 93 10000 1.03 0 07:41 04.02.2021
2958 Clouds 5 1009 93 10000 1.03 0 06:55 04.02.2021
2959 Clouds 5 1009 93 10000 1.03 0 06:35 04.02.2021
2960 Clear 5 1008 87 10000 2.06 220 03:53 04.02.2021
2961 Clear 5 1007 81 10000 2.57 230 02:26 04.02.2021
2962 Clouds 6 1006 81 10000 3.6 250 00:42 04.02.2021
2963 Clouds 6 1005 76 10000 4.63 240 23:40 03.02.2021
2964 Clouds 6 1004 76 10000 4.12 240 22:44 03.02.2021
2965 Clouds 6 1004 76 10000 4.12 240 22:22 03.02.2021
2966 Clouds 6 1003 76 10000 5.14 240 21:58 03.02.2021
2967 Clouds 7 1003 71 10000 5.14 240 21:38 03.02.2021
2968 Clouds 7 1003 71 10000 5.14 240 21:20 03.02.2021
2969 Clouds 7 1002 76 10000 4.63 240 20:45 03.02.2021
2970 Clouds 7 1002 76 10000 4.12 240 20:24 03.02.2021
2971 Clouds 8 1001 71 10000 6.17 250 19:45 03.02.2021
2972 Clouds 8 1000 71 10000 5.66 250 19:21 03.02.2021
2973 Clouds 8 999 71 10000 5.66 250 18:48 03.02.2021
2974 Clouds 8 999 77 10000 2.24 266 18:21 03.02.2021
2975 Clouds 9 998 78 10000 1.34 267 17:53 03.02.2021
2976 Clouds 9 997 78 10000 1.79 293 17:33 03.02.2021
2977 Clouds 9 997 71 10000 3.6 280 16:59 03.02.2021
2978 Clouds 10 996 71 10000 4.63 280 16:35 03.02.2021
2979 Clouds 10 996 76 10000 4.63 290 15:50 03.02.2021
2980 Clouds 10 995 87 10000 3.09 250 15:30 03.02.2021
2981 Clouds 9 995 93 10000 3.09 250 14:54 03.02.2021
2982 Clouds 9 994 87 10000 3.09 250 14:30 03.02.2021
2983 Clouds 9 994 93 10000 2.57 240 13:56 03.02.2021
2984 Clouds 8 994 87 10000 2.57 240 13:30 03.02.2021
2985 Rain 8 994 87 7000 4.12 240 12:56 03.02.2021
2986 Rain 8 994 87 7000 4.12 240 12:37 03.02.2021
2987 Rain 8 993 87 8000 1.54 230 12:18 03.02.2021
2988 Rain 8 993 93 8000 1.54 260 11:38 03.02.2021
2989 Rain 8 993 87 8000 2.06 190 11:19 03.02.2021
2990 Rain 8 992 87 9000 1.54 0 10:27 03.02.2021
2991 Rain 8 992 87 10000 1.54 0 09:53 03.02.2021
2992 Rain 8 992 87 10000 1.54 0 09:34 03.02.2021
2993 Clouds 8 992 89 10000 1.41 170 08:55 03.02.2021
2994 Clouds 8 993 87 10000 2.57 200 08:37 03.02.2021
2995 Clouds 8 993 81 10000 1.54 0 07:48 03.02.2021
2996 Clouds 9 993 81 10000 3.09 200 06:42 03.02.2021
2997 Clouds 9 994 76 10000 4.12 210 04:55 03.02.2021
2998 Clouds 9 994 76 10000 4.12 210 04:37 03.02.2021
2999 Clouds 9 994 76 10000 4.63 240 03:49 03.02.2021
3000 Clouds 10 994 76 10000 6.17 230 02:39 03.02.2021
3001 Clouds 10 994 71 10000 7.72 240 01:24 03.02.2021
3002 Clouds 10 994 71 10000 8.23 230 00:24 03.02.2021
3003 Clouds 10 994 76 9000 5.66 230 23:43 02.02.2021
3004 Clouds 10 994 76 10000 5.66 230 23:25 02.02.2021
3005 Clouds 11 994 76 10000 6.17 230 22:43 02.02.2021
3006 Clouds 11 994 76 10000 6.17 230 22:43 02.02.2021
3007 Clouds 11 993 82 10000 5.14 210 22:19 02.02.2021
3008 Clouds 10 994 82 10000 5.66 220 21:46 02.02.2021
3009 Clouds 10 994 82 10000 5.66 210 21:24 02.02.2021
3010 Clouds 10 994 82 10000 5.66 210 20:49 02.02.2021
3011 Clouds 11 994 82 9000 5.66 210 20:21 02.02.2021
3012 Rain 11 994 82 8000 5.14 210 19:52 02.02.2021
3013 Clouds 11 994 82 8000 5.14 210 19:34 02.02.2021
3014 Clouds 11 994 82 8000 5.14 210 18:57 02.02.2021
3015 Clouds 11 994 82 8000 5.14 210 18:38 02.02.2021
3016 Clouds 11 995 82 8000 4.63 210 18:20 02.02.2021
3017 Clouds 12 995 76 9000 5.14 210 17:38 02.02.2021
3018 Clouds 12 994 76 9000 5.66 210 17:19 02.02.2021
3019 Clouds 12 994 71 9000 5.66 230 16:48 02.02.2021
3020 Clouds 12 995 71 10000 5.66 230 16:27 02.02.2021
3021 Clouds 13 995 71 10000 5.66 230 15:56 02.02.2021
3022 Clouds 13 995 71 10000 5.66 230 15:30 02.02.2021
3023 Clouds 13 995 76 10000 5.66 230 14:53 02.02.2021
3024 Clouds 13 995 76 10000 4.63 230 14:34 02.02.2021
3025 Clouds 13 995 82 10000 5.14 230 13:59 02.02.2021
3026 Clouds 12 995 82 10000 5.14 230 13:41 02.02.2021
3027 Clouds 12 994 86 10000 1.34 237 13:22 02.02.2021
3028 Clouds 12 995 82 10000 4.63 240 12:51 02.02.2021
3029 Clouds 11 995 87 10000 4.63 250 11:56 02.02.2021
3030 Clouds 11 995 87 10000 4.63 250 11:38 02.02.2021
3031 Clouds 11 995 87 10000 5.66 250 11:18 02.02.2021
3032 Drizzle 10 995 93 4800 7.2 250 10:43 02.02.2021
3033 Clouds 10 994 87 10000 5.66 250 10:25 02.02.2021
3034 Clouds 10 994 93 10000 3.6 250 09:41 02.02.2021
3035 Clouds 9 993 93 9000 3.09 250 09:20 02.02.2021
3036 Clouds 9 993 100 10000 2.57 250 08:38 02.02.2021
3037 Mist 8 993 100 3200 2.06 110 07:46 02.02.2021
3038 Clouds 7 994 100 2600 2.57 90 06:49 02.02.2021
3039 Clouds 7 994 93 2900 2.57 90 06:31 02.02.2021
3040 Mist 6 994 93 4800 4.12 110 05:51 02.02.2021
3041 Snow 5 997 100 1500 3.09 100 03:35 02.02.2021
3042 Rain 4 998 93 3500 4.63 100 02:24 02.02.2021
3043 Drizzle 4 1001 87 3600 3.09 130 00:38 02.02.2021
3044 Clouds 4 1001 87 9000 3.6 120 23:56 01.02.2021
3045 Clouds 4 1002 81 10000 3.09 110 22:57 01.02.2021
3046 Clouds 4 1002 81 10000 3.09 110 22:57 01.02.2021
3047 Clouds 4 1002 81 10000 3.09 110 22:39 01.02.2021
3048 Clouds 4 1002 81 10000 2.06 130 22:19 01.02.2021
3049 Clouds 4 1002 81 10000 3.09 120 21:45 01.02.2021
3050 Clouds 4 1002 81 10000 2.06 120 21:22 01.02.2021
3051 Clouds 4 1002 81 10000 1.54 0 20:42 01.02.2021
3052 Clouds 4 1002 81 10000 2.06 80 20:24 01.02.2021
3053 Clouds 4 1002 81 10000 1.03 0 19:47 01.02.2021
3054 Clouds 4 1002 81 10000 1.03 0 19:21 01.02.2021
3055 Clouds 4 1002 81 10000 1.03 0 19:21 01.02.2021
3056 Clouds 4 1002 81 10000 1.54 0 18:56 01.02.2021
3057 Clouds 4 1002 81 10000 1.54 0 18:37 01.02.2021
3058 Clouds 4 1001 81 10000 2.06 350 18:19 01.02.2021
3059 Clouds 4 1001 81 10000 1.03 0 17:41 01.02.2021
3060 Clouds 4 1001 81 10000 2.06 350 17:19 01.02.2021
3061 Clouds 4 1001 81 10000 2.06 330 16:40 01.02.2021
3062 Clouds 4 1000 87 10000 2.57 350 16:21 01.02.2021
3063 Clouds 4 1000 87 10000 2.06 350 15:40 01.02.2021
3064 Clouds 4 999 87 10000 2.57 10 15:19 01.02.2021
3065 Clouds 4 999 87 10000 2.57 10 15:19 01.02.2021
3066 Clouds 4 999 87 10000 2.57 360 14:48 01.02.2021
3067 Clouds 4 998 89 10000 0.89 11 14:23 01.02.2021
3068 Clouds 4 998 87 7000 3.6 300 13:42 01.02.2021
3069 Clouds 4 998 87 7000 2.06 340 13:24 01.02.2021
3070 Clouds 4 998 87 7000 2.06 340 12:44 01.02.2021
3071 Clouds 4 997 87 7000 2.06 330 12:24 01.02.2021
3072 Clouds 3 997 87 10000 2.06 10 11:43 01.02.2021
3073 Clouds 3 996 87 10000 3.6 340 11:20 01.02.2021
3074 Clouds 3 996 94 10000 1.34 333 10:47 01.02.2021
3075 Haze 3 996 93 5000 2.57 330 10:21 01.02.2021
3076 Haze 3 995 93 4900 3.09 340 09:49 01.02.2021
3077 Clouds 3 994 94 10000 1.34 330 09:25 01.02.2021
3078 Clouds 3 994 94 10000 0.89 23 08:56 01.02.2021
3079 Clouds 3 994 94 10000 0.89 23 08:56 01.02.2021
3080 Clouds 3 993 94 10000 0.89 338 08:22 01.02.2021
3081 Clouds 4 992 93 6000 3.09 360 06:58 01.02.2021
3082 Clouds 4 991 93 5000 2.06 40 04:32 01.02.2021
3083 Clouds 4 991 100 1800 2.06 360 02:38 01.02.2021
3084 Drizzle 3 991 93 1800 0.51 0 23:52 31.01.2021
3085 Drizzle 3 991 93 3800 2.57 70 22:56 31.01.2021
3086 Drizzle 3 991 93 3800 2.57 70 22:37 31.01.2021
3087 Clouds 3 991 93 7000 2.57 70 22:18 31.01.2021
3088 Clouds 3 991 87 8000 3.6 70 21:46 31.01.2021
3089 Clouds 3 991 93 9000 4.12 90 21:19 31.01.2021
3090 Clouds 3 991 93 9000 4.12 90 21:19 31.01.2021
3091 Clouds 3 991 93 8000 4.63 90 20:42 31.01.2021
3092 Rain 3 992 93 5000 3.6 100 20:20 31.01.2021
3093 Clouds 3 992 93 5000 4.63 100 19:39 31.01.2021
3094 Rain 3 993 93 6000 4.63 100 19:21 31.01.2021
3095 Rain 3 993 93 6000 4.63 100 19:21 31.01.2021
3096 Rain 3 993 93 5000 5.66 90 18:55 31.01.2021
3097 Rain 3 993 93 5000 5.66 90 18:37 31.01.2021
3098 Rain 3 993 93 3500 6.17 100 18:18 31.01.2021
3099 Rain 3 994 93 4200 5.66 100 17:39 31.01.2021
3100 Rain 3 994 93 4300 5.66 90 17:21 31.01.2021
3101 Drizzle 3 995 93 5000 6.17 90 16:42 31.01.2021
3102 Drizzle 3 995 87 5000 7.2 90 16:20 31.01.2021
3103 Clouds 3 996 87 10000 7.2 90 15:50 31.01.2021
3104 Clouds 3 997 75 10000 8.75 90 15:26 31.01.2021
3105 Clouds 4 997 75 10000 7.72 90 14:39 31.01.2021
3106 Clouds 4 999 75 10000 7.2 100 14:19 31.01.2021
3107 Clouds 4 999 75 10000 6.17 90 13:46 31.01.2021
3108 Clouds 4 999 75 10000 7.2 90 13:23 31.01.2021
3109 Clouds 4 1000 75 10000 7.2 90 12:47 31.01.2021
3110 Clouds 3 1001 75 10000 8.23 90 12:21 31.01.2021
3111 Clouds 3 1001 70 10000 7.2 90 11:41 31.01.2021
3112 Clouds 3 1001 70 10000 4.63 70 11:21 31.01.2021
3113 Clouds 2 1001 80 10000 4.12 70 10:48 31.01.2021
3114 Clouds 2 1002 75 10000 3.6 60 10:30 31.01.2021
3115 Clouds 1 1002 80 10000 3.6 60 09:49 31.01.2021
3116 Clouds 0 1002 80 10000 3.6 60 08:58 31.01.2021
3117 Clouds 1 1002 86 10000 0.89 20 08:32 31.01.2021
3118 Clouds 1 1003 75 10000 2.06 40 06:54 31.01.2021
3119 Clouds 1 1003 75 10000 2.06 60 05:31 31.01.2021
3120 Clouds 4 1003 75 10000 6.69 70 00:40 31.01.2021
3121 Clouds 4 1003 75 10000 7.2 70 00:21 31.01.2021
3122 Clouds 4 1002 81 10000 7.2 70 23:28 30.01.2021
3123 Clouds 4 1001 81 10000 8.23 70 22:56 30.01.2021
3124 Clouds 4 1001 81 10000 8.23 70 22:29 30.01.2021
3125 Clouds 4 1001 81 10000 8.23 70 21:40 30.01.2021
3126 Clouds 4 1001 81 10000 8.23 70 21:40 30.01.2021
3127 Clouds 4 1000 81 10000 7.72 70 21:20 30.01.2021
3128 Clouds 4 1000 81 10000 7.72 70 20:46 30.01.2021
3129 Clouds 4 1000 87 10000 8.23 70 20:27 30.01.2021
3130 Clouds 3 999 87 6000 7.72 70 19:44 30.01.2021
3131 Clouds 3 999 93 8000 7.72 70 19:25 30.01.2021
3132 Clouds 3 998 93 7000 8.23 70 18:42 30.01.2021
3133 Clouds 3 998 87 7000 7.72 70 18:21 30.01.2021
3134 Clouds 3 998 87 6000 8.75 70 17:58 30.01.2021
3135 Clouds 4 997 87 5000 7.72 60 17:19 30.01.2021
3136 Clouds 4 997 93 5000 8.75 70 16:47 30.01.2021
3137 Clouds 4 997 93 10000 8.75 60 16:25 30.01.2021
3138 Clouds 4 996 93 9000 7.72 70 15:57 30.01.2021
3139 Clouds 4 996 93 9000 7.72 70 15:57 30.01.2021
3140 Clouds 4 996 93 9000 7.72 70 15:38 30.01.2021
3141 Clouds 5 996 87 9000 6.69 70 15:20 30.01.2021
3142 Rain 5 996 87 6000 9.26 60 14:47 30.01.2021
3143 Rain 5 996 87 6000 7.72 70 14:21 30.01.2021
3144 Rain 5 996 93 6000 7.72 80 13:32 30.01.2021
3145 Drizzle 5 996 93 4300 8.23 80 12:49 30.01.2021
3146 Rain 5 996 87 6000 8.23 80 12:29 30.01.2021
3147 Rain 4 996 93 10000 7.2 70 11:57 30.01.2021
3148 Rain 4 996 93 10000 8.23 80 11:31 30.01.2021
3149 Rain 5 996 87 10000 10.29 80 10:48 30.01.2021
3150 Snow 5 997 93 8000 9.77 80 09:52 30.01.2021
3151 Rain 5 997 87 7000 9.77 80 09:30 30.01.2021
3152 Rain 6 996 93 8000 8.23 80 08:47 30.01.2021
3153 Rain 6 997 100 5000 6.69 90 07:49 30.01.2021
3154 Rain 6 997 93 7000 5.66 80 06:53 30.01.2021
3155 Rain 6 998 93 9000 5.66 70 05:59 30.01.2021
3156 Clouds 8 1000 81 10000 1.54 160 03:35 30.01.2021
3157 Clouds 8 1001 81 10000 1.54 0 02:25 30.01.2021
3158 Clouds 8 1001 87 10000 2.57 220 01:30 30.01.2021
3159 Clouds 8 1001 87 10000 2.57 240 00:44 30.01.2021
3160 Clouds 8 1002 87 10000 2.57 230 00:21 30.01.2021
3161 Clouds 8 1002 87 10000 1.54 230 23:46 29.01.2021
3162 Clouds 8 1002 87 10000 3.09 240 23:24 29.01.2021
3163 Clouds 8 1002 81 10000 3.09 240 22:45 29.01.2021
3164 Clouds 8 1002 81 10000 5.14 250 22:20 29.01.2021
3165 Clouds 9 1002 87 10000 6.17 250 21:43 29.01.2021
3166 Clouds 9 1002 87 10000 5.14 240 21:25 29.01.2021
3167 Clouds 9 1002 87 10000 4.63 250 20:42 29.01.2021
3168 Clouds 9 1002 81 10000 5.14 250 20:21 29.01.2021
3169 Clouds 10 1002 81 10000 7.2 250 19:39 29.01.2021
3170 Clouds 10 1001 76 10000 5.14 270 19:20 29.01.2021
3171 Clouds 10 1001 76 10000 4.63 260 18:45 29.01.2021
3172 Clouds 10 1000 76 10000 5.14 260 17:46 29.01.2021
3173 Clouds 10 1000 71 10000 5.14 270 17:22 29.01.2021
3174 Clouds 10 1000 71 10000 6.17 270 16:47 29.01.2021
3175 Clouds 11 1000 71 10000 7.2 280 16:24 29.01.2021
3176 Clouds 11 999 71 10000 5.66 280 15:54 29.01.2021
3177 Clouds 11 999 71 10000 5.66 280 15:36 29.01.2021
3178 Clouds 10 999 81 10000 6.69 290 14:58 29.01.2021
3179 Clouds 10 998 81 10000 6.69 280 14:21 29.01.2021
3180 Clouds 10 998 81 10000 6.17 280 13:46 29.01.2021
3181 Clouds 9 997 81 10000 3.6 290 13:27 29.01.2021
3182 Clouds 8 996 93 6000 2.57 290 12:30 29.01.2021
3183 Rain 8 996 93 5000 3.6 250 11:59 29.01.2021
3184 Rain 8 996 93 5000 3.6 250 11:41 29.01.2021
3185 Rain 9 995 81 10000 5.14 250 11:18 29.01.2021
3186 Rain 9 995 76 10000 5.66 250 10:42 29.01.2021
3187 Rain 9 996 81 10000 5.66 240 10:22 29.01.2021
3188 Clouds 9 996 81 10000 5.66 240 09:39 29.01.2021
3189 Clouds 9 996 81 10000 5.66 240 08:50 29.01.2021
3190 Clouds 9 996 81 10000 5.66 240 08:26 29.01.2021
3191 Clouds 9 996 87 10000 5.66 240 07:48 29.01.2021
3192 Clouds 9 996 87 10000 6.17 240 07:26 29.01.2021
3193 Clouds 9 996 87 10000 6.17 240 06:48 29.01.2021
3194 Clouds 9 996 81 10000 8.75 260 04:53 29.01.2021
3195 Rain 10 995 87 6000 6.69 250 01:50 29.01.2021
3196 Rain 11 996 87 6000 3.09 220 00:37 29.01.2021
3197 Rain 11 996 87 7000 3.09 220 00:19 29.01.2021
3198 Rain 11 997 93 8000 3.6 210 23:39 28.01.2021
3199 Rain 11 997 93 8000 3.6 210 23:39 28.01.2021
3200 Rain 11 997 93 4900 2.57 200 23:20 28.01.2021
3201 Rain 11 998 87 10000 3.09 210 22:41 28.01.2021
3202 Clouds 11 999 87 10000 3.6 230 22:22 28.01.2021
3203 Clouds 11 1000 87 10000 3.6 230 21:45 28.01.2021
3204 Clouds 10 1000 87 10000 3.6 230 21:27 28.01.2021
3205 Clouds 10 1001 93 10000 3.6 200 20:46 28.01.2021
3206 Clouds 11 1001 93 10000 2.06 200 20:20 28.01.2021
3207 Clouds 11 1001 93 10000 2.57 230 19:57 28.01.2021
3208 Clouds 11 1001 93 10000 2.57 230 19:36 28.01.2021
3209 Clouds 11 1002 93 3300 3.6 250 19:18 28.01.2021
3210 Clouds 11 1002 82 10000 5.66 240 18:41 28.01.2021
3211 Clouds 12 1002 76 10000 4.63 250 18:19 28.01.2021
3212 Clouds 12 1002 71 10000 6.17 260 17:44 28.01.2021
3213 Clouds 12 1002 71 10000 5.66 260 17:24 28.01.2021
3214 Clouds 13 1002 71 10000 6.17 260 16:44 28.01.2021
3215 Clouds 13 1002 71 10000 5.14 260 16:21 28.01.2021
3216 Clouds 13 1002 76 10000 7.72 260 15:39 28.01.2021
3217 Clouds 13 1003 76 10000 7.72 260 14:58 28.01.2021
3218 Clouds 12 1003 76 10000 7.72 260 14:39 28.01.2021
3219 Clouds 13 1002 71 10000 8.75 260 14:20 28.01.2021
3220 Clouds 12 1002 76 10000 9.26 250 13:44 28.01.2021
3221 Clouds 12 1002 76 10000 8.75 260 12:53 28.01.2021
3222 Clouds 12 1002 76 10000 8.75 260 12:34 28.01.2021
3223 Clouds 12 1001 82 10000 7.72 250 11:59 28.01.2021
3224 Clouds 12 1001 82 10000 7.72 250 11:40 28.01.2021
3225 Clouds 11 1001 87 10000 7.2 250 11:19 28.01.2021
3226 Clouds 11 1001 87 10000 7.2 250 10:52 28.01.2021
3227 Clouds 11 1001 87 10000 7.2 250 10:33 28.01.2021
3228 Clouds 11 1000 93 10000 6.17 250 09:48 28.01.2021
3229 Clouds 11 1000 93 10000 7.72 250 09:23 28.01.2021
3230 Clouds 11 999 93 10000 6.17 250 08:54 28.01.2021
3231 Clouds 11 1000 93 10000 5.14 250 08:19 28.01.2021
3232 Clouds 10 1000 93 10000 4.63 240 07:44 28.01.2021
3233 Clouds 10 1000 93 7000 2.06 220 06:50 28.01.2021
3234 Clouds 10 1001 93 8000 2.06 240 06:25 28.01.2021
3235 Rain 9 1003 93 2000 0.51 0 04:27 28.01.2021
3236 Rain 9 1007 93 4400 2.06 110 01:39 28.01.2021
3237 Rain 9 1008 94 6187 0.45 130 23:48 27.01.2021
3238 Rain 9 1008 94 7203 0.45 122 23:24 27.01.2021
3239 Rain 9 1010 100 1000 1.03 100 22:42 27.01.2021
3240 Rain 9 1009 94 8890 0.83 142 22:22 27.01.2021
3241 Rain 9 1011 100 200 2.06 90 21:43 27.01.2021
3242 Rain 9 1011 93 1200 1.54 90 21:24 27.01.2021
3243 Rain 9 1011 93 1700 1.03 70 20:55 27.01.2021
3244 Rain 9 1011 93 3500 0.51 0 20:30 27.01.2021
3245 Clouds 9 1011 93 8000 1.54 220 19:56 27.01.2021
3246 Clouds 9 1011 93 8000 1.54 220 19:36 27.01.2021
3247 Clouds 9 1011 93 10000 1.03 0 19:18 27.01.2021
3248 Clouds 9 1011 93 10000 1.54 270 18:40 27.01.2021
3249 Clouds 9 1012 93 10000 2.06 280 18:21 27.01.2021
3250 Clouds 9 1012 87 10000 2.57 260 17:39 27.01.2021
3251 Clouds 9 1012 93 10000 2.57 260 17:18 27.01.2021
3252 Clouds 10 1012 87 10000 2.57 260 16:44 27.01.2021
3253 Clouds 10 1012 87 10000 3.09 250 16:26 27.01.2021
3254 Clouds 10 1012 87 10000 2.57 240 15:49 27.01.2021
3255 Clouds 9 1012 93 10000 3.09 270 15:30 27.01.2021
3256 Clouds 9 1012 87 10000 3.6 250 14:40 27.01.2021
3257 Clouds 9 1012 87 8000 3.09 230 14:20 27.01.2021
3258 Clouds 9 1012 93 7000 2.57 230 13:41 27.01.2021
3259 Clouds 9 1012 93 8000 2.57 240 12:46 27.01.2021
3260 Clouds 9 1013 87 7000 2.57 230 12:26 27.01.2021
3261 Clouds 9 1013 87 7000 2.57 230 11:53 27.01.2021
3262 Clouds 8 1012 93 8000 3.6 240 11:26 27.01.2021
3263 Clouds 8 1012 93 8000 3.09 240 11:00 27.01.2021
3264 Clouds 8 1012 93 8000 3.09 240 10:36 27.01.2021
3265 Clouds 8 1012 93 7000 2.57 240 10:18 27.01.2021
3266 Clouds 8 1011 93 7000 2.06 230 09:34 27.01.2021
3267 Clouds 7 1011 93 6000 3.09 250 08:48 27.01.2021
3268 Clouds 7 1010 93 6000 2.06 230 07:59 27.01.2021
3269 Clouds 7 1010 93 6000 2.06 230 07:40 27.01.2021
3270 Rain 8 1011 93 6000 2.57 260 06:49 27.01.2021
3271 Rain 8 1010 93 7000 3.09 260 06:18 27.01.2021
3272 Clouds 8 1010 93 8000 3.6 250 05:35 27.01.2021
3273 Clouds 7 1010 100 2300 3.09 230 02:47 27.01.2021
3274 Clouds 7 1010 93 2400 2.06 230 02:23 27.01.2021
3275 Clouds 7 1010 93 2200 3.09 230 01:47 27.01.2021
3276 Clouds 7 1011 93 2500 2.57 220 00:33 27.01.2021
3277 Clouds 7 1011 87 10000 3.09 220 23:48 26.01.2021
3278 Clouds 7 1011 87 10000 3.09 220 23:48 26.01.2021
3279 Clouds 6 1011 87 9000 4.12 220 23:28 26.01.2021
3280 Clouds 6 1012 93 10000 3.6 220 22:48 26.01.2021
3281 Clouds 6 1011 87 10000 5.14 210 22:23 26.01.2021
3282 Clouds 6 1012 87 9000 4.63 210 21:53 26.01.2021
3283 Clouds 6 1012 87 9000 4.63 210 21:53 26.01.2021
3284 Clouds 6 1012 87 9000 4.63 210 21:32 26.01.2021
3285 Clouds 6 1013 87 10000 4.12 200 20:58 26.01.2021
3286 Clouds 6 1013 87 10000 4.12 200 20:39 26.01.2021
3287 Clouds 6 1013 87 7000 2.57 170 20:21 26.01.2021
3288 Rain 5 1014 87 3700 3.09 200 19:45 26.01.2021
3289 Rain 5 1014 93 4100 2.57 190 19:20 26.01.2021
3290 Rain 5 1014 93 5000 4.12 170 18:47 26.01.2021
3291 Rain 5 1014 81 10000 3.6 170 18:27 26.01.2021
3292 Rain 5 1014 81 10000 3.6 170 18:27 26.01.2021
3293 Rain 5 1015 81 6000 3.09 190 17:55 26.01.2021
3294 Clouds 6 1015 81 6000 3.09 190 17:37 26.01.2021
3295 Rain 6 1015 81 10000 4.63 200 16:56 26.01.2021
3296 Clouds 6 1015 81 10000 4.63 200 16:37 26.01.2021
3297 Clouds 6 1015 81 10000 3.09 190 16:19 26.01.2021
3298 Clouds 6 1016 75 10000 4.12 200 15:44 26.01.2021
3299 Clouds 6 1017 75 10000 4.63 210 15:24 26.01.2021
3300 Clouds 6 1017 81 10000 3.09 210 14:46 26.01.2021
3301 Clouds 5 1017 81 10000 3.09 210 14:28 26.01.2021
3302 Clouds 5 1017 81 10000 5.14 210 13:37 26.01.2021
3303 Clouds 5 1017 75 10000 4.63 220 13:18 26.01.2021
3304 Clouds 4 1017 75 10000 3.6 220 12:42 26.01.2021
3305 Clouds 4 1018 70 10000 1.54 0 12:22 26.01.2021
3306 Rain 4 1018 75 10000 1.54 220 11:51 26.01.2021
3307 Clouds 4 1018 75 10000 2.06 220 11:30 26.01.2021
3308 Clouds 3 1018 75 10000 1.54 230 10:44 26.01.2021
3309 Clouds 2 1018 75 10000 2.06 220 10:25 26.01.2021
3310 Clouds 1 1018 80 10000 2.57 220 09:40 26.01.2021
3311 Clouds 1 1018 80 10000 2.57 230 09:22 26.01.2021
3312 Clouds 1 1018 80 10000 3.09 230 08:50 26.01.2021
3313 Clouds 0 1018 80 10000 3.09 230 08:20 26.01.2021
3314 Clouds 0 1018 86 10000 3.09 230 07:27 26.01.2021
3315 Clouds 0 1018 86 10000 3.6 230 05:58 26.01.2021
3316 Clouds 0 1018 86 10000 3.6 230 05:39 26.01.2021
3317 Clouds 0 1018 80 10000 3.6 230 03:51 26.01.2021
3318 Clear 0 1017 80 10000 4.63 240 01:46 26.01.2021
3319 Clouds 0 1017 80 10000 4.12 240 00:49 26.01.2021
3320 Clouds 1 1016 75 10000 4.63 240 23:36 25.01.2021
3321 Clouds 1 1016 80 10000 4.12 250 22:56 25.01.2021
3322 Clouds 1 1016 80 10000 4.12 250 22:35 25.01.2021
3323 Clouds 2 1015 75 10000 4.63 240 21:49 25.01.2021
3324 Clouds 2 1015 75 10000 5.14 240 21:26 25.01.2021
3325 Clouds 2 1015 75 10000 4.12 240 20:51 25.01.2021
3326 Clouds 2 1015 75 10000 4.12 240 20:33 25.01.2021
3327 Clouds 2 1014 80 10000 0.89 284 19:51 25.01.2021
3328 Clouds 2 1014 75 10000 4.12 250 19:31 25.01.2021
3329 Clouds 3 1013 70 10000 4.63 260 18:49 25.01.2021
3330 Clear 3 1013 70 10000 4.63 270 18:28 25.01.2021
3331 Clear 3 1012 76 10000 0.89 246 17:58 25.01.2021
3332 Clear 4 1013 65 10000 5.66 280 17:40 25.01.2021
3333 Clear 4 1012 65 10000 7.2 280 17:22 25.01.2021
3334 Clear 5 1012 65 10000 6.17 270 16:41 25.01.2021
3335 Clear 5 1011 65 10000 6.69 280 16:22 25.01.2021
3336 Clouds 5 1011 70 10000 5.14 280 15:49 25.01.2021
3337 Clouds 5 1011 70 10000 5.66 270 15:29 25.01.2021
3338 Clouds 5 1010 70 10000 4.63 280 14:46 25.01.2021
3339 Clear 4 1010 70 10000 4.12 260 14:19 25.01.2021
3340 Clear 5 1010 70 10000 4.63 270 13:52 25.01.2021
3341 Clear 3 1010 75 10000 5.66 280 13:28 25.01.2021
3342 Clear 3 1010 70 10000 5.14 270 12:46 25.01.2021
3343 Clear 2 1010 75 10000 4.63 270 12:24 25.01.2021
3344 Clear 1 1009 75 10000 4.12 260 11:48 25.01.2021
3345 Clear 0 1009 80 10000 3.09 250 11:19 25.01.2021
3346 Clear -1 1009 75 10000 3.09 240 10:42 25.01.2021
3347 Clear -1 1008 80 10000 2.57 250 10:20 25.01.2021
3348 Clear -1 1008 74 10000 3.09 260 09:46 25.01.2021
3349 Clear -2 1008 69 10000 3.09 270 09:27 25.01.2021
3350 Clear -2 1007 80 10000 2.57 280 08:30 25.01.2021
3351 Clear -1 1006 86 10000 0.45 288 07:46 25.01.2021
3352 Clouds -1 1006 74 10000 3.6 300 07:26 25.01.2021
3353 Clouds -1 1005 80 10000 1.54 0 06:22 25.01.2021
3354 Clouds 1 1000 87 10000 3.09 350 01:34 25.01.2021
3355 Rain 2 998 87 10000 2.57 10 23:52 24.01.2021
3356 Rain 1 998 93 10000 2.57 360 23:20 24.01.2021
3357 Snow 1 997 93 10000 2.57 340 22:46 24.01.2021
3358 Rain 1 997 87 10000 2.57 330 22:27 24.01.2021
3359 Rain 1 997 87 10000 2.57 330 22:25 24.01.2021
3360 Snow 1 996 87 10000 3.6 300 21:51 24.01.2021
3361 Clouds 1 996 87 10000 4.12 300 21:27 24.01.2021
3362 Clouds 1 996 87 10000 4.12 290 20:46 24.01.2021
3363 Clouds 1 995 87 10000 3.6 290 20:23 24.01.2021
3364 Clouds 1 995 87 10000 3.6 300 19:57 24.01.2021
3365 Clouds 1 995 87 10000 3.6 300 19:36 24.01.2021
3366 Clouds 1 995 87 10000 2.57 290 19:18 24.01.2021
3367 Clouds 1 995 87 10000 4.12 290 18:41 24.01.2021
3368 Clouds 1 995 87 10000 3.6 290 18:21 24.01.2021
3369 Clouds 1 995 87 10000 4.63 290 17:57 24.01.2021
3370 Clouds 1 995 87 10000 4.63 290 17:38 24.01.2021
3371 Clouds 1 994 93 10000 3.6 250 17:18 24.01.2021
3372 Clouds 2 994 93 10000 2.57 240 16:41 24.01.2021
3373 Rain 2 994 93 4900 2.06 260 16:20 24.01.2021
3374 Rain 2 994 93 10000 1.54 280 15:45 24.01.2021
3375 Clouds 2 994 93 10000 1.54 0 15:20 24.01.2021
3376 Rain 2 994 93 10000 3.09 100 14:56 24.01.2021
3377 Rain 2 994 93 10000 3.09 100 14:32 24.01.2021
3378 Snow 1 995 93 5000 3.09 80 13:36 24.01.2021
3379 Snow 1 996 86 2900 2.06 100 12:55 24.01.2021
3380 Snow 1 996 86 2900 2.06 100 12:36 24.01.2021
3381 Snow 1 996 89 2925 0.89 138 12:18 24.01.2021
3382 Snow 1 997 86 10000 5.66 100 11:45 24.01.2021
3383 Snow 1 997 80 10000 6.17 100 11:22 24.01.2021
3384 Rain 1 997 93 10000 4.12 100 10:36 24.01.2021
3385 Rain 1 997 93 10000 4.12 100 10:36 24.01.2021
3386 Clouds 0 998 86 10000 4.12 90 09:53 24.01.2021
3387 Clouds 0 998 86 10000 3.09 100 09:22 24.01.2021
3388 Clouds 0 999 86 10000 3.09 90 08:52 24.01.2021
3389 Clouds -2 999 86 10000 1.03 0 06:49 24.01.2021
3390 Clear -1 999 86 10000 3.6 230 02:34 24.01.2021
3391 Clouds 0 999 86 10000 3.09 240 00:59 24.01.2021
3392 Clear 0 999 86 10000 3.09 230 00:24 24.01.2021
3393 Clear 0 998 86 10000 2.57 230 23:47 23.01.2021
3394 Clear 0 998 88 10000 3.18 288 23:25 23.01.2021
3395 Clear 0 997 87 10000 3.18 288 22:42 23.01.2021
3396 Clear 0 997 86 10000 0.45 288 22:24 23.01.2021
3397 Clear 1 998 75 10000 3.09 280 21:50 23.01.2021
3398 Clear 1 997 80 10000 4.12 290 21:21 23.01.2021
3399 Clear 1 997 85 10000 1.79 319 20:47 23.01.2021
3400 Clear 2 996 84 10000 1.79 300 20:22 23.01.2021
3401 Clouds 2 997 75 10000 5.66 290 19:46 23.01.2021
3402 Clouds 2 997 81 10000 4.12 280 19:22 23.01.2021
3403 Clouds 3 996 75 10000 5.14 280 18:49 23.01.2021
3404 Clouds 3 996 75 10000 5.66 280 18:26 23.01.2021
3405 Clouds 3 996 70 10000 4.63 280 17:48 23.01.2021
3406 Clouds 3 996 70 10000 4.63 290 17:27 23.01.2021
3407 Clouds 3 996 70 10000 4.63 300 16:50 23.01.2021
3408 Clouds 4 995 75 10000 5.14 290 16:30 23.01.2021
3409 Clouds 4 995 75 10000 3.6 270 15:42 23.01.2021
3410 Clouds 4 995 81 10000 4.12 270 15:24 23.01.2021
3411 Clouds 4 995 81 10000 2.57 280 14:34 23.01.2021
3412 Clouds 3 995 81 10000 2.57 280 13:55 23.01.2021
3413 Clouds 3 995 81 10000 2.57 280 13:36 23.01.2021
3414 Clouds 2 995 93 9000 2.06 250 12:57 23.01.2021
3415 Clouds 2 995 93 9000 2.06 250 12:37 23.01.2021
3416 Clouds 1 995 87 10000 2.57 250 12:18 23.01.2021
3417 Clouds 2 995 87 10000 2.06 210 11:33 23.01.2021
3418 Clouds 1 994 93 10000 1.54 130 10:52 23.01.2021
3419 Clouds 0 994 93 10000 1.83 265 10:22 23.01.2021
3420 Clouds 0 994 93 10000 1.03 0 09:49 23.01.2021
3421 Clouds 0 994 87 10000 1.54 50 08:57 23.01.2021
3422 Clouds 1 994 87 10000 1.54 50 08:37 23.01.2021
3423 Clouds 1 994 87 10000 2.57 240 07:37 23.01.2021
3424 Clouds 2 994 81 10000 3.09 240 05:32 23.01.2021
3425 Rain 4 994 87 10000 4.12 250 00:54 23.01.2021
3426 Clouds 4 993 81 10000 3.09 240 23:53 22.01.2021
3427 Clouds 4 993 81 10000 3.09 240 23:34 22.01.2021
3428 Clouds 4 993 81 10000 3.6 240 22:40 22.01.2021
3429 Clouds 5 993 87 10000 3.09 220 21:51 22.01.2021
3430 Clouds 5 993 87 10000 3.09 220 21:32 22.01.2021
3431 Clouds 5 994 81 10000 1.54 0 20:59 22.01.2021
3432 Clouds 4 994 81 10000 1.54 0 20:39 22.01.2021
3433 Rain 5 994 75 10000 3.6 210 19:59 22.01.2021
3434 Clouds 5 994 70 10000 2.57 180 19:26 22.01.2021
3435 Clouds 6 994 65 10000 2.57 200 18:59 22.01.2021
3436 Clouds 6 994 65 10000 2.57 200 18:41 22.01.2021
3437 Clouds 6 994 65 10000 2.06 200 18:22 22.01.2021
3438 Clouds 6 994 65 10000 1.54 220 17:43 22.01.2021
3439 Clouds 7 994 61 10000 3.09 230 17:24 22.01.2021
3440 Clouds 7 994 61 10000 4.12 240 16:44 22.01.2021
3441 Clear 7 994 57 10000 4.12 240 16:23 22.01.2021
3442 Clear 8 994 57 10000 5.14 260 15:30 22.01.2021
3443 Clear 8 994 61 10000 3.6 250 14:58 22.01.2021
3444 Clear 8 994 65 10000 3.6 250 14:30 22.01.2021
3445 Clear 7 994 65 10000 3.6 260 13:50 22.01.2021
3446 Clear 7 994 70 10000 3.6 240 13:31 22.01.2021
3447 Clouds 6 994 75 10000 4.12 240 12:48 22.01.2021
3448 Clear 6 994 75 10000 4.12 240 12:23 22.01.2021
3449 Clear 4 994 81 10000 3.6 240 11:46 22.01.2021
3450 Clear 3 993 87 10000 4.12 240 11:22 22.01.2021
3451 Clear 2 993 93 10000 3.09 230 10:45 22.01.2021
3452 Clear 1 992 87 10000 3.09 230 09:59 22.01.2021
3453 Clear 1 992 87 10000 2.57 230 09:31 22.01.2021
3454 Clear 1 991 87 10000 3.09 240 08:51 22.01.2021
3455 Clear 1 991 87 10000 3.6 240 08:30 22.01.2021
3456 Clear 2 991 87 10000 3.6 230 07:38 22.01.2021
3457 Clear 3 989 81 10000 4.63 240 03:40 22.01.2021
3458 Clouds 4 987 75 10000 5.66 260 00:54 22.01.2021
3459 Clouds 5 986 75 10000 4.63 270 23:56 21.01.2021
3460 Clouds 5 986 75 10000 4.63 270 23:38 21.01.2021
3461 Clouds 6 985 75 10000 4.63 270 22:57 21.01.2021
3462 Clouds 6 985 75 10000 4.63 270 22:38 21.01.2021
3463 Clouds 6 985 81 10000 4.12 250 21:44 21.01.2021
3464 Clouds 6 984 76 10000 3.09 250 21:22 21.01.2021
3465 Clouds 6 984 76 10000 2.57 240 20:57 21.01.2021
3466 Clouds 6 984 76 10000 2.57 240 20:39 21.01.2021
3467 Clouds 7 984 76 10000 2.06 250 20:18 21.01.2021
3468 Clouds 7 984 76 10000 2.06 230 19:46 21.01.2021
3469 Clouds 7 984 71 10000 2.57 220 19:24 21.01.2021
3470 Clouds 7 985 71 10000 3.09 200 18:42 21.01.2021
3471 Clouds 7 985 66 10000 2.57 220 18:21 21.01.2021
3472 Clouds 7 985 66 10000 3.6 230 17:57 21.01.2021
3473 Clouds 8 985 66 10000 3.6 220 17:21 21.01.2021
3474 Clouds 8 985 61 10000 3.6 230 16:56 21.01.2021
3475 Clouds 8 985 61 10000 3.6 230 16:38 21.01.2021
3476 Clouds 8 986 61 10000 4.63 230 16:19 21.01.2021
3477 Clouds 8 986 57 10000 6.69 230 15:46 21.01.2021
3478 Clouds 8 986 61 10000 7.2 230 15:24 21.01.2021
3479 Clouds 8 986 61 10000 7.72 240 14:44 21.01.2021
3480 Clouds 9 986 61 10000 7.2 250 14:23 21.01.2021
3481 Clouds 9 987 61 10000 7.2 240 13:43 21.01.2021
3482 Clouds 8 987 61 10000 9.26 240 13:23 21.01.2021
3483 Clear 8 987 61 10000 7.72 240 12:43 21.01.2021
3484 Clear 8 987 61 10000 9.26 240 12:24 21.01.2021
3485 Clear 8 987 61 10000 7.72 230 11:51 21.01.2021
3486 Clear 7 987 61 10000 8.75 240 11:30 21.01.2021
3487 Clouds 7 987 65 10000 8.23 230 10:52 21.01.2021
3488 Clouds 7 987 65 10000 8.23 230 10:33 21.01.2021
3489 Clear 6 987 70 10000 6.17 230 09:48 21.01.2021
3490 Clear 5 986 70 10000 7.72 230 09:30 21.01.2021
3491 Clouds 5 986 70 10000 7.2 230 08:55 21.01.2021
3492 Clear 5 986 70 10000 7.2 230 08:27 21.01.2021
3493 Clear 5 986 75 10000 7.72 230 07:45 21.01.2021
3494 Clouds 5 986 75 10000 6.69 230 07:23 21.01.2021
3495 Clouds 4 985 75 10000 7.2 240 05:59 21.01.2021
3496 Clouds 5 983 75 10000 8.23 250 04:29 21.01.2021
3497 Clouds 7 976 81 10000 9.77 250 01:33 21.01.2021
3498 Rain 9 974 87 9000 7.2 180 00:40 21.01.2021
3499 Rain 9 976 87 7000 8.23 170 23:43 20.01.2021
3500 Rain 9 977 87 6000 7.72 170 23:22 20.01.2021
3501 Rain 9 978 76 10000 8.75 170 22:49 20.01.2021
3502 Rain 9 979 76 10000 8.23 170 22:29 20.01.2021
3503 Clouds 9 980 81 10000 7.2 180 21:49 20.01.2021
3504 Clouds 9 981 81 10000 6.69 180 21:23 20.01.2021
3505 Rain 9 982 76 10000 7.72 180 20:51 20.01.2021
3506 Rain 9 983 81 10000 7.2 180 20:23 20.01.2021
3507 Clouds 9 983 81 10000 6.69 200 19:48 20.01.2021
3508 Clouds 9 983 81 10000 6.69 200 19:48 20.01.2021
3509 Rain 9 984 87 10000 6.17 180 19:28 20.01.2021
3510 Rain 9 984 81 10000 6.17 180 18:43 20.01.2021
3511 Rain 9 984 81 10000 6.17 180 18:43 20.01.2021
3512 Rain 9 985 81 10000 6.17 190 18:21 20.01.2021
3513 Rain 9 985 81 10000 6.69 190 17:50 20.01.2021
3514 Rain 9 985 81 10000 6.69 190 17:31 20.01.2021
3515 Rain 9 986 81 10000 7.2 200 16:51 20.01.2021
3516 Rain 9 986 81 10000 8.75 200 16:22 20.01.2021
3517 Rain 10 986 81 10000 7.2 200 15:41 20.01.2021
3518 Rain 10 987 87 10000 8.23 200 15:19 20.01.2021
3519 Rain 10 987 87 10000 7.2 200 14:41 20.01.2021
3520 Rain 10 988 87 7000 7.72 200 14:20 20.01.2021
3521 Rain 10 989 87 10000 7.2 200 13:38 20.01.2021
3522 Rain 10 990 82 10000 8.23 200 12:57 20.01.2021
3523 Rain 10 990 82 10000 8.23 210 12:27 20.01.2021
3524 Rain 10 990 87 10000 7.2 210 11:42 20.01.2021
3525 Rain 10 991 87 10000 7.2 210 11:22 20.01.2021
3526 Rain 10 991 87 10000 6.69 200 10:50 20.01.2021
3527 Rain 10 991 87 10000 6.69 200 10:27 20.01.2021
3528 Rain 10 991 87 10000 6.69 200 10:27 20.01.2021
3529 Rain 10 992 87 10000 7.2 200 09:41 20.01.2021
3530 Rain 10 992 87 10000 7.72 210 09:23 20.01.2021
3531 Rain 10 992 82 10000 7.72 210 08:47 20.01.2021
3532 Rain 10 992 82 10000 7.72 210 08:24 20.01.2021
3533 Clouds 10 992 87 10000 7.72 210 07:55 20.01.2021
3534 Clouds 10 992 87 10000 7.72 210 07:25 20.01.2021
3535 Rain 10 994 87 10000 6.69 210 05:24 20.01.2021
3536 Rain 10 995 82 10000 6.69 210 03:22 20.01.2021
3537 Rain 10 997 82 10000 7.2 210 00:59 20.01.2021
3538 Rain 10 997 82 10000 6.69 220 00:31 20.01.2021
3539 Rain 10 997 87 10000 7.2 220 23:42 19.01.2021
3540 Rain 10 998 87 10000 8.23 210 23:19 19.01.2021
3541 Rain 10 998 87 10000 7.2 210 22:42 19.01.2021
3542 Rain 10 999 87 10000 7.72 210 22:22 19.01.2021
3543 Rain 10 999 81 10000 7.2 220 21:59 19.01.2021
3544 Rain 10 999 81 10000 7.2 220 21:41 19.01.2021
3545 Rain 10 1000 81 10000 7.72 220 21:22 19.01.2021
3546 Rain 10 1000 81 10000 6.69 210 20:43 19.01.2021
3547 Rain 10 1000 76 10000 7.2 210 20:22 19.01.2021
3548 Rain 10 1001 76 10000 7.2 220 19:48 19.01.2021
3549 Clouds 10 1001 76 10000 7.2 220 19:27 19.01.2021
3550 Clouds 10 1002 87 10000 6.69 220 18:46 19.01.2021
3551 Clouds 10 1002 81 10000 6.69 210 18:26 19.01.2021
3552 Clouds 10 1002 76 10000 5.66 220 17:46 19.01.2021
3553 Clouds 10 1003 76 10000 6.69 210 17:26 19.01.2021
3554 Clouds 10 1003 81 10000 6.17 220 16:49 19.01.2021
3555 Clouds 10 1003 76 10000 7.2 230 16:26 19.01.2021
3556 Clouds 10 1004 76 10000 8.75 230 15:57 19.01.2021
3557 Clouds 11 1004 76 10000 8.75 230 15:37 19.01.2021
3558 Clouds 11 1005 76 10000 7.2 240 14:57 19.01.2021
3559 Clouds 11 1005 76 10000 7.2 240 14:38 19.01.2021
3560 Clouds 11 1005 71 10000 7.2 240 14:18 19.01.2021
3561 Clouds 11 1005 76 10000 9.77 240 13:40 19.01.2021
3562 Clouds 11 1005 76 10000 7.72 240 13:20 19.01.2021
3563 Clouds 11 1006 82 10000 7.2 230 12:47 19.01.2021
3564 Clouds 11 1006 82 10000 7.72 230 12:28 19.01.2021
3565 Clouds 11 1006 82 10000 7.72 240 11:43 19.01.2021
3566 Clouds 11 1006 82 10000 6.17 240 11:23 19.01.2021
3567 Clouds 11 1006 82 10000 7.2 250 10:50 19.01.2021
3568 Clouds 11 1006 82 10000 8.23 250 10:31 19.01.2021
3569 Clouds 11 1006 82 10000 7.2 250 09:52 19.01.2021
3570 Clouds 11 1005 82 10000 8.75 250 09:27 19.01.2021
3571 Clouds 11 1005 82 10000 8.23 250 08:52 19.01.2021
3572 Clouds 11 1005 82 10000 9.26 240 08:21 19.01.2021
3573 Clouds 11 1005 82 10000 8.23 240 07:38 19.01.2021
3574 Clouds 11 1005 87 10000 7.72 240 06:50 19.01.2021
3575 Rain 9 1010 87 10000 6.17 210 02:31 19.01.2021
3576 Clouds 9 1012 87 10000 5.66 210 00:49 19.01.2021
3577 Clouds 8 1013 93 10000 5.14 220 23:58 18.01.2021
3578 Clouds 8 1014 87 10000 6.17 210 23:31 18.01.2021
3579 Clouds 8 1015 87 10000 5.66 220 22:51 18.01.2021
3580 Clouds 8 1015 87 10000 6.69 220 22:25 18.01.2021
3581 Clouds 8 1016 87 10000 5.66 220 21:55 18.01.2021
3582 Clouds 8 1016 87 10000 5.66 220 21:37 18.01.2021
3583 Clouds 8 1016 81 10000 5.14 220 21:19 18.01.2021
3584 Clouds 8 1017 81 10000 4.12 220 20:42 18.01.2021
3585 Clouds 7 1017 87 10000 4.63 220 20:22 18.01.2021
3586 Clouds 7 1018 87 10000 4.63 210 19:48 18.01.2021
3587 Clouds 7 1018 81 10000 3.6 210 19:30 18.01.2021
3588 Clouds 7 1019 81 10000 3.09 210 18:47 18.01.2021
3589 Clouds 7 1019 81 10000 3.6 210 18:23 18.01.2021
3590 Clouds 7 1019 76 10000 3.6 210 17:44 18.01.2021
3591 Clouds 7 1020 76 10000 2.57 220 17:22 18.01.2021
3592 Clouds 7 1020 76 10000 2.57 210 16:46 18.01.2021
3593 Clouds 7 1020 76 10000 4.12 240 16:22 18.01.2021
3594 Clouds 7 1021 76 10000 5.14 250 15:48 18.01.2021
3595 Clouds 7 1021 76 10000 5.14 240 15:25 18.01.2021
3596 Clouds 7 1021 76 10000 4.63 240 14:44 18.01.2021
3597 Clouds 7 1022 76 10000 4.12 250 14:26 18.01.2021
3598 Clouds 7 1022 76 10000 5.14 250 13:47 18.01.2021
3599 Clouds 7 1023 81 10000 5.14 250 13:28 18.01.2021
3600 Clouds 7 1023 81 10000 5.14 250 12:55 18.01.2021
3601 Clouds 6 1023 81 10000 4.63 240 12:21 18.01.2021
3602 Clouds 6 1023 87 10000 3.09 250 11:57 18.01.2021
3603 Clouds 6 1023 87 10000 3.09 250 11:39 18.01.2021
3604 Clouds 5 1023 87 10000 4.12 230 11:20 18.01.2021
3605 Clouds 4 1023 87 10000 4.63 230 10:46 18.01.2021
3606 Clouds 4 1024 87 10000 4.12 240 09:50 18.01.2021
3607 Clouds 4 1024 87 10000 4.12 250 09:32 18.01.2021
3608 Clouds 3 1024 87 10000 3.6 250 08:55 18.01.2021
3609 Clouds 3 1024 87 10000 3.6 240 08:25 18.01.2021
3610 Clear 3 1024 87 10000 3.6 240 07:38 18.01.2021
3611 Clouds 3 1024 87 10000 3.6 250 05:49 18.01.2021
3612 Clouds 3 1025 87 10000 4.12 250 04:41 18.01.2021
3613 Clouds 3 1025 87 10000 4.63 240 04:20 18.01.2021
3614 Clouds 3 1025 87 10000 4.63 240 03:45 18.01.2021
3615 Clouds 3 1025 87 10000 3.6 240 03:23 18.01.2021
3616 Clouds 3 1026 87 10000 3.09 240 02:51 18.01.2021
3617 Clouds 3 1026 87 10000 3.6 230 02:18 18.01.2021
3618 Clouds 3 1026 87 10000 3.6 230 00:39 18.01.2021
3619 Clouds 4 1026 87 10000 4.12 240 23:51 17.01.2021
3620 Clouds 4 1026 81 10000 4.63 240 23:24 17.01.2021
3621 Clouds 4 1027 81 10000 3.09 240 22:50 17.01.2021
3622 Clouds 4 1027 81 10000 3.09 230 22:22 17.01.2021
3623 Clouds 5 1026 75 10000 4.12 240 21:43 17.01.2021
3624 Clouds 5 1026 75 10000 3.6 240 21:24 17.01.2021
3625 Clouds 5 1027 75 10000 3.09 230 20:51 17.01.2021
3626 Clouds 5 1027 75 10000 4.63 260 20:32 17.01.2021
3627 Clouds 5 1027 70 10000 4.12 280 19:53 17.01.2021
3628 Clouds 6 1027 70 10000 4.12 280 19:34 17.01.2021
3629 Clouds 6 1026 70 10000 5.14 270 18:54 17.01.2021
3630 Clouds 6 1026 70 10000 4.63 280 18:29 17.01.2021
3631 Clouds 6 1026 70 10000 4.63 280 17:51 17.01.2021
3632 Clouds 7 1026 70 10000 4.63 280 17:29 17.01.2021
3633 Clouds 7 1025 70 10000 4.63 290 16:45 17.01.2021
3634 Clouds 7 1025 65 10000 6.17 290 16:25 17.01.2021
3635 Clouds 7 1025 66 10000 6.17 290 15:54 17.01.2021
3636 Clouds 7 1025 70 10000 5.66 290 15:27 17.01.2021
3637 Clouds 8 1025 66 10000 6.17 300 14:59 17.01.2021
3638 Clouds 8 1025 66 10000 6.17 300 14:39 17.01.2021
3639 Clouds 8 1024 66 10000 5.66 290 14:21 17.01.2021
3640 Clouds 8 1025 70 10000 5.66 300 13:43 17.01.2021
3641 Clouds 7 1025 70 10000 5.66 300 13:24 17.01.2021
3642 Clouds 7 1025 70 10000 5.66 300 12:45 17.01.2021
3643 Clouds 7 1024 70 10000 5.14 300 12:25 17.01.2021
3644 Clouds 6 1024 75 10000 5.66 280 11:26 17.01.2021
3645 Clouds 5 1023 75 10000 5.14 280 10:57 17.01.2021
3646 Clouds 5 1023 75 10000 5.14 280 10:37 17.01.2021
3647 Clouds 5 1023 75 10000 5.66 280 10:18 17.01.2021
3648 Clouds 4 1022 81 10000 4.12 280 09:18 17.01.2021
3649 Clouds 4 1021 75 10000 4.63 290 08:41 17.01.2021
3650 Clouds 6 1019 70 10000 5.66 280 04:39 17.01.2021
3651 Clouds 6 1019 70 10000 5.66 280 04:20 17.01.2021
3652 Clouds 6 1018 76 10000 5.14 270 01:38 17.01.2021
3653 Clouds 7 1022 66 10000 3.71 292 00:37 17.01.2021
3654 Clouds 7 1022 66 10000 3.6 296 00:18 17.01.2021
3655 Clouds 7 1018 76 10000 4.63 280 23:46 16.01.2021
3656 Clouds 7 1018 76 10000 5.14 280 23:18 16.01.2021
3657 Clouds 7 1018 81 10000 4.63 280 22:27 16.01.2021
3658 Clouds 7 1018 81 10000 4.63 280 21:58 16.01.2021
3659 Clouds 7 1018 81 10000 5.14 280 21:24 16.01.2021
3660 Clouds 7 1017 81 10000 5.14 280 20:53 16.01.2021
3661 Clouds 7 1017 81 10000 4.12 280 20:29 16.01.2021
3662 Clouds 7 1017 81 10000 4.12 280 19:50 16.01.2021
3663 Clouds 7 1016 81 10000 3.6 280 19:31 16.01.2021
3664 Clouds 7 1016 93 10000 2.57 240 18:48 16.01.2021
3665 Clouds 7 1016 93 10000 1.54 220 18:28 16.01.2021
3666 Clouds 7 1022 66 10000 2.81 290 17:59 16.01.2021
3667 Clouds 7 1016 87 10000 2.06 270 17:40 16.01.2021
3668 Clouds 7 1016 87 10000 3.09 280 17:21 16.01.2021
3669 Clouds 7 1016 87 10000 2.57 270 16:44 16.01.2021
3670 Clouds 7 1015 93 10000 3.6 280 16:20 16.01.2021
3671 Clouds 7 1015 93 10000 3.09 260 15:43 16.01.2021
3672 Clouds 7 1015 93 10000 3.09 240 14:39 16.01.2021
3673 Drizzle 7 1016 93 3900 4.12 240 13:54 16.01.2021
3674 Drizzle 6 1016 93 3900 4.12 240 13:34 16.01.2021
3675 Rain 6 1017 87 4900 3.09 210 12:58 16.01.2021
3676 Drizzle 6 1017 87 4900 3.09 210 12:37 16.01.2021
3677 Clouds 5 1017 87 10000 3.6 210 12:19 16.01.2021
3678 Rain 5 1018 87 10000 3.09 190 11:45 16.01.2021
3679 Clouds 4 1018 93 10000 3.6 180 11:20 16.01.2021
3680 Rain 4 1019 93 6000 3.6 150 10:42 16.01.2021
3681 Rain 2 1020 93 6000 4.63 160 09:59 16.01.2021
3682 Snow 2 1021 87 6000 3.6 160 09:31 16.01.2021
3683 Snow 1 1022 87 8000 4.63 160 08:32 16.01.2021
3684 Snow 2 1024 70 10000 4.63 180 07:28 16.01.2021
3685 Clouds 3 1025 70 10000 4.63 170 05:46 16.01.2021
3686 Clouds 3 1026 70 10000 3.6 200 04:39 16.01.2021
3687 Clouds 2 1028 75 10000 2.57 160 02:55 16.01.2021
3688 Clouds 1 1030 80 10000 2.06 160 00:49 16.01.2021
3689 Clouds 1 1029 95 10000 3.82 164 00:26 16.01.2021
3690 Clouds 1 1029 95 10000 3.82 164 23:55 15.01.2021
3691 Clouds 1 1030 96 10000 2.78 175 22:56 15.01.2021
3692 Clouds 1 1030 96 10000 2.46 171 22:24 15.01.2021
3693 Clouds 0 1030 96 10000 2.46 171 21:46 15.01.2021
3694 Clouds 0 1031 93 6000 1.54 90 20:59 15.01.2021
3695 Clouds 0 1031 93 6000 1.54 90 20:40 15.01.2021
3696 Clouds 0 1031 93 6000 1.54 90 20:40 15.01.2021
3697 Clouds 0 1031 96 10000 0.6 164 20:21 15.01.2021
3698 Clouds 1 1031 95 10000 0.6 164 19:41 15.01.2021
3699 Clouds 1 1031 87 10000 1.54 110 19:22 15.01.2021
3700 Clouds 2 1031 87 10000 0.51 0 18:44 15.01.2021
3701 Clouds 2 1031 87 10000 0.47 9 18:19 15.01.2021
3702 Clouds 3 1031 87 10000 1.03 0 17:52 15.01.2021
3703 Clouds 3 1031 81 10000 0.58 13 17:26 15.01.2021
3704 Clouds 3 1031 81 9000 1.54 0 16:55 15.01.2021
3705 Clouds 4 1031 81 9000 1.54 0 16:26 15.01.2021
3706 Clouds 4 1031 81 10000 1.03 0 15:56 15.01.2021
3707 Clouds 3 1031 89 10000 0.99 40 15:37 15.01.2021
3708 Clouds 3 1031 87 9000 1.54 0 15:18 15.01.2021
3709 Clouds 3 1031 87 9000 1.54 0 14:37 15.01.2021
3710 Clouds 3 1031 87 9000 1.54 0 14:18 15.01.2021
3711 Clouds 3 1031 87 9000 2.06 280 13:40 15.01.2021
3712 Clouds 3 1031 87 9000 2.06 280 13:19 15.01.2021
3713 Clouds 2 1031 81 9000 1.54 0 12:40 15.01.2021
3714 Clouds 2 1031 81 8000 1.03 0 12:21 15.01.2021
3715 Clouds 2 1031 87 9000 2.57 300 11:42 15.01.2021
3716 Clouds 2 1031 87 9000 2.57 300 11:42 15.01.2021
3717 Clouds 2 1031 87 9000 1.54 0 11:18 15.01.2021
3718 Clouds 1 1031 87 9000 1.54 0 10:48 15.01.2021
3719 Clouds 1 1030 87 10000 1.54 0 10:21 15.01.2021
3720 Clouds 1 1030 87 10000 1.54 0 09:48 15.01.2021
3721 Clouds 1 1030 87 10000 1.54 0 09:29 15.01.2021
3722 Clouds 1 1029 87 10000 2.06 290 08:28 15.01.2021
3723 Clouds 1 1029 87 10000 1.54 0 07:44 15.01.2021
3724 Clouds 1 1028 87 10000 1.54 0 07:23 15.01.2021
3725 Clouds 1 1028 87 10000 2.06 300 06:36 15.01.2021
3726 Clouds 1 1025 87 10000 2.06 320 02:44 15.01.2021
3727 Clouds 2 1024 87 10000 2.57 360 00:47 15.01.2021
3728 Clouds 3 1023 87 10000 2.06 360 23:31 14.01.2021
3729 Clouds 3 1023 87 10000 2.57 0 22:58 14.01.2021
3730 Clouds 3 1023 87 10000 2.57 0 22:37 14.01.2021
3731 Clouds 3 1022 87 10000 2.57 0 22:19 14.01.2021
3732 Clouds 3 1022 87 10000 3.6 360 21:40 14.01.2021
3733 Clouds 3 1021 93 10000 2.57 10 21:20 14.01.2021
3734 Clouds 3 1021 93 4500 2.57 0 20:48 14.01.2021
3735 Rain 3 1020 93 4300 2.06 30 20:22 14.01.2021
3736 Rain 3 1020 93 6000 2.06 30 19:41 14.01.2021
3737 Rain 3 1019 93 10000 2.57 0 19:23 14.01.2021
3738 Clouds 3 1019 97 504 5.08 45 18:49 14.01.2021
3739 Clouds 3 1018 87 10000 4.12 50 18:18 14.01.2021
3740 Rain 3 1018 97 10000 5.17 53 17:44 14.01.2021
3741 Drizzle 3 1016 93 3100 5.66 60 17:25 14.01.2021
3742 Drizzle 4 1015 93 2700 5.66 60 16:39 14.01.2021
3743 Clouds 4 1014 93 2500 4.63 70 15:57 14.01.2021
3744 Clouds 4 1014 93 2500 4.63 70 15:39 14.01.2021
3745 Drizzle 4 1013 93 3000 5.14 70 14:58 14.01.2021
3746 Drizzle 5 1013 93 3000 5.14 70 14:37 14.01.2021
3747 Clouds 5 1013 93 7000 6.17 80 14:18 14.01.2021
3748 Clouds 5 1013 93 7000 6.69 80 13:48 14.01.2021
3749 Clouds 5 1013 93 7000 7.2 80 13:20 14.01.2021
3750 Rain 5 1013 93 3200 8.23 90 12:47 14.01.2021
3751 Rain 5 1013 93 5000 8.75 90 12:19 14.01.2021
3752 Rain 5 1013 93 3900 8.75 90 11:43 14.01.2021
3753 Rain 5 1013 93 5000 8.75 90 11:21 14.01.2021
3754 Snow 5 1013 93 6000 8.23 90 10:52 14.01.2021
3755 Rain 5 1013 93 3500 7.72 90 10:27 14.01.2021
3756 Rain 6 1013 93 3800 8.23 90 09:48 14.01.2021
3757 Rain 6 1013 93 2200 7.2 90 09:23 14.01.2021
3758 Snow 6 1014 100 3500 5.66 90 08:49 14.01.2021
3759 Snow 7 1014 100 4200 5.14 90 08:27 14.01.2021
3760 Snow 6 1014 100 2100 4.63 90 07:49 14.01.2021
3761 Snow 6 1015 93 2600 4.12 100 06:58 14.01.2021
3762 Snow 6 1015 93 3700 4.12 100 05:56 14.01.2021
3763 Snow 7 1017 100 1100 3.6 80 01:42 14.01.2021
3764 Drizzle 7 1017 93 4100 3.6 80 23:55 13.01.2021
3765 Clouds 8 1017 87 3600 2.06 0 23:23 13.01.2021
3766 Clouds 8 1017 93 9000 4.63 270 22:30 13.01.2021
3767 Clouds 8 1017 93 3400 1.54 0 21:59 13.01.2021
3768 Clouds 8 1017 93 3400 1.54 0 21:59 13.01.2021
3769 Clouds 8 1017 93 3400 1.54 0 21:41 13.01.2021
3770 Drizzle 8 1017 93 3700 2.06 0 21:19 13.01.2021
3771 Clouds 9 1017 93 7000 3.6 270 20:42 13.01.2021
3772 Clouds 9 1017 93 5000 3.6 260 20:20 13.01.2021
3773 Drizzle 9 1017 93 5000 4.63 260 19:43 13.01.2021
3774 Clouds 9 1017 93 8000 4.12 250 19:22 13.01.2021
3775 Haze 9 1017 93 4200 4.63 250 18:42 13.01.2021
3776 Clouds 9 1017 93 4300 4.12 260 18:18 13.01.2021
3777 Drizzle 9 1017 93 5000 3.6 260 17:40 13.01.2021
3778 Rain 10 1017 93 3400 3.6 260 17:18 13.01.2021
3779 Drizzle 9 1016 100 2800 3.6 260 16:23 13.01.2021
3780 Rain 9 1016 93 3700 2.57 260 15:59 13.01.2021
3781 Rain 9 1016 93 3700 2.57 260 15:40 13.01.2021
3782 Clouds 8 1016 100 2300 2.06 270 14:56 13.01.2021
3783 Clouds 8 1017 100 2300 1.54 260 14:21 13.01.2021
3784 Rain 8 1017 93 1800 1.9 272 13:38 13.01.2021
3785 Rain 7 1018 93 1400 1.03 260 13:19 13.01.2021
3786 Rain 7 1018 93 1700 1.54 270 12:44 13.01.2021
3787 Rain 7 1018 93 2100 1.03 240 12:22 13.01.2021
3788 Rain 6 1018 93 2200 1.54 250 11:49 13.01.2021
3789 Rain 6 1018 93 2500 2.57 240 11:31 13.01.2021
3790 Rain 5 1018 100 2200 2.57 240 10:48 13.01.2021
3791 Rain 5 1018 93 2300 2.06 240 10:26 13.01.2021
3792 Clouds 5 1018 100 1700 1.54 230 09:40 13.01.2021
3793 Drizzle 4 1018 93 1900 1.54 210 08:58 13.01.2021
3794 Drizzle 4 1018 93 1900 1.54 210 08:58 13.01.2021
3795 Drizzle 4 1018 93 1900 1.54 210 08:35 13.01.2021
3796 Drizzle 4 1019 87 4700 3.09 240 07:57 13.01.2021
3797 Clouds 3 1019 75 10000 2.57 240 07:27 13.01.2021
3798 Rain 2 1020 87 10000 2.57 240 05:52 13.01.2021
3799 Clouds 1 1020 95 10000 1.78 239 04:18 13.01.2021
3800 Clouds 1 1020 95 10000 1.78 239 03:43 13.01.2021
3801 Clouds 1 1020 87 10000 2.06 220 03:21 13.01.2021
3802 Clouds 2 1021 92 10000 1.2 258 00:48 13.01.2021
3803 Clouds 2 1020 92 10000 0.82 303 23:43 12.01.2021
3804 Clouds 2 1020 75 10000 1.54 260 22:58 12.01.2021
3805 Clouds 2 1020 75 10000 1.54 260 22:39 12.01.2021
3806 Clouds 2 1020 89 10000 1.34 310 22:19 12.01.2021
3807 Clouds 2 1020 75 10000 1.54 280 21:44 12.01.2021
3808 Clouds 3 1020 75 10000 2.06 280 21:25 12.01.2021
3809 Clouds 3 1019 75 10000 1.54 290 20:47 12.01.2021
3810 Clouds 3 1019 75 10000 2.06 290 20:27 12.01.2021
3811 Clouds 3 1019 86 10000 1.41 340 19:44 12.01.2021
3812 Clouds 3 1019 86 10000 1.81 347 19:26 12.01.2021
3813 Clouds 4 1018 75 10000 1.54 0 18:41 12.01.2021
3814 Clouds 4 1017 75 10000 2.06 330 18:22 12.01.2021
3815 Clouds 5 1017 75 10000 2.57 330 17:37 12.01.2021
3816 Clouds 5 1016 75 10000 3.09 340 17:19 12.01.2021
3817 Clouds 6 1016 81 10000 2.06 320 16:43 12.01.2021
3818 Clouds 6 1016 81 10000 2.57 340 16:22 12.01.2021
3819 Clouds 7 1015 81 10000 2.06 310 15:29 12.01.2021
3820 Clouds 7 1014 81 10000 2.57 340 14:58 12.01.2021
3821 Clouds 7 1014 81 10000 2.57 340 14:40 12.01.2021
3822 Clouds 7 1014 87 10000 1.54 0 14:19 12.01.2021
3823 Clouds 7 1014 87 10000 2.06 0 13:47 12.01.2021
3824 Drizzle 7 1014 87 5000 2.06 0 12:40 12.01.2021
3825 Clouds 7 1013 87 10000 3.6 10 12:21 12.01.2021
3826 Clouds 8 1012 81 10000 4.12 300 11:40 12.01.2021
3827 Clouds 8 1011 81 10000 3.6 300 10:50 12.01.2021
3828 Clouds 8 1011 81 10000 3.6 300 10:20 12.01.2021
3829 Rain 8 1010 81 10000 4.12 300 09:57 12.01.2021
3830 Rain 8 1022 66 10000 3.59 315 09:27 12.01.2021
3831 Clouds 8 1022 66 10000 3.53 315 08:46 12.01.2021
3832 Clouds 9 1009 93 1900 5.66 310 08:23 12.01.2021
3833 Clouds 9 1008 87 10000 6.17 260 07:35 12.01.2021
3834 Clouds 9 1008 93 10000 7.2 250 06:26 12.01.2021
3835 Rain 9 1008 93 10000 7.72 250 05:33 12.01.2021
3836 Rain 9 1009 87 10000 7.2 240 03:26 12.01.2021
3837 Rain 8 1010 87 10000 7.72 240 02:19 12.01.2021
3838 Rain 8 1011 87 10000 7.2 250 01:28 12.01.2021
3839 Clouds 8 1022 66 10000 6.27 255 23:54 11.01.2021
3840 Rain 8 1022 66 10000 6.27 255 23:36 11.01.2021
3841 Rain 8 1012 87 10000 6.69 240 23:18 11.01.2021
3842 Rain 8 1012 87 10000 7.2 240 22:44 11.01.2021
3843 Rain 8 1013 76 10000 7.72 250 22:25 11.01.2021
3844 Clouds 8 1013 81 10000 7.2 250 21:39 11.01.2021
3845 Clouds 8 1013 76 10000 7.2 250 21:21 11.01.2021
3846 Clouds 8 1014 76 10000 7.2 250 20:41 11.01.2021
3847 Clouds 8 1014 76 10000 8.23 250 20:23 11.01.2021
3848 Clouds 8 1014 76 10000 8.23 250 19:56 11.01.2021
3849 Clouds 8 1014 76 10000 8.23 250 19:33 11.01.2021
3850 Clouds 8 1014 76 10000 7.2 250 18:46 11.01.2021
3851 Clouds 8 1015 71 10000 8.23 250 18:27 11.01.2021
3852 Clouds 8 1015 76 10000 7.2 250 17:56 11.01.2021
3853 Clouds 8 1015 76 10000 7.2 250 17:38 11.01.2021
3854 Clouds 8 1015 71 10000 7.2 250 17:19 11.01.2021
3855 Clouds 8 1015 71 10000 7.2 250 16:41 11.01.2021
3856 Clouds 8 1015 71 10000 8.75 260 16:22 11.01.2021
3857 Clouds 9 1015 71 10000 9.26 260 15:49 11.01.2021
3858 Clouds 8 1015 76 10000 7.2 250 15:29 11.01.2021
3859 Clouds 8 1016 71 10000 7.2 250 14:40 11.01.2021
3860 Clouds 8 1016 71 10000 7.2 240 14:19 11.01.2021
3861 Clouds 8 1017 76 10000 5.66 250 13:43 11.01.2021
3862 Clouds 8 1018 71 10000 5.66 260 13:19 11.01.2021
3863 Clouds 8 1018 71 10000 7.2 250 12:36 11.01.2021
3864 Clouds 7 1019 76 10000 5.66 250 11:58 11.01.2021
3865 Clouds 7 1019 76 10000 5.66 250 11:36 11.01.2021
3866 Clouds 6 1019 81 10000 5.14 250 10:53 11.01.2021
3867 Clouds 6 1019 81 10000 4.63 250 10:28 11.01.2021
3868 Clouds 5 1019 81 10000 4.12 250 09:45 11.01.2021
3869 Clouds 5 1019 81 10000 4.63 250 09:24 11.01.2021
3870 Clouds 5 1019 81 10000 3.6 240 08:47 11.01.2021
3871 Clouds 5 1019 81 10000 3.6 240 08:22 11.01.2021
3872 Clouds 5 1019 81 10000 3.6 240 07:40 11.01.2021
3873 Clouds 5 1020 81 10000 4.63 240 07:19 11.01.2021
3874 Clouds 5 1020 81 10000 3.6 240 06:47 11.01.2021
3875 Clouds 4 1022 81 10000 4.12 240 01:53 11.01.2021
3876 Clouds 4 1023 81 10000 3.09 240 00:40 11.01.2021
3877 Clouds 3 1024 81 10000 3.09 240 23:47 10.01.2021
3878 Clear 3 1024 96 10000 2.16 241 22:51 10.01.2021
3879 Clouds 3 1024 87 10000 4.12 250 22:29 10.01.2021
3880 Clouds 3 1024 87 10000 2.57 240 21:58 10.01.2021
3881 Clouds 3 1024 87 10000 2.57 240 21:39 10.01.2021
3882 Clear 2 1024 97 10000 2.17 252 21:18 10.01.2021
3883 Clear 2 1024 97 10000 2.17 252 20:44 10.01.2021
3884 Clear 2 1024 97 10000 2.24 254 20:26 10.01.2021
3885 Clear 2 1025 97 10000 2.24 254 19:40 10.01.2021
3886 Clear 2 1025 97 10000 2.13 248 19:22 10.01.2021
3887 Clouds 3 1025 81 8000 2.57 240 18:45 10.01.2021
3888 Clouds 2 1025 87 8000 3.6 250 18:20 10.01.2021
3889 Clouds 2 1025 87 7000 3.09 240 17:26 10.01.2021
3890 Clouds 2 1025 87 7000 3.09 240 16:50 10.01.2021
3891 Clouds 2 1025 87 7000 2.57 230 16:30 10.01.2021
3892 Clouds 2 1025 87 7000 3.09 250 15:41 10.01.2021
3893 Clouds 2 1025 87 6000 3.09 240 15:22 10.01.2021
3894 Clouds 1 1025 87 6000 3.6 240 14:41 10.01.2021
3895 Clouds 1 1025 87 6000 3.09 240 14:22 10.01.2021
3896 Haze 1 1026 87 5000 3.6 250 13:46 10.01.2021
3897 Haze 1 1026 93 5000 4.12 250 13:27 10.01.2021
3898 Haze 0 1026 93 3900 3.6 240 12:59 10.01.2021
3899 Haze 1 1026 93 3900 3.6 240 12:41 10.01.2021
3900 Haze 0 1026 93 3900 3.6 240 11:57 10.01.2021
3901 Haze -1 1026 93 4100 3.6 250 11:21 10.01.2021
3902 Haze 0 1026 93 3800 3.6 250 10:52 10.01.2021
3903 Haze -1 1026 93 3600 3.09 240 10:24 10.01.2021
3904 Haze -1 1026 93 4900 3.09 260 09:46 10.01.2021
3905 Haze -1 1026 93 4900 3.09 260 09:46 10.01.2021
3906 Haze -1 1026 93 4400 2.57 250 08:50 10.01.2021
3907 Haze -1 1026 93 5000 2.57 250 08:19 10.01.2021
3908 Haze -1 1026 93 3900 3.6 260 07:27 10.01.2021
3909 Haze -1 1026 93 4600 3.6 250 06:18 10.01.2021
3910 Haze -1 1026 100 4900 2.57 290 05:34 10.01.2021
3911 Haze -1 1027 93 2000 3.09 250 02:55 10.01.2021
3912 Haze -1 1028 93 1600 2.06 230 00:48 10.01.2021
3913 Fog -1 1028 93 250 3.09 230 23:43 09.01.2021
3914 Fog -1 1028 93 300 3.09 250 23:25 09.01.2021
3915 Haze -1 1028 93 3700 1.03 0 22:44 09.01.2021
3916 Haze -1 1028 93 4600 1.54 0 22:18 09.01.2021
3917 Clear -1 1028 96 10000 1.23 272 21:55 09.01.2021
3918 Haze -1 1027 86 5000 2.06 220 21:37 09.01.2021
3919 Haze -1 1027 86 5000 1.54 0 21:18 09.01.2021
3920 Clear -1 1027 93 7000 1.03 270 20:39 09.01.2021
3921 Clear 0 1027 86 7000 1.54 340 19:44 09.01.2021
3922 Clear 0 1027 86 9000 0.7 322 19:22 09.01.2021
3923 Clear 0 1027 93 10000 0.75 312 18:41 09.01.2021
3924 Clear 1 1027 80 10000 1.54 290 18:20 09.01.2021
3925 Clear 1 1027 75 10000 1.03 340 17:46 09.01.2021
3926 Clear 2 1027 75 10000 1.03 0 17:27 09.01.2021
3927 Clear 2 1027 70 10000 0.51 0 16:33 09.01.2021
3928 Clear 3 1026 75 10000 1.03 0 15:52 09.01.2021
3929 Clear 3 1026 75 10000 1.03 0 15:32 09.01.2021
3930 Clear 3 1026 75 8000 1.03 0 14:41 09.01.2021
3931 Clouds 2 1026 80 8000 1.03 0 14:20 09.01.2021
3932 Clouds 2 1026 93 6000 1.03 0 13:49 09.01.2021
3933 Clouds 1 1027 93 6000 1.03 0 13:30 09.01.2021
3934 Haze 1 1027 93 2700 1.03 0 12:49 09.01.2021
3935 Haze 1 1027 93 2800 1.54 0 12:24 09.01.2021
3936 Haze 1 1027 93 2800 0.51 0 11:56 09.01.2021
3937 Haze 0 1027 93 3400 1.03 0 11:30 09.01.2021
3938 Haze 0 1027 93 3400 2.06 320 10:52 09.01.2021
3939 Haze 0 1027 93 3400 2.06 320 10:33 09.01.2021
3940 Clouds 0 1026 93 7000 1.54 0 09:53 09.01.2021
3941 Clouds 0 1026 86 8000 1.03 0 09:29 09.01.2021
3942 Clouds 1 1025 93 7000 1.03 0 08:35 09.01.2021
3943 Clouds 1 1025 93 7000 2.06 350 06:58 09.01.2021
3944 Clouds 1 1024 93 6000 1.54 0 06:40 09.01.2021
3945 Haze 1 1024 93 3300 1.54 0 04:53 09.01.2021
3946 Haze 1 1024 93 4200 1.54 0 03:25 09.01.2021
3947 Haze 1 1023 93 5000 1.54 0 02:32 09.01.2021
3948 Haze 1 1023 93 2900 2.57 60 01:54 09.01.2021
3949 Haze 0 1023 93 4100 2.06 50 00:37 09.01.2021
3950 Clouds 0 1023 93 4000 1.54 0 23:59 08.01.2021
3951 Clouds 0 1022 86 3900 1.03 0 23:19 08.01.2021
3952 Clouds 0 1022 93 5000 1.54 0 22:19 08.01.2021
3953 Clouds 0 1022 86 6000 1.03 0 21:44 08.01.2021
3954 Clouds 0 1021 93 6000 2.06 50 20:57 08.01.2021
3955 Haze 0 1021 93 4700 1.54 0 20:26 08.01.2021
3956 Haze 0 1021 93 5000 2.57 60 19:55 08.01.2021
3957 Haze 0 1020 93 5000 2.06 50 19:22 08.01.2021
3958 Haze 0 1020 93 5000 2.06 50 18:36 08.01.2021
3959 Haze 1 1020 93 3700 3.09 50 18:18 08.01.2021
3960 Haze 1 1020 93 4700 3.09 60 17:45 08.01.2021
3961 Clouds 1 1019 86 6000 2.57 50 17:22 08.01.2021
3962 Clouds 2 1019 93 7000 2.57 60 16:34 08.01.2021
3963 Clouds 2 1018 93 9000 1.54 0 15:44 08.01.2021
3964 Clouds 2 1018 93 8000 2.06 60 15:18 08.01.2021
3965 Clouds 2 1018 86 10000 1.54 0 14:35 08.01.2021
3966 Clouds 2 1018 86 8000 2.06 80 13:44 08.01.2021
3967 Clouds 2 1018 86 7000 2.57 50 13:18 08.01.2021
3968 Clouds 2 1018 87 7000 1.54 0 12:46 08.01.2021
3969 Clouds 2 1018 87 8000 2.06 50 12:19 08.01.2021
3970 Clouds 1 1018 87 7000 0.51 0 11:44 08.01.2021
3971 Clouds 1 1018 86 6000 1.03 80 11:25 08.01.2021
3972 Clouds 1 1018 86 6000 1.03 0 10:50 08.01.2021
3973 Clouds 0 1017 86 7000 1.03 350 10:26 08.01.2021
3974 Clouds 0 1017 86 6000 0.07 110 09:45 08.01.2021
3975 Clouds 0 1017 86 6000 1.54 240 09:25 08.01.2021
3976 Clouds 0 1016 95 10000 0.32 234 08:33 08.01.2021
3977 Clouds 0 1016 86 6000 1.54 200 07:26 08.01.2021
3978 Haze -1 1016 93 5000 2.06 230 05:51 08.01.2021
3979 Haze -1 1017 93 5000 4.12 250 23:47 07.01.2021
3980 Haze -1 1017 93 5000 4.12 240 23:29 07.01.2021
3981 Haze -1 1018 93 5000 4.63 240 22:46 07.01.2021
3982 Haze -1 1018 93 5000 3.6 240 22:26 07.01.2021
3983 Clouds -1 1018 86 6000 3.6 250 21:45 07.01.2021
3984 Clouds -1 1018 86 6000 2.06 260 21:26 07.01.2021
3985 Clouds -1 1017 86 6000 2.06 340 20:47 07.01.2021
3986 Clouds -1 1017 86 10000 3.09 290 20:28 07.01.2021
3987 Clouds 0 1018 94 10000 2.18 280 19:45 07.01.2021
3988 Clouds 0 1017 94 10000 2.16 285 19:23 07.01.2021
3989 Clouds 1 1017 80 9000 2.57 240 18:30 07.01.2021
3990 Clouds 1 1017 70 10000 3.09 280 17:58 07.01.2021
3991 Clouds 2 1017 92 10000 2.1 292 17:28 07.01.2021
3992 Clouds 2 1017 65 10000 3.6 300 16:53 07.01.2021
3993 Clouds 3 1017 70 10000 2.57 270 16:30 07.01.2021
3994 Clouds 3 1017 70 10000 2.57 270 16:30 07.01.2021
3995 Clouds 3 1017 70 10000 2.57 260 15:47 07.01.2021
3996 Clouds 3 1017 70 10000 3.6 280 15:29 07.01.2021
3997 Clouds 3 1017 70 10000 3.6 280 15:29 07.01.2021
3998 Clouds 3 1017 70 10000 3.6 290 14:27 07.01.2021
3999 Clouds 3 1018 75 10000 3.09 270 13:49 07.01.2021
4000 Clouds 2 1018 75 10000 3.09 280 13:19 07.01.2021
4001 Clouds 2 1019 80 8000 2.6 250 12:47 07.01.2021
4002 Clouds 1 1019 86 8000 2.6 250 11:59 07.01.2021
4003 Clouds 1 1019 86 8000 2.6 240 11:38 07.01.2021
4004 Clouds 1 1019 80 10000 3.6 280 10:54 07.01.2021
4005 Clouds 1 1019 80 10000 4.1 280 10:33 07.01.2021
4006 Clouds 1 1018 80 10000 3.1 290 09:49 07.01.2021
4007 Clouds 1 1019 95 10000 2.22 322 09:22 07.01.2021
4008 Clouds 1 1018 95 10000 2.25 321 08:30 07.01.2021
4009 Clouds 1 1018 95 10000 2.46 322 07:57 07.01.2021
4010 Clouds 1 1018 95 10000 2.46 322 07:38 07.01.2021
4011 Clouds 1 1018 90 9000 2.6 290 05:46 07.01.2021
4012 Clouds 1 1019 93 10000 1.5 0 00:59 07.01.2021
4013 Clouds 1 1019 94 10000 1.5 0 23:52 06.01.2021
4014 Clouds 2 1019 87 10000 2.6 330 22:50 06.01.2021
4015 Clouds 2 1019 85 10000 2.6 330 22:20 06.01.2021
4016 Clouds 2 1019 85 10000 2.1 350 21:41 06.01.2021
4017 Clouds 2 1019 81 10000 2.1 350 21:22 06.01.2021
4018 Clouds 2 1019 82 10000 2.1 350 20:42 06.01.2021
4019 Clouds 2 1019 81 10000 2.6 340 20:22 06.01.2021
4020 Clouds 3 1019 80 10000 2.1 350 19:42 06.01.2021
4021 Clouds 3 1019 79 10000 2.1 350 19:24 06.01.2021
4022 Clouds 3 1019 79 10000 2.1 340 18:45 06.01.2021
4023 Clouds 4 1019 77 10000 2.6 10 18:27 06.01.2021
4024 Clouds 4 1019 77 10000 2.6 0 17:45 06.01.2021
4025 Clouds 4 1019 75 10000 2.6 0 17:26 06.01.2021
4026 Clouds 5 1019 60 10000 3.1 0 16:57 06.01.2021
4027 Clouds 5 1019 70 10000 2.6 50 16:21 06.01.2021
4028 Clouds 5 1019 70 10000 2.6 50 15:59 06.01.2021
4029 Clouds 5 1019 70 10000 2.6 0 15:35 06.01.2021
4030 Clouds 5 1019 75 10000 3.6 50 14:58 06.01.2021
4031 Clouds 5 1019 75 10000 2.1 0 14:30 06.01.2021
4032 Clouds 5 1019 75 10000 3.1 50 13:52 06.01.2021
4033 Clouds 5 1019 80 10000 2.6 50 13:26 06.01.2021
4034 Clouds 5 1020 80 10000 3.6 50 12:55 06.01.2021
4035 Clouds 5 1020 80 10000 3.1 0 12:30 06.01.2021
4036 Clouds 4 1020 86 10000 2.6 0 11:44 06.01.2021
4037 Clouds 4 1020 86 10000 2.6 0 11:21 06.01.2021
4038 Clouds 4 1019 78 10000 3.75 32 10:39 06.01.2021
4039 Clouds 4 1019 79 10000 4.06 32 09:52 06.01.2021
4040 Clouds 4 1019 78 10000 4.06 32 09:31 06.01.2021
4041 Clouds 4 1019 86 10000 3.1 10 08:52 06.01.2021
4042 Clouds 4 1018 86 10000 3.1 10 08:19 06.01.2021
4043 Clouds 4 1018 86 10000 3.1 10 07:51 06.01.2021
4044 Rain 3 1018 86 10000 3.1 10 06:44 06.01.2021
4045 Clouds 3 1019 86 10000 3.6 360 05:29 06.01.2021
4046 Clouds 3 1019 86 10000 2.6 10 03:21 06.01.2021
4047 Clouds 3 1019 86 10000 3.6 0 02:42 06.01.2021
4048 Clouds 3 1019 86 10000 3.6 0 02:20 06.01.2021
4049 Clouds 4 1019 80 10000 3.6 360 23:51 05.01.2021
4050 Clouds 4 1019 74 3197 5.12 28 22:57 05.01.2021
4051 Clouds 4 1019 74 3197 5.12 28 22:38 05.01.2021
4052 Clouds 4 1019 74 10000 5.13 29 22:19 05.01.2021
4053 Clouds 4 1019 76 10000 5.03 33 21:21 05.01.2021
4054 Rain 4 1019 76 10000 5.03 33 20:30 05.01.2021
4055 Clouds 4 1020 86 10000 3.6 20 19:57 05.01.2021
4056 Clouds 4 1019 86 10000 3.1 0 19:38 05.01.2021
4057 Clouds 4 1019 86 10000 3.1 0 19:18 05.01.2021
4058 Clouds 4 1019 86 10000 3.6 50 18:42 05.01.2021
4059 Clouds 4 1019 86 10000 3.1 0 18:18 05.01.2021
4060 Clouds 4 1019 86 10000 3.1 0 17:40 05.01.2021
4061 Rain 4 1019 86 10000 3.6 0 17:20 05.01.2021
4062 Rain 4 1019 75 10000 5.45 34 16:39 05.01.2021
4063 Rain 4 1019 80 10000 2.6 0 16:20 05.01.2021
4064 Rain 4 1019 86 10000 3.6 0 15:49 05.01.2021
4065 Clouds 4 1019 86 10000 3.1 10 14:49 05.01.2021
4066 Rain 4 1019 80 10000 3.6 20 14:20 05.01.2021
4067 Clouds 4 1020 80 10000 3.6 20 13:44 05.01.2021
4068 Rain 4 1020 80 10000 3.6 0 13:21 05.01.2021
4069 Clouds 4 1020 80 7000 3.6 20 12:47 05.01.2021
4070 Rain 4 1020 80 7000 3.6 20 12:21 05.01.2021
4071 -273 0 0 0 0 0 11:38 05.01.2021
4072 Clouds 3 1020 91 10000 3.6 10 11:31 05.01.2021
4073 Clouds 3 1020 91 10000 3.6 10 10:45 05.01.2021
4074 Clouds 3 1020 93 10000 3.6 10 10:24 05.01.2021
4075 Clouds 3 1020 93 10000 4.6 10 09:47 05.01.2021
4076 Rain 3 1020 87 10000 4.6 10 09:26 05.01.2021
4077 Clouds 2 1019 85 10000 2.6 360 08:23 05.01.2021
4078 Clouds 2 1019 73 10000 5.29 23 06:46 05.01.2021
4079 Clouds 3 1020 83 10000 3.1 0 03:48 05.01.2021
4080 Clouds 3 1020 81 10000 4.1 0 00:48 05.01.2021
4081 Clouds 3 1020 70 10000 6.01 32 23:45 04.01.2021
4082 Clouds 3 1019 70 10000 6.21 34 23:25 04.01.2021
4083 Clouds 3 1020 77 10000 3.6 20 22:49 04.01.2021
4084 Clouds 3 1020 76 10000 3.6 20 22:27 04.01.2021
4085 Clouds 3 1020 76 10000 3.6 50 21:47 04.01.2021
4086 Clouds 3 1020 76 10000 3.6 50 21:29 04.01.2021
4087 Clouds 3 1020 80 10000 3.1 0 20:44 04.01.2021
4088 Clouds 3 1020 80 10000 3.1 0 20:25 04.01.2021
4089 Clouds 4 1020 80 10000 4.1 0 19:52 04.01.2021
4090 Clouds 4 1020 80 10000 4.1 0 19:24 04.01.2021
4091 Clouds 4 1020 80 10000 5.1 60 18:54 04.01.2021
4092 Clouds 4 1019 72 10000 6.97 42 18:24 04.01.2021
4093 Clouds 4 1019 75 10000 6.7 60 17:44 04.01.2021
4094 Clouds 4 1019 80 10000 7.2 60 17:25 04.01.2021
4095 Clouds 4 1019 80 10000 6.2 60 16:47 04.01.2021
4096 Clouds 4 1019 80 10000 6.2 60 16:27 04.01.2021
4097 Clouds 4 1019 86 10000 6.2 50 15:49 04.01.2021
4098 Clouds 4 1018 80 10000 6.2 60 15:28 04.01.2021
4099 Rain 5 1019 80 10000 6.2 50 14:46 04.01.2021
4100 Rain 5 1019 80 10000 5.7 60 13:48 04.01.2021
4101 Rain 5 1019 86 10000 5.1 50 13:25 04.01.2021
4102 Clouds 4 1019 86 10000 5.7 60 12:44 04.01.2021
4103 Rain 4 1019 86 10000 4.6 50 11:58 04.01.2021
4104 Clouds 4 1019 80 10000 3.6 50 11:22 04.01.2021
4105 Clouds 4 1019 80 10000 3.6 50 10:53 04.01.2021
4106 Clouds 4 1019 80 10000 3.6 0 10:29 04.01.2021
4107 Clouds 4 1018 74 10000 5.71 44 09:53 04.01.2021
4108 Clouds 4 1018 91 10000 5.92 42 09:22 04.01.2021
4109 Clouds 4 1018 80 10000 3.1 0 08:47 04.01.2021
4110 Clouds 4 1018 80 10000 3.6 10 08:18 04.01.2021
4111 Clouds 3 1018 80 10000 4.1 10 07:42 04.01.2021
4112 Clouds 3 1019 80 10000 3.1 0 05:33 04.01.2021
4113 Clouds 3 1019 80 10000 2.6 0 04:31 04.01.2021
4114 Clouds 4 1019 73 10000 4.64 44 00:48 04.01.2021
4115 Clouds 4 1019 75 10000 3.6 50 23:49 03.01.2021
4116 Clouds 4 1019 86 10000 3.1 0 23:25 03.01.2021
4117 Clouds 4 1019 75 10000 3.6 50 22:56 03.01.2021
4118 Clouds 4 1019 75 10000 2.1 0 22:33 03.01.2021
4119 Clouds 4 1019 80 10000 2.1 0 21:57 03.01.2021
4120 Clouds 4 1019 75 10000 2.6 30 21:29 03.01.2021
4121 Clouds 4 1019 75 10000 3.6 50 20:50 03.01.2021
4122 Clouds 4 1019 80 10000 3.6 50 20:32 03.01.2021
4123 Clouds 4 1018 80 10000 3.1 60 19:58 03.01.2021
4124 Clouds 4 1018 80 10000 3.6 50 19:37 03.01.2021
4125 Clouds 4 1018 75 10000 3.6 60 19:18 03.01.2021
4126 Clouds 4 1018 80 10000 4.1 50 18:41 03.01.2021
4127 Clouds 4 1018 80 10000 4.1 60 18:20 03.01.2021
4128 Clouds 4 1017 86 10000 2.6 60 17:49 03.01.2021
4129 Clouds 4 1017 86 10000 2.6 60 17:26 03.01.2021
4130 Clouds 4 1017 86 9000 6.2 100 16:44 03.01.2021
4131 Rain 5 1017 75 10000 2.1 0 16:20 03.01.2021
4132 Clouds 6 1017 70 10000 4.6 50 15:48 03.01.2021
4133 Clouds 6 1017 70 10000 4.6 50 15:29 03.01.2021
4134 Clouds 6 1017 70 10000 3.6 50 14:57 03.01.2021
4135 Clouds 6 1017 75 10000 3.1 50 14:30 03.01.2021
4136 Clouds 5 1017 80 10000 2.6 60 13:45 03.01.2021
4137 Clouds 5 1017 80 10000 2.6 60 13:23 03.01.2021
4138 Clouds 4 1017 86 10000 2.1 60 12:36 03.01.2021
4139 Clouds 3 1017 86 10000 2.1 0 11:43 03.01.2021
4140 Clouds 3 1017 86 10000 2.1 0 11:24 03.01.2021
4141 Clouds 3 1017 86 10000 2.6 350 10:52 03.01.2021
4142 Clouds 3 1017 93 10000 2.6 360 10:30 03.01.2021
4143 Clouds 3 1016 93 7000 1.5 0 09:41 03.01.2021
4144 Rain 3 1016 93 7000 1.5 0 09:22 03.01.2021
4145 Haze 2 1016 93 5000 2.1 350 07:54 03.01.2021
4146 Clouds 2 1016 93 10000 1.5 0 05:59 03.01.2021
4147 Clouds 1 1017 91 6000 2.1 350 02:28 03.01.2021
4148 Clouds 1 1016 91 8000 2.6 350 01:47 03.01.2021
4149 Clouds 1 1016 91 8000 2.6 350 01:47 03.01.2021
4150 Clouds 1 1016 80 10000 2.1 360 00:20 03.01.2021
4151 Clouds 1 1016 80 10000 2.1 340 23:30 02.01.2021
4152 Clouds 1 1016 80 10000 2.6 350 22:58 02.01.2021
4153 Clouds 1 1016 80 10000 2.1 340 22:32 02.01.2021
4154 Clouds 1 1016 80 10000 2.1 360 21:52 02.01.2021
4155 Clouds 2 1016 74 10000 2.1 330 21:32 02.01.2021
4156 Clouds 1 1016 80 10000 1 0 20:59 02.01.2021
4157 Clouds 2 1016 74 10000 1 0 20:39 02.01.2021
4158 Clouds 2 1016 83 10000 0.5 0 20:19 02.01.2021
4159 Clouds 2 1016 83 10000 2.1 350 19:40 02.01.2021
4160 Clouds 2 1016 74 10000 2.6 340 19:18 02.01.2021
4161 Clouds 2 1016 69 10000 2.6 300 18:40 02.01.2021
4162 Clouds 3 1015 81 10000 3.1 300 18:21 02.01.2021
4163 Clouds 3 1015 81 10000 3.1 300 17:45 02.01.2021
4164 Clouds 3 1015 79 10000 2.6 310 17:22 02.01.2021
4165 Clouds 4 1015 79 10000 1.5 0 16:38 02.01.2021
4166 Clouds 5 1015 75 10000 3.6 300 16:19 02.01.2021
4167 Clouds 5 1015 83 10000 2.41 330 15:41 02.01.2021
4168 Clouds 5 1015 73 10000 2.6 300 15:21 02.01.2021
4169 Clouds 5 1015 73 10000 2.1 290 14:37 02.01.2021
4170 Clouds 4 1015 73 10000 2.1 300 13:58 02.01.2021
4171 Clouds 4 1016 75 10000 2.1 320 13:38 02.01.2021
4172 Clouds 4 1017 80 10000 2.6 320 12:54 02.01.2021
4173 Clouds 4 1017 80 10000 2.6 320 12:32 02.01.2021
4174 Clouds 4 1017 80 10000 2.1 330 11:49 02.01.2021
4175 Clouds 3 1016 80 10000 3.1 320 11:22 02.01.2021
4176 Clouds 3 1016 80 10000 3.1 320 10:52 02.01.2021
4177 Clouds 3 1016 94 10000 3.76 343 10:30 02.01.2021
4178 Clouds 3 1016 80 10000 3.1 310 09:54 02.01.2021
4179 Clouds 3 1016 86 10000 3.6 330 09:28 02.01.2021
4180 Clouds 3 1016 86 10000 3.6 330 08:50 02.01.2021
4181 Clouds 3 1016 86 10000 3.6 330 08:28 02.01.2021
4182 Clouds 4 1015 86 10000 2.6 340 07:49 02.01.2021
4183 Clouds 4 1015 86 10000 2.6 340 07:22 02.01.2021
4184 Clouds 4 1015 95 10000 3.07 343 06:52 02.01.2021
4185 Clouds 4 1015 86 10000 2.6 330 05:45 02.01.2021
4186 Clouds 4 1014 96 10000 2.79 335 00:59 02.01.2021
4187 Clouds 4 1014 86 10000 2.1 340 00:37 02.01.2021
4188 Clouds 4 1014 86 10000 2.6 350 23:57 01.01.2021
4189 Clouds 4 1013 86 10000 3.1 330 23:23 01.01.2021
4190 Clouds 4 1013 86 10000 2.6 330 22:50 01.01.2021
4191 Clouds 4 1013 86 10000 2.6 330 22:26 01.01.2021
4192 Rain 4 1013 86 9000 2.1 0 21:59 01.01.2021
4193 Clouds 4 1013 86 8000 2.1 290 21:41 01.01.2021
4194 Haze 4 1012 93 5000 1.5 0 21:19 01.01.2021
4195 Clouds 3 1012 93 2400 2.1 250 20:44 01.01.2021
4196 Haze 3 1012 93 2300 2.1 230 20:18 01.01.2021
4197 Clouds 3 1012 93 1700 2.1 240 19:41 01.01.2021
4198 Clouds 3 1012 93 2200 2.6 240 19:21 01.01.2021
4199 Haze 3 1012 86 4100 2.6 250 18:45 01.01.2021
4200 Haze 3 1012 86 4100 2.6 250 18:23 01.01.2021
4201 Haze 3 1011 93 4100 2.1 230 17:46 01.01.2021
4202 Haze 3 1011 93 4100 2.1 230 17:23 01.01.2021
4203 Haze 2 1011 86 4400 2.1 240 16:48 01.01.2021
4204 Haze 2 1011 86 4400 2.1 240 16:25 01.01.2021
4205 Haze 2 1011 86 5000 2.6 260 15:41 01.01.2021
4206 Haze 2 1011 86 5000 3.1 280 14:48 01.01.2021
4207 Haze 2 1011 86 5000 3.1 280 14:27 01.01.2021
4208 Rain 2 1011 81 7000 2.6 260 13:40 01.01.2021
4209 Clouds 1 1012 84 7000 2.6 260 12:57 01.01.2021
4210 Clouds 1 1012 84 7000 2.6 250 12:36 01.01.2021
4211 Clouds 1 1011 86 7000 3.6 250 11:43 01.01.2021
4212 Clouds 0 1011 86 7000 3.6 250 11:23 01.01.2021
4213 Clouds 0 1011 86 7000 2.6 290 10:59 01.01.2021
4214 Clouds 0 1011 96 10000 1.8 279 10:33 01.01.2021
4215 Clouds 0 1011 96 10000 1.75 279 09:45 01.01.2021
4216 Haze 0 1010 86 4700 3.6 300 08:52 01.01.2021
4217 Haze 0 1010 86 3600 3.6 280 08:25 01.01.2021
4218 Clouds 1 1010 80 10000 2.1 300 04:52 01.01.2021
4219 Haze 1 1009 96 5000 3.6 300 02:26 01.01.2021
4220 Clouds 1 1009 94 9000 1.5 0 00:41 01.01.2021
4221 Clouds 1 1008 93 8000 1.5 0 00:21 01.01.2021
4222 Clouds 1 1008 80 10000 1.5 0 23:22 31.12.2020
4223 Clear 1 1008 92 10000 1.14 333 22:58 31.12.2020
4224 Clear 1 1008 92 10000 1.14 333 22:38 31.12.2020
4225 Clouds 1 1008 86 10000 1.5 0 22:19 31.12.2020
4226 Clouds 0 1008 86 9000 2.6 300 21:47 31.12.2020
4227 Clouds 0 1008 86 9000 2.6 300 21:47 31.12.2020
4228 Clouds 0 1007 86 9000 2.6 300 21:23 31.12.2020
4229 Clouds 0 1007 86 10000 2.6 320 20:49 31.12.2020
4230 Clouds 0 1007 86 10000 3.6 300 20:18 31.12.2020
4231 Clouds 1 1007 86 10000 2.1 310 19:46 31.12.2020
4232 Clear 1 1007 92 10000 1.64 310 19:28 31.12.2020
4233 Clear 1 1006 92 10000 1.64 310 18:49 31.12.2020
4234 Clear 1 1006 92 10000 1.57 294 18:24 31.12.2020
4235 Clouds 1 1006 80 10000 2.1 300 17:44 31.12.2020
4236 Clouds 1 1006 80 10000 2.6 290 17:23 31.12.2020
4237 Clouds 1 1005 83 10000 2.6 290 16:43 31.12.2020
4238 Clouds 1 1005 83 10000 2.6 290 16:43 31.12.2020
4239 Clouds 1 1005 83 10000 2.6 290 16:43 31.12.2020
4240 Clouds 1 1005 78 9000 2.1 290 16:23 31.12.2020
4241 Clouds 1 1005 78 10000 2.6 290 15:49 31.12.2020
4242 Clouds 1 1005 77 10000 2.6 290 15:22 31.12.2020
4243 Clouds 1 1005 86 8000 3.1 290 14:58 31.12.2020
4244 Clouds 1 1005 86 8000 3.1 300 14:39 31.12.2020
4245 Clouds 1 1005 86 8000 3.1 300 14:21 31.12.2020
4246 Clouds 0 1005 78 8000 2.6 290 13:39 31.12.2020
4247 Clouds 0 1005 80 8000 3.6 290 13:21 31.12.2020
4248 Clouds 0 1005 80 8000 3.6 290 12:54 31.12.2020
4249 Clouds 0 1005 80 8000 2.6 300 12:35 31.12.2020
4250 Clouds 0 1005 83 8000 2.6 300 11:52 31.12.2020
4251 Clouds -1 1005 83 6000 3.1 290 11:32 31.12.2020
4252 Clouds -1 1005 87 6000 2.6 300 10:50 31.12.2020
4253 Clouds -1 1005 91 6000 2.6 310 10:30 31.12.2020
4254 Clouds -1 1005 91 7000 2.6 310 09:58 31.12.2020
4255 Clouds -1 1004 91 7000 2.1 300 09:38 31.12.2020
4256 Clouds -1 1004 93 7000 2.1 300 09:20 31.12.2020
4257 Clouds -1 1004 93 7000 2.6 290 08:45 31.12.2020
4258 Clouds -1 1004 93 7000 2.6 290 08:27 31.12.2020
4259 Clouds -1 1004 93 6000 2.1 300 07:51 31.12.2020
4260 Haze -1 1003 93 3400 3.1 300 06:49 31.12.2020
4261 Clouds -1 1003 95 10000 1.85 333 05:30 31.12.2020
4262 Clouds -1 1003 90 10000 1.5 290 03:24 31.12.2020
4263 Clear 0 1003 86 10000 1.5 0 02:26 31.12.2020
4264 Clear 0 1003 89 10000 1 0 01:49 31.12.2020
4265 Clouds 0 1003 88 10000 1 0 01:31 31.12.2020
4266 Clouds 0 1003 88 10000 1 0 00:52 31.12.2020
4267 Clouds 1 1003 87 10000 1.5 0 23:55 30.12.2020
4268 Clouds 1 1003 87 10000 1.5 290 23:20 30.12.2020
4269 Clouds 1 1003 87 10000 1.5 290 22:56 30.12.2020
4270 Clouds 0 1003 94 10000 1.24 297 22:34 30.12.2020
4271 Clouds 1 1003 93 10000 1.24 297 21:50 30.12.2020
4272 Clouds 1 1003 92 10000 1.23 278 21:25 30.12.2020
4273 Clouds 1 1003 92 10000 1.23 278 20:53 30.12.2020
4274 Clouds 2 1003 92 10000 1.29 278 20:27 30.12.2020
4275 Clouds 2 1003 80 10000 2.1 210 19:58 30.12.2020
4276 Clouds 2 1003 80 10000 2.1 210 19:58 30.12.2020
4277 Clouds 2 1003 80 10000 2.1 210 19:58 30.12.2020
4278 Clouds 2 1003 80 10000 1 0 19:37 30.12.2020
4279 Clouds 3 1003 80 10000 1.5 210 19:18 30.12.2020
4280 Clouds 2 1003 91 10000 1.38 258 18:38 30.12.2020
4281 Clouds 3 1003 90 10000 1.59 250 18:20 30.12.2020
4282 Clouds 3 1003 81 10000 2.1 270 17:43 30.12.2020
4283 Clouds 4 1003 75 10000 2.6 280 17:24 30.12.2020
4284 Clouds 4 1003 75 10000 2.6 280 16:43 30.12.2020
4285 Clouds 5 1003 70 10000 3.1 260 15:51 30.12.2020
4286 Clouds 5 1003 83 10000 2.28 257 15:31 30.12.2020
4287 Clouds 5 1003 75 10000 3.1 240 14:58 30.12.2020
4288 Clouds 5 1003 75 10000 2.6 240 14:40 30.12.2020
4289 Clouds 5 1003 75 10000 2.6 250 14:19 30.12.2020
4290 Clouds 4 1003 80 10000 3.6 250 13:19 30.12.2020
4291 Clouds 4 1003 80 10000 4.1 240 12:27 30.12.2020
4292 Clouds 3 1003 86 10000 2.6 240 11:48 30.12.2020
4293 Clouds 2 1003 81 10000 3.6 230 11:23 30.12.2020
4294 Clouds 2 1003 81 10000 3.6 230 10:59 30.12.2020
4295 Clouds 1 1003 81 10000 3.1 220 10:39 30.12.2020
4296 Clouds 1 1002 85 10000 4.6 250 10:20 30.12.2020
4297 Clouds 1 1002 85 10000 4.6 250 09:46 30.12.2020
4298 Clouds 0 1002 95 10000 3.11 270 08:55 30.12.2020
4299 Clouds 0 1002 95 10000 3.02 268 08:23 30.12.2020
4300 Clouds 1 1001 87 10000 5.1 250 07:28 30.12.2020
4301 Clear 1 1001 88 7000 2.6 230 06:43 30.12.2020
4302 Clear 1 1001 87 9000 2.6 220 05:50 30.12.2020
4303 Clear 1 1001 95 10000 3.05 285 05:31 30.12.2020
4304 Clear 1 1001 94 10000 2.95 287 04:29 30.12.2020
4305 Clouds 2 1000 86 10000 4.1 260 03:28 30.12.2020
4306 Clouds 2 999 86 10000 5.7 280 02:38 30.12.2020
4307 Clear 2 1000 93 10000 2.79 293 01:51 30.12.2020
4308 Clear 2 1000 93 10000 2.79 293 01:32 30.12.2020
4309 Clouds 3 999 92 10000 2.72 302 00:47 30.12.2020
4310 Clouds 3 998 86 10000 3.1 300 00:29 30.12.2020
4311 Clouds 4 998 91 10000 2.77 317 23:53 29.12.2020
4312 Clouds 4 998 80 10000 2.6 300 23:35 29.12.2020
4313 Clouds 4 998 91 10000 2.78 321 22:56 29.12.2020
4314 Clouds 4 997 80 10000 2.1 320 22:37 29.12.2020
4315 Clouds 4 997 80 10000 3.1 300 22:19 29.12.2020
4316 Clouds 4 996 86 10000 2.6 330 21:44 29.12.2020
4317 Clouds 4 996 86 10000 2.6 330 21:24 29.12.2020
4318 Clouds 4 995 86 10000 2.1 340 20:45 29.12.2020
4319 Clouds 4 995 86 10000 2.1 340 20:25 29.12.2020
4320 Clouds 4 994 80 10000 2.6 300 19:46 29.12.2020
4321 Clouds 4 994 80 10000 2.6 300 19:23 29.12.2020
4322 Clouds 4 993 75 10000 3.1 300 18:54 29.12.2020
4323 Clouds 3 994 90 10000 2.28 329 18:31 29.12.2020
4324 Clouds 3 993 89 10000 2.28 329 17:56 29.12.2020
4325 Clouds 3 993 89 10000 2.28 329 17:36 29.12.2020
4326 Clouds 3 993 89 10000 2.5 325 17:18 29.12.2020
4327 Clouds 3 992 88 10000 2.5 325 16:34 29.12.2020
4328 Clouds 3 991 83 10000 1.5 0 15:53 29.12.2020
4329 Clouds 3 991 83 10000 1.5 0 15:34 29.12.2020
4330 Clouds 3 990 79 10000 2.6 270 14:56 29.12.2020
4331 Clouds 3 990 79 10000 3.1 310 14:36 29.12.2020
4332 Clouds 3 990 74 10000 3.1 300 14:18 29.12.2020
4333 Clouds 3 990 74 10000 2.1 310 13:39 29.12.2020
4334 Clouds 3 989 76 10000 2.6 260 13:18 29.12.2020
4335 Clouds 2 989 75 10000 1.5 260 12:37 29.12.2020
4336 Clouds 2 989 78 10000 2.6 300 12:19 29.12.2020
4337 Clouds 2 989 78 10000 2.6 300 11:50 29.12.2020
4338 Clouds 2 988 82 10000 2.6 290 11:31 29.12.2020
4339 Clouds 2 988 80 10000 3.1 300 10:22 29.12.2020
4340 Clouds 1 987 86 10000 2.1 290 09:47 29.12.2020
4341 Clouds 1 986 87 10000 2.1 290 09:19 29.12.2020
4342 Clouds 1 986 87 10000 2.1 290 08:50 29.12.2020
4343 Clouds 1 986 87 10000 3.1 300 08:19 29.12.2020
4344 Clouds 1 985 87 10000 3.6 250 07:26 29.12.2020
4345 Clouds 1 985 86 10000 4.6 250 06:26 29.12.2020
4346 Clouds 2 983 81 10000 4.6 290 03:32 29.12.2020
4347 Clouds 3 981 86 9000 5.1 300 00:47 29.12.2020
4348 Clouds 3 981 86 10000 4.6 300 00:20 29.12.2020
4349 Clouds 3 980 86 10000 3.6 300 23:34 28.12.2020
4350 Clouds 3 980 86 5000 4.1 300 22:28 28.12.2020
4351 Clouds 3 979 86 6000 3.1 300 21:45 28.12.2020
4352 Clouds 3 979 86 6000 3.1 300 21:26 28.12.2020
4353 Clouds 2 978 93 6000 2.6 300 20:43 28.12.2020
4354 Haze 2 978 93 5000 3.1 300 20:22 28.12.2020
4355 Clouds 2 978 93 8000 3.1 320 19:49 28.12.2020
4356 Clouds 2 978 93 8000 3.1 320 19:24 28.12.2020
4357 Clouds 2 977 93 10000 2.6 330 18:53 28.12.2020
4358 Clouds 2 976 86 10000 3.6 350 18:28 28.12.2020
4359 Clouds 2 977 74 10000 3.67 9 17:47 28.12.2020
4360 Clouds 3 976 86 10000 2.6 360 17:29 28.12.2020
4361 Clouds 3 975 86 10000 2.1 360 16:50 28.12.2020
4362 Clouds 3 975 86 10000 2.6 360 16:28 28.12.2020
4363 Clouds 3 974 86 10000 2.6 360 15:53 28.12.2020
4364 Clouds 4 974 86 10000 2.6 360 15:30 28.12.2020
4365 Clouds 4 973 93 10000 1.5 0 14:29 28.12.2020
4366 Haze 3 973 93 4500 2.1 50 13:39 28.12.2020
4367 Haze 3 972 93 4500 2.1 60 13:19 28.12.2020
4368 Haze 3 973 93 4500 2.6 0 12:26 28.12.2020
4369 Haze 3 972 100 5000 2.6 50 11:55 28.12.2020
4370 Clouds 3 972 93 6000 2.1 60 11:36 28.12.2020
4371 Haze 2 972 93 4600 1.5 0 11:18 28.12.2020
4372 Haze 1 972 77 5000 0.5 0 10:29 28.12.2020
4373 Haze 1 972 77 2500 1 0 09:57 28.12.2020
4374 Clouds 1 972 77 7000 3.1 120 09:37 28.12.2020
4375 Clouds 0 972 95 10000 0.45 113 09:18 28.12.2020
4376 Clouds 2 971 86 10000 1.5 0 06:53 28.12.2020
4377 Clouds 1 971 94 10000 1.84 232 05:18 28.12.2020
4378 Clouds 2 972 86 10000 0.5 0 03:34 28.12.2020
4379 Clouds 3 972 86 10000 1.5 0 01:54 28.12.2020
4380 Clouds 2 973 86 10000 1 0 23:55 27.12.2020
4381 Clouds 3 973 73 10000 1.5 0 23:29 27.12.2020
4382 Clouds 3 973 89 10000 2.39 209 22:40 27.12.2020
4383 Clouds 3 973 72 10000 1.5 0 21:55 27.12.2020
4384 Clouds 3 973 72 10000 1.5 0 21:22 27.12.2020
4385 Clouds 3 973 80 10000 2.1 220 20:32 27.12.2020
4386 Clear 4 973 70 10000 2.6 220 19:24 27.12.2020
4387 Clear 4 973 86 10000 3.61 227 18:51 27.12.2020
4388 Clear 4 973 66 10000 3.6 240 18:22 27.12.2020
4389 Clear 5 973 66 10000 3.6 240 17:59 27.12.2020
4390 Clear 5 974 66 10000 3.6 240 17:39 27.12.2020
4391 Clear 5 974 60 10000 4.6 250 17:18 27.12.2020
4392 Clear 6 974 62 10000 6.2 250 16:25 27.12.2020
4393 Clouds 7 974 62 10000 5.7 250 15:34 27.12.2020
4394 Clouds 7 975 65 10000 5.7 260 14:57 27.12.2020
4395 Clouds 7 975 65 10000 5.7 260 14:38 27.12.2020
4396 Clouds 6 975 75 10000 6.2 250 13:42 27.12.2020
4397 Clouds 7 976 81 10000 5.1 260 13:19 27.12.2020
4398 Clouds 7 976 81 10000 4.6 250 12:38 27.12.2020
4399 Clouds 6 976 75 10000 5.1 230 11:46 27.12.2020
4400 Rain 6 976 75 10000 5.1 230 11:28 27.12.2020
4401 Clouds 6 976 81 10000 5.1 240 10:51 27.12.2020
4402 Rain 6 976 81 10000 5.1 240 10:23 27.12.2020
4403 Clouds 7 976 81 10000 5.1 240 09:41 27.12.2020
4404 Clouds 7 977 81 10000 8.2 250 08:29 27.12.2020
4405 Clouds 7 977 81 10000 8.2 250 08:29 27.12.2020
4406 Rain 8 977 81 9000 9.3 250 07:59 27.12.2020
4407 Rain 8 978 76 5796 10.63 248 07:25 27.12.2020
4408 Rain 9 982 81 7000 10.3 220 05:44 27.12.2020
4409 Rain 9 987 87 10000 9.8 230 03:26 27.12.2020
4410 Rain 10 990 76 10000 9.8 220 02:42 27.12.2020
4411 Rain 10 993 76 10000 9.8 220 01:32 27.12.2020
4412 Clouds 10 997 76 10000 8.7 220 23:57 26.12.2020
4413 Clouds 10 999 76 10000 9.3 220 23:27 26.12.2020
4414 Clouds 10 1001 76 10000 7.7 220 22:47 26.12.2020
4415 Clouds 10 1001 76 10000 7.7 220 22:20 26.12.2020
4416 Clouds 10 1003 76 10000 8.2 230 21:57 26.12.2020
4417 Clouds 10 1004 71 10000 7.7 230 21:38 26.12.2020
4418 Clouds 10 1005 71 10000 8.7 230 21:19 26.12.2020
4419 Clouds 10 1006 71 10000 8.7 230 20:41 26.12.2020
4420 Clouds 10 1007 71 10000 7.7 230 20:18 26.12.2020
4421 Clouds 10 1008 71 10000 8.2 230 19:26 26.12.2020
4422 Clouds 10 1010 81 10000 6.7 230 18:52 26.12.2020
4423 Clouds 10 1010 81 10000 6.7 230 18:28 26.12.2020
4424 Clouds 10 1011 71 10000 7.7 230 17:41 26.12.2020
4425 Clouds 10 1012 81 10000 7.2 230 17:21 26.12.2020
4426 Clouds 10 1013 81 10000 5.7 230 16:36 26.12.2020
4427 Clouds 10 1015 71 10000 7.7 230 15:27 26.12.2020
4428 Clouds 10 1015 76 10000 6.7 240 14:54 26.12.2020
4429 Clouds 10 1016 76 10000 6.7 230 14:28 26.12.2020
4430 Clouds 9 1017 76 10000 6.2 240 13:53 26.12.2020
4431 Clouds 9 1017 81 10000 5.7 230 13:32 26.12.2020
4432 Clouds 9 1020 81 10000 5.1 240 12:50 26.12.2020
4433 Clouds 8 1020 81 10000 5.1 240 12:30 26.12.2020
4434 Clouds 8 1020 81 10000 4.6 240 11:58 26.12.2020
4435 Clouds 7 1020 87 10000 5.7 230 11:39 26.12.2020
4436 Clouds 7 1021 81 10000 6.2 230 11:18 26.12.2020
4437 Clouds 6 1021 87 10000 5.7 230 10:42 26.12.2020
4438 Clouds 6 1022 81 10000 5.1 240 10:22 26.12.2020
4439 Clouds 5 1022 81 10000 5.7 240 09:39 26.12.2020
4440 Clouds 5 1023 80 10000 5.1 240 08:41 26.12.2020
4441 Clouds 5 1023 80 10000 4.1 240 08:18 26.12.2020
4442 Clouds 4 1023 80 10000 4.6 240 07:20 26.12.2020
4443 Clouds 2 1025 82 10000 3.6 240 04:39 26.12.2020
4444 Clouds 1 1027 89 10000 3.3 237 02:34 26.12.2020
4445 Clouds 1 1029 74 10000 4.1 240 00:36 26.12.2020
4446 Clouds 1 1029 87 10000 0.45 268 23:49 25.12.2020
4447 Clouds 1 1029 87 10000 2.95 262 23:28 25.12.2020
4448 Clouds 1 1029 69 10000 4.1 240 22:52 25.12.2020
4449 Clouds 1 1029 69 10000 4.1 240 22:26 25.12.2020
4450 Clouds 2 1029 69 10000 3.6 230 21:43 25.12.2020
4451 Clouds 2 1030 64 10000 3.6 250 21:25 25.12.2020
4452 Clouds 2 1030 64 10000 3.1 240 20:45 25.12.2020
4453 Clouds 2 1030 64 10000 3.1 240 20:27 25.12.2020
4454 Clouds 2 1030 80 10000 1.94 277 19:43 25.12.2020
4455 Clouds 2 1030 81 10000 2.45 298 18:49 25.12.2020
4456 Clouds 2 1030 81 10000 2.45 298 18:30 25.12.2020
4457 Clear 3 1031 60 10000 3.6 300 17:35 25.12.2020
4458 Clear 4 1030 60 10000 4.1 300 16:56 25.12.2020
4459 Clouds 4 1030 60 10000 4.6 300 16:25 25.12.2020
4460 Clouds 4 1030 60 10000 4.6 300 15:51 25.12.2020
4461 Clouds 4 1031 60 10000 4.1 290 15:32 25.12.2020
4462 Clouds 4 1031 64 10000 3.1 300 14:44 25.12.2020
4463 Clouds 4 1031 64 10000 3.6 290 14:21 25.12.2020
4464 Clouds 4 1032 64 10000 4.1 290 13:43 25.12.2020
4465 Clear 3 1032 64 10000 4.1 290 13:24 25.12.2020
4466 Clear 3 1032 69 10000 3.1 300 12:29 25.12.2020
4467 Clouds 2 1032 69 10000 3.1 300 11:50 25.12.2020
4468 Clear 2 1032 74 10000 3.6 300 11:25 25.12.2020
4469 Clear 1 1032 74 10000 3.6 300 10:49 25.12.2020
4470 Clear 1 1031 74 10000 2.6 300 10:23 25.12.2020
4471 Clear 1 1031 74 10000 3.6 310 09:27 25.12.2020
4472 Clear 1 1031 74 10000 4.6 300 08:47 25.12.2020
4473 Clear 1 1030 74 10000 4.1 300 07:57 25.12.2020
4474 Clouds 2 1030 74 10000 4.1 300 06:44 25.12.2020
4475 Clouds 3 1029 78 10000 5.1 310 02:50 25.12.2020
4476 Clouds 4 1028 74 10000 4.6 310 01:18 25.12.2020
4477 Clouds 4 1028 80 10000 4.6 310 00:18 25.12.2020
4478 Clouds 3 1027 71 10000 5.7 310 23:23 24.12.2020
4479 Clouds 3 1027 69 10000 5.1 300 22:41 24.12.2020
4480 Clouds 3 1027 69 10000 5.1 300 22:20 24.12.2020
4481 Clear 3 1027 69 10000 5.1 300 21:33 24.12.2020
4482 Clouds 3 1027 75 10000 5.7 310 20:36 24.12.2020
4483 Clouds 4 1025 75 10000 3.6 300 18:51 24.12.2020
4484 Clouds 4 1024 75 10000 4.1 0 18:18 24.12.2020
4485 Clouds 4 1024 75 10000 4.1 320 17:37 24.12.2020
4486 Clouds 5 1023 66 10000 4.1 320 16:45 24.12.2020
4487 Clouds 5 1023 67 10000 5.1 330 16:22 24.12.2020
4488 Clouds 5 1023 67 10000 5.1 320 15:42 24.12.2020
4489 Clouds 5 1022 66 10000 4.6 330 15:19 24.12.2020
4490 Clouds 5 1022 66 10000 5.7 330 14:49 24.12.2020
4491 Clouds 5 1022 66 10000 5.7 320 14:24 24.12.2020
4492 Clouds 5 1022 66 10000 4.6 320 13:48 24.12.2020
4493 Clouds 5 1022 66 10000 4.6 320 13:29 24.12.2020
4494 Clouds 5 1022 67 10000 5.1 310 12:44 24.12.2020
4495 Clouds 5 1021 68 10000 4.6 320 12:21 24.12.2020
4496 Clouds 4 1021 68 10000 5.1 320 11:47 24.12.2020
4497 Clouds 4 1020 75 10000 6.2 310 11:21 24.12.2020
4498 Clouds 4 1020 75 10000 6.2 310 10:53 24.12.2020
4499 Clouds 4 1020 75 10000 5.1 310 10:35 24.12.2020
4500 Clouds 4 1018 80 10000 4.1 330 09:52 24.12.2020
4501 Clouds 4 1018 80 10000 4.1 330 09:30 24.12.2020
4502 Clouds 5 1017 75 10000 5.1 330 08:43 24.12.2020
4503 Clouds 6 1015 75 10000 5.7 340 07:43 24.12.2020
4504 Clouds 6 1015 75 10000 5.7 340 07:20 24.12.2020
4505 Rain 6 1014 81 10000 6.7 350 05:49 24.12.2020
4506 Rain 6 1008 81 10000 6.7 360 02:33 24.12.2020
4507 Rain 7 1007 81 10000 6.7 360 01:45 24.12.2020
4508 Clouds 7 1007 72 10000 8.24 1 01:18 24.12.2020
4509 Clouds 9 1004 87 10000 2.6 240 00:22 24.12.2020
4510 Clouds 8 1004 81 10000 3.1 230 23:49 23.12.2020
4511 Clouds 9 1004 81 10000 3.1 230 23:31 23.12.2020
4512 Clouds 9 1004 81 10000 2.1 230 22:59 23.12.2020
4513 Clouds 9 1004 81 10000 2.1 230 22:39 23.12.2020
4514 Clouds 9 1003 87 10000 2.1 230 22:18 23.12.2020
4515 Clouds 9 1003 81 10000 3.1 210 21:31 23.12.2020
4516 Clouds 9 1003 87 10000 2.6 210 20:57 23.12.2020
4517 Clouds 10 1003 87 10000 4.1 200 20:37 23.12.2020
4518 Clouds 10 1002 76 10000 4.6 210 20:19 23.12.2020
4519 Clouds 10 1002 81 10000 3.6 200 19:41 23.12.2020
4520 Clouds 10 1002 81 10000 3.6 200 19:22 23.12.2020
4521 Clouds 10 1002 81 10000 4.1 200 18:52 23.12.2020
4522 Clouds 10 1002 81 10000 4.1 200 18:34 23.12.2020
4523 Clouds 10 1002 92 10000 4.14 202 17:43 23.12.2020
4524 Rain 11 1001 81 10000 4.6 210 17:22 23.12.2020
4525 Clouds 11 1002 93 10000 4.15 203 16:56 23.12.2020
4526 Clouds 11 1002 92 10000 4.85 211 16:31 23.12.2020
4527 Clouds 12 1001 82 10000 3.6 230 15:59 23.12.2020
4528 Rain 12 1002 87 9000 5.7 240 15:39 23.12.2020
4529 Clouds 12 1002 87 2900 4.1 230 15:21 23.12.2020
4530 Clouds 12 1002 94 10000 4.94 213 14:46 23.12.2020
4531 Rain 12 1002 94 10000 4.99 210 14:23 23.12.2020
4532 Rain 13 1003 87 9000 3.1 160 13:47 23.12.2020
4533 Clouds 13 1004 87 10000 3.1 170 13:21 23.12.2020
4534 Rain 13 1004 87 10000 3.1 170 12:58 23.12.2020
4535 Rain 13 1004 87 2900 3.1 130 12:38 23.12.2020
4536 Clouds 12 1005 93 10000 3.1 120 12:18 23.12.2020
4537 Clouds 12 1005 93 10000 2.1 110 11:45 23.12.2020
4538 Clouds 12 1005 93 10000 1.5 0 10:57 23.12.2020
4539 Clouds 12 1006 93 10000 2.1 140 10:39 23.12.2020
4540 Clouds 11 1006 93 10000 2.1 210 10:19 23.12.2020
4541 Rain 11 1006 93 10000 1.5 0 09:26 23.12.2020
4542 Clouds 11 1007 96 10000 2.08 151 08:42 23.12.2020
4543 Clouds 12 1007 96 10000 2.01 161 07:51 23.12.2020
4544 Clouds 12 1007 96 10000 1.76 176 07:20 23.12.2020
4545 Clouds 12 1007 96 10000 1.45 189 06:38 23.12.2020
4546 Clouds 12 1008 96 10000 2.11 220 05:26 23.12.2020
4547 Clouds 12 1008 97 10000 2.11 220 04:51 23.12.2020
4548 Clouds 11 1011 93 10000 1 0 00:34 23.12.2020
4549 Clouds 11 1011 93 7000 1.5 90 23:48 22.12.2020
4550 Clouds 11 1011 93 7000 1.5 90 23:28 22.12.2020
4551 Clouds 10 1011 93 6000 1.5 60 22:44 22.12.2020
4552 Clouds 10 1011 93 6000 1.5 60 22:25 22.12.2020
4553 Haze 10 1012 93 5000 1.5 110 21:57 22.12.2020
4554 Clouds 11 1012 93 6000 2.1 90 21:38 22.12.2020
4555 Clouds 11 1011 93 6000 3.1 90 21:19 22.12.2020
4556 Clouds 10 1012 93 6000 2.6 110 20:48 22.12.2020
4557 Clouds 10 1012 93 6000 2.6 110 20:21 22.12.2020
4558 Clouds 10 1012 93 2400 3.6 80 19:44 22.12.2020
4559 Clouds 10 1012 93 6000 3.1 80 19:21 22.12.2020
4560 Clouds 10 1012 93 10000 3.1 80 18:54 22.12.2020
4561 Clouds 10 1012 93 10000 3.1 80 18:30 22.12.2020
4562 Rain 11 1012 87 7000 3.1 80 17:59 22.12.2020
4563 Clouds 11 1013 87 10000 2.6 90 17:26 22.12.2020
4564 Clouds 11 1013 87 10000 2.6 90 16:56 22.12.2020
4565 Clouds 11 1013 87 10000 2.1 100 16:37 22.12.2020
4566 Clouds 11 1013 87 10000 1.5 100 16:19 22.12.2020
4567 Clouds 11 1013 87 10000 2.1 90 15:43 22.12.2020
4568 Clouds 11 1013 87 10000 2.1 90 15:23 22.12.2020
4569 Clouds 11 1013 87 10000 1.5 0 14:45 22.12.2020
4570 Clouds 11 1013 87 10000 1.5 0 14:27 22.12.2020
4571 Clouds 11 1013 87 10000 1 0 13:50 22.12.2020
4572 Clouds 11 1013 87 10000 2.1 360 13:20 22.12.2020
4573 Clouds 11 1013 87 10000 2.1 360 12:59 22.12.2020
4574 Clouds 11 1013 87 10000 1.5 0 12:40 22.12.2020
4575 Clouds 11 1013 81 10000 2.1 310 12:19 22.12.2020
4576 Drizzle 11 1013 87 5000 1 0 11:43 22.12.2020
4577 Clouds 11 1012 81 10000 1.5 300 11:23 22.12.2020
4578 Clouds 11 1012 81 10000 1.5 300 10:56 22.12.2020
4579 Clouds 11 1012 87 10000 2.6 280 10:28 22.12.2020
4580 Clouds 11 1011 87 10000 2.6 280 09:59 22.12.2020
4581 Clouds 11 1011 87 10000 2.6 280 09:31 22.12.2020
4582 Clouds 11 1011 90 10000 3.13 258 08:59 22.12.2020
4583 Clouds 11 1010 81 10000 5.7 260 08:40 22.12.2020
4584 Clouds 12 1009 76 10000 6.7 260 08:19 22.12.2020
4585 Clouds 12 1008 76 10000 8.2 270 07:46 22.12.2020
4586 Clouds 13 1009 87 10000 1.79 267 06:36 22.12.2020
4587 Clouds 13 1007 87 10000 1.79 271 05:34 22.12.2020
4588 Clouds 14 1004 87 9000 8.2 240 02:35 22.12.2020
4589 Clouds 13 1003 87 10000 6.7 230 00:30 22.12.2020
4590 Clouds 13 1003 87 10000 5.1 230 23:51 21.12.2020
4591 Clouds 13 1004 87 10000 6.2 230 23:23 21.12.2020
4592 Rain 13 1003 87 10000 5.7 230 22:37 21.12.2020
4593 Clouds 13 1004 87 10000 6.2 230 22:19 21.12.2020
4594 Clouds 13 1003 87 10000 6.2 230 21:48 21.12.2020
4595 Clouds 13 1003 87 10000 6.2 230 21:30 21.12.2020
4596 Clouds 13 1003 87 10000 5.1 230 20:46 21.12.2020
4597 Clouds 13 1003 87 10000 5.1 230 20:23 21.12.2020
4598 Rain 13 1003 87 10000 5.1 230 19:55 21.12.2020
4599 Rain 13 1003 87 10000 6.2 230 19:37 21.12.2020
4600 Rain 13 1003 87 10000 5.7 230 19:18 21.12.2020
4601 Rain 13 1003 87 10000 4.6 230 18:49 21.12.2020
4602 Rain 13 1003 87 10000 4.6 230 18:31 21.12.2020
4603 Clouds 13 1003 87 10000 5.7 230 17:43 21.12.2020
4604 Clouds 13 1003 87 10000 5.7 230 17:24 21.12.2020
4605 Clouds 13 1003 87 10000 5.1 220 16:46 21.12.2020
4606 Clouds 13 1003 87 10000 6.7 230 16:25 21.12.2020
4607 Clouds 14 1003 87 10000 6.7 230 15:45 21.12.2020
4608 Clouds 14 1003 87 10000 6.7 230 15:27 21.12.2020
4609 Clouds 13 1003 87 10000 6.7 230 14:56 21.12.2020
4610 Clouds 13 1003 82 10000 5.7 230 14:21 21.12.2020
4611 Clouds 13 1003 87 10000 4.6 220 13:42 21.12.2020
4612 Clouds 13 1003 87 10000 4.6 220 13:24 21.12.2020
4613 Clouds 12 1004 87 10000 4.1 200 12:43 21.12.2020
4614 Clouds 12 1004 87 10000 4.1 200 12:24 21.12.2020
4615 Clouds 11 1005 87 9000 4.1 160 11:55 21.12.2020
4616 Clouds 11 1005 87 9000 4.1 160 11:37 21.12.2020
4617 Clouds 10 1005 87 7000 4.6 150 11:18 21.12.2020
4618 Rain 10 1006 87 4700 5.1 150 10:40 21.12.2020
4619 Rain 10 1006 87 4700 5.1 150 10:21 21.12.2020
4620 Clouds 10 1007 93 4900 4.6 130 09:43 21.12.2020
4621 Drizzle 10 1007 93 4900 4.6 130 09:24 21.12.2020
4622 Rain 9 1008 93 7000 4.6 120 08:47 21.12.2020
4623 Clouds 9 1010 93 10000 4.1 120 07:48 21.12.2020
4624 Clouds 9 1011 87 10000 3.1 130 06:22 21.12.2020
4625 Rain 8 1013 93 10000 3.37 178 04:32 21.12.2020
4626 Clouds 8 1015 81 10000 3.1 220 01:25 21.12.2020
4627 Clouds 7 1016 81 10000 3.1 210 00:31 21.12.2020
4628 Clouds 7 1016 81 10000 3.1 220 23:34 20.12.2020
4629 Clouds 7 1016 81 10000 4.1 210 22:59 20.12.2020
4630 Clouds 7 1016 75 10000 3.1 220 22:40 20.12.2020
4631 Clear 7 1016 75 10000 2.1 230 22:21 20.12.2020
4632 Clear 7 1015 75 10000 2.1 230 21:39 20.12.2020
4633 Clear 7 1015 75 10000 2.6 210 21:20 20.12.2020
4634 Clear 7 1015 89 10000 3.85 229 20:50 20.12.2020
4635 Clear 7 1015 89 10000 4.23 234 20:23 20.12.2020
4636 Clear 7 1015 88 10000 4.23 234 19:46 20.12.2020
4637 Clear 8 1015 76 10000 3.1 230 19:28 20.12.2020
4638 Clouds 8 1014 76 10000 2.6 220 18:58 20.12.2020
4639 Clouds 8 1014 76 10000 3.1 230 18:38 20.12.2020
4640 Clouds 8 1015 88 10000 3.86 225 18:20 20.12.2020
4641 Clouds 9 1014 71 10000 4.6 230 17:44 20.12.2020
4642 Clouds 8 1014 86 10000 3.69 230 17:23 20.12.2020
4643 Clouds 9 1013 71 10000 3.6 230 16:45 20.12.2020
4644 Clouds 10 1013 71 10000 4.6 230 16:27 20.12.2020
4645 Clouds 10 1013 66 10000 5.1 230 15:48 20.12.2020
4646 Clouds 10 1013 66 10000 5.1 230 15:25 20.12.2020
4647 Clouds 10 1012 66 10000 6.7 230 14:54 20.12.2020
4648 Clouds 10 1012 66 10000 6.7 230 14:33 20.12.2020
4649 Clear 10 1012 71 10000 5.7 230 13:47 20.12.2020
4650 Clouds 10 1012 71 10000 5.7 230 13:25 20.12.2020
4651 Clouds 9 1012 71 10000 5.1 220 12:58 20.12.2020
4652 Clouds 9 1012 71 10000 5.1 210 12:39 20.12.2020
4653 Clouds 9 1012 76 10000 4.6 220 12:20 20.12.2020
4654 Clouds 8 1012 76 10000 4.1 210 11:43 20.12.2020
4655 Clouds 8 1012 81 10000 4.6 200 11:18 20.12.2020
4656 Clouds 7 1012 81 10000 4.6 200 10:45 20.12.2020
4657 Clouds 7 1011 75 10000 5.1 200 10:20 20.12.2020
4658 Clouds 7 1011 75 10000 4.1 200 09:45 20.12.2020
4659 Clouds 7 1011 75 10000 4.1 200 09:27 20.12.2020
4660 Clouds 7 1011 75 10000 4.6 200 08:56 20.12.2020
4661 Clouds 7 1011 75 10000 4.1 200 08:37 20.12.2020
4662 Clouds 7 1011 81 9000 5.1 230 07:25 20.12.2020
4663 Clouds 8 1010 70 10000 4.6 200 05:44 20.12.2020
4664 Clouds 8 1010 90 10000 4.43 209 02:20 20.12.2020
4665 Clouds 8 1009 81 10000 4.6 200 00:38 20.12.2020
4666 Clouds 8 1009 81 10000 4.6 200 00:38 20.12.2020
4667 Clouds 8 1008 81 10000 4.1 190 23:21 19.12.2020
4668 Clouds 8 1008 81 10000 4.1 190 22:57 19.12.2020
4669 Clouds 8 1008 76 10000 4.1 200 22:38 19.12.2020
4670 Clouds 8 1008 76 10000 4.1 210 22:19 19.12.2020
4671 Clouds 8 1008 81 5000 3.6 220 21:42 19.12.2020
4672 Clouds 9 1008 81 5000 3.6 220 21:24 19.12.2020
4673 Rain 9 1007 76 10000 5.1 190 20:45 19.12.2020
4674 Clouds 9 1008 92 10000 5.07 204 20:22 19.12.2020
4675 Clouds 9 1007 76 10000 5.7 210 19:55 19.12.2020
4676 Clouds 9 1007 76 10000 5.7 220 19:36 19.12.2020
4677 Clouds 9 1007 81 10000 5.7 230 19:18 19.12.2020
4678 Rain 9 1006 76 10000 4.6 200 18:31 19.12.2020
4679 Rain 10 1006 76 8000 7.2 200 17:50 19.12.2020
4680 Clouds 10 1006 76 8000 7.2 200 17:29 19.12.2020
4681 Clouds 10 1006 71 10000 5.1 200 16:56 19.12.2020
4682 Rain 10 1006 71 10000 6.2 210 16:38 19.12.2020
4683 Clouds 11 1006 71 10000 6.2 210 16:19 19.12.2020
4684 Clouds 11 1005 62 10000 7.2 200 15:47 19.12.2020
4685 Clear 11 1005 66 10000 6.7 200 15:18 19.12.2020
4686 Rain 12 1005 71 10000 6.2 210 14:35 19.12.2020
4687 Clear 12 1005 76 10000 4.6 200 13:42 19.12.2020
4688 Clouds 11 1005 76 10000 4.6 200 13:23 19.12.2020
4689 Clouds 11 1005 76 10000 4.6 210 12:57 19.12.2020
4690 Clouds 11 1005 76 10000 5.1 210 12:38 19.12.2020
4691 Clouds 11 1005 81 10000 5.1 200 12:20 19.12.2020
4692 Clouds 11 1004 81 10000 4.6 210 11:44 19.12.2020
4693 Clouds 11 1004 81 10000 4.1 200 11:19 19.12.2020
4694 Clouds 11 1004 95 10000 5.39 210 10:42 19.12.2020
4695 Clouds 11 1004 95 10000 4.26 205 10:18 19.12.2020
4696 Clouds 10 1003 95 10000 4.26 205 09:41 19.12.2020
4697 Clouds 10 1003 87 10000 5.1 180 08:59 19.12.2020
4698 Clouds 10 1003 87 10000 5.1 180 08:20 19.12.2020
4699 Rain 10 1003 87 10000 5.7 180 07:20 19.12.2020
4700 Rain 10 1003 81 10000 5.1 160 06:50 19.12.2020
4701 Rain 10 1003 71 10000 6.7 170 05:24 19.12.2020
4702 Clouds 11 1004 71 10000 5.7 170 03:50 19.12.2020
4703 Clouds 11 1006 90 10000 0.45 148 01:21 19.12.2020
4704 Clouds 11 1006 76 10000 6.2 160 00:36 19.12.2020
4705 Clouds 11 1007 81 10000 5.7 170 00:18 19.12.2020
4706 Clouds 12 1007 81 10000 5.1 160 23:44 18.12.2020
4707 Clouds 11 1007 81 10000 5.1 160 23:21 18.12.2020
4708 Clouds 11 1007 91 10000 0.45 100 22:43 18.12.2020
4709 Clouds 11 1008 92 10000 6.68 181 22:20 18.12.2020
4710 Clouds 12 1008 76 10000 6.2 180 21:47 18.12.2020
4711 Clouds 12 1008 76 10000 5.1 180 21:28 18.12.2020
4712 Clouds 11 1008 94 10000 0.45 108 20:38 18.12.2020
4713 Clouds 11 1009 87 10000 4.6 190 20:19 18.12.2020
4714 Clouds 11 1009 87 10000 4.6 190 19:41 18.12.2020
4715 Clouds 11 1009 87 10000 4.6 190 19:20 18.12.2020
4716 Clouds 11 1010 87 7000 5.1 190 18:39 18.12.2020
4717 Clouds 11 1010 87 7000 5.7 190 18:20 18.12.2020
4718 Clouds 11 1010 87 10000 6.7 200 17:22 18.12.2020
4719 Clouds 11 1010 81 10000 6.2 200 16:49 18.12.2020
4720 Rain 11 1010 81 10000 6.2 200 16:27 18.12.2020
4721 Clouds 11 1010 81 10000 7.2 200 15:58 18.12.2020
4722 Clouds 11 1010 81 10000 5.7 200 15:39 18.12.2020
4723 Rain 11 1010 81 10000 5.1 200 15:20 18.12.2020
4724 Clouds 11 1010 81 5000 6.7 200 14:54 18.12.2020
4725 Clouds 11 1010 81 10000 5.1 200 14:54 18.12.2020
4726 Clouds 11 1011 81 10000 6.7 200 14:21 18.12.2020
4727 Rain 11 1011 81 10000 6.7 200 13:50 18.12.2020
4728 Rain 11 1011 81 10000 6.7 200 13:27 18.12.2020
4729 Clouds 11 1012 81 10000 5.1 200 12:47 18.12.2020
4730 Clouds 11 1012 81 10000 7.2 200 11:59 18.12.2020
4731 Clouds 11 1012 87 10000 7.2 200 11:23 18.12.2020
4732 Clouds 11 1013 95 10000 7.05 197 10:40 18.12.2020
4733 Clouds 11 1013 95 10000 7.05 197 10:40 18.12.2020
4734 Clouds 11 1012 87 10000 5.7 190 10:20 18.12.2020
4735 Clouds 11 1013 95 10000 6.73 197 09:39 18.12.2020
4736 Clouds 11 1013 95 10000 6.88 201 09:21 18.12.2020
4737 Clouds 11 1013 95 10000 6.88 201 08:54 18.12.2020
4738 Clouds 11 1013 95 10000 6.89 202 08:30 18.12.2020
4739 Rain 11 1012 81 10000 5.1 200 07:46 18.12.2020
4740 Clouds 11 1013 81 10000 5.1 200 07:18 18.12.2020
4741 Clouds 11 1013 87 7000 5.1 200 06:51 18.12.2020
4742 Clouds 11 1013 81 10000 5.7 200 05:42 18.12.2020
4743 Clouds 11 1013 81 10000 6.2 200 04:51 18.12.2020
4744 Clouds 11 1014 76 10000 5.7 210 02:24 18.12.2020
4745 Clouds 11 1015 91 10000 6.94 199 01:40 18.12.2020
4746 Clouds 11 1015 76 10000 5.1 200 00:28 18.12.2020
4747 Clouds 11 1016 90 10000 5.56 193 23:50 17.12.2020
4748 Clouds 11 1016 81 10000 3.6 190 23:19 17.12.2020
4749 Clouds 10 1016 91 10000 5.14 196 22:47 17.12.2020
4750 Clouds 10 1016 91 10000 5.23 196 22:27 17.12.2020
4751 Clouds 10 1017 81 10000 4.1 200 21:44 17.12.2020
4752 Clouds 10 1017 81 10000 3.1 190 21:20 17.12.2020
4753 Clouds 10 1017 81 10000 3.1 190 20:45 17.12.2020
4754 Clouds 10 1017 81 10000 3.1 200 20:19 17.12.2020
4755 Clouds 10 1017 81 10000 3.1 210 19:49 17.12.2020
4756 Clouds 10 1017 81 10000 3.6 210 19:25 17.12.2020
4757 Clouds 10 1017 81 10000 3.6 210 18:56 17.12.2020
4758 Clouds 10 1016 76 10000 2.6 200 18:37 17.12.2020
4759 Clear 10 1016 76 10000 3.6 210 18:18 17.12.2020
4760 Clear 10 1016 76 10000 3.6 220 17:44 17.12.2020
4761 Clear 10 1016 76 10000 3.6 220 17:25 17.12.2020
4762 Clear 10 1016 85 10000 3.12 204 16:39 17.12.2020
4763 Clear 11 1016 66 10000 5.7 230 16:19 17.12.2020
4764 Clear 11 1016 66 10000 5.1 230 15:45 17.12.2020
4765 Clear 11 1016 66 10000 5.1 230 15:27 17.12.2020
4766 Clear 11 1016 71 10000 3.6 210 14:49 17.12.2020
4767 Clouds 11 1016 71 10000 5.1 230 14:22 17.12.2020
4768 Clear 11 1016 71 10000 4.6 230 13:48 17.12.2020
4769 Clear 11 1016 71 10000 4.6 230 13:23 17.12.2020
4770 Clear 10 1016 71 10000 3.6 240 12:43 17.12.2020
4771 Clear 10 1016 71 10000 3.6 240 12:24 17.12.2020
4772 Clear 10 1015 76 10000 4.6 240 11:43 17.12.2020
4773 Clear 9 1015 76 10000 4.6 240 11:22 17.12.2020
4774 Clear 8 1014 87 10000 2.1 220 10:49 17.12.2020
4775 Clear 7 1013 87 10000 2.1 230 09:42 17.12.2020
4776 Clear 7 1013 87 10000 2.1 230 09:21 17.12.2020
4777 Clear 7 1012 87 10000 2.6 220 07:49 17.12.2020
4778 Clear 7 1012 87 10000 2.6 230 07:28 17.12.2020
4779 Clouds 7 1011 87 10000 2.6 230 06:51 17.12.2020
4780 Clouds 7 1011 87 10000 2.6 230 06:32 17.12.2020
4781 Clear 8 1010 93 10000 3.84 232 03:55 17.12.2020
4782 Clouds 9 1009 95 10000 3.28 198 00:29 17.12.2020
4783 Clouds 9 1009 81 10000 3.1 200 23:51 16.12.2020
4784 Clouds 8 1008 81 10000 2.1 180 23:19 16.12.2020
4785 Clouds 8 1009 94 10000 3.28 199 22:52 16.12.2020
4786 Clouds 8 1008 81 10000 2.6 160 22:32 16.12.2020
4787 Clouds 8 1008 87 10000 2.1 210 21:47 16.12.2020
4788 Clouds 8 1008 87 10000 2.1 210 21:27 16.12.2020
4789 Clouds 8 1008 95 10000 2.45 201 20:54 16.12.2020
4790 Clouds 8 1008 95 10000 3.42 209 20:21 16.12.2020
4791 Clouds 8 1007 95 10000 3.42 209 19:50 16.12.2020
4792 Clouds 8 1007 94 10000 3.29 224 19:19 16.12.2020
4793 Rain 9 1006 87 10000 3.6 160 18:52 16.12.2020
4794 Rain 9 1006 87 10000 3.6 160 18:27 16.12.2020
4795 Rain 9 1006 81 10000 4.6 150 17:43 16.12.2020
4796 Rain 9 1006 81 9000 5.1 150 17:18 16.12.2020
4797 Rain 10 1006 81 9000 5.1 150 16:39 16.12.2020
4798 Clouds 10 1006 71 10000 5.1 150 16:20 16.12.2020
4799 Rain 10 1006 71 10000 5.1 150 15:49 16.12.2020
4800 Rain 10 1006 71 10000 6.2 150 15:26 16.12.2020
4801 Rain 10 1007 71 10000 5.7 150 14:47 16.12.2020
4802 Rain 10 1007 71 10000 5.7 150 14:47 16.12.2020
4803 Clouds 11 1007 71 10000 6.2 160 14:28 16.12.2020
4804 Clouds 11 1007 71 10000 5.7 160 13:49 16.12.2020
4805 Clouds 10 1007 71 10000 5.7 160 13:28 16.12.2020
4806 Clouds 10 1007 71 10000 6.2 150 12:55 16.12.2020
4807 Clouds 10 1007 71 10000 7.2 150 12:34 16.12.2020
4808 Clouds 10 1008 76 10000 5.7 140 11:40 16.12.2020
4809 Clouds 10 1008 76 10000 4.6 150 11:22 16.12.2020
4810 Clouds 9 1008 76 10000 5.1 150 10:46 16.12.2020
4811 Clouds 9 1008 76 10000 5.1 150 10:25 16.12.2020
4812 Clouds 9 1008 90 10000 5.92 167 09:42 16.12.2020
4813 Clouds 9 1008 81 10000 5.7 160 08:42 16.12.2020
4814 Clouds 9 1008 81 10000 4.6 150 07:57 16.12.2020
4815 Clouds 9 1008 91 10000 5.79 162 07:38 16.12.2020
4816 Clouds 9 1008 81 10000 4.1 140 06:52 16.12.2020
4817 Clouds 8 1009 87 10000 3.1 130 02:26 16.12.2020
4818 Clouds 8 1009 87 10000 2.6 130 01:20 16.12.2020
4819 Clouds 8 1009 87 10000 2.6 120 23:45 15.12.2020
4820 Clouds 8 1009 94 10000 3.49 178 22:48 15.12.2020
4821 Clouds 8 1009 94 10000 3.12 179 22:25 15.12.2020
4822 Clouds 8 1009 94 10000 3.12 179 21:57 15.12.2020
4823 Clouds 8 1010 94 10000 3.12 179 21:38 15.12.2020
4824 Clouds 8 1009 94 10000 3.14 182 21:19 15.12.2020
4825 Clouds 8 1010 95 10000 3.14 182 20:44 15.12.2020
4826 Clouds 9 1009 81 10000 2.6 170 20:25 15.12.2020
4827 Clouds 9 1008 81 10000 3.1 170 19:52 15.12.2020
4828 Clouds 9 1008 81 10000 2.1 170 19:26 15.12.2020
4829 Clear 9 1008 81 10000 2.6 190 18:39 15.12.2020
4830 Clear 9 1008 81 10000 2.6 190 18:21 15.12.2020
4831 Clear 9 1008 94 10000 3.25 189 17:44 15.12.2020
4832 Clear 10 1007 76 10000 3.1 200 17:25 15.12.2020
4833 Clear 10 1007 94 10000 3.07 196 16:43 15.12.2020
4834 Clear 10 1007 94 10000 3.9 208 16:25 15.12.2020
4835 Clear 11 1007 76 10000 3.1 210 15:38 15.12.2020
4836 Clear 11 1007 76 10000 4.1 210 15:18 15.12.2020
4837 Clear 11 1006 71 10000 4.6 230 14:42 15.12.2020
4838 Clear 11 1006 76 10000 4.1 220 14:20 15.12.2020
4839 Clouds 11 1006 76 10000 4.6 210 13:51 15.12.2020
4840 Rain 11 1006 76 10000 4.6 210 13:26 15.12.2020
4841 Clouds 11 1006 76 10000 3.6 210 12:46 15.12.2020
4842 Clouds 10 1006 76 10000 3.6 220 12:20 15.12.2020
4843 Clouds 10 1006 76 10000 3.6 220 11:54 15.12.2020
4844 Clouds 10 1006 87 10000 3.6 220 11:25 15.12.2020
4845 Clouds 9 1005 87 10000 3.1 210 10:52 15.12.2020
4846 Clouds 9 1005 87 10000 4.6 220 10:23 15.12.2020
4847 Clouds 8 1005 95 10000 2.75 202 09:49 15.12.2020
4848 Clouds 8 1004 87 10000 4.1 200 09:31 15.12.2020
4849 Rain 8 1004 95 10000 2.96 198 08:47 15.12.2020
4850 Clouds 8 1004 95 10000 3.11 194 08:25 15.12.2020
4851 Clouds 8 1004 95 10000 3.11 194 07:49 15.12.2020
4852 Clouds 8 1004 95 10000 3.07 198 07:24 15.12.2020
4853 Clouds 9 1003 87 10000 5.1 200 06:28 15.12.2020
4854 Clear 8 1003 96 10000 3.56 193 02:55 15.12.2020
4855 Rain 9 1002 95 10000 3.29 193 00:34 15.12.2020
4856 Clouds 8 1002 95 10000 2.77 180 23:26 14.12.2020
4857 Clouds 9 1002 95 10000 2.77 180 22:55 14.12.2020
4858 Clouds 9 1002 95 10000 2.77 180 22:32 14.12.2020
4859 Clouds 8 1002 94 10000 2.82 197 21:45 14.12.2020
4860 Rain 9 1002 94 10000 3.23 223 21:22 14.12.2020
4861 Clouds 9 1002 94 10000 3.23 223 20:51 14.12.2020
4862 Rain 9 1001 87 10000 3.6 0 20:30 14.12.2020
4863 Rain 9 1001 87 8000 3.1 220 19:53 14.12.2020
4864 Rain 9 1001 71 10000 4.1 200 19:29 14.12.2020
4865 Rain 9 1001 92 6265 3.39 219 18:51 14.12.2020
4866 Rain 9 1001 91 10000 3.57 221 18:30 14.12.2020
4867 Rain 10 1001 90 10000 3.57 221 17:46 14.12.2020
4868 Rain 11 1000 81 10000 3.6 210 17:24 14.12.2020
4869 Clouds 11 1000 81 10000 2.6 210 16:50 14.12.2020
4870 Clouds 11 1000 81 10000 2.6 210 16:29 14.12.2020
4871 Rain 11 1000 71 10000 4.6 210 15:44 14.12.2020
4872 Rain 12 1000 71 10000 5.1 220 15:22 14.12.2020
4873 Rain 12 1000 71 10000 6.7 210 14:43 14.12.2020
4874 Clouds 12 1000 71 10000 6.7 210 14:24 14.12.2020
4875 Clouds 12 1000 81 10000 5.1 210 13:44 14.12.2020
4876 Clouds 12 1000 81 6000 5.7 210 13:22 14.12.2020
4877 Clouds 11 1000 76 10000 5.7 210 12:53 14.12.2020
4878 Rain 11 1000 76 10000 5.7 210 12:28 14.12.2020
4879 Clouds 11 1000 76 10000 5.7 220 11:35 14.12.2020
4880 Clouds 11 999 76 10000 6.2 210 10:48 14.12.2020
4881 Clouds 11 1000 93 10000 4.54 212 10:27 14.12.2020
4882 Clouds 10 998 81 10000 6.2 200 09:44 14.12.2020
4883 Clouds 10 998 87 10000 4.6 220 08:49 14.12.2020
4884 Clouds 10 998 87 10000 4.6 220 08:30 14.12.2020
4885 Clouds 10 997 81 10000 5.7 220 07:49 14.12.2020
4886 Clouds 10 997 81 10000 5.7 240 06:48 14.12.2020
4887 Rain 11 996 76 10000 5.1 200 05:37 14.12.2020
4888 Clouds 11 997 81 10000 4.6 190 03:29 14.12.2020
4889 Clouds 11 997 87 10000 4.6 190 00:57 14.12.2020
4890 Clouds 11 998 87 10000 4.1 210 00:34 14.12.2020
4891 Clouds 11 997 87 10000 4.6 200 23:58 13.12.2020
4892 Clouds 11 997 93 10000 3.1 190 23:40 13.12.2020
4893 Clouds 12 997 93 10000 4.1 190 22:51 13.12.2020
4894 Rain 12 997 93 10000 4.1 190 22:21 13.12.2020
4895 Clouds 12 997 87 10000 4.1 180 21:50 13.12.2020
4896 Clouds 12 997 87 10000 4.1 180 21:29 13.12.2020
4897 Clouds 11 997 87 10000 4.1 180 20:49 13.12.2020
4898 Clouds 11 998 87 4700 4.6 170 20:25 13.12.2020
4899 Rain 11 998 87 10000 4.1 160 19:45 13.12.2020
4900 Rain 11 998 87 10000 4.1 160 19:22 13.12.2020
4901 Rain 10 999 87 6000 6.2 180 18:44 13.12.2020
4902 Clouds 10 998 96 10000 5.28 184 18:22 13.12.2020
4903 Clouds 10 999 87 10000 5.7 170 17:59 13.12.2020
4904 Clouds 10 999 93 4400 5.1 170 17:41 13.12.2020
4905 Haze 10 999 87 5000 5.1 150 17:18 13.12.2020
4906 Clouds 10 1000 87 7000 4.6 170 16:42 13.12.2020
4907 Clouds 9 1000 87 7000 4.6 170 16:21 13.12.2020
4908 Clouds 9 1001 93 3400 5.1 150 15:45 13.12.2020
4909 Clouds 9 1001 93 3400 5.1 150 15:45 13.12.2020
4910 Clouds 9 1001 93 3400 5.1 150 15:45 13.12.2020
4911 Clouds 9 1001 93 3400 5.1 150 15:45 13.12.2020
4912 Clouds 9 1001 93 3400 5.1 150 15:25 13.12.2020
4913 Haze 9 1002 87 5000 6.2 150 14:46 13.12.2020
4914 Haze 9 1002 87 5000 6.2 150 14:28 13.12.2020
4915 Clouds 8 1003 87 10000 3.6 150 13:46 13.12.2020
4916 Clouds 8 1003 87 10000 3.6 150 13:27 13.12.2020
4917 Clouds 8 1004 87 10000 3.6 120 12:55 13.12.2020
4918 Clouds 7 1004 87 10000 3.1 130 12:24 13.12.2020
4919 Clouds 7 1005 93 10000 2.6 120 11:53 13.12.2020
4920 Rain 7 1005 87 10000 3.1 120 11:28 13.12.2020
4921 Rain 6 1005 81 10000 4.1 130 10:42 13.12.2020
4922 Rain 6 1005 92 10000 4.02 158 10:18 13.12.2020
4923 Clouds 5 1005 90 10000 3.29 151 09:37 13.12.2020
4924 Clouds 5 1006 86 10000 2.6 80 08:47 13.12.2020
4925 Clouds 5 1006 86 10000 2.6 80 08:23 13.12.2020
4926 Clouds 3 1007 86 10000 0.5 0 06:28 13.12.2020
4927 Clouds 3 1007 86 10000 2.1 220 02:44 13.12.2020
4928 Clouds 3 1007 80 10000 4.1 240 01:59 13.12.2020
4929 Clouds 3 1007 93 10000 2.34 244 01:34 13.12.2020
4930 Clouds 4 1007 81 10000 3.6 240 00:37 13.12.2020
4931 Clouds 4 1006 81 10000 3.1 230 23:37 12.12.2020
4932 Clouds 5 1006 81 10000 3.1 230 23:19 12.12.2020
4933 Clouds 5 1006 75 10000 3.6 250 22:29 12.12.2020
4934 Clouds 5 1005 75 10000 4.6 250 21:46 12.12.2020
4935 Clouds 6 1005 75 10000 4.6 250 21:19 12.12.2020
4936 Clouds 6 1005 70 10000 4.6 250 20:45 12.12.2020
4937 Clouds 6 1004 70 10000 4.6 250 20:21 12.12.2020
4938 Clouds 6 1004 70 10000 4.6 250 19:52 12.12.2020
4939 Clouds 7 1004 70 10000 4.6 250 19:33 12.12.2020
4940 Clouds 7 1004 70 10000 5.7 270 18:56 12.12.2020
4941 Clouds 8 1003 66 10000 6.2 280 18:38 12.12.2020
4942 Clouds 8 1003 66 10000 6.2 280 18:18 12.12.2020
4943 Clouds 8 1003 66 10000 6.2 280 17:40 12.12.2020
4944 Clouds 9 1001 71 10000 5.7 280 16:44 12.12.2020
4945 Clouds 9 1001 71 10000 7.7 280 15:57 12.12.2020
4946 Clouds 9 1000 71 10000 6.2 280 15:39 12.12.2020
4947 Clouds 9 1001 85 10000 4.53 300 14:54 12.12.2020
4948 Clouds 9 1000 76 10000 6.7 290 14:22 12.12.2020
4949 Clouds 9 999 76 10000 6.7 280 13:44 12.12.2020
4950 Clouds 9 999 76 10000 6.7 280 13:25 12.12.2020
4951 Clouds 9 998 87 10000 6.2 280 12:37 12.12.2020
4952 Clouds 9 998 87 10000 5.1 270 11:28 12.12.2020
4953 Clouds 8 997 87 10000 4.6 260 10:46 12.12.2020
4954 Drizzle 8 996 87 4900 4.1 260 09:24 12.12.2020
4955 Clouds 8 995 87 10000 4.1 270 08:41 12.12.2020
4956 Clouds 8 990 87 10000 2.6 250 01:56 12.12.2020
4957 Clouds 8 989 93 10000 2.6 240 23:31 11.12.2020
4958 Clouds 8 988 93 10000 3.1 230 21:32 11.12.2020
4959 Clouds 7 987 96 10000 1.61 238 19:46 11.12.2020
4960 Clouds 9 986 81 10000 2.1 290 17:30 11.12.2020
4961 Rain 11 985 87 10000 1 0 14:38 11.12.2020
4962 Clouds 11 985 93 10000 0.5 0 13:46 11.12.2020
4963 Clouds 10 985 87 10000 1 0 12:29 11.12.2020
4964 Clouds 10 986 96 10000 1.35 215 11:55 11.12.2020
4965 Clouds 10 986 93 10000 1.5 0 11:37 11.12.2020
4966 Clouds 9 985 87 10000 1.5 0 10:40 11.12.2020
4967 Clouds 9 986 87 10000 3.1 170 07:51 11.12.2020
4968 Rain 9 988 87 10000 3.1 170 05:36 11.12.2020
4969 Clouds 9 989 87 10000 3.1 170 04:47 11.12.2020
4970 Rain 8 993 93 10000 2.6 130 01:00 11.12.2020
4971 Rain 7 995 81 10000 3.6 130 23:37 10.12.2020
4972 Clouds 7 996 81 10000 3.6 130 21:59 10.12.2020
4973 Clouds 7 996 81 10000 3.6 130 21:29 10.12.2020
4974 Clouds 7 998 75 10000 4.6 130 20:38 10.12.2020
4975 Clouds 7 998 90 10000 5.11 157 19:37 10.12.2020
4976 Clouds 7 999 90 10000 4.86 154 18:50 10.12.2020
4977 Clouds 7 999 87 10000 3.6 110 17:45 10.12.2020
4978 Clouds 7 1000 87 10000 4.1 110 16:25 10.12.2020
4979 Haze 7 1001 87 5000 4.6 110 15:25 10.12.2020
4980 Haze 7 1002 87 4200 4.6 110 14:48 10.12.2020
4981 Haze 7 1002 87 4200 4.6 110 14:25 10.12.2020
4982 Clouds 7 1002 81 10000 3.6 110 12:38 10.12.2020
4983 Clouds 6 1002 87 10000 4.1 100 11:32 10.12.2020
4984 Clouds 6 1001 87 10000 4.6 100 08:47 10.12.2020
4985 Clouds 6 1000 87 10000 3.6 90 07:38 10.12.2020
4986 Clouds 6 1000 81 10000 2.6 100 06:41 10.12.2020
4987 Clouds 7 1001 81 10000 3.1 110 02:53 10.12.2020
4988 Clouds 6 1001 87 10000 3.6 90 01:58 10.12.2020
4989 Clouds 5 1003 75 10000 2.1 110 23:50 09.12.2020
4990 Clouds 5 1004 81 10000 2.6 160 20:51 09.12.2020
4991 Clouds 5 1005 81 10000 2.6 160 20:26 09.12.2020
4992 Clouds 5 1005 81 10000 2.1 200 19:20 09.12.2020
4993 Clouds 5 1006 92 10000 2 202 17:42 09.12.2020
4994 Clouds 6 1006 75 10000 2.6 240 16:40 09.12.2020
4995 Clouds 6 1006 75 10000 3.1 240 16:20 09.12.2020
4996 Clouds 6 1006 75 10000 3.1 240 16:20 09.12.2020
4997 Clouds 7 1007 88 10000 2.47 250 14:58 09.12.2020
4998 Clouds 7 1006 75 10000 4.1 250 14:27 09.12.2020
4999 Clouds 7 1007 81 10000 3.6 250 13:51 09.12.2020
5000 Clouds 6 1007 81 10000 4.6 240 13:19 09.12.2020
5001 Clouds 6 1008 81 10000 4.1 240 12:43 09.12.2020
5002 Clouds 6 1007 87 10000 4.6 240 11:49 09.12.2020
5003 Clouds 5 1007 87 10000 3.6 250 10:39 09.12.2020
5004 Rain 5 1006 87 10000 4.1 240 08:46 09.12.2020
5005 Rain 5 1006 87 10000 4.6 250 07:43 09.12.2020
5006 Clouds 5 1005 87 10000 4.6 250 05:48 09.12.2020
5007 Clouds 5 1005 87 10000 4.6 240 03:26 09.12.2020
5008 Rain 5 1006 93 4800 2.1 220 01:49 09.12.2020
5009 Rain 4 1006 86 9000 3.1 220 23:42 08.12.2020
5010 Rain 4 1006 86 10000 2.1 220 22:52 08.12.2020
5011 Clouds 3 1006 86 10000 2.1 220 21:22 08.12.2020
5012 Clouds 3 1005 86 9000 2.6 220 19:33 08.12.2020
5013 Clouds 2 1005 95 10000 1.83 209 18:58 08.12.2020
5014 Clouds 3 1005 80 10000 1.5 220 17:55 08.12.2020
5015 Clouds 5 1004 75 10000 2.6 240 15:45 08.12.2020
5016 Clouds 5 1004 80 6000 2.6 260 14:26 08.12.2020
5017 Clouds 4 1004 86 6000 2.1 240 13:29 08.12.2020
5018 Haze 3 1004 86 5000 2.1 160 12:27 08.12.2020
5019 Clouds 3 1003 93 6000 1 0 11:50 08.12.2020
5020 Haze 2 1003 86 3100 1.5 270 10:47 08.12.2020
5021 Haze 2 1003 86 3100 1.5 270 10:28 08.12.2020
5022 Haze 2 1002 93 2900 1.5 340 08:39 08.12.2020
5023 Clouds 2 1001 97 10000 0.83 287 06:52 08.12.2020
5024 Clouds 3 1000 93 6000 1 0 03:42 08.12.2020
5025 Clouds 3 999 93 6000 1.5 340 00:47 08.12.2020
5026 Rain 3 999 93 6000 1 360 00:22 08.12.2020
5027 Rain 3 999 93 3300 1.5 0 22:40 07.12.2020
5028 Rain 3 999 93 5000 1 0 21:51 07.12.2020
5029 Haze 3 999 93 4100 1.5 0 19:55 07.12.2020
5030 Haze 3 998 93 4700 2.1 60 18:43 07.12.2020
5031 Haze 3 998 93 3300 0.5 0 17:28 07.12.2020
5032 Mist 3 997 93 3200 1 0 16:55 07.12.2020
5033 Mist 3 997 93 3500 1 0 15:30 07.12.2020
5034 Mist 3 998 100 2600 1.5 0 14:51 07.12.2020
5035 Mist 2 998 100 3200 1 0 14:19 07.12.2020
5036 Mist 2 998 93 2400 1.5 0 13:23 07.12.2020
5037 Fog 2 999 93 800 1.5 0 11:44 07.12.2020
5038 Fog 2 999 93 500 1.5 0 11:19 07.12.2020
5039 Fog 1 999 100 350 1 0 09:57 07.12.2020
5040 Fog 1 999 100 200 1.5 0 08:29 07.12.2020
5041 Fog 1 999 100 250 1.5 0 06:44 07.12.2020
5042 Fog 1 1000 100 200 1.5 0 04:58 07.12.2020
5043 Fog 2 1001 100 150 1.5 0 01:57 07.12.2020
5044 Fog 2 1002 93 200 2.1 320 00:29 07.12.2020
5045 Mist 2 1002 93 1300 2.1 290 22:28 06.12.2020
5046 Fog 2 1003 93 400 2.1 340 21:22 06.12.2020
5047 Haze 2 1002 100 1700 2.1 330 20:34 06.12.2020
5048 Clouds 2 1002 93 6000 2.1 330 19:56 06.12.2020
5049 Clouds 4 1002 86 10000 2.1 330 18:41 06.12.2020
5050 Clouds 4 1002 81 10000 2.1 300 17:20 06.12.2020
5051 Clouds 5 1002 81 10000 1.5 0 15:37 06.12.2020
5052 Clouds 5 1002 87 10000 2.1 340 13:56 06.12.2020
5053 Clouds 5 1002 86 10000 1.5 0 12:52 06.12.2020
5054 Clouds 5 1002 86 10000 1 0 12:23 06.12.2020
5055 Clouds 4 1002 86 10000 2.1 340 11:35 06.12.2020
5056 Clouds 4 1002 86 10000 1.5 0 10:55 06.12.2020
5057 Clouds 3 1002 86 10000 2.1 0 10:24 06.12.2020
5058 Rain 3 1001 86 8000 1.5 0 08:45 06.12.2020
5059 Clouds 4 1001 86 10000 2.1 360 06:51 06.12.2020
5060 Clouds 4 999 80 10000 2.6 0 02:21 06.12.2020
5061 Clouds 4 998 86 10000 2.1 70 00:42 06.12.2020
5062 Clouds 4 998 86 10000 2.1 70 00:23 06.12.2020
5063 Clouds 4 998 80 10000 2.1 40 22:52 05.12.2020
5064 Clouds 4 998 80 10000 2.1 40 22:21 05.12.2020
5065 Clouds 4 998 80 10000 2.1 30 21:51 05.12.2020
5066 Clouds 4 998 80 10000 2.6 40 21:26 05.12.2020
5067 Clouds 5 997 75 10000 2.6 50 19:49 05.12.2020
5068 Clouds 5 996 87 10000 1.34 66 18:45 05.12.2020
5069 Clouds 6 995 83 10000 1.34 84 17:34 05.12.2020
5070 Clouds 6 994 82 10000 1.34 77 16:42 05.12.2020
5071 Clouds 6 994 83 10000 1.79 84 16:20 05.12.2020
5072 Clouds 7 992 70 10000 4.6 120 14:28 05.12.2020
5073 Clouds 7 992 75 10000 4.1 120 12:32 05.12.2020
5074 Clouds 6 991 81 10000 4.1 120 11:48 05.12.2020
5075 Clouds 5 990 86 10000 4.6 100 10:33 05.12.2020
5076 Clouds 4 988 80 10000 4.6 100 07:49 05.12.2020
5077 Clouds 4 987 80 10000 5.1 110 07:25 05.12.2020
5078 Clouds 4 986 86 10000 3.26 131 04:46 05.12.2020
5079 Clouds 3 983 71 10000 2.1 160 23:56 04.12.2020
5080 Clouds 4 982 75 10000 2.6 180 22:41 04.12.2020
5081 Clouds 4 982 85 10000 4.1 207 20:30 04.12.2020
5082 Clouds 4 980 75 10000 5.1 200 18:54 04.12.2020
5083 Clouds 4 980 75 10000 4.6 210 18:21 04.12.2020
5084 Clouds 4 980 85 10000 0.45 184 17:41 04.12.2020
5085 Clouds 5 978 75 10000 5.1 220 15:54 04.12.2020
5086 Clouds 5 978 88 10000 0.45 233 15:20 04.12.2020
5087 Clouds 4 977 86 5000 4.6 240 13:35 04.12.2020
5088 Rain 4 977 86 8000 5.1 230 12:55 04.12.2020
5089 Clouds 4 976 93 8000 4.6 230 12:19 04.12.2020
5090 Clouds 4 975 80 10000 6.7 250 10:35 04.12.2020
5091 Clouds 3 974 86 10000 6.7 280 08:29 04.12.2020
5092 Rain 3 972 86 10000 5.7 290 06:40 04.12.2020
5093 Clouds 3 972 86 10000 5.7 290 06:40 04.12.2020
5094 Rain 4 972 93 5000 2.6 300 04:52 04.12.2020
5095 Clouds 4 975 93 8000 1 0 01:20 04.12.2020
5096 Clouds 4 977 86 10000 1 0 22:47 03.12.2020
5097 Clouds 4 977 86 10000 2.1 210 21:22 03.12.2020
5098 Clouds 4 978 86 10000 2.6 220 20:46 03.12.2020
5099 Clouds 4 978 81 10000 3.1 230 19:23 03.12.2020
5100 Clouds 5 979 81 10000 6.2 250 18:41 03.12.2020
5101 Rain 6 980 87 2900 2.1 160 17:21 03.12.2020
5102 Rain 7 982 87 10000 3.6 180 15:59 03.12.2020
5103 Rain 7 982 87 10000 3.6 180 15:59 03.12.2020
5104 Rain 7 983 87 10000 3.6 180 15:32 03.12.2020
5105 Rain 7 985 81 10000 4.1 200 14:49 03.12.2020
5106 Rain 7 987 87 10000 3.1 160 13:55 03.12.2020
5107 Rain 7 987 87 10000 3.1 160 13:55 03.12.2020
5108 Rain 7 989 87 10000 4.6 140 12:50 03.12.2020
5109 Rain 6 991 87 10000 3.6 150 12:23 03.12.2020
5110 Rain 6 994 87 10000 3.6 160 10:54 03.12.2020
5111 Rain 5 997 92 10000 4.13 187 08:49 03.12.2020
5112 Clouds 4 1004 93 10000 2.89 226 04:21 03.12.2020
5113 Clouds 5 1008 95 10000 3 252 01:57 03.12.2020
5114 Clouds 6 1009 87 10000 2.6 230 00:32 03.12.2020
5115 Clouds 6 1011 93 10000 3.1 250 22:47 02.12.2020
5116 Clouds 6 1012 93 9000 2.1 250 21:55 02.12.2020
5117 Clouds 6 1012 93 10000 2.6 270 20:51 02.12.2020
5118 Clouds 6 1012 93 5000 2.1 240 20:33 02.12.2020
5119 Drizzle 6 1013 93 2900 2.1 250 19:55 02.12.2020
5120 Clouds 6 1014 81 10000 4.1 250 17:53 02.12.2020
5121 Clouds 7 1014 81 10000 4.1 250 17:34 02.12.2020
5122 Clouds 7 1014 81 10000 4.1 250 16:57 02.12.2020
5123 Clouds 7 1016 70 10000 2.6 240 14:47 02.12.2020
5124 Clouds 5 1019 80 10000 2.1 220 11:34 02.12.2020
5125 Clouds 4 1020 80 10000 2.1 230 10:28 02.12.2020
5126 Clouds 3 1021 80 10000 2.6 240 08:29 02.12.2020
5127 Clouds 4 1025 75 10000 2.6 330 01:39 02.12.2020
5128 Clouds 4 1026 75 10000 1.5 0 22:21 01.12.2020
5129 Clouds 6 1026 70 10000 2.6 300 20:46 01.12.2020
5130 Clouds 6 1026 82 10000 3.47 351 19:34 01.12.2020
5131 Clouds 7 1026 70 10000 3.1 320 17:34 01.12.2020
5132 Clouds 8 1025 66 10000 3.1 330 15:40 01.12.2020
5133 Clouds 8 1025 70 10000 4.6 320 13:37 01.12.2020
5134 Clouds 6 1026 75 10000 4.1 310 11:46 01.12.2020
5135 Clouds 6 1026 75 10000 4.1 310 11:26 01.12.2020
5136 Clouds 6 1025 70 10000 4.1 300 10:38 01.12.2020
5137 Clouds 5 1024 70 10000 4.6 300 08:21 01.12.2020
5138 Clouds 5 1024 70 10000 4.6 300 06:47 01.12.2020
5139 Clouds 6 1022 65 10000 5.1 300 01:52 01.12.2020
5140 Clouds 7 1022 70 10000 5.1 300 00:55 01.12.2020
5141 Clouds 8 1021 61 10000 5.7 300 23:21 30.11.2020
5142 Clouds 9 1021 77 10000 6.39 331 22:44 30.11.2020
5143 Clouds 10 1020 66 10000 7.2 300 22:25 30.11.2020
5144 Clouds 10 1019 76 10000 6.7 280 20:48 30.11.2020
5145 Clouds 10 1019 87 10000 6.2 270 19:42 30.11.2020
5146 Clouds 9 1020 81 10000 6.7 260 18:24 30.11.2020
5147 Clouds 9 1020 81 9000 6.2 250 17:47 30.11.2020
5148 Clouds 9 1020 87 8000 5.7 250 16:55 30.11.2020
5149 Clouds 8 1021 87 7000 5.1 250 15:59 30.11.2020
5150 Clouds 7 1023 87 10000 4.1 230 14:47 30.11.2020
5151 Rain 6 1024 87 10000 5.1 250 13:53 30.11.2020
5152 Rain 6 1025 93 9000 5.7 250 12:26 30.11.2020
5153 Clouds 6 1025 93 7000 4.6 260 11:58 30.11.2020
5154 Clouds 6 1025 93 7000 4.6 260 11:58 30.11.2020
5155 Mist 6 1026 100 2100 4.1 260 10:26 30.11.2020
5156 Fog 6 1026 100 900 4.1 240 09:50 30.11.2020
5157 Haze 6 1026 93 3600 3.6 250 07:18 30.11.2020
5158 Clear 7 1027 94 10000 1.29 262 00:54 30.11.2020
5159 Haze 7 1027 87 4000 1.5 0 21:53 29.11.2020
5160 Haze 7 1027 87 4000 1.5 0 21:53 29.11.2020
5161 Haze 7 1027 87 4200 1 0 21:31 29.11.2020
5162 Haze 7 1027 87 4700 1.5 0 20:38 29.11.2020
5163 Clouds 8 1027 87 6000 1.5 0 17:48 29.11.2020
5164 Clouds 8 1026 81 6000 1 0 16:29 29.11.2020
5165 Clouds 8 1026 87 6000 2.1 50 13:24 29.11.2020
5166 Clouds 8 1026 87 7000 3.1 80 11:49 29.11.2020
5167 Clouds 8 1026 87 7000 2.6 60 10:54 29.11.2020
5168 Clear 8 1025 94 10000 1.93 33 08:39 29.11.2020
5169 Haze 9 1024 100 3800 1.5 0 06:33 29.11.2020
5170 Haze 9 1023 93 3300 2.1 60 00:30 29.11.2020
5171 Haze 9 1022 87 4700 1.5 0 22:57 28.11.2020
5172 Haze 9 1021 87 4400 2.6 60 20:56 28.11.2020
5173 Haze 9 1021 87 4500 3.6 60 19:53 28.11.2020
5174 Haze 10 1021 87 5000 4.1 60 19:25 28.11.2020
5175 Haze 10 1020 93 5000 4.1 70 18:52 28.11.2020
5176 Clouds 10 1020 87 8000 4.1 70 17:48 28.11.2020
5177 Clouds 10 1019 87 6000 2.6 90 16:52 28.11.2020
5178 Haze 10 1019 87 5000 2.6 90 14:58 28.11.2020
5179 Mist 9 1019 93 1300 3.6 100 13:30 28.11.2020
5180 Haze 8 1018 100 1300 3.6 80 11:24 28.11.2020
5181 Clouds 8 1017 95 10000 2.28 102 08:18 28.11.2020
5182 Haze 8 1016 87 3400 1.5 0 03:34 28.11.2020
5183 Haze 7 1016 87 4600 4.1 100 01:51 28.11.2020
5184 Rain 6 1017 87 9000 3.1 70 23:19 27.11.2020
5185 Clouds 6 1017 87 10000 1 0 21:57 27.11.2020
5186 Clouds 6 1017 87 10000 2.1 70 20:38 27.11.2020
5187 Clouds 6 1017 81 10000 2.1 50 19:31 27.11.2020
5188 Clouds 6 1017 81 10000 1.5 0 18:51 27.11.2020
5189 Clouds 6 1018 81 10000 1.5 0 15:39 27.11.2020
5190 Clouds 5 1018 93 10000 1 0 14:22 27.11.2020
5191 Mist 5 1020 100 3700 1.5 0 12:48 27.11.2020
5192 Mist 5 1020 100 2500 1.5 290 12:20 27.11.2020
5193 Fog 4 1020 93 150 0.5 0 10:51 27.11.2020
5194 Fog 2 1020 93 100 1 0 10:28 27.11.2020
5195 Fog 1 1020 93 100 1 0 09:27 27.11.2020
5196 Clear 5 1021 72 10000 1.43 35 22:59 26.11.2020
5197 Clear 5 1021 72 10000 1.61 33 22:23 26.11.2020
5198 Clear 5 1022 93 8000 1.61 33 21:42 26.11.2020
5199 Clear 5 1021 93 10000 1.69 29 20:43 26.11.2020
5200 Clouds 7 1021 81 10000 1.5 0 18:36 26.11.2020
5201 Clouds 8 1021 70 10000 1.5 0 17:20 26.11.2020
5202 Clouds 9 1021 76 10000 1 0 13:44 26.11.2020
5203 Clouds 9 1021 81 10000 1.5 340 12:57 26.11.2020
5204 Clouds 8 1022 75 10000 1.5 0 12:38 26.11.2020
5205 Clouds 7 1022 75 10000 1.5 350 10:46 26.11.2020
5206 Clouds 7 1022 89 10000 1.52 25 10:23 26.11.2020
5207 Clouds 7 1022 90 10000 1.52 25 09:34 26.11.2020
5208 Clouds 7 1021 91 10000 1.65 27 08:57 26.11.2020
5209 Rain 7 1021 75 10000 1 340 08:33 26.11.2020
5210 Clouds 7 1020 81 10000 1.5 0 02:18 26.11.2020
5211 Clouds 8 1018 76 10000 2.1 340 22:20 25.11.2020
5212 Clouds 9 1017 87 10000 2.13 339 20:37 25.11.2020
5213 Clouds 9 1015 81 10000 3.1 300 19:18 25.11.2020
5214 Clouds 10 1014 81 10000 5.1 300 17:29 25.11.2020
5215 Clouds 13 1012 82 10000 4.1 210 15:46 25.11.2020
5216 Clouds 13 1012 82 10000 4.1 210 15:23 25.11.2020
5217 Clouds 13 1012 91 10000 3.24 208 13:46 25.11.2020
5218 Clouds 13 1012 92 10000 0.45 281 12:58 25.11.2020
5219 Clouds 12 1011 82 10000 2.6 190 11:26 25.11.2020
5220 Clouds 11 1011 93 10000 2.67 190 09:22 25.11.2020
5221 Clouds 11 1011 93 10000 2.67 190 08:50 25.11.2020
5222 Clouds 10 1010 81 10000 3.1 210 07:53 25.11.2020
5223 Clouds 10 1011 92 10000 3.02 183 03:55 25.11.2020
5224 Clouds 9 1011 87 10000 4.1 160 01:50 25.11.2020
5225 Clouds 9 1012 87 10000 3.6 180 00:22 25.11.2020
5226 Clouds 9 1012 92 10000 3.27 189 23:36 24.11.2020
5227 Clouds 9 1012 92 10000 3.61 186 22:52 24.11.2020
5228 Clouds 9 1013 81 10000 3.1 170 21:50 24.11.2020
5229 Clouds 9 1013 81 10000 3.1 170 21:27 24.11.2020
5230 Clouds 10 1013 81 10000 3.1 160 20:19 24.11.2020
5231 Clouds 10 1014 76 10000 3.6 150 18:39 24.11.2020
5232 Clouds 11 1014 76 10000 3.1 160 17:29 24.11.2020
5233 Clouds 11 1015 66 10000 3.6 170 16:38 24.11.2020
5234 Clouds 11 1015 66 10000 2.1 190 15:56 24.11.2020
5235 Clouds 11 1015 66 10000 4.1 160 15:36 24.11.2020
5236 Clouds 12 1016 66 10000 3.6 180 15:18 24.11.2020
5237 Clouds 12 1016 62 10000 4.6 200 14:31 24.11.2020
5238 Clouds 12 1018 66 10000 4.1 210 12:44 24.11.2020
5239 Clouds 11 1018 66 10000 4.1 210 12:21 24.11.2020
5240 Clouds 11 1019 71 10000 5.1 210 11:37 24.11.2020
5241 Clouds 11 1019 71 10000 3.1 190 10:39 24.11.2020
5242 Clouds 11 1019 86 10000 4.33 200 10:19 24.11.2020
5243 Clouds 11 1019 86 10000 4.08 194 09:35 24.11.2020
5244 Clouds 11 1020 88 10000 4.38 192 07:37 24.11.2020
5245 Clouds 11 1022 81 10000 4.1 200 04:19 24.11.2020
5246 Clouds 9 1024 87 10000 1.5 0 22:29 23.11.2020
5247 Clouds 9 1025 81 10000 3.1 210 21:37 23.11.2020
5248 Clouds 9 1025 81 10000 3.1 210 20:50 23.11.2020
5249 Clouds 9 1025 81 10000 3.6 200 20:26 23.11.2020
5250 Clouds 9 1026 76 10000 2.1 200 19:24 23.11.2020
5251 Clouds 9 1026 76 10000 2.6 210 17:26 23.11.2020
5252 Clouds 10 1026 76 10000 2.6 230 16:28 23.11.2020
5253 Clouds 10 1027 66 10000 2.1 220 14:49 23.11.2020
5254 Haze 10 1028 66 1100 2.1 210 13:33 23.11.2020
5255 Haze 9 1028 66 2400 1.5 0 12:38 23.11.2020
5256 Clouds 8 1028 75 6000 1.5 0 11:48 23.11.2020
5257 Haze 6 1029 87 4200 1 0 11:21 23.11.2020
5258 Haze 4 1028 93 2600 1.5 210 09:32 23.11.2020
5259 Clear 5 1028 93 10000 2.1 200 08:49 23.11.2020
5260 Haze 5 1028 93 2600 2.6 220 07:29 23.11.2020
5261 Clear 6 1027 81 10000 1 0 00:39 23.11.2020
5262 Clear 6 1027 75 10000 1 230 23:38 22.11.2020
5263 Clear 7 1027 70 10000 2.1 290 22:19 22.11.2020
5264 Clear 8 1028 85 10000 1.4 258 21:23 22.11.2020
5265 Clouds 9 1027 66 10000 3.6 280 19:58 22.11.2020
5266 Clouds 9 1027 81 10000 1.23 268 18:56 22.11.2020
5267 Clouds 9 1027 82 10000 1.32 285 17:54 22.11.2020
5268 Clouds 11 1026 77 10000 2.33 290 15:58 22.11.2020
5269 Clouds 11 1026 58 10000 3.1 260 14:58 22.11.2020
5270 Clouds 11 1027 66 10000 3.6 280 12:51 22.11.2020
5271 Clouds 10 1027 62 10000 3.6 300 12:31 22.11.2020
5272 Clouds 10 1027 76 10000 2.1 290 11:39 22.11.2020
5273 Clouds 9 1027 94 10000 1.74 301 10:47 22.11.2020
5274 Clouds 9 1027 94 10000 2.05 305 10:29 22.11.2020
5275 Clouds 11 1025 81 10000 4.6 240 04:33 22.11.2020
5276 Clouds 11 1025 76 10000 5.1 240 23:56 21.11.2020
5277 Clouds 11 1025 76 10000 5.7 230 22:41 21.11.2020
5278 Clouds 11 1026 76 10000 5.7 230 21:31 21.11.2020
5279 Clouds 11 1026 76 10000 4.6 240 20:49 21.11.2020
5280 Clouds 11 1025 71 10000 5.7 240 20:20 21.11.2020
5281 Clouds 11 1025 71 10000 5.7 230 19:42 21.11.2020
5282 Clouds 11 1025 81 10000 1.34 257 19:18 21.11.2020
5283 Clouds 12 1025 66 10000 5.1 240 17:31 21.11.2020
5284 Clouds 12 1025 71 10000 6.2 240 16:45 21.11.2020
5285 Clouds 12 1025 62 10000 7.7 250 15:41 21.11.2020
5286 Clouds 12 1025 62 10000 7.7 250 15:20 21.11.2020
5287 Clouds 12 1026 62 10000 8.7 250 14:42 21.11.2020
5288 Clouds 12 1026 62 10000 9.3 250 12:59 21.11.2020
5289 Clouds 12 1026 75 10000 4.47 266 12:23 21.11.2020
5290 Clouds 12 1027 71 10000 6.7 250 11:49 21.11.2020
5291 Clouds 11 1027 81 10000 5.7 250 10:28 21.11.2020
5292 Clouds 10 1027 81 10000 5.1 240 08:52 21.11.2020
5293 Clouds 10 1027 81 10000 5.1 240 08:52 21.11.2020
5294 Clouds 10 1027 81 10000 5.1 240 08:34 21.11.2020
5295 Clouds 11 1027 76 10000 5.7 240 05:42 21.11.2020
5296 Clouds 10 1027 81 10000 6.2 240 03:28 21.11.2020
5297 Clouds 11 1029 87 10000 5.1 230 00:22 21.11.2020
5298 Clouds 11 1029 87 10000 3.6 220 23:19 20.11.2020
5299 Clouds 10 1030 87 4000 4.1 230 21:46 20.11.2020
5300 Clouds 10 1030 87 4000 4.1 230 21:26 20.11.2020
5301 Clouds 10 1029 92 10000 2.68 220 20:41 20.11.2020
5302 Clouds 10 1030 93 10000 4.1 210 19:33 20.11.2020
5303 Rain 9 1031 87 10000 3.6 200 18:27 20.11.2020
5304 Rain 9 1030 92 10000 1.34 171 17:32 20.11.2020
5305 Rain 9 1032 87 10000 5.1 210 16:48 20.11.2020
5306 Rain 9 1032 87 10000 5.1 210 16:29 20.11.2020
5307 Rain 9 1032 81 10000 4.6 200 15:47 20.11.2020
5308 Rain 8 1034 70 10000 4.1 210 14:18 20.11.2020
5309 Clouds 8 1034 70 10000 4.1 210 13:22 20.11.2020
5310 Rain 8 1034 66 10000 3.1 210 12:59 20.11.2020
5311 Clouds 8 1034 70 10000 3.1 210 12:25 20.11.2020
5312 Clouds 7 1035 70 10000 2.1 220 11:35 20.11.2020
5313 Clouds 4 1035 80 10000 2.1 210 09:56 20.11.2020
5314 Clouds 3 1034 86 10000 2.6 230 08:35 20.11.2020
5315 Clouds 3 1035 86 10000 2.6 220 07:52 20.11.2020
5316 Clouds 3 1035 86 10000 3.1 220 05:19 20.11.2020
5317 Clouds 4 1036 80 10000 2.6 220 03:42 20.11.2020
5318 Clouds 6 1034 65 10000 2.6 290 22:33 19.11.2020
5319 Clouds 6 1034 65 10000 3.1 300 21:54 19.11.2020
5320 Clouds 6 1033 70 10000 3.1 280 20:59 19.11.2020
5321 Clouds 7 1033 66 10000 2.6 280 20:21 19.11.2020
5322 Clouds 8 1033 66 10000 5.1 280 19:28 19.11.2020
5323 Clouds 8 1033 70 10000 4.1 280 18:55 19.11.2020
5324 Clouds 8 1033 70 10000 4.1 280 18:55 19.11.2020
5325 Clouds 8 1030 70 10000 3.6 300 17:35 19.11.2020
5326 Clouds 8 1030 76 10000 3.6 320 16:47 19.11.2020
5327 Clouds 9 1029 81 10000 4.1 300 15:31 19.11.2020
5328 Clouds 9 1027 87 10000 5.1 300 13:59 19.11.2020
5329 Rain 9 1026 81 10000 4.6 300 13:39 19.11.2020
5330 Clouds 9 1025 76 10000 5.1 300 12:57 19.11.2020
5331 Rain 9 1024 81 10000 4.6 280 12:34 19.11.2020
5332 Clouds 10 1024 83 10000 2.68 313 11:42 19.11.2020
5333 Clouds 10 1024 81 10000 5.36 301 11:22 19.11.2020
5334 Clouds 10 1022 71 10000 7.7 260 10:51 19.11.2020
5335 Clouds 10 1021 66 10000 6.7 260 09:55 19.11.2020
5336 Clouds 9 1021 66 10000 7.2 260 09:36 19.11.2020
5337 Clouds 9 1020 66 10000 6.2 260 09:18 19.11.2020
5338 Clouds 9 1019 61 10000 7.7 250 07:59 19.11.2020
5339 Clear 8 1017 66 10000 7.2 230 01:53 19.11.2020
5340 Clouds 9 1017 66 10000 6.7 240 00:56 19.11.2020
5341 Clouds 9 1017 66 10000 7.2 250 23:47 18.11.2020
5342 Clouds 9 1017 66 10000 7.2 250 23:24 18.11.2020
5343 Clouds 9 1016 61 10000 7.2 250 22:30 18.11.2020
5344 Clouds 10 1016 69 10000 4.02 301 21:45 18.11.2020
5345 Clouds 10 1016 57 10000 8.7 260 21:27 18.11.2020
5346 Clouds 11 1014 66 10000 8.7 260 20:40 18.11.2020
5347 Clouds 11 1014 81 10000 8.7 250 19:45 18.11.2020
5348 Clouds 11 1014 81 10000 8.7 250 19:25 18.11.2020
5349 Clouds 12 1013 84 10000 3.13 249 18:49 18.11.2020
5350 Clouds 15 1012 87 10000 5.7 220 17:55 18.11.2020
5351 Clouds 14 1012 82 10000 6.7 210 16:58 18.11.2020
5352 Clouds 14 1012 82 10000 6.2 210 16:21 18.11.2020
5353 Clouds 14 1013 67 10000 5.1 210 14:49 18.11.2020
5354 Clouds 15 1013 63 10000 6.2 210 14:29 18.11.2020
5355 Rain 15 1014 51 10000 5.1 200 13:37 18.11.2020
5356 Clouds 15 1015 55 10000 6.2 200 12:47 18.11.2020
5357 Clouds 15 1016 67 10000 6.2 200 12:18 18.11.2020
5358 Clouds 15 1016 67 10000 4.6 190 11:27 18.11.2020
5359 Clear 13 1017 76 10000 3.1 200 10:31 18.11.2020
5360 Clouds 12 1017 82 10000 2.6 200 09:41 18.11.2020
5361 Clouds 12 1018 82 10000 3.1 210 07:37 18.11.2020
5362 Clouds 12 1018 87 10000 2.24 192 06:29 18.11.2020
5363 Clouds 13 1022 82 10000 3.6 220 00:22 18.11.2020
5364 Clouds 13 1022 82 10000 3.6 200 23:31 17.11.2020
5365 Clouds 13 1022 82 10000 3.1 220 22:46 17.11.2020
5366 Clouds 13 1022 82 8000 4.6 220 22:28 17.11.2020
5367 Clouds 13 1022 84 10000 3.13 226 21:49 17.11.2020
5368 Clouds 13 1022 84 10000 1.79 201 21:29 17.11.2020
5369 Clouds 13 1022 85 10000 1.79 212 20:44 17.11.2020
5370 Clouds 13 1022 76 10000 4.6 220 20:24 17.11.2020
5371 Clouds 13 1022 76 10000 4.1 230 19:50 17.11.2020
5372 Clouds 13 1022 76 10000 7.2 230 18:24 17.11.2020
5373 Clouds 14 1021 83 10000 3.13 205 17:33 17.11.2020
5374 Clouds 14 1021 82 10000 1.34 202 16:49 17.11.2020
5375 Clouds 14 1021 72 10000 5.1 230 16:18 17.11.2020
5376 Clouds 14 1021 72 10000 6.2 230 15:38 17.11.2020
5377 Clouds 15 1021 72 10000 6.2 230 15:20 17.11.2020
5378 Clouds 15 1021 72 10000 6.2 230 14:41 17.11.2020
5379 Clouds 15 1021 72 10000 6.2 230 13:54 17.11.2020
5380 Clouds 14 1021 72 10000 6.2 230 13:27 17.11.2020
5381 Clouds 14 1021 76 10000 6.2 230 12:42 17.11.2020
5382 Clouds 14 1021 71 10000 6.2 230 11:46 17.11.2020
5383 Clouds 14 1021 71 10000 6.2 230 11:28 17.11.2020
5384 Clouds 13 1020 76 10000 5.7 230 10:39 17.11.2020
5385 Clouds 13 1020 82 10000 5.7 230 10:20 17.11.2020
5386 Clouds 12 1020 82 10000 5.1 230 09:43 17.11.2020
5387 Clouds 12 1019 76 10000 5.7 240 08:46 17.11.2020
5388 Clouds 12 1019 82 10000 5.7 240 07:59 17.11.2020
5389 Clouds 12 1019 82 10000 6.2 230 07:32 17.11.2020
5390 Clouds 13 1018 87 10000 5.7 240 04:31 17.11.2020
5391 Clouds 13 1018 82 10000 5.7 240 03:28 17.11.2020
5392 Clouds 13 1017 82 10000 6.2 230 02:29 17.11.2020
5393 Clouds 13 1017 82 10000 6.7 230 00:57 17.11.2020
5394 Clouds 13 1016 87 10000 6.7 230 23:57 16.11.2020
5395 Clouds 13 1016 87 10000 5.7 230 23:33 16.11.2020
5396 Clouds 12 1016 87 10000 5.1 230 22:59 16.11.2020
5397 Clouds 12 1016 93 10000 3.6 220 22:26 16.11.2020
5398 Clouds 12 1017 93 3800 3.6 230 21:58 16.11.2020
5399 Rain 12 1016 87 4400 4.6 220 21:39 16.11.2020
5400 Rain 12 1017 87 10000 4.1 220 21:20 16.11.2020
5401 Rain 11 1017 81 8000 4.6 220 20:26 16.11.2020
5402 Clouds 11 1017 87 10000 4.6 220 19:55 16.11.2020
5403 Rain 11 1017 76 10000 4.1 230 19:30 16.11.2020
5404 Rain 11 1017 76 10000 5.1 230 18:52 16.11.2020
5405 Rain 11 1016 71 10000 4.6 240 18:21 16.11.2020
5406 Clouds 11 1016 71 10000 4.6 240 17:37 16.11.2020
5407 Clouds 12 1016 71 10000 5.1 240 17:19 16.11.2020
5408 Clouds 12 1016 66 10000 5.1 240 16:51 16.11.2020
5409 Clouds 12 1015 66 10000 4.6 240 16:26 16.11.2020
5410 Clouds 12 1015 66 10000 5.7 240 15:45 16.11.2020
5411 Clouds 12 1015 66 10000 5.7 240 15:27 16.11.2020
5412 Clouds 12 1015 62 10000 6.2 250 14:48 16.11.2020
5413 Clouds 12 1014 62 10000 7.2 250 13:50 16.11.2020
5414 Clouds 11 1014 66 10000 6.2 250 13:21 16.11.2020
5415 Clouds 11 1014 71 10000 5.7 250 12:30 16.11.2020
5416 Clouds 10 1013 62 10000 5.7 250 11:43 16.11.2020
5417 Clouds 10 1013 62 10000 5.7 260 11:22 16.11.2020
5418 Clouds 10 1012 66 10000 6.7 260 10:44 16.11.2020
5419 Clouds 10 1012 66 10000 6.7 260 10:26 16.11.2020
5420 Clouds 10 1011 71 10000 7.7 250 09:52 16.11.2020
5421 Clouds 10 1011 71 10000 7.7 250 09:34 16.11.2020
5422 Clouds 10 1010 76 10000 5.7 250 08:48 16.11.2020
5423 Clouds 11 1009 76 10000 6.2 250 08:21 16.11.2020
5424 Clouds 10 1008 81 10000 7.2 250 07:29 16.11.2020
5425 Clouds 10 1007 81 10000 7.7 250 06:46 16.11.2020
5426 Clouds 10 1006 87 10000 6.7 240 05:48 16.11.2020
5427 Clouds 9 1005 81 10000 5.7 240 03:54 16.11.2020
5428 Clear 8 1002 81 10000 6.2 250 01:45 16.11.2020
5429 Clouds 8 1000 76 10000 6.7 240 00:33 16.11.2020
5430 Clouds 8 1000 70 10000 5.7 240 23:32 15.11.2020
5431 Clouds 8 999 76 10000 5.7 230 22:58 15.11.2020
5432 Clouds 8 999 81 10000 6.2 230 22:26 15.11.2020
5433 Clouds 8 998 81 10000 5.7 240 21:56 15.11.2020
5434 Clouds 8 997 76 10000 6.7 240 21:36 15.11.2020
5435 Clear 8 996 76 10000 5.7 240 20:58 15.11.2020
5436 Clouds 8 996 76 10000 6.2 230 20:39 15.11.2020
5437 Clouds 8 995 76 10000 6.2 240 19:57 15.11.2020
5438 Clear 8 995 76 10000 5.7 220 19:39 15.11.2020
5439 Clouds 8 995 76 10000 5.7 220 19:20 15.11.2020
5440 Clouds 8 994 81 10000 5.7 210 18:45 15.11.2020
5441 Rain 9 994 71 10000 5.7 210 18:25 15.11.2020
5442 Clouds 9 994 71 10000 5.7 210 17:58 15.11.2020
5443 Rain 9 994 76 10000 5.1 220 17:39 15.11.2020
5444 Clouds 9 994 76 10000 5.1 220 17:20 15.11.2020
5445 Clouds 9 994 66 10000 7.2 200 16:41 15.11.2020
5446 Clouds 11 994 54 10000 8.2 220 16:19 15.11.2020
5447 Rain 11 993 67 10000 4.02 204 15:43 15.11.2020
5448 Clouds 12 993 67 10000 4.02 213 15:24 15.11.2020
5449 Clouds 12 994 54 10000 5.7 230 14:53 15.11.2020
5450 Clouds 12 994 58 10000 7.7 230 14:26 15.11.2020
5451 Clouds 12 994 62 10000 8.7 250 13:43 15.11.2020
5452 Clouds 11 994 66 10000 6.7 250 13:21 15.11.2020
5453 Clouds 11 993 71 10000 7.7 240 12:46 15.11.2020
5454 Clouds 11 993 71 10000 7.7 240 12:46 15.11.2020
5455 Clouds 11 994 76 10000 4.02 236 12:19 15.11.2020
5456 Rain 12 993 87 10000 6.2 200 11:44 15.11.2020
5457 Rain 12 994 87 8000 4.6 200 11:19 15.11.2020
5458 Clouds 12 994 87 8000 4.6 200 10:53 15.11.2020
5459 Clouds 12 993 82 10000 5.1 200 10:31 15.11.2020
5460 Clouds 12 995 87 10000 3.6 180 09:55 15.11.2020
5461 Rain 12 995 87 10000 3.6 180 09:32 15.11.2020
5462 Rain 12 995 87 6000 4.6 220 08:59 15.11.2020
5463 Rain 12 995 93 2800 7.2 230 08:41 15.11.2020
5464 Rain 13 996 93 2400 4.6 210 07:46 15.11.2020
5465 Rain 14 997 87 10000 4.6 170 06:42 15.11.2020
5466 Rain 14 998 87 10000 6.7 200 04:54 15.11.2020
5467 Drizzle 13 1001 93 4000 3.1 200 02:21 15.11.2020
5468 Clouds 13 1003 82 10000 4.6 200 00:36 15.11.2020
5469 Clouds 13 1003 82 10000 6.2 210 23:54 14.11.2020
5470 Clouds 13 1003 82 10000 5.1 210 23:20 14.11.2020
5471 Clouds 13 1003 77 10000 6.2 210 22:45 14.11.2020
5472 Clouds 13 1003 77 10000 6.2 210 22:20 14.11.2020
5473 Rain 14 1002 82 10000 7.2 190 21:39 14.11.2020
5474 Rain 14 1002 82 10000 7.2 190 21:21 14.11.2020
5475 Rain 14 1002 82 10000 6.7 190 20:48 14.11.2020
5476 Rain 14 1003 82 9000 5.7 200 20:24 14.11.2020
5477 Rain 14 1003 77 10000 6.7 190 19:39 14.11.2020
5478 Rain 14 1003 77 10000 5.7 190 19:20 14.11.2020
5479 Clouds 14 1003 77 10000 5.7 180 18:42 14.11.2020
5480 Rain 14 1002 86 10000 5.36 208 18:22 14.11.2020
5481 Clouds 14 1004 77 10000 6.2 170 17:46 14.11.2020
5482 Clouds 14 1004 77 10000 6.2 170 17:28 14.11.2020
5483 Clouds 14 1004 77 10000 6.7 170 16:53 14.11.2020
5484 Clouds 14 1003 85 5758 4.02 184 16:34 14.11.2020
5485 Rain 14 1006 82 10000 4.6 170 15:58 14.11.2020
5486 Rain 14 1006 87 10000 3.6 180 15:33 14.11.2020
5487 Clouds 14 1007 77 10000 5.1 180 14:59 14.11.2020
5488 Rain 14 1007 82 10000 6.2 180 14:31 14.11.2020
5489 Rain 14 1006 88 10000 2.68 190 13:59 14.11.2020
5490 Rain 14 1006 88 10000 2.68 190 13:59 14.11.2020
5491 Rain 14 1008 82 10000 5.1 200 13:39 14.11.2020
5492 Rain 14 1008 82 10000 6.2 190 13:21 14.11.2020
5493 Rain 14 1008 82 10000 6.2 200 12:41 14.11.2020
5494 Rain 14 1008 82 10000 6.2 200 12:23 14.11.2020
5495 Clouds 14 1009 82 10000 5.7 200 11:40 14.11.2020
5496 Clouds 14 1009 82 10000 5.7 200 11:22 14.11.2020
5497 Rain 15 1009 82 10000 4.6 200 10:41 14.11.2020
5498 Rain 14 1008 89 10000 2.68 200 10:23 14.11.2020
5499 Clouds 14 1009 82 10000 4.6 200 09:45 14.11.2020
5500 Rain 14 1009 82 10000 4.6 200 09:27 14.11.2020
5501 Clouds 14 1009 87 10000 3.6 180 08:48 14.11.2020
5502 Clouds 14 1009 87 10000 3.6 180 08:23 14.11.2020
5503 Clouds 13 1010 93 10000 1.5 0 07:42 14.11.2020
5504 Clouds 12 1010 93 10000 1.5 0 07:22 14.11.2020
5505 Clouds 11 1010 87 10000 2.1 130 06:30 14.11.2020
5506 Clouds 10 1011 87 10000 2.1 130 05:27 14.11.2020
5507 Clouds 10 1013 76 10000 2.6 130 03:40 14.11.2020
5508 Clouds 10 1014 83 10000 1.34 122 00:43 14.11.2020
5509 Clouds 9 1014 83 10000 0.45 147 23:43 13.11.2020
5510 Clouds 9 1014 83 10000 1.34 137 23:22 13.11.2020
5511 Clouds 9 1014 82 10000 2.62 208 22:42 13.11.2020
5512 Clouds 9 1014 83 10000 0.45 168 22:23 13.11.2020
5513 Clouds 10 1014 82 10000 0.89 171 21:51 13.11.2020
5514 Clouds 9 1014 81 10000 0.45 158 21:29 13.11.2020
5515 Clouds 9 1013 81 10000 0.45 156 20:59 13.11.2020
5516 Clouds 10 1014 71 10000 2.6 200 20:40 13.11.2020
5517 Clouds 10 1014 71 10000 1.5 0 20:20 13.11.2020
5518 Clouds 10 1014 71 10000 2.1 210 19:45 13.11.2020
5519 Clouds 10 1014 71 10000 2.1 210 19:23 13.11.2020
5520 Clouds 10 1014 71 10000 2.1 230 18:54 13.11.2020
5521 Clouds 10 1013 75 10000 0.45 169 18:21 13.11.2020
5522 Clouds 11 1013 62 10000 3.1 230 17:41 13.11.2020
5523 Clouds 11 1013 66 10000 4.1 240 17:18 13.11.2020
5524 Clouds 11 1012 73 10000 0.89 220 16:48 13.11.2020
5525 Clouds 12 1012 72 10000 1.34 233 16:23 13.11.2020
5526 Clouds 12 1012 66 10000 4.6 250 15:47 13.11.2020
5527 Clouds 12 1012 62 10000 5.7 250 15:27 13.11.2020
5528 Clouds 12 1012 66 10000 5.1 250 14:45 13.11.2020
5529 Clouds 13 1012 76 10000 4.6 250 14:22 13.11.2020
5530 Clouds 12 1011 71 10000 3.1 250 13:47 13.11.2020
5531 Clouds 12 1011 71 10000 3.1 250 13:23 13.11.2020
5532 Clouds 12 1011 81 10000 5.1 260 12:46 13.11.2020
5533 Clouds 12 1011 87 10000 4.6 260 12:24 13.11.2020
5534 Clouds 12 1010 76 10000 4.6 220 11:49 13.11.2020
5535 Rain 12 1010 76 10000 4.6 220 11:29 13.11.2020
5536 Clouds 13 1010 76 10000 3.6 220 10:57 13.11.2020
5537 Rain 13 1010 82 10000 3.6 210 10:39 13.11.2020
5538 Clouds 13 1010 82 10000 3.6 210 10:21 13.11.2020
5539 Clouds 13 1009 82 10000 3.6 210 09:42 13.11.2020
5540 Clouds 12 1009 82 10000 4.1 210 09:20 13.11.2020
5541 Clouds 12 1009 82 10000 4.1 210 08:52 13.11.2020
5542 Clouds 12 1008 88 10000 1.79 177 08:21 13.11.2020
5543 Clouds 12 1009 81 10000 3.6 180 07:45 13.11.2020
5544 Clouds 12 1009 81 10000 3.6 180 07:26 13.11.2020
5545 Clouds 11 1009 87 10000 2.1 150 06:49 13.11.2020
5546 Clouds 11 1010 81 10000 2.6 130 05:58 13.11.2020
5547 Clouds 10 1010 81 10000 3.1 140 05:30 13.11.2020
5548 Clouds 10 1013 81 10000 2.6 150 02:22 13.11.2020
5549 Clouds 10 1014 81 10000 2.1 130 01:32 13.11.2020
5550 Clouds 10 1014 81 10000 4.1 160 00:33 13.11.2020
5551 Clouds 10 1015 81 10000 3.1 170 23:39 12.11.2020
5552 Clouds 10 1015 81 10000 3.1 170 23:20 12.11.2020
5553 Clouds 10 1014 86 10000 1.34 162 22:52 12.11.2020
5554 Clouds 10 1015 81 10000 2.6 170 22:33 12.11.2020
5555 Clouds 10 1015 81 10000 2.6 160 21:56 12.11.2020
5556 Clouds 10 1015 86 10000 0.89 158 21:38 12.11.2020
5557 Clouds 10 1015 86 10000 0.89 179 21:18 12.11.2020
5558 Clouds 10 1015 85 10000 0.89 151 20:40 12.11.2020
5559 Clouds 11 1016 76 10000 3.1 190 20:21 12.11.2020
5560 Clouds 11 1015 83 10000 0.89 168 19:52 12.11.2020
5561 Clouds 11 1015 83 10000 1.79 180 19:33 12.11.2020
5562 Clouds 11 1015 71 10000 2.6 180 18:56 12.11.2020
5563 Clouds 11 1015 78 10000 1.34 155 18:37 12.11.2020
5564 Clouds 11 1015 62 10000 3.6 210 18:18 12.11.2020
5565 Clouds 12 1015 72 10000 1.34 151 17:39 12.11.2020
5566 Clouds 12 1016 58 10000 3.6 200 17:20 12.11.2020
5567 Clouds 13 1016 54 10000 4.6 230 16:44 12.11.2020
5568 Clouds 13 1016 54 10000 4.6 230 16:23 12.11.2020
5569 Clouds 13 1016 58 10000 4.1 240 15:47 12.11.2020
5570 Clouds 13 1016 58 10000 5.7 230 15:27 12.11.2020
5571 Clouds 13 1015 62 10000 4.1 240 14:47 12.11.2020
5572 Clouds 13 1015 62 10000 4.1 240 14:47 12.11.2020
5573 Clouds 13 1015 62 10000 4.1 240 14:27 12.11.2020
5574 Clouds 13 1016 66 10000 5.1 240 13:58 12.11.2020
5575 Clouds 13 1016 71 10000 4.6 240 13:39 12.11.2020
5576 Clouds 12 1016 66 10000 5.7 240 13:19 12.11.2020
5577 Clouds 12 1016 66 10000 5.7 250 12:44 12.11.2020
5578 Clouds 12 1016 66 10000 5.7 250 12:24 12.11.2020
5579 Clouds 12 1015 71 10000 6.7 260 11:53 12.11.2020
5580 Clouds 11 1014 76 10000 4.6 240 11:30 12.11.2020
5581 Clouds 11 1014 76 10000 5.1 250 10:49 12.11.2020
5582 Clouds 11 1014 76 10000 5.1 250 10:29 12.11.2020
5583 Clouds 10 1014 76 10000 4.6 250 09:51 12.11.2020
5584 Clouds 10 1013 87 10000 5.1 240 09:27 12.11.2020
5585 Clouds 10 1013 88 10000 2.24 249 08:58 12.11.2020
5586 Clouds 10 1012 88 10000 2.68 264 08:40 12.11.2020
5587 Clouds 10 1011 76 10000 6.7 250 08:20 12.11.2020
5588 Clouds 10 1011 76 10000 6.7 250 07:54 12.11.2020
5589 Clouds 10 1011 76 10000 6.7 240 07:30 12.11.2020
5590 Clouds 10 1010 76 10000 6.7 240 06:51 12.11.2020
5591 Clear 10 1010 87 10000 2.68 195 06:22 12.11.2020
5592 Clear 10 1009 76 10000 4.6 240 03:45 12.11.2020
5593 Clear 10 1009 81 10000 5.1 240 03:19 12.11.2020
5594 Rain 12 1008 82 10000 6.7 160 00:32 12.11.2020
5595 Rain 13 1009 76 10000 6.2 170 23:43 11.11.2020
5596 Rain 12 1008 86 7369 5.36 209 23:24 11.11.2020
5597 Rain 13 1010 71 10000 5.1 170 22:47 11.11.2020
5598 Rain 13 1010 71 10000 5.1 170 22:22 11.11.2020
5599 Clouds 13 1010 83 10000 4.47 163 21:57 11.11.2020
5600 Rain 13 1010 83 10000 2.68 174 21:38 11.11.2020
5601 Clouds 13 1012 82 10000 5.7 150 21:19 11.11.2020
5602 Clouds 13 1012 82 10000 5.7 150 20:42 11.11.2020
5603 Clouds 13 1012 82 10000 5.7 150 20:22 11.11.2020
5604 Clouds 13 1013 82 10000 5.7 160 19:57 11.11.2020
5605 Clouds 13 1013 82 10000 5.7 150 19:38 11.11.2020
5606 Clouds 13 1014 82 10000 4.6 150 19:20 11.11.2020
5607 Clouds 13 1014 82 10000 4.1 160 18:41 11.11.2020
5608 Clouds 13 1015 82 10000 4.1 160 18:22 11.11.2020
5609 Clouds 13 1015 82 10000 3.1 160 17:39 11.11.2020
5610 Clouds 13 1015 82 10000 4.1 160 17:21 11.11.2020
5611 Clouds 13 1014 86 10000 2.24 169 16:44 11.11.2020
5612 Clouds 13 1016 71 10000 5.7 160 16:25 11.11.2020
5613 Rain 13 1017 71 10000 4.1 170 15:44 11.11.2020
5614 Clouds 13 1017 71 10000 4.1 170 15:26 11.11.2020
5615 Clouds 13 1017 71 10000 4.6 180 14:51 11.11.2020
5616 Clouds 13 1017 71 10000 5.7 180 14:31 11.11.2020
5617 Clouds 13 1018 71 10000 3.6 170 13:52 11.11.2020
5618 Clouds 13 1018 71 10000 3.6 170 13:52 11.11.2020
5619 Clouds 13 1018 71 10000 3.6 170 13:32 11.11.2020
5620 Clouds 13 1020 82 10000 3.1 170 12:40 11.11.2020
5621 Clouds 13 1020 82 10000 4.1 170 12:20 11.11.2020
5622 Clouds 13 1020 82 10000 4.1 170 11:48 11.11.2020
5623 Clouds 12 1021 82 10000 2.1 150 11:26 11.11.2020
5624 Clouds 12 1021 87 10000 2.1 160 10:40 11.11.2020
5625 Clouds 12 1021 87 10000 2.1 160 10:21 11.11.2020
5626 Clouds 11 1021 87 10000 2.1 140 09:45 11.11.2020
5627 Clouds 11 1021 87 10000 2.1 140 09:26 11.11.2020
5628 Clouds 11 1021 94 10000 1.34 145 08:46 11.11.2020
5629 Clouds 11 1021 94 10000 3.28 170 08:27 11.11.2020
5630 Clouds 11 1021 94 10000 0.45 166 07:49 11.11.2020
5631 Clouds 11 1021 94 10000 0.89 168 07:30 11.11.2020
5632 Clouds 10 1022 87 10000 1.5 0 06:27 11.11.2020
5633 Clouds 10 1023 93 10000 1 0 04:30 11.11.2020
5634 Clouds 10 1024 93 10000 2.1 200 01:31 11.11.2020
5635 Clouds 10 1024 93 10000 1.5 0 00:34 11.11.2020
5636 Clouds 10 1025 93 10000 2.1 230 23:55 10.11.2020
5637 Clouds 10 1025 93 10000 1.5 230 23:24 10.11.2020
5638 Clouds 10 1024 92 10000 2.07 213 22:57 10.11.2020
5639 Clouds 10 1024 92 10000 1.98 208 22:28 10.11.2020
5640 Clouds 11 1025 87 10000 2.6 220 21:56 10.11.2020
5641 Clouds 11 1025 87 10000 3.1 230 21:38 10.11.2020
5642 Clear 11 1024 87 10000 2.6 220 21:18 10.11.2020
5643 Clear 11 1024 87 10000 2.6 210 20:42 10.11.2020
5644 Clear 11 1024 91 10000 2.15 221 20:23 10.11.2020
5645 Clouds 12 1024 87 10000 1.5 0 19:53 10.11.2020
5646 Clear 12 1024 90 10000 1.96 220 19:35 10.11.2020
5647 Clear 12 1024 88 10000 1.96 220 18:59 10.11.2020
5648 Clear 13 1024 82 10000 3.1 210 18:41 10.11.2020
5649 Clear 13 1024 77 10000 3.1 170 18:20 10.11.2020
5650 Clear 13 1023 84 10000 0.45 173 17:44 10.11.2020
5651 Clear 14 1023 83 10000 0.45 161 17:26 10.11.2020
5652 Clouds 14 1023 72 10000 2.6 220 16:57 10.11.2020
5653 Clouds 14 1023 72 10000 2.6 230 16:38 10.11.2020
5654 Clouds 15 1023 67 10000 2.6 210 16:20 10.11.2020
5655 Clear 15 1023 67 10000 3.1 230 15:46 10.11.2020
5656 Clear 15 1023 67 10000 3.1 230 15:25 10.11.2020
5657 Clouds 15 1023 72 10000 3.1 230 14:42 10.11.2020
5658 Clouds 15 1023 72 10000 3.1 230 14:23 10.11.2020
5659 Clouds 15 1024 77 10000 2.1 240 13:57 10.11.2020
5660 Clouds 15 1024 77 10000 3.6 220 13:36 10.11.2020
5661 Clouds 14 1024 82 10000 1.5 0 13:18 10.11.2020
5662 Clouds 14 1024 77 10000 2.1 190 12:44 10.11.2020
5663 Clouds 14 1024 77 10000 2.1 190 12:24 10.11.2020
5664 Clouds 13 1024 87 10000 1.5 0 11:40 10.11.2020
5665 Clouds 13 1024 87 10000 1.5 0 11:21 10.11.2020
5666 Clouds 12 1023 87 10000 2.6 220 10:48 10.11.2020
5667 Clouds 12 1023 87 10000 2.6 220 10:27 10.11.2020
5668 Clouds 11 1023 94 10000 1.99 178 09:57 10.11.2020
5669 Clouds 11 1023 93 10000 4.1 240 09:39 10.11.2020
5670 Clouds 11 1023 93 10000 4.1 240 09:39 10.11.2020
5671 Clouds 11 1023 93 10000 4.1 240 09:19 10.11.2020
5672 Rain 11 1022 93 6000 2.1 240 08:48 10.11.2020
5673 Rain 11 1022 93 6000 2.1 240 08:25 10.11.2020
5674 Haze 11 1022 100 3300 1.63 176 07:43 10.11.2020
5675 Haze 11 1022 100 3300 1.65 159 07:20 10.11.2020
5676 Clouds 11 1019 96 10000 1.5 176 06:39 10.11.2020
5677 Rain 12 1019 96 10000 1.38 169 05:41 10.11.2020
5678 Clouds 12 1018 95 10000 1.39 183 04:49 10.11.2020
5679 Rain 13 1021 93 7000 1.5 110 02:18 10.11.2020
5680 Clouds 13 1021 93 8000 1.5 130 01:25 10.11.2020
5681 Clouds 13 1021 93 10000 2.1 110 23:54 09.11.2020
5682 Clouds 13 1021 93 10000 0.5 0 23:24 09.11.2020
5683 Clouds 13 1020 93 10000 3.1 80 22:44 09.11.2020
5684 Clouds 13 1020 93 10000 3.1 80 22:24 09.11.2020
5685 Clouds 13 1020 87 10000 2.1 70 21:46 09.11.2020
5686 Clouds 13 1020 87 10000 2.1 70 21:27 09.11.2020
5687 Clouds 13 1020 87 10000 2.6 90 20:58 09.11.2020
5688 Rain 14 1020 87 10000 3.1 130 20:36 09.11.2020
5689 Rain 13 1020 93 5000 2.1 120 20:18 09.11.2020
5690 Clouds 14 1021 87 10000 2.6 200 19:40 09.11.2020
5691 Rain 14 1021 87 10000 2.6 200 19:21 09.11.2020
5692 Rain 14 1020 88 10000 0.45 152 18:41 09.11.2020
5693 Rain 14 1020 88 10000 0.45 152 18:41 09.11.2020
5694 Clouds 15 1019 77 10000 2.1 170 18:20 09.11.2020
5695 Rain 15 1019 85 10000 1.34 166 17:50 09.11.2020
5696 Clouds 15 1019 84 10000 0.89 160 17:30 09.11.2020
5697 Clouds 16 1019 82 10000 3.1 100 16:46 09.11.2020
5698 Rain 16 1019 82 10000 3.1 100 16:27 09.11.2020
5699 Rain 16 1019 82 10000 3.1 100 16:27 09.11.2020
5700 Clouds 16 1018 86 10000 0.45 97 15:51 09.11.2020
5701 Rain 17 1019 82 10000 3.1 110 15:30 09.11.2020
5702 Clouds 16 1019 82 10000 3.1 80 14:59 09.11.2020
5703 Clouds 17 1019 82 10000 3.1 80 14:40 09.11.2020
5704 Rain 17 1019 82 10000 3.1 100 14:22 09.11.2020
5705 Clouds 16 1019 82 10000 2.6 130 13:43 09.11.2020
5706 Clouds 16 1019 87 10000 2.6 130 13:20 09.11.2020
5707 Clouds 15 1020 87 10000 2.6 110 12:47 09.11.2020
5708 Clouds 15 1020 87 10000 2.6 110 12:21 09.11.2020
5709 Clouds 14 1020 93 10000 3.1 90 11:55 09.11.2020
5710 Clouds 14 1019 93 9000 2.6 90 11:36 09.11.2020
5711 Clouds 14 1019 87 8000 2.6 100 11:18 09.11.2020
5712 Clouds 13 1019 93 10000 2.1 100 10:41 09.11.2020
5713 Clouds 13 1019 93 7000 2.1 100 10:22 09.11.2020
5714 Clouds 12 1019 100 8000 2.1 90 09:41 09.11.2020
5715 Clouds 12 1019 100 8000 2.1 90 09:23 09.11.2020
5716 Mist 12 1019 100 4400 1.5 90 08:38 09.11.2020
5717 Clouds 12 1019 100 6000 2.1 90 08:19 09.11.2020
5718 Clouds 12 1019 100 7000 1.5 110 07:39 09.11.2020
5719 Clouds 12 1019 100 7000 1.5 110 07:19 09.11.2020
5720 Clouds 12 1019 93 6000 1.5 0 06:23 09.11.2020
5721 Mist 13 1019 93 3000 0.5 0 03:19 09.11.2020
5722 Haze 13 1019 93 3900 0.5 0 01:43 09.11.2020
5723 Mist 13 1019 93 3600 1.33 187 00:58 09.11.2020
5724 Haze 14 1019 93 2900 1.5 0 23:53 08.11.2020
5725 Clouds 14 1019 93 6000 1 0 23:30 08.11.2020
5726 Rain 14 1019 93 2000 1.5 90 22:46 08.11.2020
5727 Clouds 14 1019 93 2000 1.5 90 22:23 08.11.2020
5728 Clouds 14 1019 93 2500 1 70 21:56 08.11.2020
5729 Clouds 14 1019 93 2500 1 70 21:56 08.11.2020
5730 Clouds 14 1018 93 2200 0.5 0 21:37 08.11.2020
5731 Rain 14 1018 93 2700 1.5 0 21:18 08.11.2020
5732 Clouds 14 1018 87 5000 2.1 110 20:39 08.11.2020
5733 Clouds 14 1018 87 5000 2.1 110 20:39 08.11.2020
5734 Clouds 14 1018 87 7000 2.6 120 20:21 08.11.2020
5735 Clouds 14 1018 87 7000 2.6 120 19:57 08.11.2020
5736 Clouds 14 1018 87 9000 2.6 120 19:39 08.11.2020
5737 Clouds 14 1018 93 9000 1.5 110 19:20 08.11.2020
5738 Clouds 14 1018 82 10000 1.5 120 18:47 08.11.2020
5739 Rain 14 1017 88 10000 1.29 179 18:22 08.11.2020
5740 Clouds 14 1018 77 10000 1 170 17:57 08.11.2020
5741 Clouds 15 1017 77 10000 1 0 17:38 08.11.2020
5742 Clouds 15 1017 77 10000 1.5 220 17:19 08.11.2020
5743 Clouds 15 1017 77 10000 1.5 220 16:48 08.11.2020
5744 Clouds 15 1017 77 10000 2.1 220 16:48 08.11.2020
5745 Clouds 15 1017 77 10000 1.5 0 16:22 08.11.2020
5746 Clouds 15 1017 77 10000 1.5 0 15:58 08.11.2020
5747 Clouds 15 1017 77 10000 1.5 270 15:39 08.11.2020
5748 Clouds 15 1017 77 10000 1.5 270 15:21 08.11.2020
5749 Clouds 15 1018 77 10000 2.1 270 14:41 08.11.2020
5750 Clouds 15 1018 77 10000 2.1 270 14:21 08.11.2020
5751 Clouds 15 1018 77 10000 1.5 70 13:46 08.11.2020
5752 Clouds 15 1018 77 10000 1.5 70 13:23 08.11.2020
5753 Clouds 15 1018 77 10000 1.5 70 13:23 08.11.2020
5754 Haze 15 1018 87 5000 1.5 90 12:44 08.11.2020
5755 Haze 14 1018 87 5000 1.5 90 12:25 08.11.2020
5756 Haze 13 1018 93 5000 1.5 90 11:58 08.11.2020
5757 Haze 13 1018 93 3500 1 0 11:40 08.11.2020
5758 Haze 13 1018 93 2700 2.1 90 11:20 08.11.2020
5759 Haze 12 1018 93 2700 2.1 90 10:50 08.11.2020
5760 Mist 11 1018 93 2100 1.5 100 10:19 08.11.2020
5761 Mist 11 1018 93 2100 1.5 100 09:55 08.11.2020
5762 Mist 11 1018 93 1800 3.1 100 09:37 08.11.2020
5763 Mist 10 1018 93 1700 2.1 100 09:18 08.11.2020
5764 Mist 10 1018 93 2300 1.5 70 08:39 08.11.2020
5765 Haze 10 1018 93 2700 1.5 70 08:20 08.11.2020
5766 Haze 10 1018 93 2700 1.5 70 07:52 08.11.2020
5767 Haze 10 1018 93 2600 1.5 70 07:28 08.11.2020
5768 Mist 10 1018 93 2800 2.1 80 06:23 08.11.2020
5769 Mist 10 1018 100 2500 1.5 100 05:52 08.11.2020
5770 Mist 10 1018 100 2300 2.6 80 04:50 08.11.2020
5771 Mist 10 1019 100 1100 3.1 100 01:53 08.11.2020
5772 Fog 10 1019 100 150 2.6 80 01:19 08.11.2020
5773 Fog 10 1019 100 150 2.6 100 00:30 08.11.2020
5774 Fog 9 1019 100 150 2.1 60 23:47 07.11.2020
5775 Fog 9 1019 100 200 3.1 90 23:29 07.11.2020
5776 Haze 10 1019 93 2000 1.5 90 22:47 07.11.2020
5777 Haze 10 1019 93 2000 1.5 90 22:27 07.11.2020
5778 Haze 10 1019 93 2000 3.1 90 21:56 07.11.2020
5779 Haze 10 1020 93 2300 3.1 90 21:37 07.11.2020
5780 Haze 10 1020 93 3100 3.1 80 21:18 07.11.2020
5781 Haze 11 1020 93 4600 3.6 80 20:44 07.11.2020
5782 Haze 10 1020 93 4600 3.6 80 20:25 07.11.2020
5783 Clear 11 1020 87 7000 3.1 70 19:45 07.11.2020
5784 Clouds 11 1020 87 7000 3.1 70 19:26 07.11.2020
5785 Clouds 11 1020 81 10000 3.1 90 18:43 07.11.2020
5786 Clear 12 1020 81 10000 3.1 90 18:24 07.11.2020
5787 Clear 12 1020 82 10000 3.1 90 17:47 07.11.2020
5788 Clear 13 1020 82 10000 3.1 90 17:28 07.11.2020
5789 Clear 14 1019 76 10000 3.1 80 16:46 07.11.2020
5790 Clear 14 1019 76 10000 3.1 80 16:25 07.11.2020
5791 Clear 15 1019 76 10000 3.6 80 15:58 07.11.2020
5792 Clear 15 1020 76 10000 2.6 90 15:39 07.11.2020
5793 Clear 15 1020 76 10000 2.6 110 15:19 07.11.2020
5794 Clear 15 1020 82 10000 2.1 100 14:42 07.11.2020
5795 Clear 15 1020 82 10000 2.1 100 14:24 07.11.2020
5796 Clear 14 1020 76 10000 3.6 90 13:50 07.11.2020
5797 Clouds 13 1020 81 10000 3.6 90 13:29 07.11.2020
5798 Clouds 12 1021 81 9000 2.6 90 12:44 07.11.2020
5799 Clouds 12 1021 81 9000 2.6 90 12:20 07.11.2020
5800 Clouds 11 1021 81 10000 2.6 80 11:41 07.11.2020
5801 Clouds 10 1021 81 8000 1.5 70 11:22 07.11.2020
5802 Clouds 9 1021 87 8000 1.5 0 10:45 07.11.2020
5803 Clouds 8 1021 93 7000 1.5 80 10:25 07.11.2020
5804 Clouds 8 1021 93 7000 1.5 80 09:52 07.11.2020
5805 Clouds 7 1021 87 8000 0.5 0 09:32 07.11.2020
5806 Clouds 8 1021 93 8000 1 0 08:53 07.11.2020
5807 Clouds 8 1021 87 8000 1 0 08:34 07.11.2020
5808 Clouds 7 1021 93 9000 1 0 07:50 07.11.2020
5809 Clouds 6 1020 87 10000 2.1 70 07:19 07.11.2020
5810 Clear 7 1020 81 10000 2.1 60 06:47 07.11.2020
5811 Clear 7 1021 87 10000 2.1 70 05:24 07.11.2020
5812 Clear 7 1021 81 10000 3.1 110 03:24 07.11.2020
5813 Clouds 8 1022 76 10000 3.6 100 01:29 07.11.2020
5814 Clouds 8 1022 76 10000 3.6 100 00:59 07.11.2020
5815 Clear 9 1023 71 10000 3.6 80 23:56 06.11.2020
5816 Clouds 8 1023 76 10000 3.1 100 23:22 06.11.2020
5817 Clouds 9 1023 71 10000 3.6 100 22:44 06.11.2020
5818 Clouds 9 1024 71 10000 3.6 100 22:19 06.11.2020
5819 Clouds 9 1024 71 10000 3.6 100 21:47 06.11.2020
5820 Clouds 9 1024 71 10000 3.6 100 21:22 06.11.2020
5821 Clouds 9 1024 71 10000 3.6 100 20:59 06.11.2020
5822 Clouds 9 1024 71 10000 4.1 90 20:41 06.11.2020
5823 Clear 9 1024 76 10000 4.1 70 20:19 06.11.2020
5824 Clear 9 1025 71 10000 2.6 40 19:45 06.11.2020
5825 Clouds 9 1025 71 10000 2.6 40 19:26 06.11.2020
5826 Clouds 9 1025 66 10000 3.1 100 18:46 06.11.2020
5827 Clouds 9 1025 66 10000 3.1 100 18:24 06.11.2020
5828 Clouds 10 1026 62 10000 4.6 90 17:52 06.11.2020
5829 Clouds 10 1026 62 10000 4.6 90 17:31 06.11.2020
5830 Clouds 11 1027 62 10000 6.7 90 16:58 06.11.2020
5831 Clouds 11 1027 62 10000 6.7 90 16:33 06.11.2020
5832 Clouds 11 1027 66 10000 5.7 90 15:55 06.11.2020
5833 Clouds 11 1028 66 10000 5.1 90 15:33 06.11.2020
5834 Clouds 11 1028 62 10000 5.7 80 14:54 06.11.2020
5835 Clouds 10 1029 66 10000 4.1 80 14:29 06.11.2020
5836 Clouds 10 1029 76 10000 4.1 100 13:54 06.11.2020
5837 Clouds 10 1030 76 10000 4.6 100 13:26 06.11.2020
5838 Clouds 9 1030 81 10000 3.6 100 12:56 06.11.2020
5839 Haze 10 1031 87 5000 2.6 100 12:38 06.11.2020
5840 Haze 10 1031 87 5000 2.6 100 12:38 06.11.2020
5841 Haze 8 1031 87 5000 2.6 60 12:18 06.11.2020
5842 Mist 9 1031 93 4800 1 0 11:37 06.11.2020
5843 Mist 8 1032 100 3700 0.5 0 10:58 06.11.2020
5844 Mist 7 1032 100 5000 1 350 10:35 06.11.2020
5845 Mist 6 1032 93 5000 2.1 10 09:57 06.11.2020
5846 Mist 5 1032 93 1500 1.5 350 09:38 06.11.2020
5847 Mist 5 1032 93 1500 1.5 350 09:20 06.11.2020
5848 Fog 5 1032 100 100 1.5 0 08:47 06.11.2020
5849 Fog 5 1032 100 100 1 0 08:27 06.11.2020
5850 Fog 4 1033 100 50 2.1 110 07:42 06.11.2020
5851 Fog 5 1033 100 50 2.1 110 07:19 06.11.2020
5852 Fog 5 1033 100 50 2.1 60 06:40 06.11.2020
5853 Fog 5 1033 93 50 1.5 110 05:38 06.11.2020
5854 Haze 5 1035 93 1200 1 0 02:52 06.11.2020
5855 Haze 8 1036 93 1500 2.1 40 00:34 06.11.2020
5856 Haze 5 1036 87 1800 1.5 80 23:56 05.11.2020
5857 Haze 6 1036 87 3100 2.1 80 23:26 05.11.2020
5858 Haze 7 1036 87 3100 2.1 80 22:48 05.11.2020
5859 Haze 7 1036 87 3100 2.1 80 22:26 05.11.2020
5860 Haze 7 1036 87 3100 2.1 80 22:26 05.11.2020
5861 Haze 7 1036 87 3200 1 90 21:58 05.11.2020
5862 Clouds 7 1036 87 6000 1.5 100 21:40 05.11.2020
5863 Clouds 7 1037 87 8000 1.5 90 21:19 05.11.2020
5864 Clouds 8 1037 81 9000 1.5 90 20:44 05.11.2020
5865 Clouds 9 1037 81 10000 1 90 20:24 05.11.2020
5866 Clouds 9 1037 81 10000 1 90 19:57 05.11.2020
5867 Clouds 8 1037 76 10000 1 110 19:38 05.11.2020
5868 Clouds 10 1037 71 10000 1.5 80 19:19 05.11.2020
5869 Clear 9 1037 71 10000 1.5 70 18:41 05.11.2020
5870 Clear 9 1037 71 10000 1.5 70 18:22 05.11.2020
5871 Clear 10 1037 71 10000 1 130 17:47 05.11.2020
5872 Clear 9 1037 71 10000 0.5 0 17:26 05.11.2020
5873 Clear 10 1037 71 10000 0.5 0 16:50 05.11.2020
5874 Clear 10 1037 71 10000 0.5 0 16:29 05.11.2020
5875 Clear 10 1038 76 10000 1 0 15:57 05.11.2020
5876 Clear 10 1038 76 9000 0.5 0 15:39 05.11.2020
5877 Clear 9 1038 81 8000 1 280 15:20 05.11.2020
5878 Clear 9 1039 93 6000 1 0 14:44 05.11.2020
5879 Clear 10 1039 93 6000 1 0 14:24 05.11.2020
5880 Mist 9 1040 100 3500 1.5 0 13:41 05.11.2020
5881 Mist 9 1040 100 3500 1.5 0 13:23 05.11.2020
5882 Mist 9 1040 100 3500 1.5 0 13:23 05.11.2020
5883 Mist 5 1040 93 1600 1.5 0 12:45 05.11.2020
5884 Mist 8 1040 93 1600 1.5 0 12:23 05.11.2020
5885 Fog 8 1040 93 350 1.5 0 11:46 05.11.2020
5886 Fog 5 1040 93 350 1.5 0 11:25 05.11.2020
5887 Fog 8 1040 93 200 1.5 0 10:52 05.11.2020
5888 Fog 7 1040 93 200 2.1 240 10:30 05.11.2020
5889 Fog 6 1040 100 200 2.1 240 09:58 05.11.2020
5890 Fog 5 1040 93 150 2.1 230 09:38 05.11.2020
5891 Fog 5 1039 93 150 2.1 210 09:20 05.11.2020
5892 Fog 5 1039 93 250 2.1 220 08:43 05.11.2020
5893 Fog 4 1039 93 250 2.1 220 08:24 05.11.2020
5894 Clouds 6 1039 93 6000 2.1 210 07:29 05.11.2020
5895 Clouds 6 1039 86 7000 2.1 220 06:52 05.11.2020
5896 Clouds 6 1039 86 7000 2.1 220 06:33 05.11.2020
5897 Clouds 4 1039 93 7000 2.1 220 03:47 05.11.2020
5898 Clouds 5 1039 87 7000 1.5 230 01:22 05.11.2020
5899 Clouds 6 1039 87 8000 1.5 250 00:29 05.11.2020
5900 Clouds 6 1039 81 10000 1 0 23:44 04.11.2020
5901 Clouds 6 1039 81 10000 1 0 23:44 04.11.2020
5902 Clouds 6 1039 81 10000 1 0 23:25 04.11.2020
5903 Clouds 7 1038 81 10000 0.5 0 22:45 04.11.2020
5904 Clouds 7 1038 81 10000 1.49 296 22:24 04.11.2020
5905 Clouds 6 1038 81 10000 1.49 296 21:51 04.11.2020
5906 Clouds 7 1038 76 10000 1 0 21:29 04.11.2020
5907 Clouds 7 1037 76 10000 1.5 280 20:56 04.11.2020
5908 Clouds 7 1037 76 10000 1.5 310 20:38 04.11.2020
5909 Clouds 7 1037 76 10000 1.5 310 20:19 04.11.2020
5910 Clouds 8 1036 71 10000 1.5 280 19:44 04.11.2020
5911 Clouds 8 1036 71 10000 1.5 280 19:26 04.11.2020
5912 Clouds 9 1036 62 10000 1.5 300 18:44 04.11.2020
5913 Clouds 9 1036 62 10000 1.5 300 18:25 04.11.2020
5914 Clouds 10 1035 50 10000 2.1 330 17:57 04.11.2020
5915 Clouds 10 1035 50 10000 2.1 330 17:38 04.11.2020
5916 Clear 10 1035 50 10000 2.6 300 17:19 04.11.2020
5917 Clear 11 1034 54 10000 2.1 300 16:38 04.11.2020
5918 Clouds 11 1034 54 10000 2.6 300 16:20 04.11.2020
5919 Clear 12 1034 50 10000 2.6 330 15:47 04.11.2020
5920 Clear 12 1034 50 10000 2.6 330 15:25 04.11.2020
5921 Clear 12 1034 54 10000 2.6 300 14:57 04.11.2020
5922 Clear 11 1034 57 10000 3.1 280 14:39 04.11.2020
5923 Clear 11 1034 62 10000 2.6 270 14:18 04.11.2020
5924 Clear 11 1034 62 10000 2.1 240 13:41 04.11.2020
5925 Clear 10 1034 66 10000 2.1 270 13:19 04.11.2020
5926 Clear 10 1034 66 10000 2.1 270 12:50 04.11.2020
5927 Clear 9 1033 70 10000 1.5 0 12:26 04.11.2020
5928 Clear 8 1033 70 10000 1.5 0 11:56 04.11.2020
5929 Clear 8 1033 70 10000 1.5 0 11:56 04.11.2020
5930 Clear 8 1033 75 10000 2.1 260 11:36 04.11.2020
5931 Clear 7 1033 75 10000 1.5 0 11:18 04.11.2020
5932 Clear 8 1033 81 10000 2.6 290 10:43 04.11.2020
5933 Clear 7 1033 81 10000 2.6 290 10:22 04.11.2020
5934 Clear 6 1032 93 10000 1.5 220 09:50 04.11.2020
5935 Clear 4 1032 93 10000 1.5 220 09:22 04.11.2020
5936 Clear 5 1031 86 10000 2.1 220 08:45 04.11.2020
5937 Clear 5 1030 86 10000 1.5 230 08:19 04.11.2020
5938 Clear 5 1030 86 10000 1.5 230 07:50 04.11.2020
5939 Clear 5 1030 86 10000 2.1 230 07:27 04.11.2020
5940 Clear 5 1029 86 10000 1.5 230 06:46 04.11.2020
5941 Clear 5 1029 86 10000 1.5 230 06:27 04.11.2020
5942 Clear 5 1028 86 10000 2.1 230 03:46 04.11.2020
5943 Clear 5 1027 81 10000 2.6 240 02:20 04.11.2020
5944 Clear 5 1026 75 10000 3.1 230 00:43 04.11.2020
5945 Clear 6 1026 88 10000 2.59 263 23:44 03.11.2020
5946 Clear 6 1025 75 10000 4.1 240 23:23 03.11.2020
5947 Clear 6 1024 75 10000 4.6 240 22:41 03.11.2020
5948 Clear 7 1024 75 10000 4.6 240 22:21 03.11.2020
5949 Clear 7 1024 75 10000 4.6 240 21:56 03.11.2020
5950 Clear 7 1023 75 10000 3.6 240 21:38 03.11.2020
5951 Clear 7 1023 75 10000 3.6 240 21:20 03.11.2020
5952 Clear 7 1024 86 10000 0.45 255 20:45 03.11.2020
5953 Clear 8 1023 66 10000 4.6 240 20:26 03.11.2020
5954 Clear 8 1023 82 10000 4.37 275 19:44 03.11.2020
5955 Clear 8 1023 82 10000 4.37 275 19:44 03.11.2020
5956 Clouds 8 1022 80 10000 4.79 268 19:23 03.11.2020
5957 Clouds 9 1021 57 10000 5.1 260 18:46 03.11.2020
5958 Clouds 9 1022 75 10000 4.94 267 18:24 03.11.2020
5959 Clouds 9 1021 74 10000 4.94 267 17:59 03.11.2020
5960 Clouds 9 1021 72 10000 4.94 267 17:41 03.11.2020
5961 Clouds 10 1020 57 10000 7.2 270 17:23 03.11.2020
5962 Clouds 10 1020 57 10000 7.2 250 16:45 03.11.2020
5963 Clouds 10 1020 57 10000 7.2 250 16:24 03.11.2020
5964 Clouds 10 1019 57 10000 7.2 250 15:48 03.11.2020
5965 Clouds 10 1019 62 10000 7.2 260 15:29 03.11.2020
5966 Clouds 10 1019 66 10000 8.2 260 14:53 03.11.2020
5967 Clouds 10 1018 66 10000 6.2 250 14:33 03.11.2020
5968 Clouds 10 1018 66 10000 8.2 260 13:47 03.11.2020
5969 Clouds 10 1018 66 10000 8.2 260 13:26 03.11.2020
5970 Clouds 9 1018 70 10000 6.7 250 12:59 03.11.2020
5971 Clouds 9 1017 76 10000 7.2 250 12:41 03.11.2020
5972 Clouds 9 1016 70 10000 8.2 250 12:20 03.11.2020
5973 Clouds 8 1015 81 10000 10.8 260 11:46 03.11.2020
5974 Clouds 8 1015 81 10000 10.8 260 11:22 03.11.2020
5975 Clouds 8 1016 89 10000 1.79 281 10:55 03.11.2020
5976 Clouds 8 1014 81 10000 5.7 260 10:36 03.11.2020
5977 Clouds 8 1013 81 10000 7.7 250 10:18 03.11.2020
5978 Clouds 8 1012 81 10000 4.1 190 09:44 03.11.2020
5979 Clouds 9 1013 81 10000 4.1 170 09:20 03.11.2020
5980 Clouds 8 1013 87 10000 6.2 250 08:45 03.11.2020
5981 Clouds 8 1013 87 10000 6.2 250 08:26 03.11.2020
5982 Rain 8 1014 76 8000 5.7 130 07:37 03.11.2020
5983 Rain 8 1015 70 10000 4.6 130 06:53 03.11.2020
5984 Rain 8 1016 75 10000 3.1 120 06:20 03.11.2020
5985 Clear 7 1018 70 10000 2.6 230 03:59 03.11.2020
5986 Clear 8 1016 70 10000 4.6 250 00:44 03.11.2020
5987 Clear 8 1017 83 10000 5.26 255 00:20 03.11.2020
5988 Clear 9 1016 61 10000 6.2 250 23:42 02.11.2020
5989 Clear 9 1015 66 10000 6.7 240 22:57 02.11.2020
5990 Clear 9 1015 62 10000 6.7 240 22:39 02.11.2020
5991 Clear 10 1014 57 10000 7.7 240 22:21 02.11.2020
5992 Clear 10 1015 76 10000 0.89 263 21:39 02.11.2020
5993 Clear 10 1013 57 10000 7.2 230 21:20 02.11.2020
5994 Clear 10 1013 57 10000 6.7 230 20:55 02.11.2020
5995 Clear 10 1012 62 10000 7.7 250 20:36 02.11.2020
5996 Clear 10 1013 71 10000 8.37 251 20:18 02.11.2020
5997 Clear 11 1011 54 10000 6.7 240 19:42 02.11.2020
5998 Clouds 11 1011 54 10000 6.7 240 19:22 02.11.2020
5999 Clouds 11 1011 72 10000 0.45 175 18:42 02.11.2020
6000 Clouds 12 1009 50 10000 8.7 250 18:21 02.11.2020
6001 Clouds 12 1010 70 10000 8.69 248 17:56 02.11.2020
6002 Clouds 12 1010 69 10000 8.69 248 17:56 02.11.2020
6003 Clouds 13 1008 54 10000 6.7 250 17:38 02.11.2020
6004 Clouds 13 1008 54 10000 8.2 260 17:19 02.11.2020
6005 Clouds 13 1008 54 10000 9.8 260 16:40 02.11.2020
6006 Clouds 13 1008 54 10000 9.8 260 16:40 02.11.2020
6007 Clouds 13 1008 54 10000 9.8 260 16:22 02.11.2020
6008 Rain 14 1007 51 10000 10.8 250 15:41 02.11.2020
6009 Clouds 14 1007 51 10000 10.8 250 15:22 02.11.2020
6010 Clouds 14 1006 51 10000 11.3 250 14:53 02.11.2020
6011 Clouds 14 1005 54 10000 8.7 250 14:20 02.11.2020
6012 Clouds 14 1005 54 10000 8.7 250 13:56 02.11.2020
6013 Clouds 14 1005 58 10000 9.3 250 13:38 02.11.2020
6014 Clouds 14 1004 67 10000 8.2 260 13:19 02.11.2020
6015 Clouds 13 1004 76 10000 8.7 250 12:31 02.11.2020
6016 Clouds 14 1001 72 6000 13.9 270 11:59 02.11.2020
6017 Clouds 14 1001 72 6000 13.9 270 11:38 02.11.2020
6018 Rain 16 1000 77 10000 9.8 230 11:19 02.11.2020
6019 Rain 17 1000 77 9000 8.2 220 10:43 02.11.2020
6020 Clouds 16 1001 90 10000 0.45 255 10:21 02.11.2020
6021 Clouds 16 999 72 10000 8.2 230 09:51 02.11.2020
6022 Clouds 16 999 77 10000 8.2 230 09:24 02.11.2020
6023 Clouds 16 998 72 10000 10.3 230 08:46 02.11.2020
6024 Clouds 16 998 72 10000 10.3 230 08:26 02.11.2020
6025 Clouds 17 998 72 10000 10.8 230 07:53 02.11.2020
6026 Clouds 17 998 72 10000 11.3 240 07:25 02.11.2020
6027 Clouds 17 998 82 10000 7.2 220 06:36 02.11.2020
6028 Clouds 17 998 77 10000 8.7 220 03:55 02.11.2020
6029 Clouds 17 999 82 10000 8.7 220 01:25 02.11.2020
6030 Clouds 17 999 82 10000 8.2 220 00:36 02.11.2020
6031 Clouds 17 1000 82 10000 8.2 230 23:45 01.11.2020
6032 Clouds 17 1000 82 10000 8.2 230 23:25 01.11.2020
6033 Clouds 17 1000 82 10000 7.7 220 22:48 01.11.2020
6034 Clouds 17 1000 82 10000 7.7 220 22:27 01.11.2020
6035 Clouds 17 999 82 10000 8.7 220 22:27 01.11.2020
6036 Clouds 17 1000 82 10000 7.7 220 21:59 01.11.2020
6037 Clouds 17 1000 82 10000 8.7 220 21:41 01.11.2020
6038 Clouds 17 1000 82 10000 8.7 220 21:23 01.11.2020
6039 Clouds 17 1000 82 10000 6.7 220 20:43 01.11.2020
6040 Clouds 17 1000 82 10000 6.7 220 20:25 01.11.2020
6041 Clouds 17 1000 88 10000 8.2 210 19:45 01.11.2020
6042 Clouds 17 1000 88 10000 8.2 210 19:26 01.11.2020
6043 Clouds 16 1001 82 10000 8.2 200 18:57 01.11.2020
6044 Clouds 16 1001 87 10000 6.2 200 18:37 01.11.2020
6045 Clouds 16 1002 82 10000 5.7 210 18:18 01.11.2020
6046 Clouds 16 1002 82 9000 6.2 220 17:43 01.11.2020
6047 Clouds 15 1002 82 9000 6.2 220 17:25 01.11.2020
6048 Rain 16 1002 67 9000 6.7 230 16:44 01.11.2020
6049 Rain 16 1002 67 9000 6.7 230 16:25 01.11.2020
6050 Rain 16 1002 72 9000 6.7 230 15:57 01.11.2020
6051 Clouds 16 1002 72 9000 7.2 230 15:38 01.11.2020
6052 Clouds 16 1002 72 9000 7.2 230 15:38 01.11.2020
6053 Clouds 16 1002 72 9000 7.2 230 15:18 01.11.2020
6054 Clouds 16 1002 67 10000 9.3 230 14:45 01.11.2020
6055 Clouds 16 1002 67 10000 9.3 230 14:22 01.11.2020
6056 Clouds 17 1002 68 10000 8.7 230 13:56 01.11.2020
6057 Clouds 17 1002 72 10000 8.7 230 13:37 01.11.2020
6058 Clouds 17 1002 72 10000 7.2 240 13:19 01.11.2020
6059 Clouds 17 1001 82 10000 7.2 240 12:38 01.11.2020
6060 Clouds 17 1001 82 10000 7.2 230 12:18 01.11.2020
6061 Clouds 17 1001 82 10000 6.2 220 11:48 01.11.2020
6062 Clouds 16 1001 87 10000 6.2 210 11:18 01.11.2020
6063 Clouds 16 1001 87 8000 5.1 190 10:42 01.11.2020
6064 Clouds 15 1001 87 8000 5.1 190 10:24 01.11.2020
6065 Clouds 14 1002 87 7000 5.1 180 09:49 01.11.2020
6066 Clouds 13 1003 87 6000 5.1 170 09:26 01.11.2020
6067 Clouds 13 1003 76 10000 4.1 180 08:40 01.11.2020
6068 Clouds 13 1004 76 10000 4.1 180 07:57 01.11.2020
6069 Clouds 12 1006 66 10000 5.1 200 06:52 01.11.2020
6070 Clouds 11 1010 85 10000 5.36 208 02:32 01.11.2020
6071 Clouds 11 1011 86 10000 5.46 217 01:42 01.11.2020
6072 Clouds 11 1012 83 10000 5.09 227 00:22 01.11.2020
6073 Clouds 11 1012 80 10000 5.85 236 23:24 31.10.2020
6074 Clouds 11 1012 82 10000 5.85 236 22:45 31.10.2020
6075 Clouds 11 1012 81 10000 6.02 235 22:25 31.10.2020
6076 Clouds 11 1012 81 10000 6.02 235 22:25 31.10.2020
6077 Clouds 11 1011 83 10000 6.02 235 21:47 31.10.2020
6078 Clouds 11 1011 83 10000 6.02 235 21:47 31.10.2020
6079 Clouds 11 1012 83 10000 5.1 232 21:23 31.10.2020
6080 Clouds 11 1012 83 10000 0.45 254 20:59 31.10.2020
6081 Clouds 11 1010 71 10000 3.1 240 20:38 31.10.2020
6082 Clouds 11 1012 85 10000 0.45 264 20:18 31.10.2020
6083 Clouds 11 1011 71 10000 5.1 240 20:18 31.10.2020
6084 Clouds 11 1010 71 10000 4.6 240 19:39 31.10.2020
6085 Clouds 11 1010 71 10000 4.6 240 19:20 31.10.2020
6086 Clouds 11 1010 83 10000 6.09 244 18:46 31.10.2020
6087 Clouds 12 1009 66 10000 5.1 250 18:23 31.10.2020
6088 Clouds 12 1008 71 10000 8.7 250 17:40 31.10.2020
6089 Clouds 13 1008 71 10000 8.7 250 17:22 31.10.2020
6090 Clouds 13 1006 77 10000 7.2 240 16:43 31.10.2020
6091 Rain 14 1006 77 10000 7.2 240 16:25 31.10.2020
6092 Rain 15 1006 82 10000 6.7 200 15:45 31.10.2020
6093 Rain 15 1006 82 10000 6.7 200 15:24 31.10.2020
6094 Rain 14 1006 87 10000 6.7 200 14:49 31.10.2020
6095 Rain 14 1006 87 7000 6.7 200 14:31 31.10.2020
6096 Rain 14 1007 87 7000 6.2 180 13:50 31.10.2020
6097 Rain 14 1007 87 3800 7.7 170 13:26 31.10.2020
6098 Rain 15 1008 77 10000 7.2 170 12:43 31.10.2020
6099 Rain 15 1009 77 10000 7.7 170 12:18 31.10.2020
6100 Clouds 15 1010 72 10000 6.7 180 11:39 31.10.2020
6101 Clouds 15 1010 72 10000 6.7 180 11:20 31.10.2020
6102 Rain 15 1011 77 10000 6.7 180 10:37 31.10.2020
6103 Rain 14 1012 87 10000 7.56 181 09:48 31.10.2020
6104 Clouds 14 1012 87 10000 7.18 185 09:29 31.10.2020
6105 Clouds 14 1012 87 10000 7.18 185 08:52 31.10.2020
6106 Clouds 14 1013 86 10000 6.52 181 08:18 31.10.2020
6107 Clouds 14 1014 87 10000 6.25 184 07:28 31.10.2020
6108 Clouds 14 1015 87 10000 6.25 184 06:47 31.10.2020
6109 Clouds 14 1016 77 10000 5.1 180 06:29 31.10.2020
6110 Clouds 14 1018 82 10000 3.6 200 03:47 31.10.2020
6111 Clouds 14 1019 87 10000 4.1 200 02:20 31.10.2020
6112 Clouds 14 1019 93 10000 5.18 206 00:51 31.10.2020
6113 Clouds 14 1019 92 10000 5.1 207 23:54 30.10.2020
6114 Clouds 15 1019 87 10000 4.6 210 23:29 30.10.2020
6115 Clouds 15 1019 82 10000 4.1 210 22:59 30.10.2020
6116 Clouds 15 1019 87 10000 2.6 220 22:38 30.10.2020
6117 Clouds 15 1019 87 10000 2.6 220 22:19 30.10.2020
6118 Clouds 15 1019 87 10000 2.6 220 22:19 30.10.2020
6119 Clouds 15 1019 87 10000 3.1 210 21:47 30.10.2020
6120 Clouds 15 1019 93 10000 3.1 220 21:26 30.10.2020
6121 Clouds 15 1019 93 5000 4.1 240 20:45 30.10.2020
6122 Clouds 15 1019 93 5000 4.1 240 20:26 30.10.2020
6123 Clouds 15 1019 82 10000 4.6 240 19:58 30.10.2020
6124 Clouds 15 1018 82 10000 4.6 230 19:39 30.10.2020
6125 Clouds 15 1018 82 10000 5.7 230 19:18 30.10.2020
6126 Clouds 15 1018 82 10000 4.6 230 18:41 30.10.2020
6127 Clouds 15 1018 82 10000 4.6 230 18:22 30.10.2020
6128 Clouds 16 1018 82 10000 5.1 230 17:46 30.10.2020
6129 Clouds 16 1017 77 10000 6.2 230 17:21 30.10.2020
6130 Clouds 16 1017 77 10000 5.1 230 16:50 30.10.2020
6131 Clouds 16 1017 77 10000 5.1 230 16:25 30.10.2020
6132 Drizzle 16 1017 77 5000 6.2 240 15:45 30.10.2020
6133 Drizzle 16 1017 77 5000 6.2 240 15:27 30.10.2020
6134 Clouds 16 1017 77 10000 6.7 230 14:58 30.10.2020
6135 Clouds 16 1016 77 10000 6.7 230 14:40 30.10.2020
6136 Clouds 16 1016 77 10000 6.7 230 14:21 30.10.2020
6137 Clouds 16 1016 77 10000 6.7 230 13:42 30.10.2020
6138 Clouds 16 1016 77 10000 6.7 230 13:20 30.10.2020
6139 Clouds 16 1016 82 10000 6.7 240 12:49 30.10.2020
6140 Clouds 16 1016 82 10000 7.2 230 12:22 30.10.2020
6141 Clouds 16 1016 82 10000 7.2 230 11:56 30.10.2020
6142 Clouds 16 1015 77 10000 7.2 230 11:22 30.10.2020
6143 Clouds 15 1015 77 10000 7.2 230 10:50 30.10.2020
6144 Clouds 15 1015 77 10000 5.1 220 10:26 30.10.2020
6145 Clouds 15 1015 77 10000 6.7 230 09:56 30.10.2020
6146 Clouds 15 1015 77 10000 5.7 230 09:38 30.10.2020
6147 Clouds 15 1015 77 10000 5.7 230 09:19 30.10.2020
6148 Clouds 15 1015 87 10000 0.89 280 08:32 30.10.2020
6149 Clouds 15 1015 88 10000 6.47 229 07:54 30.10.2020
6150 Clouds 15 1013 77 10000 7.7 230 07:36 30.10.2020
6151 Clouds 15 1013 77 10000 7.2 230 07:18 30.10.2020
6152 Clouds 15 1013 77 10000 7.7 230 05:59 30.10.2020
6153 Clouds 15 1013 77 10000 8.2 230 03:47 30.10.2020
6154 Clouds 15 1013 82 10000 7.2 230 01:24 30.10.2020
6155 Clouds 15 1013 82 10000 7.7 230 00:26 30.10.2020
6156 Clouds 15 1012 77 10000 7.2 240 23:43 29.10.2020
6157 Clouds 15 1012 77 10000 7.2 230 23:25 29.10.2020
6158 Clouds 15 1012 72 10000 7.7 230 22:45 29.10.2020
6159 Clouds 15 1012 72 10000 7.7 230 22:27 29.10.2020
6160 Clouds 15 1012 82 10000 7.2 230 21:49 29.10.2020
6161 Clouds 15 1012 82 10000 7.2 230 21:24 29.10.2020
6162 Clouds 14 1012 82 10000 6.7 240 20:43 29.10.2020
6163 Clouds 14 1012 77 10000 6.7 240 20:24 29.10.2020
6164 Clouds 14 1012 77 10000 6.7 240 19:57 29.10.2020
6165 Clouds 14 1012 77 10000 7.2 230 19:38 29.10.2020
6166 Clouds 14 1012 82 10000 6.2 240 19:18 29.10.2020
6167 Clouds 14 1011 82 10000 7.2 230 18:45 29.10.2020
6168 Clouds 14 1011 82 10000 7.2 230 18:25 29.10.2020
6169 Clouds 14 1011 82 10000 6.7 230 17:42 29.10.2020
6170 Clouds 14 1011 82 10000 6.7 230 17:23 29.10.2020
6171 Clouds 14 1011 82 10000 6.7 230 16:54 29.10.2020
6172 Clouds 14 1011 82 10000 6.7 220 16:23 29.10.2020
6173 Clouds 14 1011 82 10000 6.7 220 15:59 29.10.2020
6174 Clouds 14 1011 82 10000 6.7 230 15:41 29.10.2020
6175 Clouds 14 1011 82 10000 6.7 230 15:22 29.10.2020
6176 Rain 14 1012 87 10000 5.7 220 14:59 29.10.2020
6177 Rain 14 1012 87 10000 4.6 220 14:40 29.10.2020
6178 Rain 13 1012 93 10000 5.7 210 14:19 29.10.2020
6179 Rain 13 1013 87 10000 5.1 210 13:45 29.10.2020
6180 Rain 13 1013 87 10000 5.1 210 13:24 29.10.2020
6181 Rain 12 1013 87 8000 5.1 210 12:43 29.10.2020
6182 Rain 12 1013 82 10000 4.1 210 12:19 29.10.2020
6183 Rain 12 1014 87 10000 4.6 210 11:48 29.10.2020
6184 Rain 12 1014 87 10000 4.6 210 11:26 29.10.2020
6185 Rain 11 1014 81 10000 3.6 220 10:58 29.10.2020
6186 Rain 11 1014 81 10000 3.6 220 10:36 29.10.2020
6187 Rain 11 1014 81 10000 3.1 220 10:18 29.10.2020
6188 Rain 10 1014 81 10000 3.1 220 09:46 29.10.2020
6189 Rain 10 1014 76 10000 4.1 230 09:20 29.10.2020
6190 Rain 10 1013 76 10000 5.1 240 08:40 29.10.2020
6191 Clouds 10 1013 76 10000 5.1 240 08:19 29.10.2020
6192 Clouds 10 1012 76 10000 4.1 240 07:48 29.10.2020
6193 Clouds 9 1012 76 10000 4.1 240 06:58 29.10.2020
6194 Clouds 9 1012 76 10000 4.6 240 06:24 29.10.2020
6195 Clouds 9 1010 76 10000 5.7 240 04:48 29.10.2020
6196 Clear 8 1009 87 10000 0.45 266 02:18 29.10.2020
6197 Clouds 9 1008 88 10000 0.89 277 00:38 29.10.2020
6198 Clouds 9 1008 88 10000 0.45 261 00:18 29.10.2020
6199 Clouds 8 1007 89 10000 0.45 274 23:40 28.10.2020
6200 Clouds 8 1007 89 10000 0.89 253 23:19 28.10.2020
6201 Clouds 9 1005 81 10000 6.7 240 22:42 28.10.2020
6202 Clouds 9 1005 81 10000 6.7 240 22:23 28.10.2020
6203 Clouds 9 1004 81 10000 6.2 240 21:45 28.10.2020
6204 Clouds 9 1004 81 10000 6.2 240 21:25 28.10.2020
6205 Rain 9 1004 76 10000 5.1 240 20:44 28.10.2020
6206 Rain 9 1004 76 10000 5.1 240 20:23 28.10.2020
6207 Clouds 9 1003 81 10000 5.1 240 19:57 28.10.2020
6208 Clouds 9 1003 76 10000 4.1 240 19:39 28.10.2020
6209 Clouds 9 1003 81 10000 5.1 240 19:20 28.10.2020
6210 Clouds 9 1002 76 10000 3.6 240 18:43 28.10.2020
6211 Rain 9 1002 81 10000 4.6 230 18:20 28.10.2020
6212 Thunderstorm 9 1002 81 5000 9.3 250 17:43 28.10.2020
6213 Rain 11 1002 66 10000 6.2 240 17:21 28.10.2020
6214 Rain 12 1001 66 10000 7.7 230 16:47 28.10.2020
6215 Rain 12 1001 62 10000 8.2 230 16:29 28.10.2020
6216 Clouds 13 1002 62 10000 6.7 230 15:45 28.10.2020
6217 Rain 12 1002 77 10000 7.39 237 15:20 28.10.2020
6218 Clouds 13 1002 71 10000 6.2 230 14:50 28.10.2020
6219 Clouds 13 1002 71 10000 6.2 230 14:32 28.10.2020
6220 Clouds 13 1002 76 10000 7.15 237 13:59 28.10.2020
6221 Clouds 13 1003 80 10000 6.85 234 12:38 28.10.2020
6222 Clouds 12 1003 80 10000 6.82 236 12:20 28.10.2020
6223 Clouds 12 1003 81 10000 6.82 236 11:43 28.10.2020
6224 Clouds 12 1003 82 10000 0.45 268 11:22 28.10.2020
6225 Clouds 11 1002 71 10000 4.6 220 10:58 28.10.2020
6226 Clouds 11 1002 71 10000 4.6 220 10:40 28.10.2020
6227 Clear 10 1002 76 10000 3.6 210 10:22 28.10.2020
6228 Clear 10 1002 76 10000 3.6 210 09:38 28.10.2020
6229 Clear 10 1002 76 10000 3.6 210 09:20 28.10.2020
6230 Clear 9 1002 81 10000 2.6 220 08:47 28.10.2020
6231 Clear 9 1001 76 10000 3.1 220 08:25 28.10.2020
6232 Clear 9 1001 81 10000 3.1 220 07:48 28.10.2020
6233 Clouds 9 1001 81 10000 3.1 220 07:30 28.10.2020
6234 Clouds 9 1001 81 10000 3.6 220 06:41 28.10.2020
6235 Clouds 9 1001 76 10000 3.6 210 05:51 28.10.2020
6236 Clouds 9 1000 71 10000 5.7 230 04:54 28.10.2020
6237 Clear 9 1000 71 10000 6.2 230 04:25 28.10.2020
6238 Clear 9 1000 76 10000 3.6 240 02:26 28.10.2020
6239 Clear 9 1000 71 10000 4.1 240 01:49 28.10.2020
6240 Clear 9 1000 88 10000 4.86 233 23:57 27.10.2020
6241 Clouds 9 1000 71 10000 5.1 230 23:38 27.10.2020
6242 Clear 9 999 76 10000 4.6 240 23:20 27.10.2020
6243 Clouds 9 999 76 10000 4.6 240 22:42 27.10.2020
6244 Clouds 9 998 76 10000 4.1 240 22:19 27.10.2020
6245 Clouds 10 998 76 10000 3.6 240 21:56 27.10.2020
6246 Clouds 10 998 76 10000 3.6 240 21:37 27.10.2020
6247 Clouds 10 998 76 10000 3.6 240 21:37 27.10.2020
6248 Clouds 10 998 76 10000 3.6 240 21:37 27.10.2020
6249 Clear 10 997 76 10000 5.7 250 21:19 27.10.2020
6250 Clear 10 997 71 10000 7.2 250 20:44 27.10.2020
6251 Clear 10 996 76 10000 6.7 250 20:22 27.10.2020
6252 Clear 11 995 76 10000 5.1 250 19:39 27.10.2020
6253 Clouds 11 995 76 10000 5.1 250 19:21 27.10.2020
6254 Clouds 12 995 76 10000 6.2 250 18:59 27.10.2020
6255 Clouds 12 994 82 10000 4.6 240 18:40 27.10.2020
6256 Clouds 12 994 82 10000 4.6 240 18:40 27.10.2020
6257 Clouds 12 994 82 10000 4.6 240 18:40 27.10.2020
6258 Clouds 12 994 82 4400 8.2 250 18:20 27.10.2020
6259 Clouds 13 993 87 10000 4.6 220 17:44 27.10.2020
6260 Rain 13 993 87 10000 4.6 220 17:22 27.10.2020
6261 Rain 14 993 87 10000 6.2 200 16:57 27.10.2020
6262 Clouds 14 993 87 10000 5.7 190 16:39 27.10.2020
6263 Rain 14 993 87 10000 5.7 190 16:21 27.10.2020
6264 Clouds 13 994 87 8000 6.7 170 15:41 27.10.2020
6265 Clouds 13 995 87 10000 5.7 180 15:23 27.10.2020
6266 Clouds 12 995 82 9000 5.7 180 14:48 27.10.2020
6267 Rain 12 995 94 10000 7.33 182 14:29 27.10.2020
6268 Clouds 12 995 94 10000 7.33 182 13:56 27.10.2020
6269 Clouds 12 995 94 10000 7.33 182 13:56 27.10.2020
6270 Clouds 12 997 87 10000 4.6 180 13:25 27.10.2020
6271 Clouds 12 998 81 10000 5.1 170 12:43 27.10.2020
6272 Rain 11 999 87 10000 4.1 170 12:24 27.10.2020
6273 Clouds 11 999 87 10000 4.1 170 11:58 27.10.2020
6274 Clouds 11 999 81 10000 3.1 170 11:40 27.10.2020
6275 Clouds 10 1000 81 8000 3.6 200 11:20 27.10.2020
6276 Clouds 10 1000 92 10000 5.01 181 10:39 27.10.2020
6277 Clouds 10 1000 81 10000 2.1 170 10:19 27.10.2020
6278 Rain 9 1000 91 10000 3.76 207 09:28 27.10.2020
6279 Rain 9 1000 91 10000 3.76 207 08:58 27.10.2020
6280 Rain 9 1000 81 10000 2.1 230 08:30 27.10.2020
6281 Rain 8 1000 81 10000 2.1 230 07:53 27.10.2020
6282 Clouds 8 1000 87 10000 2.1 210 07:35 27.10.2020
6283 Clouds 8 1001 87 10000 2.6 230 06:54 27.10.2020
6284 Clouds 8 1001 92 10000 3.5 224 06:20 27.10.2020
6285 Clouds 7 1001 92 10000 3.5 224 05:45 27.10.2020
6286 Clear 7 1001 92 10000 3.37 239 05:24 27.10.2020
6287 Clear 8 1001 81 10000 4.1 240 03:20 27.10.2020
6288 Clear 8 1001 81 10000 4.1 250 01:22 27.10.2020
6289 Clear 8 1001 76 10000 5.1 240 00:42 27.10.2020
6290 Clear 9 1001 76 10000 4.1 250 23:39 26.10.2020
6291 Clear 9 1001 76 10000 3.6 240 23:18 26.10.2020
6292 Clear 9 1001 76 10000 4.1 240 22:44 26.10.2020
6293 Clear 9 1001 76 10000 4.6 240 22:19 26.10.2020
6294 Clear 9 1000 71 10000 3.6 240 21:41 26.10.2020
6295 Clear 9 1000 71 10000 3.6 240 21:19 26.10.2020
6296 Clear 10 1000 71 10000 3.6 240 20:55 26.10.2020
6297 Clear 10 1000 71 10000 4.6 240 20:37 26.10.2020
6298 Clear 10 1000 66 10000 3.6 230 20:18 26.10.2020
6299 Clear 10 999 66 10000 5.1 250 19:44 26.10.2020
6300 Clouds 11 999 66 10000 5.1 250 19:22 26.10.2020
6301 Clouds 11 998 71 10000 3.6 240 18:42 26.10.2020
6302 Clouds 11 998 71 10000 3.6 240 18:22 26.10.2020
6303 Clouds 12 998 66 10000 6.7 250 17:45 26.10.2020
6304 Clouds 12 998 66 10000 6.7 250 17:24 26.10.2020
6305 Clouds 12 998 62 10000 5.7 250 16:59 26.10.2020
6306 Clouds 12 997 66 10000 6.7 260 16:39 26.10.2020
6307 Rain 12 998 79 10000 5.51 271 16:19 26.10.2020
6308 Clouds 13 997 62 10000 7.2 250 15:41 26.10.2020
6309 Rain 13 997 62 10000 7.2 250 15:20 26.10.2020
6310 Rain 13 997 62 10000 7.2 250 15:20 26.10.2020
6311 Rain 13 997 62 10000 7.2 250 15:20 26.10.2020
6312 Rain 13 997 71 10000 7.2 250 14:52 26.10.2020
6313 Rain 13 997 71 10000 7.2 250 14:30 26.10.2020
6314 Clouds 13 997 66 10000 6.2 240 13:43 26.10.2020
6315 Clouds 13 997 66 10000 6.2 240 13:24 26.10.2020
6316 Clouds 12 997 71 10000 6.2 240 12:49 26.10.2020
6317 Clouds 12 997 71 10000 4.6 240 12:27 26.10.2020
6318 Clouds 11 997 71 10000 5.1 240 11:57 26.10.2020
6319 Clouds 11 997 71 10000 4.1 240 11:37 26.10.2020
6320 Clear 11 997 71 10000 4.6 230 11:19 26.10.2020
6321 Clear 11 997 76 10000 5.1 230 10:44 26.10.2020
6322 Clear 10 997 76 10000 4.1 230 10:25 26.10.2020
6323 Clear 9 997 76 10000 4.1 230 09:51 26.10.2020
6324 Clear 8 997 81 10000 4.1 230 09:26 26.10.2020
6325 Clear 8 996 87 10000 2.6 240 08:48 26.10.2020
6326 Clear 8 996 87 10000 2.6 240 08:22 26.10.2020
6327 Clear 7 996 87 10000 2.6 230 07:38 26.10.2020
6328 Clear 7 996 87 10000 2.1 230 07:18 26.10.2020
6329 Clear 8 996 81 10000 2.6 230 05:31 26.10.2020
6330 Clear 8 996 87 10000 2.6 230 04:19 26.10.2020
6331 Clear 8 996 81 10000 2.6 220 03:20 26.10.2020
6332 Clear 8 996 81 10000 3.1 210 03:20 26.10.2020
6333 Clear 8 996 81 10000 2.6 190 01:34 26.10.2020
6334 Clouds 9 997 81 10000 2.6 190 00:35 26.10.2020
6335 Clouds 9 997 81 10000 3.6 210 23:46 25.10.2020
6336 Clouds 9 997 76 10000 2.6 190 23:25 25.10.2020
6337 Clouds 9 997 76 10000 2.6 180 22:45 25.10.2020
6338 Clouds 9 997 76 10000 2.6 180 22:27 25.10.2020
6339 Clouds 9 997 76 10000 3.6 200 21:50 25.10.2020
6340 Clouds 9 997 81 10000 4.1 200 21:31 25.10.2020
6341 Clouds 9 997 76 10000 4.1 200 20:59 25.10.2020
6342 Clouds 9 996 76 10000 3.1 200 20:40 25.10.2020
6343 Rain 9 996 76 10000 3.1 200 20:22 25.10.2020
6344 Clouds 10 996 76 10000 4.1 200 19:55 25.10.2020
6345 Clouds 10 996 76 10000 4.1 200 19:37 25.10.2020
6346 Rain 10 996 76 10000 4.1 200 19:18 25.10.2020
6347 Clouds 10 996 66 10000 4.1 200 18:41 25.10.2020
6348 Rain 10 996 66 10000 4.1 200 18:41 25.10.2020
6349 Rain 10 996 71 10000 4.6 200 18:22 25.10.2020
6350 Clouds 11 996 71 10000 4.6 200 17:55 25.10.2020
6351 Clouds 11 996 76 10000 3.6 200 17:37 25.10.2020
6352 Clouds 11 996 76 10000 3.6 190 17:18 25.10.2020
6353 Clouds 11 996 76 10000 4.1 200 16:43 25.10.2020
6354 Clouds 11 996 76 10000 4.1 200 16:23 25.10.2020
6355 Clouds 12 996 71 10000 5.1 200 15:47 25.10.2020
6356 Clouds 12 996 71 10000 3.6 0 15:27 25.10.2020
6357 Clouds 11 996 71 10000 4.6 210 14:53 25.10.2020
6358 Clear 12 996 71 10000 3.6 200 14:29 25.10.2020
6359 Clear 12 997 76 10000 3.1 200 13:45 25.10.2020
6360 Clouds 11 997 76 10000 3.1 200 13:25 25.10.2020
6361 Clouds 11 997 81 10000 3.1 180 12:57 25.10.2020
6362 Clouds 11 997 76 10000 4.6 200 12:39 25.10.2020
6363 Clouds 11 997 76 10000 4.6 200 12:21 25.10.2020
6364 Rain 12 997 71 10000 4.6 200 11:42 25.10.2020
6365 Rain 11 997 76 10000 3.6 200 11:20 25.10.2020
6366 Rain 11 997 81 9000 5.1 230 10:47 25.10.2020
6367 Clouds 10 997 81 9000 5.1 230 10:26 25.10.2020
6368 Clouds 9 998 81 10000 3.6 200 09:55 25.10.2020
6369 Rain 9 997 81 4600 3.1 250 09:37 25.10.2020
6370 Rain 9 997 76 10000 3.6 200 09:18 25.10.2020
6371 Rain 9 997 87 10000 2.6 180 08:40 25.10.2020
6372 Rain 9 997 87 10000 2.6 180 08:22 25.10.2020
6373 Rain 9 996 81 10000 2.6 200 07:46 25.10.2020
6374 Clouds 9 997 81 10000 3.1 230 07:18 25.10.2020
6375 Clouds 9 997 87 10000 3.1 240 06:36 25.10.2020
6376 Clouds 9 996 76 10000 3.1 210 05:34 25.10.2020
6377 Clouds 9 996 76 10000 4.1 230 04:51 25.10.2020
6378 Clouds 11 995 87 10000 4.6 210 02:42 25.10.2020
6379 Clouds 11 995 81 10000 4.1 240 01:20 25.10.2020
6380 Rain 13 996 76 10000 4.6 240 00:40 25.10.2020
6381 Rain 13 994 87 10000 7.2 220 00:18 25.10.2020
6382 Rain 13 994 82 10000 6.7 210 23:43 24.10.2020
6383 Rain 13 994 82 10000 6.7 210 23:22 24.10.2020
6384 Rain 13 995 87 10000 6.7 200 22:42 24.10.2020
6385 Rain 14 995 87 10000 6.7 200 22:23 24.10.2020
6386 Rain 13 995 87 10000 6.2 220 21:57 24.10.2020
6387 Rain 14 995 87 750 9.8 210 21:38 24.10.2020
6388 Rain 14 996 82 8000 8.7 200 21:19 24.10.2020
6389 Rain 15 996 82 8000 9.8 200 20:45 24.10.2020
6390 Rain 15 996 82 8000 9.8 200 20:22 24.10.2020
6391 Rain 16 997 72 10000 7.7 200 19:45 24.10.2020
6392 Rain 16 997 72 10000 7.7 200 19:26 24.10.2020
6393 Rain 16 997 72 10000 8.7 200 18:55 24.10.2020
6394 Rain 15 998 82 10000 8.7 200 18:36 24.10.2020
6395 Clouds 15 999 82 9000 7.7 210 17:57 24.10.2020
6396 Clouds 15 1000 82 10000 6.7 200 17:37 24.10.2020
6397 Clouds 15 1000 82 10000 7.2 200 17:19 24.10.2020
6398 Clouds 15 1001 87 5000 6.2 190 16:41 24.10.2020
6399 Rain 15 1001 87 5000 6.2 190 16:18 24.10.2020
6400 Clouds 15 1002 77 10000 6.7 190 15:39 24.10.2020
6401 Clouds 15 1002 72 10000 6.2 200 15:19 24.10.2020
6402 Rain 15 1003 72 10000 5.7 200 14:46 24.10.2020
6403 Clouds 15 1003 72 10000 5.7 200 14:27 24.10.2020
6404 Clouds 15 1004 82 10000 5.1 200 13:45 24.10.2020
6405 Clouds 15 1004 82 10000 5.1 200 13:22 24.10.2020
6406 Clouds 14 1004 77 10000 5.7 210 12:42 24.10.2020
6407 Clouds 14 1004 77 10000 5.7 210 12:21 24.10.2020
6408 Clouds 14 1004 77 10000 5.7 210 12:21 24.10.2020
6409 Clouds 14 1005 76 10000 5.7 200 11:51 24.10.2020
6410 Clouds 13 1005 76 10000 6.2 210 11:32 24.10.2020
6411 Clouds 13 1005 76 10000 4.1 180 10:52 24.10.2020
6412 Clouds 13 1005 76 10000 4.1 180 10:33 24.10.2020
6413 Clouds 12 1005 71 10000 3.6 200 09:50 24.10.2020
6414 Clouds 11 1006 76 10000 4.6 200 09:32 24.10.2020
6415 Clouds 11 1006 76 10000 4.6 210 08:59 24.10.2020
6416 Clouds 11 1007 81 10000 4.6 210 08:19 24.10.2020
6417 Clouds 11 1007 81 10000 4.6 210 07:54 24.10.2020
6418 Haze 10 1007 81 5000 3.1 200 07:25 24.10.2020
6419 Clouds 10 1007 76 10000 2.6 170 06:53 24.10.2020
6420 Clouds 10 1007 76 10000 2.6 170 06:53 24.10.2020
6421 Clouds 10 1007 76 10000 3.1 170 06:23 24.10.2020
6422 Clouds 9 1010 76 10000 1 0 03:35 24.10.2020
6423 Clouds 9 1010 81 10000 3.1 230 01:40 24.10.2020
6424 Clouds 9 1010 71 10000 3.1 250 00:42 24.10.2020
6425 Clouds 9 1010 71 10000 3.1 250 00:21 24.10.2020
6426 Clouds 10 1010 71 10000 3.6 250 23:49 23.10.2020
6427 Clouds 10 1010 62 10000 5.7 260 23:26 23.10.2020
6428 Clouds 10 1010 71 10000 5.7 250 22:58 23.10.2020
6429 Clouds 10 1010 71 10000 5.7 250 22:58 23.10.2020
6430 Clouds 11 1010 76 10000 5.7 260 22:40 23.10.2020
6431 Clouds 11 1010 76 10000 5.7 260 22:20 23.10.2020
6432 Clouds 12 1009 82 10000 4.1 250 21:50 23.10.2020
6433 Clouds 12 1009 82 10000 4.1 250 21:25 23.10.2020
6434 Clouds 12 1009 87 10000 4.1 240 20:42 23.10.2020
6435 Clouds 12 1009 87 10000 4.1 240 20:23 23.10.2020
6436 Clouds 12 1008 87 9000 4.1 240 19:58 23.10.2020
6437 Clouds 13 1008 76 10000 5.1 230 19:33 23.10.2020
6438 Clouds 13 1008 67 10000 5.7 250 18:58 23.10.2020
6439 Clouds 13 1007 67 10000 7.7 260 18:39 23.10.2020
6440 Clouds 14 1007 63 10000 5.7 250 18:19 23.10.2020
6441 Clouds 14 1008 80 10000 5.43 242 17:43 23.10.2020
6442 Clouds 15 1007 67 10000 6.2 230 17:20 23.10.2020
6443 Clouds 15 1006 72 10000 5.7 230 16:46 23.10.2020
6444 Clouds 15 1006 72 10000 5.7 230 16:26 23.10.2020
6445 Clouds 15 1006 72 10000 5.1 240 15:47 23.10.2020
6446 Clouds 15 1007 82 10000 5.7 230 15:24 23.10.2020
6447 Clouds 15 1007 82 10000 5.7 230 14:57 23.10.2020
6448 Clouds 15 1007 82 10000 6.2 230 14:39 23.10.2020
6449 Rain 14 1007 77 10000 4.6 220 14:20 23.10.2020
6450 Clouds 15 1007 82 10000 5.1 230 13:38 23.10.2020
6451 Clouds 15 1007 72 10000 5.7 210 13:20 23.10.2020
6452 Rain 15 1007 72 10000 5.7 210 12:48 23.10.2020
6453 Clouds 15 1007 72 10000 4.6 220 12:27 23.10.2020
6454 Clouds 15 1008 82 10000 4.1 210 11:48 23.10.2020
6455 Clouds 14 1008 82 10000 4.1 210 11:22 23.10.2020
6456 Clear 13 1008 87 10000 3.1 220 10:47 23.10.2020
6457 Clouds 12 1008 87 10000 2.6 200 10:25 23.10.2020
6458 Clouds 12 1008 87 10000 2.6 200 09:47 23.10.2020
6459 Clear 12 1007 87 10000 4.1 210 09:27 23.10.2020
6460 Clear 12 1007 87 10000 4.1 210 08:53 23.10.2020
6461 Clear 12 1008 93 10000 3.1 200 08:35 23.10.2020
6462 Clouds 12 1008 93 10000 2.1 170 07:47 23.10.2020
6463 Clouds 12 1008 93 10000 2.1 170 07:26 23.10.2020
6464 Clouds 11 1008 93 10000 1 0 06:40 23.10.2020
6465 Clouds 11 1008 93 10000 1.5 90 05:59 23.10.2020
6466 Clear 11 1010 87 10000 1.5 0 02:54 23.10.2020
6467 Clear 11 1011 95 10000 2.18 201 02:26 23.10.2020
6468 Clear 11 1010 87 10000 0.5 0 00:48 23.10.2020
6469 Clear 11 1010 87 10000 0.5 0 23:54 22.10.2020
6470 Clear 11 1011 87 10000 1 0 23:31 22.10.2020
6471 Clouds 12 1011 82 10000 2.6 250 22:56 22.10.2020
6472 Clouds 12 1011 82 10000 3.1 260 22:38 22.10.2020
6473 Clear 12 1010 82 10000 2.1 230 22:19 22.10.2020
6474 Clear 12 1010 82 10000 2.6 220 21:43 22.10.2020
6475 Clear 12 1010 82 10000 2.6 220 21:24 22.10.2020
6476 Clouds 12 1010 87 10000 2.6 240 20:58 22.10.2020
6477 Clouds 12 1010 82 10000 2.6 220 20:39 22.10.2020
6478 Clouds 12 1009 76 10000 2.6 240 20:18 22.10.2020
6479 Clouds 13 1009 76 10000 3.6 240 19:41 22.10.2020
6480 Clear 13 1009 72 10000 3.6 260 19:20 22.10.2020
6481 Clear 14 1009 67 10000 3.1 260 18:43 22.10.2020
6482 Clouds 14 1009 63 10000 3.1 240 18:21 22.10.2020
6483 Clouds 15 1009 67 10000 4.6 260 17:47 22.10.2020
6484 Clouds 15 1009 67 10000 4.6 260 17:26 22.10.2020
6485 Clouds 15 1008 67 10000 5.7 260 16:58 22.10.2020
6486 Clouds 16 1008 59 10000 5.7 250 16:40 22.10.2020
6487 Clouds 16 1008 59 10000 5.7 250 16:22 22.10.2020
6488 Clouds 16 1008 55 10000 7.2 250 15:44 22.10.2020
6489 Clouds 16 1008 55 10000 7.2 250 15:25 22.10.2020
6490 Clouds 17 1008 59 10000 6.2 240 14:49 22.10.2020
6491 Clouds 16 1008 67 10000 5.1 230 14:25 22.10.2020
6492 Clouds 15 1008 72 10000 6.2 250 13:49 22.10.2020
6493 Clouds 15 1008 72 10000 6.2 250 13:24 22.10.2020
6494 Clouds 15 1008 72 10000 7.7 240 12:54 22.10.2020
6495 Clouds 14 1008 76 10000 4.6 230 12:24 22.10.2020
6496 Clouds 14 1008 76 10000 4.6 220 11:50 22.10.2020
6497 Clouds 13 1008 76 10000 3.6 220 11:20 22.10.2020
6498 Clouds 13 1008 76 10000 3.6 220 10:52 22.10.2020
6499 Clouds 13 1007 82 10000 3.6 220 10:29 22.10.2020
6500 Clouds 13 1007 82 10000 3.1 220 09:56 22.10.2020
6501 Clouds 12 1007 82 10000 4.6 210 09:38 22.10.2020
6502 Clouds 12 1006 82 10000 4.1 220 08:56 22.10.2020
6503 Clouds 12 1006 82 10000 4.6 210 08:37 22.10.2020
6504 Clouds 12 1006 82 10000 4.1 200 08:18 22.10.2020
6505 Clouds 12 1006 82 10000 4.6 210 07:42 22.10.2020
6506 Clouds 12 1006 82 10000 4.6 210 06:59 22.10.2020
6507 Clouds 12 1005 82 10000 3.6 210 06:36 22.10.2020
6508 Clear 12 1005 82 10000 3.6 220 05:42 22.10.2020
6509 Clear 12 1005 82 10000 3.6 220 05:20 22.10.2020
6510 Clouds 13 1004 76 10000 4.6 210 01:57 22.10.2020
6511 Clouds 13 1003 77 10000 5.7 220 00:27 22.10.2020
6512 Clouds 14 1003 82 10000 4.6 220 23:58 21.10.2020
6513 Clouds 14 1003 82 10000 2.6 220 23:37 21.10.2020
6514 Clouds 14 1002 82 10000 3.1 220 22:58 21.10.2020
6515 Clouds 14 1002 82 10000 3.1 220 22:37 21.10.2020
6516 Clouds 14 1002 82 10000 3.6 200 22:18 21.10.2020
6517 Clouds 14 1001 82 10000 3.1 210 21:44 21.10.2020
6518 Clouds 14 1002 94 10000 3.4 210 21:19 21.10.2020
6519 Clouds 14 1002 94 10000 3.4 210 20:48 21.10.2020
6520 Clouds 14 1000 87 10000 4.6 240 20:19 21.10.2020
6521 Clouds 14 1000 87 10000 4.6 240 19:59 21.10.2020
6522 Clouds 14 1001 94 10000 3.77 216 19:39 21.10.2020
6523 Clouds 14 998 87 10000 6.2 250 19:19 21.10.2020
6524 Clouds 14 997 87 10000 6.7 260 18:47 21.10.2020
6525 Clouds 14 997 87 10000 6.7 260 18:26 21.10.2020
6526 Clouds 15 994 93 10000 4.6 240 17:47 21.10.2020
6527 Rain 15 997 81 10000 7.8 263 17:21 21.10.2020
6528 Clouds 15 994 88 10000 4.1 230 16:57 21.10.2020
6529 Rain 16 994 88 10000 4.1 230 16:36 21.10.2020
6530 Rain 16 993 88 10000 3.6 230 16:18 21.10.2020
6531 Clouds 16 993 87 10000 3.6 250 15:44 21.10.2020
6532 Rain 15 992 93 10000 4.6 230 15:21 21.10.2020
6533 Clouds 15 992 93 9000 5.1 240 14:48 21.10.2020
6534 Rain 15 991 93 10000 3.6 240 14:28 21.10.2020
6535 Rain 15 991 93 6000 2.1 270 13:47 21.10.2020
6536 Rain 15 991 93 1900 0.5 0 13:27 21.10.2020
6537 Rain 15 991 93 1900 2.1 90 12:57 21.10.2020
6538 Rain 15 991 93 2600 2.6 90 12:37 21.10.2020
6539 Rain 14 991 93 2600 2.6 90 12:19 21.10.2020
6540 Rain 14 991 100 10000 2.6 80 11:41 21.10.2020
6541 Rain 14 992 100 10000 2.6 90 11:20 21.10.2020
6542 Rain 14 992 100 7000 2.6 100 10:47 21.10.2020
6543 Rain 14 993 100 8000 3.1 100 10:26 21.10.2020
6544 Rain 14 993 100 6000 4.1 100 09:57 21.10.2020
6545 Rain 14 993 100 6000 4.1 100 09:34 21.10.2020
6546 Rain 14 994 100 7000 4.6 90 08:56 21.10.2020
6547 Rain 14 994 100 7000 4.6 90 08:38 21.10.2020
6548 Rain 14 995 93 7000 4.6 100 08:19 21.10.2020
6549 Rain 14 995 93 4200 4.1 90 07:37 21.10.2020
6550 Rain 14 996 93 7000 3.6 80 06:55 21.10.2020
6551 Rain 15 997 93 8000 2.6 70 06:32 21.10.2020
6552 Rain 15 998 87 10000 1.5 110 04:47 21.10.2020
6553 Clouds 15 1000 82 10000 3.6 150 02:27 21.10.2020
6554 Clouds 15 1000 82 10000 4.1 150 23:55 20.10.2020
6555 Clouds 15 1000 82 10000 3.1 160 23:20 20.10.2020
6556 Clouds 15 1001 82 10000 4.1 170 22:37 20.10.2020
6557 Clouds 15 1001 82 10000 4.1 170 22:18 20.10.2020
6558 Clouds 15 1001 82 10000 3.6 170 21:47 20.10.2020
6559 Clouds 15 1001 82 10000 2.6 170 21:18 20.10.2020
6560 Clouds 15 1001 82 10000 3.1 170 20:42 20.10.2020
6561 Clouds 15 1001 77 10000 3.6 190 20:23 20.10.2020
6562 Clouds 16 1001 72 10000 3.1 190 19:45 20.10.2020
6563 Clouds 16 1001 72 10000 4.1 200 19:22 20.10.2020
6564 Clouds 16 1001 68 10000 5.1 200 18:57 20.10.2020
6565 Clouds 17 1001 68 10000 5.7 200 18:37 20.10.2020
6566 Clouds 18 1001 63 10000 6.7 210 17:51 20.10.2020
6567 Clouds 18 1002 63 10000 5.7 210 17:32 20.10.2020
6568 Clouds 18 1002 63 10000 4.6 200 16:59 20.10.2020
6569 Clouds 18 1002 63 10000 4.6 200 16:40 20.10.2020
6570 Clouds 18 1002 59 10000 6.2 220 16:22 20.10.2020
6571 Clouds 18 1001 63 10000 6.2 220 15:46 20.10.2020
6572 Clouds 18 1002 63 10000 8.2 210 15:27 20.10.2020
6573 Clouds 18 1001 68 10000 6.7 200 14:45 20.10.2020
6574 Clouds 18 1002 68 10000 7.2 210 14:25 20.10.2020
6575 Clouds 18 1002 68 10000 5.7 200 13:58 20.10.2020
6576 Clouds 18 1002 68 10000 5.7 200 13:40 20.10.2020
6577 Clouds 18 1002 68 10000 6.2 200 13:19 20.10.2020
6578 Clouds 17 1002 68 10000 5.1 220 12:49 20.10.2020
6579 Clouds 17 1002 77 10000 5.1 200 12:30 20.10.2020
6580 Clouds 17 1002 77 10000 5.1 200 12:30 20.10.2020
6581 Clouds 16 1002 72 10000 4.6 200 11:47 20.10.2020
6582 Clouds 16 1001 77 10000 4.1 170 11:28 20.10.2020
6583 Clouds 15 1002 77 10000 4.1 170 10:46 20.10.2020
6584 Clouds 15 1002 82 10000 4.1 170 10:25 20.10.2020
6585 Clouds 14 1002 77 10000 3.6 170 09:44 20.10.2020
6586 Clouds 14 1002 77 10000 3.6 170 09:44 20.10.2020
6587 Clouds 14 1001 77 10000 4.6 170 09:20 20.10.2020
6588 Clouds 14 1001 77 10000 4.6 170 09:20 20.10.2020
6589 Clouds 14 1001 77 10000 5.1 170 08:40 20.10.2020
6590 Clouds 14 1001 87 10000 3.6 180 08:21 20.10.2020
6591 Clouds 13 1001 82 10000 3.6 170 07:44 20.10.2020
6592 Clouds 13 1001 82 10000 4.1 180 07:22 20.10.2020
6593 Rain 13 1002 76 10000 4.1 150 06:20 20.10.2020
6594 Rain 13 1003 67 10000 4.1 160 04:51 20.10.2020
6595 Clouds 12 1005 66 10000 3.6 150 02:31 20.10.2020
6596 Clouds 12 1006 66 10000 4.6 140 01:30 20.10.2020
6597 Clouds 12 1007 66 10000 4.6 150 00:52 20.10.2020
6598 Clouds 12 1007 62 10000 3.6 140 00:29 20.10.2020
6599 Clouds 12 1007 62 10000 4.6 130 23:54 19.10.2020
6600 Clouds 13 1008 62 10000 3.6 130 23:29 19.10.2020
6601 Clouds 13 1009 66 10000 3.6 120 22:59 19.10.2020
6602 Clouds 12 1009 62 10000 4.6 130 22:30 19.10.2020
6603 Clouds 12 1009 62 10000 5.7 130 21:58 19.10.2020
6604 Clouds 12 1009 62 10000 5.7 130 21:39 19.10.2020
6605 Clouds 12 1010 62 10000 4.6 140 21:19 19.10.2020
6606 Clouds 12 1010 62 10000 5.1 130 20:44 19.10.2020
6607 Clouds 12 1011 62 10000 4.1 130 20:26 19.10.2020
6608 Clouds 13 1011 62 10000 5.1 140 19:46 19.10.2020
6609 Clouds 13 1011 73 10000 5.18 158 19:20 19.10.2020
6610 Clouds 13 1011 73 10000 5.18 158 18:51 19.10.2020
6611 Clouds 13 1012 54 10000 5.7 160 18:31 19.10.2020
6612 Clouds 14 1012 67 10000 5.09 158 17:49 19.10.2020
6613 Clouds 14 1013 51 10000 4.6 170 17:29 19.10.2020
6614 Clouds 14 1014 51 10000 4.6 170 16:55 19.10.2020
6615 Clouds 15 1014 48 10000 6.2 160 16:30 19.10.2020
6616 Clouds 15 1014 64 10000 0.45 43 15:59 19.10.2020
6617 Clouds 15 1014 63 10000 5.22 171 15:37 19.10.2020
6618 Clouds 15 1014 57 10000 2.68 179 15:19 19.10.2020
6619 Clouds 15 1015 58 10000 3.13 196 14:47 19.10.2020
6620 Clouds 15 1016 66 10000 5.25 178 14:24 19.10.2020
6621 Clouds 15 1016 69 10000 5.04 181 13:48 19.10.2020
6622 Clouds 15 1017 72 10000 5.09 180 13:30 19.10.2020
6623 Clouds 14 1017 78 10000 5.09 180 12:46 19.10.2020
6624 Clouds 14 1018 79 10000 5.14 181 12:28 19.10.2020
6625 Clouds 13 1018 76 10000 3.6 160 11:51 19.10.2020
6626 Clouds 13 1018 76 10000 3.6 160 11:24 19.10.2020
6627 Clouds 12 1018 76 10000 3.6 160 10:55 19.10.2020
6628 Clouds 12 1018 76 10000 3.6 140 10:36 19.10.2020
6629 Clouds 11 1018 81 10000 3.1 140 10:18 19.10.2020
6630 Clouds 10 1018 89 10000 3.45 168 09:42 19.10.2020
6631 Clouds 10 1019 90 10000 2.75 163 09:18 19.10.2020
6632 Clouds 10 1019 81 10000 1.5 0 08:47 19.10.2020
6633 Clouds 10 1019 81 10000 1.5 0 08:47 19.10.2020
6634 Clouds 10 1019 81 10000 1.5 0 08:21 19.10.2020
6635 Clouds 9 1019 85 10000 2.08 166 07:21 19.10.2020
6636 Clouds 9 1020 76 10000 2.1 100 06:51 19.10.2020
6637 Clouds 10 1020 76 10000 1 0 05:42 19.10.2020
6638 Clouds 10 1021 76 10000 3.1 200 03:47 19.10.2020
6639 Clouds 10 1022 76 10000 2.1 230 01:59 19.10.2020
6640 Clouds 10 1022 87 10000 2.02 193 00:44 19.10.2020
6641 Clouds 10 1022 87 10000 1.41 180 00:19 19.10.2020
6642 Clouds 10 1023 66 10000 1 0 23:43 18.10.2020
6643 Clouds 10 1023 66 10000 1 0 23:21 18.10.2020
6644 Clouds 11 1023 66 10000 1 0 22:46 18.10.2020
6645 Clouds 11 1023 62 10000 1.5 0 22:21 18.10.2020
6646 Clouds 11 1023 62 10000 1.5 0 21:50 18.10.2020
6647 Clouds 11 1023 66 10000 0.5 0 21:30 18.10.2020
6648 Clouds 11 1023 66 10000 1 0 20:58 18.10.2020
6649 Clouds 11 1023 66 10000 1 130 20:39 18.10.2020
6650 Clouds 11 1023 62 10000 1 120 20:19 18.10.2020
6651 Clouds 11 1023 81 10000 0.36 148 19:42 18.10.2020
6652 Clouds 11 1023 80 10000 0.44 100 19:20 18.10.2020
6653 Clouds 12 1023 77 10000 0.44 100 18:48 18.10.2020
6654 Clouds 12 1023 74 10000 0.84 45 18:25 18.10.2020
6655 Clouds 12 1023 66 10000 0.5 0 17:43 18.10.2020
6656 Clouds 13 1023 66 10000 0.5 0 17:25 18.10.2020
6657 Clouds 13 1023 71 10000 1.5 210 16:45 18.10.2020
6658 Clouds 13 1023 71 10000 1.5 210 16:26 18.10.2020
6659 Clouds 13 1023 71 10000 1 0 15:57 18.10.2020
6660 Clouds 13 1024 76 10000 2.1 250 15:39 18.10.2020
6661 Clouds 13 1024 71 10000 1.5 0 15:19 18.10.2020
6662 Clouds 13 1024 71 10000 1.5 0 14:52 18.10.2020
6663 Clouds 12 1025 76 10000 2.6 240 14:28 18.10.2020
6664 Clouds 12 1025 76 10000 2.6 240 13:56 18.10.2020
6665 Clouds 12 1025 76 10000 3.1 250 13:37 18.10.2020
6666 Clouds 12 1025 76 10000 1 0 13:18 18.10.2020
6667 Clouds 11 1025 76 10000 0.5 0 12:41 18.10.2020
6668 Clouds 11 1024 81 10000 1.5 0 12:21 18.10.2020
6669 Clouds 10 1024 87 10000 1.5 270 11:41 18.10.2020
6670 Clouds 10 1024 87 10000 1.5 270 11:22 18.10.2020
6671 Clouds 10 1024 93 9000 1.5 0 10:41 18.10.2020
6672 Clouds 9 1024 93 9000 1.5 0 10:21 18.10.2020
6673 Clouds 10 1024 93 7000 1.5 0 09:51 18.10.2020
6674 Clear 9 1023 87 7000 1.5 0 09:24 18.10.2020
6675 Clear 9 1023 87 7000 1.5 0 08:58 18.10.2020
6676 Clouds 9 1023 87 7000 1.5 290 08:38 18.10.2020
6677 Clouds 9 1023 87 7000 1.5 300 08:20 18.10.2020
6678 Clouds 9 1023 87 8000 1.5 0 07:30 18.10.2020
6679 Clouds 10 1023 87 8000 2.1 300 05:33 18.10.2020
6680 Clouds 10 1023 76 10000 1.5 280 02:56 18.10.2020
6681 Clouds 10 1023 76 10000 1.5 280 02:56 18.10.2020
6682 Cloud